<?xml version="1.0" encoding="UTF-8" standalone="no" ?>
<gpx xmlns="http://www.topografix.com/GPX/1/1" xmlns:xsi="http://www.w3.org/2001/XMLSchema-instance" xsi:schemaLocation="http://www.topografix.com/GPX/1/1 http://www.topografix.com/GPX/1/1/gpx.xsd" version="1.1" creator="VisuGPX - https://www.visugpx.com">
  <metadata>
    <name>Edirne-Mostar</name>
  </metadata>
  <trk>
    <name><![CDATA[Tour d'Europe: étape 647]]></name>
    <extensions>
      <line xmlns="http://www.topografix.com/GPX/gpx_style/0/2">
        <color>888800</color>
        <width>4</width>
      </line>
    </extensions>
    <trkseg>
      <trkpt lat="42.27188" lon="23.1409">
        <ele>596.075042</ele>
        <time>2022-04-06T07:24:12.466Z</time>
      </trkpt>
      <trkpt lat="42.27135" lon="23.14048">
        <ele>596.075042</ele>
        <time>2022-04-06T07:24:15.967Z</time>
      </trkpt>
      <trkpt lat="42.27119" lon="23.14028">
        <ele>596.075042</ele>
        <time>2022-04-06T07:24:18.916Z</time>
      </trkpt>
      <trkpt lat="42.27121" lon="23.14014">
        <ele>596.111145</ele>
        <time>2022-04-06T07:24:24.876Z</time>
      </trkpt>
      <trkpt lat="42.27124" lon="23.14002">
        <ele>596.208715</ele>
        <time>2022-04-06T07:24:28.872Z</time>
      </trkpt>
      <trkpt lat="42.27129" lon="23.1399">
        <ele>596.312553</ele>
        <time>2022-04-06T07:24:32.870Z</time>
      </trkpt>
      <trkpt lat="42.27133" lon="23.13976">
        <ele>596.423758</ele>
        <time>2022-04-06T07:24:36.905Z</time>
      </trkpt>
      <trkpt lat="42.27135" lon="23.13963">
        <ele>596.526579</ele>
        <time>2022-04-06T07:24:39.889Z</time>
      </trkpt>
      <trkpt lat="42.27139" lon="23.1395">
        <ele>596.631797</ele>
        <time>2022-04-06T07:24:42.886Z</time>
      </trkpt>
      <trkpt lat="42.27143" lon="23.13937">
        <ele>596.737622</ele>
        <time>2022-04-06T07:24:45.898Z</time>
      </trkpt>
      <trkpt lat="42.27147" lon="23.13923">
        <ele>596.847422</ele>
        <time>2022-04-06T07:24:48.907Z</time>
      </trkpt>
      <trkpt lat="42.27151" lon="23.13907">
        <ele>596.974889</ele>
        <time>2022-04-06T07:24:51.902Z</time>
      </trkpt>
      <trkpt lat="42.27156" lon="23.13892">
        <ele>597.103561</ele>
        <time>2022-04-06T07:24:54.899Z</time>
      </trkpt>
      <trkpt lat="42.27161" lon="23.13877">
        <ele>597.225495</ele>
        <time>2022-04-06T07:24:57.881Z</time>
      </trkpt>
      <trkpt lat="42.27165" lon="23.13862">
        <ele>597.343402</ele>
        <time>2022-04-06T07:25:00.890Z</time>
      </trkpt>
      <trkpt lat="42.2717" lon="23.13848">
        <ele>597.462718</ele>
        <time>2022-04-06T07:25:03.900Z</time>
      </trkpt>
      <trkpt lat="42.27174" lon="23.13833">
        <ele>597.581484</ele>
        <time>2022-04-06T07:25:06.908Z</time>
      </trkpt>
      <trkpt lat="42.2718" lon="23.13817">
        <ele>597.717991</ele>
        <time>2022-04-06T07:25:09.902Z</time>
      </trkpt>
      <trkpt lat="42.27185" lon="23.138">
        <ele>597.852711</ele>
        <time>2022-04-06T07:25:12.906Z</time>
      </trkpt>
      <trkpt lat="42.2719" lon="23.13784">
        <ele>597.81257</ele>
        <time>2022-04-06T07:25:15.902Z</time>
      </trkpt>
      <trkpt lat="42.27194" lon="23.13768">
        <ele>597.670455</ele>
        <time>2022-04-06T07:25:18.897Z</time>
      </trkpt>
      <trkpt lat="42.27197" lon="23.13753">
        <ele>597.532574</ele>
        <time>2022-04-06T07:25:21.899Z</time>
      </trkpt>
      <trkpt lat="42.27202" lon="23.13738">
        <ele>597.390949</ele>
        <time>2022-04-06T07:25:25.885Z</time>
      </trkpt>
      <trkpt lat="42.27208" lon="23.13725">
        <ele>597.255426</ele>
        <time>2022-04-06T07:25:28.907Z</time>
      </trkpt>
      <trkpt lat="42.27213" lon="23.13715">
        <ele>597.146144</ele>
        <time>2022-04-06T07:25:30.905Z</time>
      </trkpt>
      <trkpt lat="42.27222" lon="23.13702">
        <ele>597.002643</ele>
        <time>2022-04-06T07:25:33.897Z</time>
      </trkpt>
      <trkpt lat="42.27228" lon="23.13691">
        <ele>596.87665</ele>
        <time>2022-04-06T07:25:36.897Z</time>
      </trkpt>
      <trkpt lat="42.27237" lon="23.13682">
        <ele>596.751026</ele>
        <time>2022-04-06T07:25:39.921Z</time>
      </trkpt>
      <trkpt lat="42.27245" lon="23.13671">
        <ele>596.618294</ele>
        <time>2022-04-06T07:25:42.915Z</time>
      </trkpt>
      <trkpt lat="42.27251" lon="23.13657">
        <ele>596.476171</ele>
        <time>2022-04-06T07:25:45.889Z</time>
      </trkpt>
      <trkpt lat="42.27258" lon="23.13645">
        <ele>596.345999</ele>
        <time>2022-04-06T07:25:48.897Z</time>
      </trkpt>
      <trkpt lat="42.27266" lon="23.13635">
        <ele>596.220662</ele>
        <time>2022-04-06T07:25:51.912Z</time>
      </trkpt>
      <trkpt lat="42.27272" lon="23.13621">
        <ele>596.073994</ele>
        <time>2022-04-06T07:25:55.905Z</time>
      </trkpt>
      <trkpt lat="42.27277" lon="23.13607">
        <ele>595.942239</ele>
        <time>2022-04-06T07:25:58.912Z</time>
      </trkpt>
      <trkpt lat="42.27281" lon="23.13595">
        <ele>595.824943</ele>
        <time>2022-04-06T07:26:01.909Z</time>
      </trkpt>
      <trkpt lat="42.27285" lon="23.13582">
        <ele>595.100922</ele>
        <time>2022-04-06T07:26:04.884Z</time>
      </trkpt>
      <trkpt lat="42.27289" lon="23.13568">
        <ele>594.151664</ele>
        <time>2022-04-06T07:26:07.899Z</time>
      </trkpt>
      <trkpt lat="42.27293" lon="23.13553">
        <ele>593.16992</ele>
        <time>2022-04-06T07:26:10.905Z</time>
      </trkpt>
      <trkpt lat="42.27297" lon="23.13538">
        <ele>592.160907</ele>
        <time>2022-04-06T07:26:13.904Z</time>
      </trkpt>
      <trkpt lat="42.27298" lon="23.13523">
        <ele>591.165702</ele>
        <time>2022-04-06T07:26:16.892Z</time>
      </trkpt>
      <trkpt lat="42.27298" lon="23.13508">
        <ele>590.22435</ele>
        <time>2022-04-06T07:26:19.900Z</time>
      </trkpt>
      <trkpt lat="42.27298" lon="23.13494">
        <ele>589.319197</ele>
        <time>2022-04-06T07:26:22.907Z</time>
      </trkpt>
      <trkpt lat="42.27297" lon="23.1348">
        <ele>588.411111</ele>
        <time>2022-04-06T07:26:25.926Z</time>
      </trkpt>
      <trkpt lat="42.27297" lon="23.13465">
        <ele>587.462464</ele>
        <time>2022-04-06T07:26:28.903Z</time>
      </trkpt>
      <trkpt lat="42.27295" lon="23.1345">
        <ele>586.5198</ele>
        <time>2022-04-06T07:26:31.918Z</time>
      </trkpt>
      <trkpt lat="42.27292" lon="23.13438">
        <ele>585.699603</ele>
        <time>2022-04-06T07:26:34.908Z</time>
      </trkpt>
      <trkpt lat="42.2729" lon="23.13422">
        <ele>584.662942</ele>
        <time>2022-04-06T07:26:37.903Z</time>
      </trkpt>
      <trkpt lat="42.27288" lon="23.13405">
        <ele>583.565571</ele>
        <time>2022-04-06T07:26:40.908Z</time>
      </trkpt>
      <trkpt lat="42.27286" lon="23.13391">
        <ele>582.669505</ele>
        <time>2022-04-06T07:26:43.908Z</time>
      </trkpt>
      <trkpt lat="42.27289" lon="23.13377">
        <ele>581.738754</ele>
        <time>2022-04-06T07:26:46.923Z</time>
      </trkpt>
      <trkpt lat="42.27291" lon="23.13362">
        <ele>580.79601</ele>
        <time>2022-04-06T07:26:49.910Z</time>
      </trkpt>
      <trkpt lat="42.27294" lon="23.13349">
        <ele>579.991145</ele>
        <time>2022-04-06T07:26:52.900Z</time>
      </trkpt>
      <trkpt lat="42.27296" lon="23.13337">
        <ele>579.25778</ele>
        <time>2022-04-06T07:26:55.911Z</time>
      </trkpt>
      <trkpt lat="42.27299" lon="23.13322">
        <ele>578.376635</ele>
        <time>2022-04-06T07:26:58.888Z</time>
      </trkpt>
      <trkpt lat="42.27302" lon="23.13307">
        <ele>577.437542</ele>
        <time>2022-04-06T07:27:01.892Z</time>
      </trkpt>
      <trkpt lat="42.27306" lon="23.13292">
        <ele>576.533876</ele>
        <time>2022-04-06T07:27:04.898Z</time>
      </trkpt>
      <trkpt lat="42.2731" lon="23.1328">
        <ele>575.774036</ele>
        <time>2022-04-06T07:27:07.883Z</time>
      </trkpt>
      <trkpt lat="42.27313" lon="23.13265">
        <ele>574.859345</ele>
        <time>2022-04-06T07:27:10.941Z</time>
      </trkpt>
      <trkpt lat="42.27317" lon="23.1325">
        <ele>573.945349</ele>
        <time>2022-04-06T07:27:13.917Z</time>
      </trkpt>
      <trkpt lat="42.2732" lon="23.13235">
        <ele>573.038493</ele>
        <time>2022-04-06T07:27:16.900Z</time>
      </trkpt>
      <trkpt lat="42.27323" lon="23.13218">
        <ele>572.063312</ele>
        <time>2022-04-06T07:27:19.992Z</time>
      </trkpt>
      <trkpt lat="42.27328" lon="23.13202">
        <ele>571.076</ele>
        <time>2022-04-06T07:27:22.921Z</time>
      </trkpt>
      <trkpt lat="42.27333" lon="23.13188">
        <ele>570.127304</ele>
        <time>2022-04-06T07:27:25.907Z</time>
      </trkpt>
      <trkpt lat="42.27337" lon="23.13173">
        <ele>569.221926</ele>
        <time>2022-04-06T07:27:28.894Z</time>
      </trkpt>
      <trkpt lat="42.2734" lon="23.1316">
        <ele>568.434756</ele>
        <time>2022-04-06T07:27:31.906Z</time>
      </trkpt>
      <trkpt lat="42.27342" lon="23.13146">
        <ele>567.634711</ele>
        <time>2022-04-06T07:27:34.895Z</time>
      </trkpt>
      <trkpt lat="42.27345" lon="23.13132">
        <ele>566.745125</ele>
        <time>2022-04-06T07:27:37.903Z</time>
      </trkpt>
      <trkpt lat="42.27349" lon="23.13118">
        <ele>566.31773</ele>
        <time>2022-04-06T07:27:40.895Z</time>
      </trkpt>
      <trkpt lat="42.27352" lon="23.13105">
        <ele>566.375901</ele>
        <time>2022-04-06T07:27:43.981Z</time>
      </trkpt>
      <trkpt lat="42.27354" lon="23.13091">
        <ele>566.442239</ele>
        <time>2022-04-06T07:27:47.893Z</time>
      </trkpt>
      <trkpt lat="42.27357" lon="23.13079">
        <ele>566.497042</ele>
        <time>2022-04-06T07:27:51.901Z</time>
      </trkpt>
      <trkpt lat="42.27351" lon="23.1307">
        <ele>566.554405</ele>
        <time>2022-04-06T07:27:55.883Z</time>
      </trkpt>
      <trkpt lat="42.27344" lon="23.13061">
        <ele>566.611891</ele>
        <time>2022-04-06T07:27:58.883Z</time>
      </trkpt>
      <trkpt lat="42.27335" lon="23.13056">
        <ele>566.669219</ele>
        <time>2022-04-06T07:28:01.881Z</time>
      </trkpt>
      <trkpt lat="42.27325" lon="23.13055">
        <ele>566.728724</ele>
        <time>2022-04-06T07:28:04.916Z</time>
      </trkpt>
      <trkpt lat="42.27315" lon="23.13054">
        <ele>566.787635</ele>
        <time>2022-04-06T07:28:07.897Z</time>
      </trkpt>
      <trkpt lat="42.27303" lon="23.13054">
        <ele>566.858234</ele>
        <time>2022-04-06T07:28:11.920Z</time>
      </trkpt>
      <trkpt lat="42.27291" lon="23.13053">
        <ele>566.932607</ele>
        <time>2022-04-06T07:28:15.900Z</time>
      </trkpt>
      <trkpt lat="42.27281" lon="23.13052">
        <ele>566.992708</ele>
        <time>2022-04-06T07:28:18.900Z</time>
      </trkpt>
      <trkpt lat="42.27271" lon="23.13052">
        <ele>567.050142</ele>
        <time>2022-04-06T07:28:21.900Z</time>
      </trkpt>
      <trkpt lat="42.2726" lon="23.13052">
        <ele>567.116045</ele>
        <time>2022-04-06T07:28:24.909Z</time>
      </trkpt>
      <trkpt lat="42.27249" lon="23.13052">
        <ele>567.184247</ele>
        <time>2022-04-06T07:28:27.875Z</time>
      </trkpt>
      <trkpt lat="42.27237" lon="23.13052">
        <ele>567.251855</ele>
        <time>2022-04-06T07:28:30.905Z</time>
      </trkpt>
      <trkpt lat="42.27228" lon="23.13053">
        <ele>567.309946</ele>
        <time>2022-04-06T07:28:33.941Z</time>
      </trkpt>
      <trkpt lat="42.27217" lon="23.13052">
        <ele>567.328676</ele>
        <time>2022-04-06T07:28:36.898Z</time>
      </trkpt>
      <trkpt lat="42.27207" lon="23.13051">
        <ele>567.014494</ele>
        <time>2022-04-06T07:28:39.874Z</time>
      </trkpt>
      <trkpt lat="42.27195" lon="23.1305">
        <ele>566.642636</ele>
        <time>2022-04-06T07:28:43.905Z</time>
      </trkpt>
      <trkpt lat="42.27185" lon="23.13049">
        <ele>566.335207</ele>
        <time>2022-04-06T07:28:46.904Z</time>
      </trkpt>
      <trkpt lat="42.27176" lon="23.13047">
        <ele>566.02645</ele>
        <time>2022-04-06T07:28:49.907Z</time>
      </trkpt>
      <trkpt lat="42.27166" lon="23.13047">
        <ele>565.731942</ele>
        <time>2022-04-06T07:28:52.932Z</time>
      </trkpt>
      <trkpt lat="42.27157" lon="23.13046">
        <ele>565.439556</ele>
        <time>2022-04-06T07:28:55.906Z</time>
      </trkpt>
      <trkpt lat="42.27148" lon="23.13043">
        <ele>565.15658</ele>
        <time>2022-04-06T07:28:58.887Z</time>
      </trkpt>
      <trkpt lat="42.27136" lon="23.13041">
        <ele>564.804491</ele>
        <time>2022-04-06T07:29:01.933Z</time>
      </trkpt>
      <trkpt lat="42.27127" lon="23.1304">
        <ele>564.523677</ele>
        <time>2022-04-06T07:29:03.970Z</time>
      </trkpt>
      <trkpt lat="42.27116" lon="23.13037">
        <ele>564.156497</ele>
        <time>2022-04-06T07:29:06.902Z</time>
      </trkpt>
      <trkpt lat="42.27106" lon="23.13033">
        <ele>563.847981</ele>
        <time>2022-04-06T07:29:09.903Z</time>
      </trkpt>
      <trkpt lat="42.27097" lon="23.1303">
        <ele>563.541231</ele>
        <time>2022-04-06T07:29:12.905Z</time>
      </trkpt>
      <trkpt lat="42.27087" lon="23.13027">
        <ele>563.225469</ele>
        <time>2022-04-06T07:29:15.913Z</time>
      </trkpt>
      <trkpt lat="42.27077" lon="23.13022">
        <ele>562.920078</ele>
        <time>2022-04-06T07:29:18.885Z</time>
      </trkpt>
      <trkpt lat="42.27067" lon="23.13017">
        <ele>562.563622</ele>
        <time>2022-04-06T07:29:21.902Z</time>
      </trkpt>
      <trkpt lat="42.27055" lon="23.13012">
        <ele>562.189524</ele>
        <time>2022-04-06T07:29:24.932Z</time>
      </trkpt>
      <trkpt lat="42.27044" lon="23.13008">
        <ele>561.830656</ele>
        <time>2022-04-06T07:29:27.891Z</time>
      </trkpt>
      <trkpt lat="42.27032" lon="23.13004">
        <ele>561.664256</ele>
        <time>2022-04-06T07:29:30.953Z</time>
      </trkpt>
      <trkpt lat="42.27021" lon="23.13001">
        <ele>561.523263</ele>
        <time>2022-04-06T07:29:33.906Z</time>
      </trkpt>
      <trkpt lat="42.2701" lon="23.12998">
        <ele>561.387933</ele>
        <time>2022-04-06T07:29:36.945Z</time>
      </trkpt>
      <trkpt lat="42.26997" lon="23.12991">
        <ele>561.225021</ele>
        <time>2022-04-06T07:29:39.895Z</time>
      </trkpt>
      <trkpt lat="42.26987" lon="23.12984">
        <ele>561.087085</ele>
        <time>2022-04-06T07:29:41.906Z</time>
      </trkpt>
      <trkpt lat="42.26976" lon="23.12979">
        <ele>560.942521</ele>
        <time>2022-04-06T07:29:43.896Z</time>
      </trkpt>
      <trkpt lat="42.26964" lon="23.12971">
        <ele>560.782819</ele>
        <time>2022-04-06T07:29:45.899Z</time>
      </trkpt>
      <trkpt lat="42.2695" lon="23.12966">
        <ele>560.60594</ele>
        <time>2022-04-06T07:29:47.959Z</time>
      </trkpt>
      <trkpt lat="42.26937" lon="23.12957">
        <ele>560.435535</ele>
        <time>2022-04-06T07:29:49.891Z</time>
      </trkpt>
      <trkpt lat="42.26925" lon="23.12948">
        <ele>560.267639</ele>
        <time>2022-04-06T07:29:51.889Z</time>
      </trkpt>
      <trkpt lat="42.26914" lon="23.12939">
        <ele>560.109651</ele>
        <time>2022-04-06T07:29:53.912Z</time>
      </trkpt>
      <trkpt lat="42.26902" lon="23.1293">
        <ele>559.949572</ele>
        <time>2022-04-06T07:29:55.908Z</time>
      </trkpt>
      <trkpt lat="42.26891" lon="23.12922">
        <ele>559.790985</ele>
        <time>2022-04-06T07:29:57.898Z</time>
      </trkpt>
      <trkpt lat="42.26879" lon="23.12913">
        <ele>559.634767</ele>
        <time>2022-04-06T07:29:59.896Z</time>
      </trkpt>
      <trkpt lat="42.26869" lon="23.12905">
        <ele>559.546982</ele>
        <time>2022-04-06T07:30:01.885Z</time>
      </trkpt>
      <trkpt lat="42.26857" lon="23.12897">
        <ele>559.461149</ele>
        <time>2022-04-06T07:30:03.896Z</time>
      </trkpt>
      <trkpt lat="42.26846" lon="23.12889">
        <ele>559.376728</ele>
        <time>2022-04-06T07:30:05.894Z</time>
      </trkpt>
      <trkpt lat="42.26835" lon="23.12881">
        <ele>559.29062</ele>
        <time>2022-04-06T07:30:07.889Z</time>
      </trkpt>
      <trkpt lat="42.26823" lon="23.12873">
        <ele>559.205109</ele>
        <time>2022-04-06T07:30:09.899Z</time>
      </trkpt>
      <trkpt lat="42.26812" lon="23.12865">
        <ele>559.117731</ele>
        <time>2022-04-06T07:30:11.896Z</time>
      </trkpt>
      <trkpt lat="42.26801" lon="23.12858">
        <ele>559.034233</ele>
        <time>2022-04-06T07:30:13.903Z</time>
      </trkpt>
      <trkpt lat="42.2679" lon="23.1285">
        <ele>558.955062</ele>
        <time>2022-04-06T07:30:15.917Z</time>
      </trkpt>
      <trkpt lat="42.26781" lon="23.12844">
        <ele>558.883943</ele>
        <time>2022-04-06T07:30:17.891Z</time>
      </trkpt>
      <trkpt lat="42.26772" lon="23.12838">
        <ele>558.817981</ele>
        <time>2022-04-06T07:30:19.965Z</time>
      </trkpt>
      <trkpt lat="42.26763" lon="23.12832">
        <ele>558.75239</ele>
        <time>2022-04-06T07:30:21.897Z</time>
      </trkpt>
      <trkpt lat="42.26752" lon="23.12823">
        <ele>558.664613</ele>
        <time>2022-04-06T07:30:24.888Z</time>
      </trkpt>
      <trkpt lat="42.26743" lon="23.12816">
        <ele>558.594199</ele>
        <time>2022-04-06T07:30:26.899Z</time>
      </trkpt>
      <trkpt lat="42.26733" lon="23.12809">
        <ele>558.523382</ele>
        <time>2022-04-06T07:30:28.896Z</time>
      </trkpt>
      <trkpt lat="42.26725" lon="23.12803">
        <ele>558.459566</ele>
        <time>2022-04-06T07:30:30.897Z</time>
      </trkpt>
      <trkpt lat="42.26713" lon="23.12794">
        <ele>558.121204</ele>
        <time>2022-04-06T07:30:33.898Z</time>
      </trkpt>
      <trkpt lat="42.26703" lon="23.12785">
        <ele>557.596636</ele>
        <time>2022-04-06T07:30:36.907Z</time>
      </trkpt>
      <trkpt lat="42.26693" lon="23.12778">
        <ele>557.14258</ele>
        <time>2022-04-06T07:30:39.896Z</time>
      </trkpt>
      <trkpt lat="42.26684" lon="23.1277">
        <ele>556.703016</ele>
        <time>2022-04-06T07:30:42.886Z</time>
      </trkpt>
      <trkpt lat="42.26676" lon="23.12763">
        <ele>556.28027</ele>
        <time>2022-04-06T07:30:45.894Z</time>
      </trkpt>
      <trkpt lat="42.26666" lon="23.12755">
        <ele>555.818437</ele>
        <time>2022-04-06T07:30:48.890Z</time>
      </trkpt>
      <trkpt lat="42.26658" lon="23.12747">
        <ele>555.375557</ele>
        <time>2022-04-06T07:30:51.888Z</time>
      </trkpt>
      <trkpt lat="42.26648" lon="23.12738">
        <ele>554.901545</ele>
        <time>2022-04-06T07:30:54.893Z</time>
      </trkpt>
      <trkpt lat="42.2664" lon="23.12728">
        <ele>554.462599</ele>
        <time>2022-04-06T07:30:57.884Z</time>
      </trkpt>
      <trkpt lat="42.26632" lon="23.12717">
        <ele>553.995877</ele>
        <time>2022-04-06T07:31:00.888Z</time>
      </trkpt>
      <trkpt lat="42.26625" lon="23.12706">
        <ele>553.532511</ele>
        <time>2022-04-06T07:31:03.929Z</time>
      </trkpt>
      <trkpt lat="42.26619" lon="23.12693">
        <ele>553.061887</ele>
        <time>2022-04-06T07:31:06.916Z</time>
      </trkpt>
      <trkpt lat="42.26614" lon="23.12679">
        <ele>552.569597</ele>
        <time>2022-04-06T07:31:09.886Z</time>
      </trkpt>
      <trkpt lat="42.26611" lon="23.12664">
        <ele>552.107111</ele>
        <time>2022-04-06T07:31:12.897Z</time>
      </trkpt>
      <trkpt lat="42.26611" lon="23.12648">
        <ele>551.622969</ele>
        <time>2022-04-06T07:31:15.887Z</time>
      </trkpt>
      <trkpt lat="42.26611" lon="23.12635">
        <ele>551.219735</ele>
        <time>2022-04-06T07:31:18.894Z</time>
      </trkpt>
      <trkpt lat="42.26612" lon="23.12622">
        <ele>550.856756</ele>
        <time>2022-04-06T07:31:22.896Z</time>
      </trkpt>
      <trkpt lat="42.26611" lon="23.12606">
        <ele>550.549321</ele>
        <time>2022-04-06T07:31:26.897Z</time>
      </trkpt>
      <trkpt lat="42.26611" lon="23.12591">
        <ele>550.251928</ele>
        <time>2022-04-06T07:31:29.902Z</time>
      </trkpt>
      <trkpt lat="42.26611" lon="23.12577">
        <ele>549.981381</ele>
        <time>2022-04-06T07:31:32.910Z</time>
      </trkpt>
      <trkpt lat="42.26613" lon="23.12562">
        <ele>549.696744</ele>
        <time>2022-04-06T07:31:35.883Z</time>
      </trkpt>
      <trkpt lat="42.26614" lon="23.12548">
        <ele>549.417452</ele>
        <time>2022-04-06T07:31:38.877Z</time>
      </trkpt>
      <trkpt lat="42.26614" lon="23.12534">
        <ele>549.142933</ele>
        <time>2022-04-06T07:31:41.886Z</time>
      </trkpt>
      <trkpt lat="42.26614" lon="23.12519">
        <ele>548.866744</ele>
        <time>2022-04-06T07:31:44.894Z</time>
      </trkpt>
      <trkpt lat="42.26614" lon="23.12505">
        <ele>548.594017</ele>
        <time>2022-04-06T07:31:47.903Z</time>
      </trkpt>
      <trkpt lat="42.26615" lon="23.12492">
        <ele>548.336116</ele>
        <time>2022-04-06T07:31:50.895Z</time>
      </trkpt>
      <trkpt lat="42.26615" lon="23.12478">
        <ele>548.071563</ele>
        <time>2022-04-06T07:31:53.902Z</time>
      </trkpt>
      <trkpt lat="42.26615" lon="23.12464">
        <ele>547.80638</ele>
        <time>2022-04-06T07:31:56.905Z</time>
      </trkpt>
      <trkpt lat="42.26615" lon="23.12449">
        <ele>547.516711</ele>
        <time>2022-04-06T07:31:59.905Z</time>
      </trkpt>
      <trkpt lat="42.26614" lon="23.12435">
        <ele>547.235242</ele>
        <time>2022-04-06T07:32:02.898Z</time>
      </trkpt>
      <trkpt lat="42.26612" lon="23.1242">
        <ele>546.93079</ele>
        <time>2022-04-06T07:32:05.880Z</time>
      </trkpt>
      <trkpt lat="42.26611" lon="23.12403">
        <ele>546.613927</ele>
        <time>2022-04-06T07:32:08.889Z</time>
      </trkpt>
      <trkpt lat="42.26613" lon="23.12388">
        <ele>546.309044</ele>
        <time>2022-04-06T07:32:11.905Z</time>
      </trkpt>
      <trkpt lat="42.26616" lon="23.12372">
        <ele>546.804287</ele>
        <time>2022-04-06T07:32:14.892Z</time>
      </trkpt>
      <trkpt lat="42.26619" lon="23.12356">
        <ele>547.501725</ele>
        <time>2022-04-06T07:32:17.897Z</time>
      </trkpt>
      <trkpt lat="42.26622" lon="23.12342">
        <ele>548.142946</ele>
        <time>2022-04-06T07:32:20.899Z</time>
      </trkpt>
      <trkpt lat="42.26626" lon="23.12329">
        <ele>548.733725</ele>
        <time>2022-04-06T07:32:23.884Z</time>
      </trkpt>
      <trkpt lat="42.26631" lon="23.12317">
        <ele>549.294423</ele>
        <time>2022-04-06T07:32:26.897Z</time>
      </trkpt>
      <trkpt lat="42.26635" lon="23.12304">
        <ele>549.927021</ele>
        <time>2022-04-06T07:32:30.888Z</time>
      </trkpt>
      <trkpt lat="42.26635" lon="23.12291">
        <ele>550.468604</ele>
        <time>2022-04-06T07:32:35.877Z</time>
      </trkpt>
      <trkpt lat="42.26625" lon="23.12292">
        <ele>551.066245</ele>
        <time>2022-04-06T07:32:40.876Z</time>
      </trkpt>
      <trkpt lat="42.26615" lon="23.12292">
        <ele>551.641017</ele>
        <time>2022-04-06T07:32:44.882Z</time>
      </trkpt>
      <trkpt lat="42.26604" lon="23.12295">
        <ele>552.243855</ele>
        <time>2022-04-06T07:32:48.880Z</time>
      </trkpt>
      <trkpt lat="42.26601" lon="23.12274">
        <ele>553.175928</ele>
        <time>2022-04-06T07:33:12.888Z</time>
      </trkpt>
      <trkpt lat="42.26603" lon="23.12261">
        <ele>553.735838</ele>
        <time>2022-04-06T07:33:15.874Z</time>
      </trkpt>
      <trkpt lat="42.26607" lon="23.12248">
        <ele>554.339793</ele>
        <time>2022-04-06T07:33:18.874Z</time>
      </trkpt>
      <trkpt lat="42.2661" lon="23.12235">
        <ele>554.920174</ele>
        <time>2022-04-06T07:33:21.880Z</time>
      </trkpt>
      <trkpt lat="42.26614" lon="23.12221">
        <ele>555.57255</ele>
        <time>2022-04-06T07:33:24.875Z</time>
      </trkpt>
      <trkpt lat="42.26616" lon="23.12207">
        <ele>556.186846</ele>
        <time>2022-04-06T07:33:27.875Z</time>
      </trkpt>
      <trkpt lat="42.26614" lon="23.12193">
        <ele>556.751805</ele>
        <time>2022-04-06T07:33:30.878Z</time>
      </trkpt>
      <trkpt lat="42.26612" lon="23.12178">
        <ele>557.214878</ele>
        <time>2022-04-06T07:33:34.900Z</time>
      </trkpt>
      <trkpt lat="42.26612" lon="23.12163">
        <ele>557.662667</ele>
        <time>2022-04-06T07:33:38.880Z</time>
      </trkpt>
      <trkpt lat="42.26611" lon="23.12151">
        <ele>558.035851</ele>
        <time>2022-04-06T07:33:41.900Z</time>
      </trkpt>
      <trkpt lat="42.26607" lon="23.12138">
        <ele>558.461976</ele>
        <time>2022-04-06T07:33:45.876Z</time>
      </trkpt>
      <trkpt lat="42.26607" lon="23.12123">
        <ele>558.882907</ele>
        <time>2022-04-06T07:33:52.880Z</time>
      </trkpt>
      <trkpt lat="42.26609" lon="23.12109">
        <ele>559.313617</ele>
        <time>2022-04-06T07:33:56.879Z</time>
      </trkpt>
      <trkpt lat="42.26608" lon="23.12094">
        <ele>559.763527</ele>
        <time>2022-04-06T07:34:00.889Z</time>
      </trkpt>
      <trkpt lat="42.26602" lon="23.12082">
        <ele>560.208235</ele>
        <time>2022-04-06T07:34:05.884Z</time>
      </trkpt>
      <trkpt lat="42.26597" lon="23.12072">
        <ele>560.575366</ele>
        <time>2022-04-06T07:34:10.883Z</time>
      </trkpt>
      <trkpt lat="42.26591" lon="23.12063">
        <ele>560.945135</ele>
        <time>2022-04-06T07:34:14.880Z</time>
      </trkpt>
      <trkpt lat="42.26583" lon="23.12053">
        <ele>561.3701</ele>
        <time>2022-04-06T07:34:19.872Z</time>
      </trkpt>
      <trkpt lat="42.26576" lon="23.12043">
        <ele>561.780382</ele>
        <time>2022-04-06T07:34:24.903Z</time>
      </trkpt>
      <trkpt lat="42.2657" lon="23.12032">
        <ele>562.174143</ele>
        <time>2022-04-06T07:34:28.882Z</time>
      </trkpt>
      <trkpt lat="42.26567" lon="23.12021">
        <ele>562.542264</ele>
        <time>2022-04-06T07:34:32.876Z</time>
      </trkpt>
      <trkpt lat="42.26562" lon="23.12008">
        <ele>562.970273</ele>
        <time>2022-04-06T07:34:37.880Z</time>
      </trkpt>
      <trkpt lat="42.2656" lon="23.11993">
        <ele>563.418621</ele>
        <time>2022-04-06T07:34:41.879Z</time>
      </trkpt>
      <trkpt lat="42.26557" lon="23.1198">
        <ele>563.823448</ele>
        <time>2022-04-06T07:34:45.878Z</time>
      </trkpt>
      <trkpt lat="42.26554" lon="23.11969">
        <ele>564.414303</ele>
        <time>2022-04-06T07:34:49.877Z</time>
      </trkpt>
      <trkpt lat="42.26549" lon="23.11956">
        <ele>565.153343</ele>
        <time>2022-04-06T07:34:53.889Z</time>
      </trkpt>
      <trkpt lat="42.26545" lon="23.11945">
        <ele>565.818202</ele>
        <time>2022-04-06T07:34:59.883Z</time>
      </trkpt>
      <trkpt lat="42.26538" lon="23.11933">
        <ele>566.60204</ele>
        <time>2022-04-06T07:35:04.872Z</time>
      </trkpt>
      <trkpt lat="42.26532" lon="23.11922">
        <ele>567.309561</ele>
        <time>2022-04-06T07:35:09.872Z</time>
      </trkpt>
      <trkpt lat="42.26527" lon="23.11911">
        <ele>567.985429</ele>
        <time>2022-04-06T07:35:14.875Z</time>
      </trkpt>
      <trkpt lat="42.26519" lon="23.11901">
        <ele>568.767222</ele>
        <time>2022-04-06T07:35:20.893Z</time>
      </trkpt>
      <trkpt lat="42.26511" lon="23.11891">
        <ele>569.525687</ele>
        <time>2022-04-06T07:35:24.873Z</time>
      </trkpt>
      <trkpt lat="42.26505" lon="23.11882">
        <ele>570.20221</ele>
        <time>2022-04-06T07:35:27.874Z</time>
      </trkpt>
      <trkpt lat="42.26496" lon="23.11878">
        <ele>570.891272</ele>
        <time>2022-04-06T07:35:31.877Z</time>
      </trkpt>
      <trkpt lat="42.26486" lon="23.11876">
        <ele>571.581498</ele>
        <time>2022-04-06T07:35:35.876Z</time>
      </trkpt>
      <trkpt lat="42.26477" lon="23.11875">
        <ele>572.232152</ele>
        <time>2022-04-06T07:35:38.878Z</time>
      </trkpt>
      <trkpt lat="42.26467" lon="23.1187">
        <ele>572.983</ele>
        <time>2022-04-06T07:35:42.875Z</time>
      </trkpt>
      <trkpt lat="42.26458" lon="23.11865">
        <ele>573.694979</ele>
        <time>2022-04-06T07:35:48.886Z</time>
      </trkpt>
      <trkpt lat="42.26447" lon="23.11861">
        <ele>574.453983</ele>
        <time>2022-04-06T07:35:53.876Z</time>
      </trkpt>
      <trkpt lat="42.26437" lon="23.1186">
        <ele>575.176041</ele>
        <time>2022-04-06T07:35:58.886Z</time>
      </trkpt>
      <trkpt lat="42.26428" lon="23.11858">
        <ele>575.826472</ele>
        <time>2022-04-06T07:36:02.888Z</time>
      </trkpt>
      <trkpt lat="42.26418" lon="23.11854">
        <ele>576.580612</ele>
        <time>2022-04-06T07:36:07.885Z</time>
      </trkpt>
      <trkpt lat="42.26408" lon="23.11854">
        <ele>577.250959</ele>
        <time>2022-04-06T07:36:12.896Z</time>
      </trkpt>
      <trkpt lat="42.26398" lon="23.11856">
        <ele>577.84464</ele>
        <time>2022-04-06T07:36:17.897Z</time>
      </trkpt>
      <trkpt lat="42.26388" lon="23.1186">
        <ele>578.520391</ele>
        <time>2022-04-06T07:36:21.882Z</time>
      </trkpt>
      <trkpt lat="42.26378" lon="23.1186">
        <ele>579.133983</ele>
        <time>2022-04-06T07:36:24.882Z</time>
      </trkpt>
      <trkpt lat="42.26389" lon="23.11862">
        <ele>579.828897</ele>
        <time>2022-04-06T07:38:48.903Z</time>
      </trkpt>
      <trkpt lat="42.26398" lon="23.1186">
        <ele>580.39922</ele>
        <time>2022-04-06T07:38:52.895Z</time>
      </trkpt>
      <trkpt lat="42.26408" lon="23.11862">
        <ele>581.008669</ele>
        <time>2022-04-06T07:38:56.899Z</time>
      </trkpt>
      <trkpt lat="42.26417" lon="23.11866">
        <ele>581.621146</ele>
        <time>2022-04-06T07:39:00.896Z</time>
      </trkpt>
      <trkpt lat="42.26426" lon="23.11866">
        <ele>582.197621</ele>
        <time>2022-04-06T07:39:05.068Z</time>
      </trkpt>
      <trkpt lat="42.26438" lon="23.11866">
        <ele>582.942806</ele>
        <time>2022-04-06T07:39:08.895Z</time>
      </trkpt>
      <trkpt lat="42.26448" lon="23.11865">
        <ele>583.569178</ele>
        <time>2022-04-06T07:39:12.881Z</time>
      </trkpt>
      <trkpt lat="42.26458" lon="23.11861">
        <ele>584.227707</ele>
        <time>2022-04-06T07:39:17.908Z</time>
      </trkpt>
      <trkpt lat="42.26468" lon="23.11862">
        <ele>584.861439</ele>
        <time>2022-04-06T07:39:22.890Z</time>
      </trkpt>
      <trkpt lat="42.26477" lon="23.11865">
        <ele>585.444106</ele>
        <time>2022-04-06T07:39:26.895Z</time>
      </trkpt>
      <trkpt lat="42.26485" lon="23.11872">
        <ele>586.061472</ele>
        <time>2022-04-06T07:39:31.914Z</time>
      </trkpt>
      <trkpt lat="42.26492" lon="23.11881">
        <ele>586.646056</ele>
        <time>2022-04-06T07:39:36.886Z</time>
      </trkpt>
      <trkpt lat="42.26495" lon="23.11862">
        <ele>587.515896</ele>
        <time>2022-04-06T07:42:25.902Z</time>
      </trkpt>
      <trkpt lat="42.26494" lon="23.11849">
        <ele>587.62171</ele>
        <time>2022-04-06T07:42:30.896Z</time>
      </trkpt>
      <trkpt lat="42.26494" lon="23.11835">
        <ele>585.933887</ele>
        <time>2022-04-06T07:42:34.898Z</time>
      </trkpt>
      <trkpt lat="42.26493" lon="23.1182">
        <ele>584.157361</ele>
        <time>2022-04-06T07:42:38.877Z</time>
      </trkpt>
      <trkpt lat="42.26492" lon="23.11807">
        <ele>582.508605</ele>
        <time>2022-04-06T07:42:42.914Z</time>
      </trkpt>
      <trkpt lat="42.26492" lon="23.11792">
        <ele>580.752467</ele>
        <time>2022-04-06T07:42:46.900Z</time>
      </trkpt>
      <trkpt lat="42.26491" lon="23.11778">
        <ele>579.053822</ele>
        <time>2022-04-06T07:42:50.883Z</time>
      </trkpt>
      <trkpt lat="42.26485" lon="23.11766">
        <ele>577.227604</ele>
        <time>2022-04-06T07:42:54.892Z</time>
      </trkpt>
      <trkpt lat="42.26476" lon="23.11757">
        <ele>575.470648</ele>
        <time>2022-04-06T07:42:58.891Z</time>
      </trkpt>
      <trkpt lat="42.26467" lon="23.11757">
        <ele>574.008383</ele>
        <time>2022-04-06T07:43:04.892Z</time>
      </trkpt>
      <trkpt lat="42.26466" lon="23.11731">
        <ele>570.917111</ele>
        <time>2022-04-06T07:44:02.888Z</time>
      </trkpt>
      <trkpt lat="42.26469" lon="23.11718">
        <ele>569.244356</ele>
        <time>2022-04-06T07:44:06.897Z</time>
      </trkpt>
      <trkpt lat="42.26471" lon="23.11704">
        <ele>567.577728</ele>
        <time>2022-04-06T07:44:10.877Z</time>
      </trkpt>
      <trkpt lat="42.26473" lon="23.11691">
        <ele>565.931683</ele>
        <time>2022-04-06T07:44:14.875Z</time>
      </trkpt>
      <trkpt lat="42.26459" lon="23.11669">
        <ele>562.460579</ele>
        <time>2022-04-06T07:45:05.873Z</time>
      </trkpt>
      <trkpt lat="42.26458" lon="23.11657">
        <ele>560.988373</ele>
        <time>2022-04-06T07:45:09.873Z</time>
      </trkpt>
      <trkpt lat="42.26468" lon="23.11657">
        <ele>559.445293</ele>
        <time>2022-04-06T07:45:13.877Z</time>
      </trkpt>
      <trkpt lat="42.26475" lon="23.11666">
        <ele>559.133029</ele>
        <time>2022-04-06T07:45:18.881Z</time>
      </trkpt>
      <trkpt lat="42.26482" lon="23.11658">
        <ele>559.709689</ele>
        <time>2022-04-06T07:45:25.876Z</time>
      </trkpt>
      <trkpt lat="42.26488" lon="23.11648">
        <ele>560.313435</ele>
        <time>2022-04-06T07:45:31.872Z</time>
      </trkpt>
      <trkpt lat="42.26494" lon="23.11636">
        <ele>560.965848</ele>
        <time>2022-04-06T07:45:36.866Z</time>
      </trkpt>
      <trkpt lat="42.26473" lon="23.11659">
        <ele>562.619827</ele>
        <time>2022-04-06T07:49:37.876Z</time>
      </trkpt>
      <trkpt lat="42.26464" lon="23.11654">
        <ele>563.249877</ele>
        <time>2022-04-06T07:49:40.884Z</time>
      </trkpt>
      <trkpt lat="42.26454" lon="23.11647">
        <ele>563.956957</ele>
        <time>2022-04-06T07:49:44.866Z</time>
      </trkpt>
      <trkpt lat="42.26448" lon="23.11636">
        <ele>564.57332</ele>
        <time>2022-04-06T07:49:49.876Z</time>
      </trkpt>
      <trkpt lat="42.26444" lon="23.11622">
        <ele>565.268088</ele>
        <time>2022-04-06T07:49:55.880Z</time>
      </trkpt>
      <trkpt lat="42.26442" lon="23.1161">
        <ele>565.865851</ele>
        <time>2022-04-06T07:49:59.872Z</time>
      </trkpt>
      <trkpt lat="42.26441" lon="23.11596">
        <ele>566.513857</ele>
        <time>2022-04-06T07:50:03.866Z</time>
      </trkpt>
      <trkpt lat="42.26441" lon="23.11582">
        <ele>567.131778</ele>
        <time>2022-04-06T07:50:07.871Z</time>
      </trkpt>
      <trkpt lat="42.26442" lon="23.1157">
        <ele>567.733617</ele>
        <time>2022-04-06T07:50:11.902Z</time>
      </trkpt>
      <trkpt lat="42.26438" lon="23.11558">
        <ele>568.337504</ele>
        <time>2022-04-06T07:50:15.873Z</time>
      </trkpt>
      <trkpt lat="42.26431" lon="23.11547">
        <ele>568.981434</ele>
        <time>2022-04-06T07:50:20.862Z</time>
      </trkpt>
      <trkpt lat="42.26426" lon="23.11535">
        <ele>569.645998</ele>
        <time>2022-04-06T07:50:24.863Z</time>
      </trkpt>
      <trkpt lat="42.26423" lon="23.1152">
        <ele>570.309868</ele>
        <time>2022-04-06T07:50:27.871Z</time>
      </trkpt>
      <trkpt lat="42.26418" lon="23.11505">
        <ele>570.897122</ele>
        <time>2022-04-06T07:50:30.868Z</time>
      </trkpt>
      <trkpt lat="42.26416" lon="23.11492">
        <ele>571.384583</ele>
        <time>2022-04-06T07:50:33.870Z</time>
      </trkpt>
      <trkpt lat="42.26411" lon="23.11478">
        <ele>571.952937</ele>
        <time>2022-04-06T07:50:37.871Z</time>
      </trkpt>
      <trkpt lat="42.26409" lon="23.11462">
        <ele>572.570518</ele>
        <time>2022-04-06T07:50:41.865Z</time>
      </trkpt>
      <trkpt lat="42.26408" lon="23.11449">
        <ele>573.034475</ele>
        <time>2022-04-06T07:50:44.872Z</time>
      </trkpt>
      <trkpt lat="42.26408" lon="23.11436">
        <ele>573.514955</ele>
        <time>2022-04-06T07:50:47.875Z</time>
      </trkpt>
      <trkpt lat="42.26405" lon="23.1142">
        <ele>574.109155</ele>
        <time>2022-04-06T07:50:50.869Z</time>
      </trkpt>
      <trkpt lat="42.26402" lon="23.11403">
        <ele>574.755755</ele>
        <time>2022-04-06T07:50:53.875Z</time>
      </trkpt>
      <trkpt lat="42.264" lon="23.11388">
        <ele>575.317692</ele>
        <time>2022-04-06T07:50:56.879Z</time>
      </trkpt>
      <trkpt lat="42.26396" lon="23.11374">
        <ele>575.869043</ele>
        <time>2022-04-06T07:50:59.878Z</time>
      </trkpt>
      <trkpt lat="42.26392" lon="23.11359">
        <ele>576.485765</ele>
        <time>2022-04-06T07:51:02.868Z</time>
      </trkpt>
      <trkpt lat="42.26391" lon="23.11346">
        <ele>576.967417</ele>
        <time>2022-04-06T07:51:05.864Z</time>
      </trkpt>
      <trkpt lat="42.26391" lon="23.11328">
        <ele>577.607218</ele>
        <time>2022-04-06T07:51:08.871Z</time>
      </trkpt>
      <trkpt lat="42.26391" lon="23.11314">
        <ele>578.150359</ele>
        <time>2022-04-06T07:51:10.870Z</time>
      </trkpt>
      <trkpt lat="42.26391" lon="23.11299">
        <ele>578.708209</ele>
        <time>2022-04-06T07:51:12.868Z</time>
      </trkpt>
      <trkpt lat="42.2639" lon="23.11284">
        <ele>579.004049</ele>
        <time>2022-04-06T07:51:14.903Z</time>
      </trkpt>
      <trkpt lat="42.26387" lon="23.1127">
        <ele>578.903573</ele>
        <time>2022-04-06T07:51:16.869Z</time>
      </trkpt>
      <trkpt lat="42.26386" lon="23.11257">
        <ele>578.8119</ele>
        <time>2022-04-06T07:51:18.876Z</time>
      </trkpt>
      <trkpt lat="42.26384" lon="23.11245">
        <ele>578.725609</ele>
        <time>2022-04-06T07:51:20.894Z</time>
      </trkpt>
      <trkpt lat="42.26383" lon="23.11232">
        <ele>578.632123</ele>
        <time>2022-04-06T07:51:22.865Z</time>
      </trkpt>
      <trkpt lat="42.26382" lon="23.11219">
        <ele>578.541981</ele>
        <time>2022-04-06T07:51:24.871Z</time>
      </trkpt>
      <trkpt lat="42.26379" lon="23.11201">
        <ele>578.411669</ele>
        <time>2022-04-06T07:51:27.872Z</time>
      </trkpt>
      <trkpt lat="42.26378" lon="23.11186">
        <ele>578.30553</ele>
        <time>2022-04-06T07:51:29.872Z</time>
      </trkpt>
      <trkpt lat="42.26377" lon="23.11172">
        <ele>578.204777</ele>
        <time>2022-04-06T07:51:31.877Z</time>
      </trkpt>
      <trkpt lat="42.26375" lon="23.11155">
        <ele>578.087076</ele>
        <time>2022-04-06T07:51:34.875Z</time>
      </trkpt>
      <trkpt lat="42.26377" lon="23.11142">
        <ele>577.992333</ele>
        <time>2022-04-06T07:51:36.874Z</time>
      </trkpt>
      <trkpt lat="42.26378" lon="23.11128">
        <ele>577.892194</ele>
        <time>2022-04-06T07:51:38.870Z</time>
      </trkpt>
      <trkpt lat="42.26373" lon="23.11113">
        <ele>577.775301</ele>
        <time>2022-04-06T07:51:41.872Z</time>
      </trkpt>
      <trkpt lat="42.26369" lon="23.11102">
        <ele>577.688165</ele>
        <time>2022-04-06T07:51:43.892Z</time>
      </trkpt>
      <trkpt lat="42.26364" lon="23.11091">
        <ele>577.598976</ele>
        <time>2022-04-06T07:51:45.878Z</time>
      </trkpt>
      <trkpt lat="42.26357" lon="23.11076">
        <ele>577.474884</ele>
        <time>2022-04-06T07:51:48.868Z</time>
      </trkpt>
      <trkpt lat="42.26349" lon="23.11062">
        <ele>577.352385</ele>
        <time>2022-04-06T07:51:51.881Z</time>
      </trkpt>
      <trkpt lat="42.26342" lon="23.11049">
        <ele>576.347393</ele>
        <time>2022-04-06T07:51:54.876Z</time>
      </trkpt>
      <trkpt lat="42.26334" lon="23.11039">
        <ele>575.327491</ele>
        <time>2022-04-06T07:51:57.880Z</time>
      </trkpt>
      <trkpt lat="42.26328" lon="23.11024">
        <ele>574.10694</ele>
        <time>2022-04-06T07:52:00.874Z</time>
      </trkpt>
      <trkpt lat="42.26325" lon="23.11012">
        <ele>573.162721</ele>
        <time>2022-04-06T07:52:02.879Z</time>
      </trkpt>
      <trkpt lat="42.26321" lon="23.10999">
        <ele>572.161528</ele>
        <time>2022-04-06T07:52:04.897Z</time>
      </trkpt>
      <trkpt lat="42.26317" lon="23.10986">
        <ele>571.160251</ele>
        <time>2022-04-06T07:52:06.878Z</time>
      </trkpt>
      <trkpt lat="42.2631" lon="23.10974">
        <ele>570.081198</ele>
        <time>2022-04-06T07:52:08.870Z</time>
      </trkpt>
      <trkpt lat="42.26305" lon="23.10961">
        <ele>569.041408</ele>
        <time>2022-04-06T07:52:10.903Z</time>
      </trkpt>
      <trkpt lat="42.26303" lon="23.10949">
        <ele>568.140031</ele>
        <time>2022-04-06T07:52:12.867Z</time>
      </trkpt>
      <trkpt lat="42.263" lon="23.10937">
        <ele>567.225073</ele>
        <time>2022-04-06T07:52:14.882Z</time>
      </trkpt>
      <trkpt lat="42.26292" lon="23.10926">
        <ele>566.18821</ele>
        <time>2022-04-06T07:52:16.906Z</time>
      </trkpt>
      <trkpt lat="42.26283" lon="23.10917">
        <ele>565.051363</ele>
        <time>2022-04-06T07:52:18.871Z</time>
      </trkpt>
      <trkpt lat="42.26274" lon="23.10909">
        <ele>564.016047</ele>
        <time>2022-04-06T07:52:20.884Z</time>
      </trkpt>
      <trkpt lat="42.26264" lon="23.10897">
        <ele>562.727819</ele>
        <time>2022-04-06T07:52:23.873Z</time>
      </trkpt>
      <trkpt lat="42.26256" lon="23.10888">
        <ele>561.737019</ele>
        <time>2022-04-06T07:52:25.876Z</time>
      </trkpt>
      <trkpt lat="42.26247" lon="23.10879">
        <ele>560.636177</ele>
        <time>2022-04-06T07:52:27.904Z</time>
      </trkpt>
      <trkpt lat="42.26237" lon="23.10868">
        <ele>559.789252</ele>
        <time>2022-04-06T07:52:29.874Z</time>
      </trkpt>
      <trkpt lat="42.26226" lon="23.10859">
        <ele>559.409841</ele>
        <time>2022-04-06T07:52:31.892Z</time>
      </trkpt>
      <trkpt lat="42.26217" lon="23.1085">
        <ele>559.040798</ele>
        <time>2022-04-06T07:52:33.878Z</time>
      </trkpt>
      <trkpt lat="42.26207" lon="23.10839">
        <ele>558.659479</ele>
        <time>2022-04-06T07:52:35.873Z</time>
      </trkpt>
      <trkpt lat="42.26198" lon="23.10828">
        <ele>558.268025</ele>
        <time>2022-04-06T07:52:37.873Z</time>
      </trkpt>
      <trkpt lat="42.26188" lon="23.10818">
        <ele>557.881927</ele>
        <time>2022-04-06T07:52:39.868Z</time>
      </trkpt>
      <trkpt lat="42.26177" lon="23.10809">
        <ele>557.494779</ele>
        <time>2022-04-06T07:52:41.892Z</time>
      </trkpt>
      <trkpt lat="42.26168" lon="23.10799">
        <ele>557.134524</ele>
        <time>2022-04-06T07:52:43.874Z</time>
      </trkpt>
      <trkpt lat="42.2616" lon="23.10789">
        <ele>556.798113</ele>
        <time>2022-04-06T07:52:45.882Z</time>
      </trkpt>
      <trkpt lat="42.2615" lon="23.10777">
        <ele>556.381573</ele>
        <time>2022-04-06T07:52:47.876Z</time>
      </trkpt>
      <trkpt lat="42.2614" lon="23.10766">
        <ele>555.96783</ele>
        <time>2022-04-06T07:52:49.879Z</time>
      </trkpt>
      <trkpt lat="42.26131" lon="23.10757">
        <ele>555.605147</ele>
        <time>2022-04-06T07:52:51.874Z</time>
      </trkpt>
      <trkpt lat="42.26122" lon="23.10747">
        <ele>555.251087</ele>
        <time>2022-04-06T07:52:53.877Z</time>
      </trkpt>
      <trkpt lat="42.26115" lon="23.10736">
        <ele>554.924513</ele>
        <time>2022-04-06T07:52:55.871Z</time>
      </trkpt>
      <trkpt lat="42.26108" lon="23.10724">
        <ele>554.570222</ele>
        <time>2022-04-06T07:52:57.871Z</time>
      </trkpt>
      <trkpt lat="42.261" lon="23.10714">
        <ele>554.198359</ele>
        <time>2022-04-06T07:52:59.877Z</time>
      </trkpt>
      <trkpt lat="42.26092" lon="23.10702">
        <ele>553.737177</ele>
        <time>2022-04-06T07:53:01.878Z</time>
      </trkpt>
      <trkpt lat="42.26087" lon="23.10692">
        <ele>553.366533</ele>
        <time>2022-04-06T07:53:03.883Z</time>
      </trkpt>
      <trkpt lat="42.26078" lon="23.10683">
        <ele>552.953313</ele>
        <time>2022-04-06T07:53:05.872Z</time>
      </trkpt>
      <trkpt lat="42.26069" lon="23.10677">
        <ele>552.545591</ele>
        <time>2022-04-06T07:53:07.874Z</time>
      </trkpt>
      <trkpt lat="42.26058" lon="23.10668">
        <ele>552.065611</ele>
        <time>2022-04-06T07:53:09.881Z</time>
      </trkpt>
      <trkpt lat="42.26048" lon="23.10657">
        <ele>551.566501</ele>
        <time>2022-04-06T07:53:11.878Z</time>
      </trkpt>
      <trkpt lat="42.2604" lon="23.10647">
        <ele>551.131391</ele>
        <time>2022-04-06T07:53:13.873Z</time>
      </trkpt>
      <trkpt lat="42.26033" lon="23.10638">
        <ele>550.749447</ele>
        <time>2022-04-06T07:53:15.877Z</time>
      </trkpt>
      <trkpt lat="42.26024" lon="23.10626">
        <ele>550.261195</ele>
        <time>2022-04-06T07:53:18.873Z</time>
      </trkpt>
      <trkpt lat="42.26017" lon="23.10618">
        <ele>549.895188</ele>
        <time>2022-04-06T07:53:20.892Z</time>
      </trkpt>
      <trkpt lat="42.26008" lon="23.1061">
        <ele>549.470584</ele>
        <time>2022-04-06T07:53:22.867Z</time>
      </trkpt>
      <trkpt lat="42.26" lon="23.10601">
        <ele>549.070696</ele>
        <time>2022-04-06T07:53:24.868Z</time>
      </trkpt>
      <trkpt lat="42.25991" lon="23.10592">
        <ele>548.66204</ele>
        <time>2022-04-06T07:53:26.896Z</time>
      </trkpt>
      <trkpt lat="42.25983" lon="23.10583">
        <ele>548.226928</ele>
        <time>2022-04-06T07:53:28.874Z</time>
      </trkpt>
      <trkpt lat="42.25974" lon="23.10573">
        <ele>547.794371</ele>
        <time>2022-04-06T07:53:30.876Z</time>
      </trkpt>
      <trkpt lat="42.25967" lon="23.10564">
        <ele>547.417232</ele>
        <time>2022-04-06T07:53:32.908Z</time>
      </trkpt>
      <trkpt lat="42.2596" lon="23.10556">
        <ele>547.1994</ele>
        <time>2022-04-06T07:53:34.867Z</time>
      </trkpt>
      <trkpt lat="42.25954" lon="23.10547">
        <ele>546.988757</ele>
        <time>2022-04-06T07:53:36.874Z</time>
      </trkpt>
      <trkpt lat="42.25947" lon="23.10539">
        <ele>546.773871</ele>
        <time>2022-04-06T07:53:38.890Z</time>
      </trkpt>
      <trkpt lat="42.25939" lon="23.10529">
        <ele>546.546207</ele>
        <time>2022-04-06T07:53:40.876Z</time>
      </trkpt>
      <trkpt lat="42.25931" lon="23.10519">
        <ele>546.291896</ele>
        <time>2022-04-06T07:53:42.865Z</time>
      </trkpt>
      <trkpt lat="42.25923" lon="23.10509">
        <ele>546.047026</ele>
        <time>2022-04-06T07:53:44.896Z</time>
      </trkpt>
      <trkpt lat="42.25915" lon="23.10501">
        <ele>545.82027</ele>
        <time>2022-04-06T07:53:46.868Z</time>
      </trkpt>
      <trkpt lat="42.25907" lon="23.10491">
        <ele>545.590391</ele>
        <time>2022-04-06T07:53:48.875Z</time>
      </trkpt>
      <trkpt lat="42.25897" lon="23.10482">
        <ele>545.321802</ele>
        <time>2022-04-06T07:53:50.874Z</time>
      </trkpt>
      <trkpt lat="42.25888" lon="23.10472">
        <ele>545.047473</ele>
        <time>2022-04-06T07:53:52.867Z</time>
      </trkpt>
      <trkpt lat="42.25878" lon="23.10463">
        <ele>544.789879</ele>
        <time>2022-04-06T07:53:54.872Z</time>
      </trkpt>
      <trkpt lat="42.25871" lon="23.10452">
        <ele>544.546045</ele>
        <time>2022-04-06T07:53:56.891Z</time>
      </trkpt>
      <trkpt lat="42.25862" lon="23.10441">
        <ele>544.272017</ele>
        <time>2022-04-06T07:53:58.869Z</time>
      </trkpt>
      <trkpt lat="42.25853" lon="23.10431">
        <ele>544.004153</ele>
        <time>2022-04-06T07:54:00.869Z</time>
      </trkpt>
      <trkpt lat="42.25844" lon="23.10421">
        <ele>543.751271</ele>
        <time>2022-04-06T07:54:02.898Z</time>
      </trkpt>
      <trkpt lat="42.25834" lon="23.10413">
        <ele>543.495753</ele>
        <time>2022-04-06T07:54:04.888Z</time>
      </trkpt>
      <trkpt lat="42.25825" lon="23.10405">
        <ele>543.107176</ele>
        <time>2022-04-06T07:54:06.877Z</time>
      </trkpt>
      <trkpt lat="42.25816" lon="23.10397">
        <ele>542.531971</ele>
        <time>2022-04-06T07:54:08.901Z</time>
      </trkpt>
      <trkpt lat="42.25808" lon="23.10388">
        <ele>541.95719</ele>
        <time>2022-04-06T07:54:10.879Z</time>
      </trkpt>
      <trkpt lat="42.258" lon="23.10379">
        <ele>541.388765</ele>
        <time>2022-04-06T07:54:12.873Z</time>
      </trkpt>
      <trkpt lat="42.25793" lon="23.10371">
        <ele>540.872236</ele>
        <time>2022-04-06T07:54:14.899Z</time>
      </trkpt>
      <trkpt lat="42.25786" lon="23.10363">
        <ele>540.327513</ele>
        <time>2022-04-06T07:54:16.875Z</time>
      </trkpt>
      <trkpt lat="42.25778" lon="23.10355">
        <ele>539.792846</ele>
        <time>2022-04-06T07:54:18.867Z</time>
      </trkpt>
      <trkpt lat="42.2577" lon="23.10347">
        <ele>539.25818</ele>
        <time>2022-04-06T07:54:20.866Z</time>
      </trkpt>
      <trkpt lat="42.25763" lon="23.10338">
        <ele>538.726631</ele>
        <time>2022-04-06T07:54:22.877Z</time>
      </trkpt>
      <trkpt lat="42.25756" lon="23.10329">
        <ele>538.187906</ele>
        <time>2022-04-06T07:54:24.867Z</time>
      </trkpt>
      <trkpt lat="42.25747" lon="23.10322">
        <ele>537.637986</ele>
        <time>2022-04-06T07:54:26.895Z</time>
      </trkpt>
      <trkpt lat="42.25739" lon="23.10314">
        <ele>537.085758</ele>
        <time>2022-04-06T07:54:28.868Z</time>
      </trkpt>
      <trkpt lat="42.25732" lon="23.10307">
        <ele>536.583982</ele>
        <time>2022-04-06T07:54:30.874Z</time>
      </trkpt>
      <trkpt lat="42.25724" lon="23.103">
        <ele>536.068315</ele>
        <time>2022-04-06T07:54:32.908Z</time>
      </trkpt>
      <trkpt lat="42.25716" lon="23.10294">
        <ele>535.537791</ele>
        <time>2022-04-06T07:54:34.874Z</time>
      </trkpt>
      <trkpt lat="42.25707" lon="23.10288">
        <ele>535.005544</ele>
        <time>2022-04-06T07:54:36.877Z</time>
      </trkpt>
      <trkpt lat="42.25699" lon="23.10281">
        <ele>534.483038</ele>
        <time>2022-04-06T07:54:38.874Z</time>
      </trkpt>
      <trkpt lat="42.2569" lon="23.10276">
        <ele>533.940108</ele>
        <time>2022-04-06T07:54:40.874Z</time>
      </trkpt>
      <trkpt lat="42.25682" lon="23.1027">
        <ele>533.422112</ele>
        <time>2022-04-06T07:54:42.873Z</time>
      </trkpt>
      <trkpt lat="42.25674" lon="23.10264">
        <ele>533.273</ele>
        <time>2022-04-06T07:54:44.870Z</time>
      </trkpt>
      <trkpt lat="42.25662" lon="23.10255">
        <ele>533.089049</ele>
        <time>2022-04-06T07:54:47.874Z</time>
      </trkpt>
      <trkpt lat="42.25651" lon="23.10247">
        <ele>532.902225</ele>
        <time>2022-04-06T07:54:50.870Z</time>
      </trkpt>
      <trkpt lat="42.25643" lon="23.10241">
        <ele>532.77454</ele>
        <time>2022-04-06T07:54:52.875Z</time>
      </trkpt>
      <trkpt lat="42.25631" lon="23.10233">
        <ele>532.592418</ele>
        <time>2022-04-06T07:54:55.876Z</time>
      </trkpt>
      <trkpt lat="42.25623" lon="23.10226">
        <ele>532.462428</ele>
        <time>2022-04-06T07:54:57.872Z</time>
      </trkpt>
      <trkpt lat="42.25612" lon="23.10217">
        <ele>532.279288</ele>
        <time>2022-04-06T07:55:00.902Z</time>
      </trkpt>
      <trkpt lat="42.25602" lon="23.10208">
        <ele>532.112017</ele>
        <time>2022-04-06T07:55:03.872Z</time>
      </trkpt>
      <trkpt lat="42.25592" lon="23.10199">
        <ele>531.933714</ele>
        <time>2022-04-06T07:55:06.899Z</time>
      </trkpt>
      <trkpt lat="42.25581" lon="23.1019">
        <ele>531.755803</ele>
        <time>2022-04-06T07:55:09.875Z</time>
      </trkpt>
      <trkpt lat="42.2557" lon="23.10182">
        <ele>531.585499</ele>
        <time>2022-04-06T07:55:12.906Z</time>
      </trkpt>
      <trkpt lat="42.2556" lon="23.10175">
        <ele>531.422403</ele>
        <time>2022-04-06T07:55:15.866Z</time>
      </trkpt>
      <trkpt lat="42.2555" lon="23.10168">
        <ele>531.268874</ele>
        <time>2022-04-06T07:55:18.898Z</time>
      </trkpt>
      <trkpt lat="42.2554" lon="23.1016">
        <ele>531.106051</ele>
        <time>2022-04-06T07:55:21.886Z</time>
      </trkpt>
      <trkpt lat="42.2553" lon="23.10153">
        <ele>530.936795</ele>
        <time>2022-04-06T07:55:24.897Z</time>
      </trkpt>
      <trkpt lat="42.25519" lon="23.10145">
        <ele>530.776271</ele>
        <time>2022-04-06T07:55:27.878Z</time>
      </trkpt>
      <trkpt lat="42.25509" lon="23.10138">
        <ele>530.62893</ele>
        <time>2022-04-06T07:55:30.894Z</time>
      </trkpt>
      <trkpt lat="42.25499" lon="23.10131">
        <ele>530.484959</ele>
        <time>2022-04-06T07:55:33.880Z</time>
      </trkpt>
      <trkpt lat="42.25489" lon="23.10122">
        <ele>530.334593</ele>
        <time>2022-04-06T07:55:36.894Z</time>
      </trkpt>
      <trkpt lat="42.25479" lon="23.10113">
        <ele>530.182633</ele>
        <time>2022-04-06T07:55:39.872Z</time>
      </trkpt>
      <trkpt lat="42.25469" lon="23.10104">
        <ele>530.028447</ele>
        <time>2022-04-06T07:55:42.905Z</time>
      </trkpt>
      <trkpt lat="42.25458" lon="23.10097">
        <ele>529.871583</ele>
        <time>2022-04-06T07:55:45.884Z</time>
      </trkpt>
      <trkpt lat="42.25448" lon="23.10089">
        <ele>529.721288</ele>
        <time>2022-04-06T07:55:48.873Z</time>
      </trkpt>
      <trkpt lat="42.25438" lon="23.10081">
        <ele>529.57555</ele>
        <time>2022-04-06T07:55:51.877Z</time>
      </trkpt>
      <trkpt lat="42.25429" lon="23.10074">
        <ele>529.443618</ele>
        <time>2022-04-06T07:55:54.872Z</time>
      </trkpt>
      <trkpt lat="42.25419" lon="23.10065">
        <ele>529.289002</ele>
        <time>2022-04-06T07:55:57.930Z</time>
      </trkpt>
      <trkpt lat="42.25409" lon="23.10056">
        <ele>529.12995</ele>
        <time>2022-04-06T07:56:00.870Z</time>
      </trkpt>
      <trkpt lat="42.25398" lon="23.10048">
        <ele>528.967714</ele>
        <time>2022-04-06T07:56:03.881Z</time>
      </trkpt>
      <trkpt lat="42.25387" lon="23.1004">
        <ele>528.808841</ele>
        <time>2022-04-06T07:56:06.897Z</time>
      </trkpt>
      <trkpt lat="42.25376" lon="23.10032">
        <ele>528.64522</ele>
        <time>2022-04-06T07:56:09.892Z</time>
      </trkpt>
      <trkpt lat="42.25365" lon="23.10023">
        <ele>528.595127</ele>
        <time>2022-04-06T07:56:12.900Z</time>
      </trkpt>
      <trkpt lat="42.25356" lon="23.10017">
        <ele>528.649156</ele>
        <time>2022-04-06T07:56:14.911Z</time>
      </trkpt>
      <trkpt lat="42.25347" lon="23.10011">
        <ele>528.703959</ele>
        <time>2022-04-06T07:56:16.881Z</time>
      </trkpt>
      <trkpt lat="42.25339" lon="23.10004">
        <ele>528.757164</ele>
        <time>2022-04-06T07:56:18.887Z</time>
      </trkpt>
      <trkpt lat="42.2533" lon="23.09996">
        <ele>528.814847</ele>
        <time>2022-04-06T07:56:21.886Z</time>
      </trkpt>
      <trkpt lat="42.25323" lon="23.09987">
        <ele>528.868092</ele>
        <time>2022-04-06T07:56:25.895Z</time>
      </trkpt>
      <trkpt lat="42.2532" lon="23.09976">
        <ele>528.917905</ele>
        <time>2022-04-06T07:56:29.874Z</time>
      </trkpt>
      <trkpt lat="42.25317" lon="23.0996">
        <ele>528.984112</ele>
        <time>2022-04-06T07:56:34.873Z</time>
      </trkpt>
      <trkpt lat="42.25314" lon="23.09946">
        <ele>529.042694</ele>
        <time>2022-04-06T07:56:37.917Z</time>
      </trkpt>
      <trkpt lat="42.25311" lon="23.09929">
        <ele>529.114823</ele>
        <time>2022-04-06T07:56:40.869Z</time>
      </trkpt>
      <trkpt lat="42.2531" lon="23.09915">
        <ele>529.171096</ele>
        <time>2022-04-06T07:56:42.872Z</time>
      </trkpt>
      <trkpt lat="42.25308" lon="23.09901">
        <ele>529.228713</ele>
        <time>2022-04-06T07:56:44.873Z</time>
      </trkpt>
      <trkpt lat="42.25307" lon="23.09887">
        <ele>529.285713</ele>
        <time>2022-04-06T07:56:46.872Z</time>
      </trkpt>
      <trkpt lat="42.25306" lon="23.09873">
        <ele>529.34498</ele>
        <time>2022-04-06T07:56:48.868Z</time>
      </trkpt>
      <trkpt lat="42.25305" lon="23.09858">
        <ele>529.404609</ele>
        <time>2022-04-06T07:56:50.879Z</time>
      </trkpt>
      <trkpt lat="42.25304" lon="23.09843">
        <ele>529.463978</ele>
        <time>2022-04-06T07:56:52.900Z</time>
      </trkpt>
      <trkpt lat="42.25303" lon="23.09829">
        <ele>529.523608</ele>
        <time>2022-04-06T07:56:54.875Z</time>
      </trkpt>
      <trkpt lat="42.25302" lon="23.09815">
        <ele>529.337608</ele>
        <time>2022-04-06T07:56:56.875Z</time>
      </trkpt>
      <trkpt lat="42.25301" lon="23.09801">
        <ele>528.938999</ele>
        <time>2022-04-06T07:56:58.899Z</time>
      </trkpt>
      <trkpt lat="42.25301" lon="23.09787">
        <ele>528.559238</ele>
        <time>2022-04-06T07:57:00.879Z</time>
      </trkpt>
      <trkpt lat="42.25301" lon="23.09774">
        <ele>528.185126</ele>
        <time>2022-04-06T07:57:02.871Z</time>
      </trkpt>
      <trkpt lat="42.25301" lon="23.09761">
        <ele>527.819515</ele>
        <time>2022-04-06T07:57:04.869Z</time>
      </trkpt>
      <trkpt lat="42.25301" lon="23.09748">
        <ele>527.445344</ele>
        <time>2022-04-06T07:57:06.890Z</time>
      </trkpt>
      <trkpt lat="42.25301" lon="23.09734">
        <ele>527.059839</ele>
        <time>2022-04-06T07:57:08.880Z</time>
      </trkpt>
      <trkpt lat="42.25301" lon="23.0972">
        <ele>526.66024</ele>
        <time>2022-04-06T07:57:10.905Z</time>
      </trkpt>
      <trkpt lat="42.25301" lon="23.09706">
        <ele>526.269068</ele>
        <time>2022-04-06T07:57:12.877Z</time>
      </trkpt>
      <trkpt lat="42.253" lon="23.09693">
        <ele>525.888825</ele>
        <time>2022-04-06T07:57:14.873Z</time>
      </trkpt>
      <trkpt lat="42.253" lon="23.09679">
        <ele>525.500543</ele>
        <time>2022-04-06T07:57:16.911Z</time>
      </trkpt>
      <trkpt lat="42.253" lon="23.09665">
        <ele>525.092369</ele>
        <time>2022-04-06T07:57:18.873Z</time>
      </trkpt>
      <trkpt lat="42.25299" lon="23.09651">
        <ele>524.689481</ele>
        <time>2022-04-06T07:57:20.875Z</time>
      </trkpt>
      <trkpt lat="42.25297" lon="23.09637">
        <ele>524.291675</ele>
        <time>2022-04-06T07:57:22.868Z</time>
      </trkpt>
      <trkpt lat="42.25295" lon="23.09624">
        <ele>523.910038</ele>
        <time>2022-04-06T07:57:24.881Z</time>
      </trkpt>
      <trkpt lat="42.25291" lon="23.09612">
        <ele>523.54724</ele>
        <time>2022-04-06T07:57:26.869Z</time>
      </trkpt>
      <trkpt lat="42.25286" lon="23.09596">
        <ele>523.0463</ele>
        <time>2022-04-06T07:57:29.879Z</time>
      </trkpt>
      <trkpt lat="42.25284" lon="23.09582">
        <ele>522.662624</ele>
        <time>2022-04-06T07:57:32.874Z</time>
      </trkpt>
      <trkpt lat="42.25289" lon="23.09571">
        <ele>522.582642</ele>
        <time>2022-04-06T07:57:37.870Z</time>
      </trkpt>
      <trkpt lat="42.25294" lon="23.09559">
        <ele>522.495305</ele>
        <time>2022-04-06T07:57:41.883Z</time>
      </trkpt>
      <trkpt lat="42.25294" lon="23.09544">
        <ele>522.407302</ele>
        <time>2022-04-06T07:57:44.872Z</time>
      </trkpt>
      <trkpt lat="42.25286" lon="23.0953">
        <ele>522.306181</ele>
        <time>2022-04-06T07:57:47.885Z</time>
      </trkpt>
      <trkpt lat="42.25276" lon="23.09521">
        <ele>522.204065</ele>
        <time>2022-04-06T07:57:50.872Z</time>
      </trkpt>
      <trkpt lat="42.2527" lon="23.0951">
        <ele>522.120811</ele>
        <time>2022-04-06T07:57:53.867Z</time>
      </trkpt>
      <trkpt lat="42.25269" lon="23.09494">
        <ele>522.024298</ele>
        <time>2022-04-06T07:57:56.877Z</time>
      </trkpt>
      <trkpt lat="42.2527" lon="23.09479">
        <ele>521.932982</ele>
        <time>2022-04-06T07:57:59.874Z</time>
      </trkpt>
      <trkpt lat="42.25272" lon="23.09464">
        <ele>521.843377</ele>
        <time>2022-04-06T07:58:02.869Z</time>
      </trkpt>
      <trkpt lat="42.25272" lon="23.09449">
        <ele>521.751207</ele>
        <time>2022-04-06T07:58:05.873Z</time>
      </trkpt>
      <trkpt lat="42.25272" lon="23.09433">
        <ele>521.655484</ele>
        <time>2022-04-06T07:58:08.868Z</time>
      </trkpt>
      <trkpt lat="42.25273" lon="23.09417">
        <ele>521.563313</ele>
        <time>2022-04-06T07:58:11.873Z</time>
      </trkpt>
      <trkpt lat="42.25274" lon="23.09402">
        <ele>521.472672</ele>
        <time>2022-04-06T07:58:14.872Z</time>
      </trkpt>
      <trkpt lat="42.25275" lon="23.09387">
        <ele>521.379214</ele>
        <time>2022-04-06T07:58:17.872Z</time>
      </trkpt>
      <trkpt lat="42.25275" lon="23.09372">
        <ele>521.286843</ele>
        <time>2022-04-06T07:58:20.871Z</time>
      </trkpt>
      <trkpt lat="42.25276" lon="23.09356">
        <ele>521.25223</ele>
        <time>2022-04-06T07:58:23.866Z</time>
      </trkpt>
      <trkpt lat="42.25276" lon="23.0934">
        <ele>521.801824</ele>
        <time>2022-04-06T07:58:26.874Z</time>
      </trkpt>
      <trkpt lat="42.25277" lon="23.09324">
        <ele>522.328787</ele>
        <time>2022-04-06T07:58:29.874Z</time>
      </trkpt>
      <trkpt lat="42.25278" lon="23.09308">
        <ele>522.864909</ele>
        <time>2022-04-06T07:58:32.872Z</time>
      </trkpt>
      <trkpt lat="42.25278" lon="23.09293">
        <ele>523.381787</ele>
        <time>2022-04-06T07:58:35.877Z</time>
      </trkpt>
      <trkpt lat="42.25279" lon="23.09278">
        <ele>523.88557</ele>
        <time>2022-04-06T07:58:38.872Z</time>
      </trkpt>
      <trkpt lat="42.25281" lon="23.09262">
        <ele>524.428507</ele>
        <time>2022-04-06T07:58:41.886Z</time>
      </trkpt>
      <trkpt lat="42.25282" lon="23.0925">
        <ele>524.837886</ele>
        <time>2022-04-06T07:58:43.913Z</time>
      </trkpt>
      <trkpt lat="42.25283" lon="23.09232">
        <ele>525.429739</ele>
        <time>2022-04-06T07:58:46.900Z</time>
      </trkpt>
      <trkpt lat="42.25284" lon="23.09215">
        <ele>526.023118</ele>
        <time>2022-04-06T07:58:49.877Z</time>
      </trkpt>
      <trkpt lat="42.25283" lon="23.09198">
        <ele>526.599818</ele>
        <time>2022-04-06T07:58:52.897Z</time>
      </trkpt>
      <trkpt lat="42.25282" lon="23.09183">
        <ele>527.099276</ele>
        <time>2022-04-06T07:58:55.883Z</time>
      </trkpt>
      <trkpt lat="42.25278" lon="23.09169">
        <ele>527.597243</ele>
        <time>2022-04-06T07:58:59.877Z</time>
      </trkpt>
      <trkpt lat="42.25275" lon="23.09156">
        <ele>528.079206</ele>
        <time>2022-04-06T07:59:04.893Z</time>
      </trkpt>
      <trkpt lat="42.25271" lon="23.09142">
        <ele>528.561168</ele>
        <time>2022-04-06T07:59:09.882Z</time>
      </trkpt>
      <trkpt lat="42.25269" lon="23.09128">
        <ele>529.035044</ele>
        <time>2022-04-06T07:59:14.877Z</time>
      </trkpt>
      <trkpt lat="42.25265" lon="23.09117">
        <ele>529.585268</ele>
        <time>2022-04-06T07:59:19.886Z</time>
      </trkpt>
      <trkpt lat="42.2526" lon="23.09105">
        <ele>530.787752</ele>
        <time>2022-04-06T07:59:24.876Z</time>
      </trkpt>
      <trkpt lat="42.25258" lon="23.09092">
        <ele>531.98007</ele>
        <time>2022-04-06T07:59:30.868Z</time>
      </trkpt>
      <trkpt lat="42.25257" lon="23.0908">
        <ele>533.110174</ele>
        <time>2022-04-06T07:59:35.876Z</time>
      </trkpt>
      <trkpt lat="42.25257" lon="23.09066">
        <ele>534.368323</ele>
        <time>2022-04-06T07:59:41.883Z</time>
      </trkpt>
      <trkpt lat="42.25256" lon="23.09052">
        <ele>535.644514</ele>
        <time>2022-04-06T07:59:47.884Z</time>
      </trkpt>
      <trkpt lat="42.25255" lon="23.09039">
        <ele>536.855209</ele>
        <time>2022-04-06T07:59:53.875Z</time>
      </trkpt>
      <trkpt lat="42.25254" lon="23.09026">
        <ele>538.028574</ele>
        <time>2022-04-06T07:59:59.879Z</time>
      </trkpt>
      <trkpt lat="42.25254" lon="23.09013">
        <ele>539.176417</ele>
        <time>2022-04-06T08:00:04.868Z</time>
      </trkpt>
      <trkpt lat="42.25253" lon="23.08999">
        <ele>540.441999</ele>
        <time>2022-04-06T08:00:10.888Z</time>
      </trkpt>
      <trkpt lat="42.25253" lon="23.08986">
        <ele>541.66486</ele>
        <time>2022-04-06T08:00:16.902Z</time>
      </trkpt>
      <trkpt lat="42.25254" lon="23.08972">
        <ele>542.874139</ele>
        <time>2022-04-06T08:00:22.868Z</time>
      </trkpt>
      <trkpt lat="42.25255" lon="23.08959">
        <ele>544.064145</ele>
        <time>2022-04-06T08:00:28.900Z</time>
      </trkpt>
      <trkpt lat="42.25257" lon="23.08947">
        <ele>545.198791</ele>
        <time>2022-04-06T08:00:34.899Z</time>
      </trkpt>
      <trkpt lat="42.25258" lon="23.08933">
        <ele>546.496696</ele>
        <time>2022-04-06T08:00:40.911Z</time>
      </trkpt>
      <trkpt lat="42.2526" lon="23.08921">
        <ele>547.594212</ele>
        <time>2022-04-06T08:00:45.880Z</time>
      </trkpt>
      <trkpt lat="42.25263" lon="23.08908">
        <ele>548.812442</ele>
        <time>2022-04-06T08:00:50.871Z</time>
      </trkpt>
      <trkpt lat="42.25265" lon="23.08896">
        <ele>549.943089</ele>
        <time>2022-04-06T08:00:55.885Z</time>
      </trkpt>
      <trkpt lat="42.25268" lon="23.08883">
        <ele>551.130488</ele>
        <time>2022-04-06T08:01:00.874Z</time>
      </trkpt>
      <trkpt lat="42.25272" lon="23.0887">
        <ele>551.247703</ele>
        <time>2022-04-06T08:01:05.889Z</time>
      </trkpt>
      <trkpt lat="42.25276" lon="23.08856">
        <ele>551.121625</ele>
        <time>2022-04-06T08:01:09.886Z</time>
      </trkpt>
      <trkpt lat="42.2528" lon="23.08842">
        <ele>551.001035</ele>
        <time>2022-04-06T08:01:13.880Z</time>
      </trkpt>
      <trkpt lat="42.25284" lon="23.08831">
        <ele>550.900193</ele>
        <time>2022-04-06T08:01:16.877Z</time>
      </trkpt>
      <trkpt lat="42.25288" lon="23.08818">
        <ele>550.781925</ele>
        <time>2022-04-06T08:01:20.871Z</time>
      </trkpt>
      <trkpt lat="42.25294" lon="23.08806">
        <ele>550.658399</ele>
        <time>2022-04-06T08:01:24.868Z</time>
      </trkpt>
      <trkpt lat="42.25299" lon="23.08795">
        <ele>550.552264</ele>
        <time>2022-04-06T08:01:27.872Z</time>
      </trkpt>
      <trkpt lat="42.25305" lon="23.08782">
        <ele>550.42188</ele>
        <time>2022-04-06T08:01:31.885Z</time>
      </trkpt>
      <trkpt lat="42.25311" lon="23.08772">
        <ele>550.31405</ele>
        <time>2022-04-06T08:01:34.874Z</time>
      </trkpt>
      <trkpt lat="42.25319" lon="23.08761">
        <ele>550.187132</ele>
        <time>2022-04-06T08:01:38.875Z</time>
      </trkpt>
      <trkpt lat="42.25325" lon="23.08748">
        <ele>550.055648</ele>
        <time>2022-04-06T08:01:42.872Z</time>
      </trkpt>
      <trkpt lat="42.25332" lon="23.08734">
        <ele>549.919993</ele>
        <time>2022-04-06T08:01:46.875Z</time>
      </trkpt>
      <trkpt lat="42.25338" lon="23.08724">
        <ele>549.812656</ele>
        <time>2022-04-06T08:01:49.914Z</time>
      </trkpt>
      <trkpt lat="42.25344" lon="23.08714">
        <ele>549.705966</ele>
        <time>2022-04-06T08:01:52.876Z</time>
      </trkpt>
      <trkpt lat="42.25349" lon="23.08703">
        <ele>549.593937</ele>
        <time>2022-04-06T08:01:55.879Z</time>
      </trkpt>
      <trkpt lat="42.25355" lon="23.08692">
        <ele>549.486541</ele>
        <time>2022-04-06T08:01:58.872Z</time>
      </trkpt>
      <trkpt lat="42.2536" lon="23.08681">
        <ele>549.377239</ele>
        <time>2022-04-06T08:02:01.879Z</time>
      </trkpt>
      <trkpt lat="42.25364" lon="23.0867">
        <ele>549.303317</ele>
        <time>2022-04-06T08:02:04.884Z</time>
      </trkpt>
      <trkpt lat="42.25368" lon="23.08658">
        <ele>549.262802</ele>
        <time>2022-04-06T08:02:07.885Z</time>
      </trkpt>
      <trkpt lat="42.25372" lon="23.08646">
        <ele>549.221045</ele>
        <time>2022-04-06T08:02:10.869Z</time>
      </trkpt>
      <trkpt lat="42.25375" lon="23.08632">
        <ele>549.178697</ele>
        <time>2022-04-06T08:02:13.881Z</time>
      </trkpt>
      <trkpt lat="42.25378" lon="23.08618">
        <ele>549.133538</ele>
        <time>2022-04-06T08:02:16.879Z</time>
      </trkpt>
      <trkpt lat="42.25381" lon="23.08604">
        <ele>549.087916</ele>
        <time>2022-04-06T08:02:19.870Z</time>
      </trkpt>
      <trkpt lat="42.25385" lon="23.08588">
        <ele>549.039308</ele>
        <time>2022-04-06T08:02:22.895Z</time>
      </trkpt>
      <trkpt lat="42.25389" lon="23.08573">
        <ele>548.991152</ele>
        <time>2022-04-06T08:02:25.883Z</time>
      </trkpt>
      <trkpt lat="42.25392" lon="23.08559">
        <ele>548.943574</ele>
        <time>2022-04-06T08:02:28.901Z</time>
      </trkpt>
      <trkpt lat="42.25395" lon="23.08544">
        <ele>548.896944</ele>
        <time>2022-04-06T08:02:31.892Z</time>
      </trkpt>
      <trkpt lat="42.25398" lon="23.08531">
        <ele>548.855345</ele>
        <time>2022-04-06T08:02:34.901Z</time>
      </trkpt>
      <trkpt lat="42.25402" lon="23.08517">
        <ele>548.809472</ele>
        <time>2022-04-06T08:02:37.897Z</time>
      </trkpt>
      <trkpt lat="42.25406" lon="23.08503">
        <ele>548.763427</ele>
        <time>2022-04-06T08:02:40.899Z</time>
      </trkpt>
      <trkpt lat="42.25411" lon="23.0849">
        <ele>548.718907</ele>
        <time>2022-04-06T08:02:43.885Z</time>
      </trkpt>
      <trkpt lat="42.25417" lon="23.08478">
        <ele>548.675991</ele>
        <time>2022-04-06T08:02:46.897Z</time>
      </trkpt>
      <trkpt lat="42.25423" lon="23.08466">
        <ele>548.633147</ele>
        <time>2022-04-06T08:02:49.870Z</time>
      </trkpt>
      <trkpt lat="42.2543" lon="23.08455">
        <ele>548.588732</ele>
        <time>2022-04-06T08:02:52.871Z</time>
      </trkpt>
      <trkpt lat="42.25438" lon="23.08444">
        <ele>547.793359</ele>
        <time>2022-04-06T08:02:55.872Z</time>
      </trkpt>
      <trkpt lat="42.25446" lon="23.08435">
        <ele>546.869681</ele>
        <time>2022-04-06T08:02:58.891Z</time>
      </trkpt>
      <trkpt lat="42.25455" lon="23.08426">
        <ele>545.958845</ele>
        <time>2022-04-06T08:03:01.879Z</time>
      </trkpt>
      <trkpt lat="42.25464" lon="23.08419">
        <ele>545.061954</ele>
        <time>2022-04-06T08:03:04.900Z</time>
      </trkpt>
      <trkpt lat="42.25473" lon="23.08413">
        <ele>544.19717</ele>
        <time>2022-04-06T08:03:07.875Z</time>
      </trkpt>
      <trkpt lat="42.25481" lon="23.08407">
        <ele>543.396959</ele>
        <time>2022-04-06T08:03:10.899Z</time>
      </trkpt>
      <trkpt lat="42.25491" lon="23.08402">
        <ele>542.509278</ele>
        <time>2022-04-06T08:03:13.886Z</time>
      </trkpt>
      <trkpt lat="42.25501" lon="23.08397">
        <ele>541.563603</ele>
        <time>2022-04-06T08:03:17.883Z</time>
      </trkpt>
      <trkpt lat="42.25513" lon="23.08391">
        <ele>540.519131</ele>
        <time>2022-04-06T08:03:21.900Z</time>
      </trkpt>
      <trkpt lat="42.25523" lon="23.08385">
        <ele>539.579838</ele>
        <time>2022-04-06T08:03:24.884Z</time>
      </trkpt>
      <trkpt lat="42.25534" lon="23.0838">
        <ele>538.58377</ele>
        <time>2022-04-06T08:03:28.870Z</time>
      </trkpt>
      <trkpt lat="42.25545" lon="23.08374">
        <ele>537.622791</ele>
        <time>2022-04-06T08:03:32.881Z</time>
      </trkpt>
      <trkpt lat="42.25555" lon="23.08368">
        <ele>536.665421</ele>
        <time>2022-04-06T08:03:36.879Z</time>
      </trkpt>
      <trkpt lat="42.25563" lon="23.08363">
        <ele>535.858109</ele>
        <time>2022-04-06T08:03:39.877Z</time>
      </trkpt>
      <trkpt lat="42.25572" lon="23.08357">
        <ele>535.050797</ele>
        <time>2022-04-06T08:03:42.881Z</time>
      </trkpt>
      <trkpt lat="42.25582" lon="23.08349">
        <ele>534.073795</ele>
        <time>2022-04-06T08:03:46.871Z</time>
      </trkpt>
      <trkpt lat="42.25591" lon="23.08339">
        <ele>533.535894</ele>
        <time>2022-04-06T08:03:50.894Z</time>
      </trkpt>
      <trkpt lat="42.25599" lon="23.08329">
        <ele>534.860984</ele>
        <time>2022-04-06T08:03:54.873Z</time>
      </trkpt>
      <trkpt lat="42.25607" lon="23.08319">
        <ele>536.203871</ele>
        <time>2022-04-06T08:03:58.873Z</time>
      </trkpt>
      <trkpt lat="42.25615" lon="23.08307">
        <ele>537.607974</ele>
        <time>2022-04-06T08:04:02.883Z</time>
      </trkpt>
      <trkpt lat="42.25621" lon="23.08294">
        <ele>539.031136</ele>
        <time>2022-04-06T08:04:06.869Z</time>
      </trkpt>
      <trkpt lat="42.25626" lon="23.08281">
        <ele>540.354093</ele>
        <time>2022-04-06T08:04:10.870Z</time>
      </trkpt>
      <trkpt lat="42.25629" lon="23.08268">
        <ele>541.593579</ele>
        <time>2022-04-06T08:04:14.875Z</time>
      </trkpt>
      <trkpt lat="42.25632" lon="23.08255">
        <ele>542.791687</ele>
        <time>2022-04-06T08:04:18.894Z</time>
      </trkpt>
      <trkpt lat="42.25636" lon="23.08242">
        <ele>544.076676</ele>
        <time>2022-04-06T08:04:22.882Z</time>
      </trkpt>
      <trkpt lat="42.2564" lon="23.08229">
        <ele>545.353392</ele>
        <time>2022-04-06T08:04:26.880Z</time>
      </trkpt>
      <trkpt lat="42.25644" lon="23.08215">
        <ele>546.71043</ele>
        <time>2022-04-06T08:04:30.876Z</time>
      </trkpt>
      <trkpt lat="42.25648" lon="23.082">
        <ele>548.099649</ele>
        <time>2022-04-06T08:04:34.870Z</time>
      </trkpt>
      <trkpt lat="42.25653" lon="23.08187">
        <ele>549.417421</ele>
        <time>2022-04-06T08:04:38.877Z</time>
      </trkpt>
      <trkpt lat="42.25657" lon="23.08175">
        <ele>550.632964</ele>
        <time>2022-04-06T08:04:42.871Z</time>
      </trkpt>
      <trkpt lat="42.25662" lon="23.08163">
        <ele>551.835808</ele>
        <time>2022-04-06T08:04:46.930Z</time>
      </trkpt>
      <trkpt lat="42.25667" lon="23.08151">
        <ele>553.09953</ele>
        <time>2022-04-06T08:04:50.907Z</time>
      </trkpt>
      <trkpt lat="42.25673" lon="23.08138">
        <ele>554.44351</ele>
        <time>2022-04-06T08:04:54.907Z</time>
      </trkpt>
      <trkpt lat="42.25679" lon="23.08126">
        <ele>555.004054</ele>
        <time>2022-04-06T08:04:58.884Z</time>
      </trkpt>
      <trkpt lat="42.25684" lon="23.08116">
        <ele>554.874231</ele>
        <time>2022-04-06T08:05:01.923Z</time>
      </trkpt>
      <trkpt lat="42.25691" lon="23.08104">
        <ele>554.710146</ele>
        <time>2022-04-06T08:05:05.911Z</time>
      </trkpt>
      <trkpt lat="42.25697" lon="23.0809">
        <ele>554.541642</ele>
        <time>2022-04-06T08:05:09.893Z</time>
      </trkpt>
      <trkpt lat="42.25704" lon="23.08078">
        <ele>554.378423</ele>
        <time>2022-04-06T08:05:13.908Z</time>
      </trkpt>
      <trkpt lat="42.2571" lon="23.08066">
        <ele>554.219483</ele>
        <time>2022-04-06T08:05:17.891Z</time>
      </trkpt>
      <trkpt lat="42.25717" lon="23.08055">
        <ele>554.06471</ele>
        <time>2022-04-06T08:05:21.907Z</time>
      </trkpt>
      <trkpt lat="42.25723" lon="23.08043">
        <ele>553.914331</ele>
        <time>2022-04-06T08:05:25.937Z</time>
      </trkpt>
      <trkpt lat="42.2573" lon="23.08031">
        <ele>553.753725</ele>
        <time>2022-04-06T08:05:29.899Z</time>
      </trkpt>
      <trkpt lat="42.25736" lon="23.08019">
        <ele>553.600767</ele>
        <time>2022-04-06T08:05:33.920Z</time>
      </trkpt>
      <trkpt lat="42.25741" lon="23.08009">
        <ele>553.462458</ele>
        <time>2022-04-06T08:05:37.903Z</time>
      </trkpt>
      <trkpt lat="42.25747" lon="23.07998">
        <ele>553.319894</ele>
        <time>2022-04-06T08:05:41.912Z</time>
      </trkpt>
      <trkpt lat="42.25752" lon="23.07988">
        <ele>553.183347</ele>
        <time>2022-04-06T08:05:45.903Z</time>
      </trkpt>
      <trkpt lat="42.25758" lon="23.07978">
        <ele>553.053668</ele>
        <time>2022-04-06T08:05:49.902Z</time>
      </trkpt>
      <trkpt lat="42.25764" lon="23.07969">
        <ele>552.921986</ele>
        <time>2022-04-06T08:05:53.951Z</time>
      </trkpt>
      <trkpt lat="42.25769" lon="23.07959">
        <ele>552.789659</ele>
        <time>2022-04-06T08:05:57.920Z</time>
      </trkpt>
      <trkpt lat="42.25775" lon="23.07947">
        <ele>552.645506</ele>
        <time>2022-04-06T08:06:02.880Z</time>
      </trkpt>
      <trkpt lat="42.25781" lon="23.07935">
        <ele>552.488344</ele>
        <time>2022-04-06T08:06:07.919Z</time>
      </trkpt>
      <trkpt lat="42.25786" lon="23.07925">
        <ele>552.637907</ele>
        <time>2022-04-06T08:06:11.891Z</time>
      </trkpt>
      <trkpt lat="42.25794" lon="23.07914">
        <ele>552.826879</ele>
        <time>2022-04-06T08:06:16.904Z</time>
      </trkpt>
      <trkpt lat="42.258" lon="23.07902">
        <ele>553.013651</ele>
        <time>2022-04-06T08:06:21.905Z</time>
      </trkpt>
      <trkpt lat="42.25806" lon="23.0789">
        <ele>553.184337</ele>
        <time>2022-04-06T08:06:26.940Z</time>
      </trkpt>
      <trkpt lat="42.25812" lon="23.0788">
        <ele>553.348983</ele>
        <time>2022-04-06T08:06:31.890Z</time>
      </trkpt>
      <trkpt lat="42.25817" lon="23.07869">
        <ele>553.516698</ele>
        <time>2022-04-06T08:06:36.897Z</time>
      </trkpt>
      <trkpt lat="42.25823" lon="23.07859">
        <ele>553.679372</ele>
        <time>2022-04-06T08:06:41.901Z</time>
      </trkpt>
      <trkpt lat="42.25829" lon="23.07848">
        <ele>553.838045</ele>
        <time>2022-04-06T08:06:46.884Z</time>
      </trkpt>
      <trkpt lat="42.25835" lon="23.07836">
        <ele>554.017771</ele>
        <time>2022-04-06T08:06:51.923Z</time>
      </trkpt>
      <trkpt lat="42.2584" lon="23.07826">
        <ele>554.169651</ele>
        <time>2022-04-06T08:06:55.914Z</time>
      </trkpt>
      <trkpt lat="42.25846" lon="23.07814">
        <ele>554.347512</ele>
        <time>2022-04-06T08:07:00.876Z</time>
      </trkpt>
      <trkpt lat="42.25852" lon="23.07805">
        <ele>554.501603</ele>
        <time>2022-04-06T08:07:05.894Z</time>
      </trkpt>
      <trkpt lat="42.25857" lon="23.07795">
        <ele>554.659249</ele>
        <time>2022-04-06T08:07:10.903Z</time>
      </trkpt>
      <trkpt lat="42.25864" lon="23.07783">
        <ele>554.847103</ele>
        <time>2022-04-06T08:07:15.896Z</time>
      </trkpt>
      <trkpt lat="42.2587" lon="23.07771">
        <ele>555.02783</ele>
        <time>2022-04-06T08:07:20.949Z</time>
      </trkpt>
      <trkpt lat="42.25877" lon="23.0776">
        <ele>555.210576</ele>
        <time>2022-04-06T08:07:25.901Z</time>
      </trkpt>
      <trkpt lat="42.25883" lon="23.07748">
        <ele>555.397307</ele>
        <time>2022-04-06T08:07:30.918Z</time>
      </trkpt>
      <trkpt lat="42.25891" lon="23.07736">
        <ele>555.477345</ele>
        <time>2022-04-06T08:07:35.891Z</time>
      </trkpt>
      <trkpt lat="42.25897" lon="23.07727">
        <ele>555.374741</ele>
        <time>2022-04-06T08:07:39.904Z</time>
      </trkpt>
      <trkpt lat="42.25903" lon="23.07718">
        <ele>555.267182</ele>
        <time>2022-04-06T08:07:43.901Z</time>
      </trkpt>
      <trkpt lat="42.25911" lon="23.07708">
        <ele>555.146269</ele>
        <time>2022-04-06T08:07:48.914Z</time>
      </trkpt>
      <trkpt lat="42.25918" lon="23.07701">
        <ele>555.04315</ele>
        <time>2022-04-06T08:07:52.925Z</time>
      </trkpt>
      <trkpt lat="42.25925" lon="23.07692">
        <ele>554.93359</ele>
        <time>2022-04-06T08:07:56.933Z</time>
      </trkpt>
      <trkpt lat="42.25933" lon="23.07683">
        <ele>554.818154</ele>
        <time>2022-04-06T08:08:00.911Z</time>
      </trkpt>
      <trkpt lat="42.25941" lon="23.07676">
        <ele>554.713732</ele>
        <time>2022-04-06T08:08:04.885Z</time>
      </trkpt>
      <trkpt lat="42.25948" lon="23.07668">
        <ele>554.607396</ele>
        <time>2022-04-06T08:08:08.900Z</time>
      </trkpt>
      <trkpt lat="42.25957" lon="23.0766">
        <ele>554.488442</ele>
        <time>2022-04-06T08:08:12.893Z</time>
      </trkpt>
      <trkpt lat="42.25966" lon="23.07651">
        <ele>554.364264</ele>
        <time>2022-04-06T08:08:16.931Z</time>
      </trkpt>
      <trkpt lat="42.25973" lon="23.07643">
        <ele>554.259589</ele>
        <time>2022-04-06T08:08:19.900Z</time>
      </trkpt>
      <trkpt lat="42.2598" lon="23.07636">
        <ele>554.157567</ele>
        <time>2022-04-06T08:08:22.933Z</time>
      </trkpt>
      <trkpt lat="42.25988" lon="23.07629">
        <ele>554.052301</ele>
        <time>2022-04-06T08:08:25.900Z</time>
      </trkpt>
      <trkpt lat="42.25996" lon="23.07622">
        <ele>553.938561</ele>
        <time>2022-04-06T08:08:28.931Z</time>
      </trkpt>
      <trkpt lat="42.26005" lon="23.07614">
        <ele>553.818723</ele>
        <time>2022-04-06T08:08:31.910Z</time>
      </trkpt>
      <trkpt lat="42.26013" lon="23.07604">
        <ele>553.695882</ele>
        <time>2022-04-06T08:08:34.949Z</time>
      </trkpt>
      <trkpt lat="42.26022" lon="23.07595">
        <ele>553.570415</ele>
        <time>2022-04-06T08:08:37.906Z</time>
      </trkpt>
      <trkpt lat="42.26031" lon="23.07585">
        <ele>553.433908</ele>
        <time>2022-04-06T08:08:40.904Z</time>
      </trkpt>
      <trkpt lat="42.2604" lon="23.07576">
        <ele>553.277561</ele>
        <time>2022-04-06T08:08:43.901Z</time>
      </trkpt>
      <trkpt lat="42.26049" lon="23.07566">
        <ele>553.122424</ele>
        <time>2022-04-06T08:08:46.899Z</time>
      </trkpt>
      <trkpt lat="42.26059" lon="23.07557">
        <ele>552.964539</ele>
        <time>2022-04-06T08:08:49.901Z</time>
      </trkpt>
      <trkpt lat="42.26068" lon="23.07548">
        <ele>552.810594</ele>
        <time>2022-04-06T08:08:52.906Z</time>
      </trkpt>
      <trkpt lat="42.26076" lon="23.07538">
        <ele>552.663486</ele>
        <time>2022-04-06T08:08:55.887Z</time>
      </trkpt>
      <trkpt lat="42.26085" lon="23.0753">
        <ele>552.520524</ele>
        <time>2022-04-06T08:08:58.877Z</time>
      </trkpt>
      <trkpt lat="42.26093" lon="23.07521">
        <ele>552.380102</ele>
        <time>2022-04-06T08:09:01.898Z</time>
      </trkpt>
      <trkpt lat="42.26101" lon="23.07514">
        <ele>552.251934</ele>
        <time>2022-04-06T08:09:04.896Z</time>
      </trkpt>
      <trkpt lat="42.26108" lon="23.07506">
        <ele>552.124878</ele>
        <time>2022-04-06T08:09:07.888Z</time>
      </trkpt>
      <trkpt lat="42.26116" lon="23.07498">
        <ele>551.996786</ele>
        <time>2022-04-06T08:09:10.904Z</time>
      </trkpt>
      <trkpt lat="42.26123" lon="23.0749">
        <ele>551.866793</ele>
        <time>2022-04-06T08:09:13.886Z</time>
      </trkpt>
      <trkpt lat="42.26131" lon="23.07482">
        <ele>551.738072</ele>
        <time>2022-04-06T08:09:16.884Z</time>
      </trkpt>
      <trkpt lat="42.26137" lon="23.07473">
        <ele>551.611701</ele>
        <time>2022-04-06T08:09:19.902Z</time>
      </trkpt>
      <trkpt lat="42.26146" lon="23.07462">
        <ele>551.450762</ele>
        <time>2022-04-06T08:09:23.911Z</time>
      </trkpt>
      <trkpt lat="42.26153" lon="23.07453">
        <ele>551.323175</ele>
        <time>2022-04-06T08:09:26.887Z</time>
      </trkpt>
      <trkpt lat="42.2616" lon="23.07445">
        <ele>551.19958</ele>
        <time>2022-04-06T08:09:29.897Z</time>
      </trkpt>
      <trkpt lat="42.26169" lon="23.07434">
        <ele>551.135346</ele>
        <time>2022-04-06T08:09:33.903Z</time>
      </trkpt>
      <trkpt lat="42.26177" lon="23.07425">
        <ele>551.675422</ele>
        <time>2022-04-06T08:09:37.903Z</time>
      </trkpt>
      <trkpt lat="42.26186" lon="23.07415">
        <ele>552.233086</ele>
        <time>2022-04-06T08:09:41.909Z</time>
      </trkpt>
      <trkpt lat="42.26195" lon="23.07404">
        <ele>552.802651</ele>
        <time>2022-04-06T08:09:45.903Z</time>
      </trkpt>
      <trkpt lat="42.26203" lon="23.07393">
        <ele>553.335711</ele>
        <time>2022-04-06T08:09:49.904Z</time>
      </trkpt>
      <trkpt lat="42.26211" lon="23.07383">
        <ele>553.886652</ele>
        <time>2022-04-06T08:09:53.913Z</time>
      </trkpt>
      <trkpt lat="42.2622" lon="23.07372">
        <ele>554.452672</ele>
        <time>2022-04-06T08:09:57.902Z</time>
      </trkpt>
      <trkpt lat="42.26228" lon="23.07361">
        <ele>555.031822</ele>
        <time>2022-04-06T08:10:01.925Z</time>
      </trkpt>
      <trkpt lat="42.26237" lon="23.07351">
        <ele>555.594206</ele>
        <time>2022-04-06T08:10:05.907Z</time>
      </trkpt>
      <trkpt lat="42.26245" lon="23.07341">
        <ele>556.122995</ele>
        <time>2022-04-06T08:10:09.912Z</time>
      </trkpt>
      <trkpt lat="42.26254" lon="23.07331">
        <ele>556.659344</ele>
        <time>2022-04-06T08:10:13.904Z</time>
      </trkpt>
      <trkpt lat="42.26262" lon="23.07322">
        <ele>557.182138</ele>
        <time>2022-04-06T08:10:17.883Z</time>
      </trkpt>
      <trkpt lat="42.26269" lon="23.07313">
        <ele>557.656064</ele>
        <time>2022-04-06T08:10:21.898Z</time>
      </trkpt>
      <trkpt lat="42.26276" lon="23.07304">
        <ele>558.105946</ele>
        <time>2022-04-06T08:10:25.904Z</time>
      </trkpt>
      <trkpt lat="42.26283" lon="23.07296">
        <ele>558.553353</ele>
        <time>2022-04-06T08:10:29.902Z</time>
      </trkpt>
      <trkpt lat="42.26291" lon="23.07287">
        <ele>559.050532</ele>
        <time>2022-04-06T08:10:34.905Z</time>
      </trkpt>
      <trkpt lat="42.26299" lon="23.07277">
        <ele>559.572178</ele>
        <time>2022-04-06T08:10:39.884Z</time>
      </trkpt>
      <trkpt lat="42.26307" lon="23.07268">
        <ele>559.830601</ele>
        <time>2022-04-06T08:10:44.894Z</time>
      </trkpt>
      <trkpt lat="42.26314" lon="23.0726">
        <ele>559.913995</ele>
        <time>2022-04-06T08:10:49.905Z</time>
      </trkpt>
      <trkpt lat="42.26322" lon="23.07251">
        <ele>560.002909</ele>
        <time>2022-04-06T08:10:55.894Z</time>
      </trkpt>
      <trkpt lat="42.2633" lon="23.07241">
        <ele>560.099555</ele>
        <time>2022-04-06T08:11:01.904Z</time>
      </trkpt>
      <trkpt lat="42.26339" lon="23.07233">
        <ele>560.196638</ele>
        <time>2022-04-06T08:11:07.900Z</time>
      </trkpt>
      <trkpt lat="42.26347" lon="23.07227">
        <ele>560.278922</ele>
        <time>2022-04-06T08:11:12.912Z</time>
      </trkpt>
      <trkpt lat="42.26355" lon="23.07221">
        <ele>560.361524</ele>
        <time>2022-04-06T08:11:17.900Z</time>
      </trkpt>
      <trkpt lat="42.26363" lon="23.07214">
        <ele>560.445877</ele>
        <time>2022-04-06T08:11:22.895Z</time>
      </trkpt>
      <trkpt lat="42.26372" lon="23.07208">
        <ele>560.531496</ele>
        <time>2022-04-06T08:11:27.891Z</time>
      </trkpt>
      <trkpt lat="42.26382" lon="23.07203">
        <ele>560.628011</ele>
        <time>2022-04-06T08:11:33.917Z</time>
      </trkpt>
      <trkpt lat="42.26391" lon="23.07198">
        <ele>560.7123</ele>
        <time>2022-04-06T08:11:38.903Z</time>
      </trkpt>
      <trkpt lat="42.264" lon="23.07193">
        <ele>560.800018</ele>
        <time>2022-04-06T08:11:43.914Z</time>
      </trkpt>
      <trkpt lat="42.26409" lon="23.07187">
        <ele>560.887752</ele>
        <time>2022-04-06T08:11:49.905Z</time>
      </trkpt>
      <trkpt lat="42.26418" lon="23.07183">
        <ele>560.973626</ele>
        <time>2022-04-06T08:11:54.904Z</time>
      </trkpt>
      <trkpt lat="42.26427" lon="23.0718">
        <ele>561.06084</ele>
        <time>2022-04-06T08:12:00.899Z</time>
      </trkpt>
      <trkpt lat="42.26437" lon="23.07176">
        <ele>561.150105</ele>
        <time>2022-04-06T08:12:06.904Z</time>
      </trkpt>
      <trkpt lat="42.26447" lon="23.07174">
        <ele>561.238194</ele>
        <time>2022-04-06T08:12:12.897Z</time>
      </trkpt>
      <trkpt lat="42.26456" lon="23.07171">
        <ele>561.321263</ele>
        <time>2022-04-06T08:12:18.891Z</time>
      </trkpt>
      <trkpt lat="42.26465" lon="23.07168">
        <ele>561.522233</ele>
        <time>2022-04-06T08:12:24.928Z</time>
      </trkpt>
      <trkpt lat="42.26473" lon="23.07165">
        <ele>561.907477</ele>
        <time>2022-04-06T08:12:30.914Z</time>
      </trkpt>
      <trkpt lat="42.26483" lon="23.07163">
        <ele>562.326652</ele>
        <time>2022-04-06T08:12:36.913Z</time>
      </trkpt>
      <trkpt lat="42.26493" lon="23.0716">
        <ele>562.760805</ele>
        <time>2022-04-06T08:12:43.907Z</time>
      </trkpt>
      <trkpt lat="42.26503" lon="23.07156">
        <ele>563.194149</ele>
        <time>2022-04-06T08:12:50.897Z</time>
      </trkpt>
      <trkpt lat="42.26512" lon="23.07154">
        <ele>563.597606</ele>
        <time>2022-04-06T08:12:56.907Z</time>
      </trkpt>
      <trkpt lat="42.26521" lon="23.07151">
        <ele>563.995953</ele>
        <time>2022-04-06T08:13:02.932Z</time>
      </trkpt>
      <trkpt lat="42.26532" lon="23.07148">
        <ele>564.441909</ele>
        <time>2022-04-06T08:13:08.890Z</time>
      </trkpt>
      <trkpt lat="42.26542" lon="23.07143">
        <ele>564.887333</ele>
        <time>2022-04-06T08:13:14.911Z</time>
      </trkpt>
      <trkpt lat="42.26551" lon="23.07139">
        <ele>565.316774</ele>
        <time>2022-04-06T08:13:21.928Z</time>
      </trkpt>
      <trkpt lat="42.26559" lon="23.07133">
        <ele>565.699223</ele>
        <time>2022-04-06T08:13:27.894Z</time>
      </trkpt>
      <trkpt lat="42.26567" lon="23.07126">
        <ele>566.107622</ele>
        <time>2022-04-06T08:13:33.919Z</time>
      </trkpt>
      <trkpt lat="42.26574" lon="23.07118">
        <ele>566.501318</ele>
        <time>2022-04-06T08:13:39.886Z</time>
      </trkpt>
      <trkpt lat="42.26582" lon="23.07108">
        <ele>566.942571</ele>
        <time>2022-04-06T08:13:46.940Z</time>
      </trkpt>
      <trkpt lat="42.26588" lon="23.07099">
        <ele>567.337616</ele>
        <time>2022-04-06T08:13:52.903Z</time>
      </trkpt>
      <trkpt lat="42.26594" lon="23.07089">
        <ele>567.746779</ele>
        <time>2022-04-06T08:13:59.904Z</time>
      </trkpt>
      <trkpt lat="42.26599" lon="23.07078">
        <ele>568.136812</ele>
        <time>2022-04-06T08:14:05.886Z</time>
      </trkpt>
      <trkpt lat="42.26603" lon="23.07067">
        <ele>568.524988</ele>
        <time>2022-04-06T08:14:11.896Z</time>
      </trkpt>
      <trkpt lat="42.26608" lon="23.07057">
        <ele>568.917215</ele>
        <time>2022-04-06T08:14:17.890Z</time>
      </trkpt>
      <trkpt lat="42.26613" lon="23.07046">
        <ele>569.399859</ele>
        <time>2022-04-06T08:14:23.910Z</time>
      </trkpt>
      <trkpt lat="42.26616" lon="23.07034">
        <ele>569.91446</ele>
        <time>2022-04-06T08:14:29.935Z</time>
      </trkpt>
      <trkpt lat="42.26619" lon="23.07021">
        <ele>570.43676</ele>
        <time>2022-04-06T08:14:35.934Z</time>
      </trkpt>
      <trkpt lat="42.2662" lon="23.07009">
        <ele>570.944589</ele>
        <time>2022-04-06T08:14:40.885Z</time>
      </trkpt>
      <trkpt lat="42.26619" lon="23.06996">
        <ele>571.453705</ele>
        <time>2022-04-06T08:14:45.915Z</time>
      </trkpt>
      <trkpt lat="42.26617" lon="23.06983">
        <ele>571.995352</ele>
        <time>2022-04-06T08:14:50.900Z</time>
      </trkpt>
      <trkpt lat="42.26615" lon="23.06969">
        <ele>572.553401</ele>
        <time>2022-04-06T08:14:56.907Z</time>
      </trkpt>
      <trkpt lat="42.2661" lon="23.06956">
        <ele>573.130771</ele>
        <time>2022-04-06T08:15:02.885Z</time>
      </trkpt>
      <trkpt lat="42.26607" lon="23.06943">
        <ele>573.69055</ele>
        <time>2022-04-06T08:15:08.901Z</time>
      </trkpt>
      <trkpt lat="42.26604" lon="23.06931">
        <ele>574.198161</ele>
        <time>2022-04-06T08:15:13.900Z</time>
      </trkpt>
      <trkpt lat="42.26601" lon="23.06917">
        <ele>574.753948</ele>
        <time>2022-04-06T08:15:18.911Z</time>
      </trkpt>
      <trkpt lat="42.26597" lon="23.06902">
        <ele>575.385386</ele>
        <time>2022-04-06T08:15:23.909Z</time>
      </trkpt>
      <trkpt lat="42.26594" lon="23.06888">
        <ele>575.986947</ele>
        <time>2022-04-06T08:15:28.945Z</time>
      </trkpt>
      <trkpt lat="42.2659" lon="23.06877">
        <ele>576.477347</ele>
        <time>2022-04-06T08:15:33.895Z</time>
      </trkpt>
      <trkpt lat="42.26585" lon="23.06867">
        <ele>576.97271</ele>
        <time>2022-04-06T08:15:36.906Z</time>
      </trkpt>
      <trkpt lat="42.26582" lon="23.06852">
        <ele>577.586286</ele>
        <time>2022-04-06T08:15:39.898Z</time>
      </trkpt>
      <trkpt lat="42.26579" lon="23.06839">
        <ele>578.114118</ele>
        <time>2022-04-06T08:15:41.897Z</time>
      </trkpt>
      <trkpt lat="42.26577" lon="23.06825">
        <ele>578.675276</ele>
        <time>2022-04-06T08:15:44.898Z</time>
      </trkpt>
      <trkpt lat="42.26577" lon="23.0681">
        <ele>578.336359</ele>
        <time>2022-04-06T08:15:47.894Z</time>
      </trkpt>
      <trkpt lat="42.26578" lon="23.06795">
        <ele>577.925026</ele>
        <time>2022-04-06T08:15:50.899Z</time>
      </trkpt>
      <trkpt lat="42.26581" lon="23.06778">
        <ele>577.478115</ele>
        <time>2022-04-06T08:15:53.918Z</time>
      </trkpt>
      <trkpt lat="42.26584" lon="23.06766">
        <ele>577.143032</ele>
        <time>2022-04-06T08:15:55.929Z</time>
      </trkpt>
      <trkpt lat="42.26588" lon="23.06752">
        <ele>576.755911</ele>
        <time>2022-04-06T08:15:57.890Z</time>
      </trkpt>
      <trkpt lat="42.26594" lon="23.06737">
        <ele>576.330936</ele>
        <time>2022-04-06T08:15:59.902Z</time>
      </trkpt>
      <trkpt lat="42.26601" lon="23.06723">
        <ele>575.886392</ele>
        <time>2022-04-06T08:16:01.893Z</time>
      </trkpt>
      <trkpt lat="42.26609" lon="23.0671">
        <ele>575.450113</ele>
        <time>2022-04-06T08:16:03.893Z</time>
      </trkpt>
      <trkpt lat="42.26618" lon="23.06698">
        <ele>575.004129</ele>
        <time>2022-04-06T08:16:05.902Z</time>
      </trkpt>
      <trkpt lat="42.26629" lon="23.06687">
        <ele>574.51579</ele>
        <time>2022-04-06T08:16:07.900Z</time>
      </trkpt>
      <trkpt lat="42.26642" lon="23.06679">
        <ele>574.006076</ele>
        <time>2022-04-06T08:16:09.900Z</time>
      </trkpt>
      <trkpt lat="42.26656" lon="23.06671">
        <ele>573.466143</ele>
        <time>2022-04-06T08:16:11.908Z</time>
      </trkpt>
      <trkpt lat="42.26671" lon="23.06663">
        <ele>572.90473</ele>
        <time>2022-04-06T08:16:13.904Z</time>
      </trkpt>
      <trkpt lat="42.26686" lon="23.06654">
        <ele>572.273062</ele>
        <time>2022-04-06T08:16:15.895Z</time>
      </trkpt>
      <trkpt lat="42.26699" lon="23.06646">
        <ele>571.214132</ele>
        <time>2022-04-06T08:16:17.891Z</time>
      </trkpt>
      <trkpt lat="42.26711" lon="23.06636">
        <ele>570.199375</ele>
        <time>2022-04-06T08:16:19.871Z</time>
      </trkpt>
      <trkpt lat="42.26722" lon="23.06625">
        <ele>569.183236</ele>
        <time>2022-04-06T08:16:21.897Z</time>
      </trkpt>
      <trkpt lat="42.26732" lon="23.06611">
        <ele>568.107953</ele>
        <time>2022-04-06T08:16:23.929Z</time>
      </trkpt>
      <trkpt lat="42.26741" lon="23.06594">
        <ele>566.984965</ele>
        <time>2022-04-06T08:16:25.915Z</time>
      </trkpt>
      <trkpt lat="42.26749" lon="23.06575">
        <ele>565.806678</ele>
        <time>2022-04-06T08:16:27.907Z</time>
      </trkpt>
      <trkpt lat="42.26754" lon="23.06553">
        <ele>564.595199</ele>
        <time>2022-04-06T08:16:29.932Z</time>
      </trkpt>
      <trkpt lat="42.26757" lon="23.06532">
        <ele>563.426095</ele>
        <time>2022-04-06T08:16:31.897Z</time>
      </trkpt>
      <trkpt lat="42.26759" lon="23.06512">
        <ele>562.345166</ele>
        <time>2022-04-06T08:16:33.910Z</time>
      </trkpt>
      <trkpt lat="42.26759" lon="23.06492">
        <ele>561.240703</ele>
        <time>2022-04-06T08:16:35.911Z</time>
      </trkpt>
      <trkpt lat="42.26759" lon="23.0647">
        <ele>560.033201</ele>
        <time>2022-04-06T08:16:37.906Z</time>
      </trkpt>
      <trkpt lat="42.26758" lon="23.06447">
        <ele>558.692286</ele>
        <time>2022-04-06T08:16:39.910Z</time>
      </trkpt>
      <trkpt lat="42.26758" lon="23.06424">
        <ele>557.209729</ele>
        <time>2022-04-06T08:16:41.895Z</time>
      </trkpt>
      <trkpt lat="42.26759" lon="23.06402">
        <ele>555.753385</ele>
        <time>2022-04-06T08:16:43.910Z</time>
      </trkpt>
      <trkpt lat="42.26758" lon="23.06381">
        <ele>554.387497</ele>
        <time>2022-04-06T08:16:45.913Z</time>
      </trkpt>
      <trkpt lat="42.26758" lon="23.06361">
        <ele>553.055554</ele>
        <time>2022-04-06T08:16:47.914Z</time>
      </trkpt>
      <trkpt lat="42.26757" lon="23.0634">
        <ele>551.69752</ele>
        <time>2022-04-06T08:16:49.910Z</time>
      </trkpt>
      <trkpt lat="42.26757" lon="23.0632">
        <ele>550.385253</ele>
        <time>2022-04-06T08:16:51.891Z</time>
      </trkpt>
      <trkpt lat="42.26756" lon="23.06299">
        <ele>549.013184</ele>
        <time>2022-04-06T08:16:53.899Z</time>
      </trkpt>
      <trkpt lat="42.26756" lon="23.06278">
        <ele>547.60209</ele>
        <time>2022-04-06T08:16:55.903Z</time>
      </trkpt>
      <trkpt lat="42.26756" lon="23.06257">
        <ele>546.217819</ele>
        <time>2022-04-06T08:16:57.941Z</time>
      </trkpt>
      <trkpt lat="42.26755" lon="23.06236">
        <ele>544.832951</ele>
        <time>2022-04-06T08:16:59.909Z</time>
      </trkpt>
      <trkpt lat="42.26755" lon="23.06214">
        <ele>543.421189</ele>
        <time>2022-04-06T08:17:01.912Z</time>
      </trkpt>
      <trkpt lat="42.26754" lon="23.06192">
        <ele>542.070613</ele>
        <time>2022-04-06T08:17:03.890Z</time>
      </trkpt>
      <trkpt lat="42.26755" lon="23.06169">
        <ele>540.660082</ele>
        <time>2022-04-06T08:17:05.885Z</time>
      </trkpt>
      <trkpt lat="42.26755" lon="23.06146">
        <ele>539.218468</ele>
        <time>2022-04-06T08:17:07.925Z</time>
      </trkpt>
      <trkpt lat="42.26756" lon="23.06123">
        <ele>537.781855</ele>
        <time>2022-04-06T08:17:09.915Z</time>
      </trkpt>
      <trkpt lat="42.26757" lon="23.06099">
        <ele>536.309953</ele>
        <time>2022-04-06T08:17:11.902Z</time>
      </trkpt>
      <trkpt lat="42.26758" lon="23.06086">
        <ele>535.522409</ele>
        <time>2022-04-06T08:17:12.902Z</time>
      </trkpt>
      <trkpt lat="42.2676" lon="23.06073">
        <ele>534.699879</ele>
        <time>2022-04-06T08:17:13.914Z</time>
      </trkpt>
      <trkpt lat="42.26762" lon="23.0606">
        <ele>533.882122</ele>
        <time>2022-04-06T08:17:14.980Z</time>
      </trkpt>
      <trkpt lat="42.26763" lon="23.06047">
        <ele>533.06149</ele>
        <time>2022-04-06T08:17:15.905Z</time>
      </trkpt>
      <trkpt lat="42.26765" lon="23.06033">
        <ele>532.223893</ele>
        <time>2022-04-06T08:17:16.888Z</time>
      </trkpt>
      <trkpt lat="42.26768" lon="23.0602">
        <ele>531.398338</ele>
        <time>2022-04-06T08:17:17.894Z</time>
      </trkpt>
      <trkpt lat="42.2677" lon="23.06007">
        <ele>530.580537</ele>
        <time>2022-04-06T08:17:18.900Z</time>
      </trkpt>
      <trkpt lat="42.26771" lon="23.05995">
        <ele>529.796211</ele>
        <time>2022-04-06T08:17:19.902Z</time>
      </trkpt>
      <trkpt lat="42.26773" lon="23.05983">
        <ele>529.023973</ele>
        <time>2022-04-06T08:17:20.892Z</time>
      </trkpt>
      <trkpt lat="42.26775" lon="23.0597">
        <ele>528.229126</ele>
        <time>2022-04-06T08:17:21.902Z</time>
      </trkpt>
      <trkpt lat="42.26777" lon="23.05957">
        <ele>527.490981</ele>
        <time>2022-04-06T08:17:22.903Z</time>
      </trkpt>
      <trkpt lat="42.26779" lon="23.05944">
        <ele>526.7623</ele>
        <time>2022-04-06T08:17:23.880Z</time>
      </trkpt>
      <trkpt lat="42.26781" lon="23.05931">
        <ele>526.031113</ele>
        <time>2022-04-06T08:17:24.917Z</time>
      </trkpt>
      <trkpt lat="42.26783" lon="23.05918">
        <ele>525.277861</ele>
        <time>2022-04-06T08:17:25.951Z</time>
      </trkpt>
      <trkpt lat="42.26785" lon="23.05905">
        <ele>524.516214</ele>
        <time>2022-04-06T08:17:26.912Z</time>
      </trkpt>
      <trkpt lat="42.26787" lon="23.05891">
        <ele>523.742041</ele>
        <time>2022-04-06T08:17:27.891Z</time>
      </trkpt>
      <trkpt lat="42.26789" lon="23.05878">
        <ele>522.985894</ele>
        <time>2022-04-06T08:17:28.900Z</time>
      </trkpt>
      <trkpt lat="42.26791" lon="23.05865">
        <ele>522.219393</ele>
        <time>2022-04-06T08:17:29.895Z</time>
      </trkpt>
      <trkpt lat="42.26793" lon="23.05852">
        <ele>521.467175</ele>
        <time>2022-04-06T08:17:30.908Z</time>
      </trkpt>
      <trkpt lat="42.26795" lon="23.05839">
        <ele>520.741501</ele>
        <time>2022-04-06T08:17:31.931Z</time>
      </trkpt>
      <trkpt lat="42.26797" lon="23.05827">
        <ele>520.026848</ele>
        <time>2022-04-06T08:17:32.898Z</time>
      </trkpt>
      <trkpt lat="42.26798" lon="23.05814">
        <ele>519.302564</ele>
        <time>2022-04-06T08:17:33.912Z</time>
      </trkpt>
      <trkpt lat="42.268" lon="23.05801">
        <ele>518.55341</ele>
        <time>2022-04-06T08:17:34.916Z</time>
      </trkpt>
      <trkpt lat="42.26802" lon="23.05787">
        <ele>517.786266</ele>
        <time>2022-04-06T08:17:35.893Z</time>
      </trkpt>
      <trkpt lat="42.26804" lon="23.05774">
        <ele>517.012228</ele>
        <time>2022-04-06T08:17:36.913Z</time>
      </trkpt>
      <trkpt lat="42.26806" lon="23.0576">
        <ele>516.230006</ele>
        <time>2022-04-06T08:17:37.897Z</time>
      </trkpt>
      <trkpt lat="42.26808" lon="23.05747">
        <ele>515.483273</ele>
        <time>2022-04-06T08:17:38.889Z</time>
      </trkpt>
      <trkpt lat="42.2681" lon="23.05734">
        <ele>514.742244</ele>
        <time>2022-04-06T08:17:39.932Z</time>
      </trkpt>
      <trkpt lat="42.26812" lon="23.05721">
        <ele>514.27516</ele>
        <time>2022-04-06T08:17:40.902Z</time>
      </trkpt>
      <trkpt lat="42.26814" lon="23.05708">
        <ele>513.832668</ele>
        <time>2022-04-06T08:17:41.910Z</time>
      </trkpt>
      <trkpt lat="42.26816" lon="23.05696">
        <ele>513.398543</ele>
        <time>2022-04-06T08:17:42.922Z</time>
      </trkpt>
      <trkpt lat="42.26818" lon="23.05683">
        <ele>512.963543</ele>
        <time>2022-04-06T08:17:43.892Z</time>
      </trkpt>
      <trkpt lat="42.2682" lon="23.0567">
        <ele>512.528542</ele>
        <time>2022-04-06T08:17:44.898Z</time>
      </trkpt>
      <trkpt lat="42.26822" lon="23.05658">
        <ele>512.105959</ele>
        <time>2022-04-06T08:17:45.896Z</time>
      </trkpt>
      <trkpt lat="42.26823" lon="23.05646">
        <ele>511.68831</ele>
        <time>2022-04-06T08:17:46.917Z</time>
      </trkpt>
      <trkpt lat="42.26827" lon="23.05622">
        <ele>510.868773</ele>
        <time>2022-04-06T08:17:48.899Z</time>
      </trkpt>
      <trkpt lat="42.26828" lon="23.0561">
        <ele>510.456108</ele>
        <time>2022-04-06T08:17:49.912Z</time>
      </trkpt>
      <trkpt lat="42.26831" lon="23.05586">
        <ele>509.666187</ele>
        <time>2022-04-06T08:17:51.912Z</time>
      </trkpt>
      <trkpt lat="42.26834" lon="23.05564">
        <ele>508.914187</ele>
        <time>2022-04-06T08:17:53.937Z</time>
      </trkpt>
      <trkpt lat="42.26837" lon="23.05543">
        <ele>508.182095</ele>
        <time>2022-04-06T08:17:55.900Z</time>
      </trkpt>
      <trkpt lat="42.2684" lon="23.05522">
        <ele>507.464689</ele>
        <time>2022-04-06T08:17:57.894Z</time>
      </trkpt>
      <trkpt lat="42.26842" lon="23.05501">
        <ele>506.750518</ele>
        <time>2022-04-06T08:17:59.897Z</time>
      </trkpt>
      <trkpt lat="42.26844" lon="23.05481">
        <ele>506.5903</ele>
        <time>2022-04-06T08:18:01.916Z</time>
      </trkpt>
      <trkpt lat="42.26846" lon="23.05462">
        <ele>506.691541</ele>
        <time>2022-04-06T08:18:03.890Z</time>
      </trkpt>
      <trkpt lat="42.26848" lon="23.05443">
        <ele>506.790189</ele>
        <time>2022-04-06T08:18:05.894Z</time>
      </trkpt>
      <trkpt lat="42.2685" lon="23.05424">
        <ele>506.887721</ele>
        <time>2022-04-06T08:18:07.891Z</time>
      </trkpt>
      <trkpt lat="42.26852" lon="23.05406">
        <ele>506.980579</ele>
        <time>2022-04-06T08:18:09.908Z</time>
      </trkpt>
      <trkpt lat="42.26855" lon="23.05389">
        <ele>507.068311</ele>
        <time>2022-04-06T08:18:11.907Z</time>
      </trkpt>
      <trkpt lat="42.26857" lon="23.05372">
        <ele>507.158695</ele>
        <time>2022-04-06T08:18:13.911Z</time>
      </trkpt>
      <trkpt lat="42.26859" lon="23.05355">
        <ele>507.24807</ele>
        <time>2022-04-06T08:18:15.918Z</time>
      </trkpt>
      <trkpt lat="42.26862" lon="23.05338">
        <ele>507.334042</ele>
        <time>2022-04-06T08:18:17.889Z</time>
      </trkpt>
      <trkpt lat="42.26864" lon="23.05322">
        <ele>507.417991</ele>
        <time>2022-04-06T08:18:19.905Z</time>
      </trkpt>
      <trkpt lat="42.26866" lon="23.05306">
        <ele>507.501558</ele>
        <time>2022-04-06T08:18:21.939Z</time>
      </trkpt>
      <trkpt lat="42.26868" lon="23.05291">
        <ele>507.579318</ele>
        <time>2022-04-06T08:18:23.898Z</time>
      </trkpt>
      <trkpt lat="42.2687" lon="23.05277">
        <ele>507.65304</ele>
        <time>2022-04-06T08:18:25.928Z</time>
      </trkpt>
      <trkpt lat="42.26872" lon="23.05263">
        <ele>507.725754</ele>
        <time>2022-04-06T08:18:27.934Z</time>
      </trkpt>
      <trkpt lat="42.26874" lon="23.05251">
        <ele>507.891612</ele>
        <time>2022-04-06T08:18:29.909Z</time>
      </trkpt>
      <trkpt lat="42.26875" lon="23.05238">
        <ele>508.260503</ele>
        <time>2022-04-06T08:18:31.902Z</time>
      </trkpt>
      <trkpt lat="42.26878" lon="23.05221">
        <ele>508.781183</ele>
        <time>2022-04-06T08:18:34.888Z</time>
      </trkpt>
      <trkpt lat="42.2688" lon="23.05203">
        <ele>509.29297</ele>
        <time>2022-04-06T08:18:37.898Z</time>
      </trkpt>
      <trkpt lat="42.26882" lon="23.05188">
        <ele>509.760893</ele>
        <time>2022-04-06T08:18:40.900Z</time>
      </trkpt>
      <trkpt lat="42.26884" lon="23.05172">
        <ele>510.239108</ele>
        <time>2022-04-06T08:18:43.893Z</time>
      </trkpt>
      <trkpt lat="42.26887" lon="23.05155">
        <ele>510.727604</ele>
        <time>2022-04-06T08:18:46.904Z</time>
      </trkpt>
      <trkpt lat="42.2689" lon="23.05139">
        <ele>511.231203</ele>
        <time>2022-04-06T08:18:49.901Z</time>
      </trkpt>
      <trkpt lat="42.26894" lon="23.05122">
        <ele>511.717866</ele>
        <time>2022-04-06T08:18:52.895Z</time>
      </trkpt>
      <trkpt lat="42.26897" lon="23.05107">
        <ele>512.173591</ele>
        <time>2022-04-06T08:18:55.954Z</time>
      </trkpt>
      <trkpt lat="42.26899" lon="23.05092">
        <ele>512.620001</ele>
        <time>2022-04-06T08:18:58.899Z</time>
      </trkpt>
      <trkpt lat="42.26901" lon="23.05078">
        <ele>513.042368</ele>
        <time>2022-04-06T08:19:01.919Z</time>
      </trkpt>
      <trkpt lat="42.26904" lon="23.05065">
        <ele>513.449626</ele>
        <time>2022-04-06T08:19:04.930Z</time>
      </trkpt>
      <trkpt lat="42.26906" lon="23.05051">
        <ele>513.863462</ele>
        <time>2022-04-06T08:19:07.909Z</time>
      </trkpt>
      <trkpt lat="42.26909" lon="23.05037">
        <ele>514.284835</ele>
        <time>2022-04-06T08:19:10.897Z</time>
      </trkpt>
      <trkpt lat="42.26911" lon="23.05023">
        <ele>514.701079</ele>
        <time>2022-04-06T08:19:13.898Z</time>
      </trkpt>
      <trkpt lat="42.26913" lon="23.05009">
        <ele>515.042887</ele>
        <time>2022-04-06T08:19:16.895Z</time>
      </trkpt>
      <trkpt lat="42.26916" lon="23.04995">
        <ele>515.348127</ele>
        <time>2022-04-06T08:19:19.905Z</time>
      </trkpt>
      <trkpt lat="42.26919" lon="23.0498">
        <ele>515.658396</ele>
        <time>2022-04-06T08:19:22.927Z</time>
      </trkpt>
      <trkpt lat="42.26921" lon="23.04966">
        <ele>515.95004</ele>
        <time>2022-04-06T08:19:25.900Z</time>
      </trkpt>
      <trkpt lat="42.26923" lon="23.04952">
        <ele>516.245037</ele>
        <time>2022-04-06T08:19:28.900Z</time>
      </trkpt>
      <trkpt lat="42.26924" lon="23.04939">
        <ele>516.518337</ele>
        <time>2022-04-06T08:19:31.912Z</time>
      </trkpt>
      <trkpt lat="42.26926" lon="23.04925">
        <ele>516.809764</ele>
        <time>2022-04-06T08:19:34.941Z</time>
      </trkpt>
      <trkpt lat="42.26929" lon="23.04912">
        <ele>517.096016</ele>
        <time>2022-04-06T08:19:37.903Z</time>
      </trkpt>
      <trkpt lat="42.2693" lon="23.04899">
        <ele>517.364639</ele>
        <time>2022-04-06T08:19:40.943Z</time>
      </trkpt>
      <trkpt lat="42.26933" lon="23.04883">
        <ele>517.700681</ele>
        <time>2022-04-06T08:19:44.915Z</time>
      </trkpt>
      <trkpt lat="42.26935" lon="23.0487">
        <ele>517.977607</ele>
        <time>2022-04-06T08:19:47.899Z</time>
      </trkpt>
      <trkpt lat="42.26938" lon="23.04856">
        <ele>518.269908</ele>
        <time>2022-04-06T08:19:50.903Z</time>
      </trkpt>
      <trkpt lat="42.2694" lon="23.04843">
        <ele>518.548664</ele>
        <time>2022-04-06T08:19:53.909Z</time>
      </trkpt>
      <trkpt lat="42.26942" lon="23.04829">
        <ele>518.846346</ele>
        <time>2022-04-06T08:19:56.912Z</time>
      </trkpt>
      <trkpt lat="42.26944" lon="23.04815">
        <ele>519.131692</ele>
        <time>2022-04-06T08:19:59.903Z</time>
      </trkpt>
      <trkpt lat="42.26946" lon="23.04802">
        <ele>519.420607</ele>
        <time>2022-04-06T08:20:02.923Z</time>
      </trkpt>
      <trkpt lat="42.26949" lon="23.04788">
        <ele>519.72091</ele>
        <time>2022-04-06T08:20:05.908Z</time>
      </trkpt>
      <trkpt lat="42.26951" lon="23.04773">
        <ele>519.892694</ele>
        <time>2022-04-06T08:20:08.893Z</time>
      </trkpt>
      <trkpt lat="42.26954" lon="23.04759">
        <ele>519.922766</ele>
        <time>2022-04-06T08:20:11.948Z</time>
      </trkpt>
      <trkpt lat="42.26957" lon="23.04746">
        <ele>519.95082</ele>
        <time>2022-04-06T08:20:14.900Z</time>
      </trkpt>
      <trkpt lat="42.26959" lon="23.04733">
        <ele>519.978603</ele>
        <time>2022-04-06T08:20:17.903Z</time>
      </trkpt>
      <trkpt lat="42.26962" lon="23.04721">
        <ele>520.005114</ele>
        <time>2022-04-06T08:20:20.905Z</time>
      </trkpt>
      <trkpt lat="42.26964" lon="23.04708">
        <ele>520.03236</ele>
        <time>2022-04-06T08:20:23.914Z</time>
      </trkpt>
      <trkpt lat="42.26967" lon="23.04695">
        <ele>520.05977</ele>
        <time>2022-04-06T08:20:26.908Z</time>
      </trkpt>
      <trkpt lat="42.26969" lon="23.04682">
        <ele>520.088555</ele>
        <time>2022-04-06T08:20:29.888Z</time>
      </trkpt>
      <trkpt lat="42.26972" lon="23.04668">
        <ele>520.117072</ele>
        <time>2022-04-06T08:20:32.893Z</time>
      </trkpt>
      <trkpt lat="42.26974" lon="23.04655">
        <ele>520.145726</ele>
        <time>2022-04-06T08:20:35.914Z</time>
      </trkpt>
      <trkpt lat="42.26976" lon="23.04641">
        <ele>520.174463</ele>
        <time>2022-04-06T08:20:38.900Z</time>
      </trkpt>
      <trkpt lat="42.26979" lon="23.04628">
        <ele>520.203588</ele>
        <time>2022-04-06T08:20:41.917Z</time>
      </trkpt>
      <trkpt lat="42.26982" lon="23.04614">
        <ele>520.233043</ele>
        <time>2022-04-06T08:20:44.901Z</time>
      </trkpt>
      <trkpt lat="42.26984" lon="23.04601">
        <ele>520.261159</ele>
        <time>2022-04-06T08:20:47.903Z</time>
      </trkpt>
      <trkpt lat="42.26987" lon="23.04586">
        <ele>520.2925</ele>
        <time>2022-04-06T08:20:50.944Z</time>
      </trkpt>
      <trkpt lat="42.2699" lon="23.04572">
        <ele>520.324117</ele>
        <time>2022-04-06T08:20:53.900Z</time>
      </trkpt>
      <trkpt lat="42.26993" lon="23.04556">
        <ele>520.356656</ele>
        <time>2022-04-06T08:20:56.892Z</time>
      </trkpt>
      <trkpt lat="42.26996" lon="23.04542">
        <ele>520.398915</ele>
        <time>2022-04-06T08:20:59.910Z</time>
      </trkpt>
      <trkpt lat="42.26999" lon="23.04528">
        <ele>520.483237</ele>
        <time>2022-04-06T08:21:02.928Z</time>
      </trkpt>
      <trkpt lat="42.27002" lon="23.04513">
        <ele>520.567983</ele>
        <time>2022-04-06T08:21:05.911Z</time>
      </trkpt>
      <trkpt lat="42.27004" lon="23.045">
        <ele>520.649796</ele>
        <time>2022-04-06T08:21:08.912Z</time>
      </trkpt>
      <trkpt lat="42.27007" lon="23.04485">
        <ele>520.733986</ele>
        <time>2022-04-06T08:21:11.909Z</time>
      </trkpt>
      <trkpt lat="42.27009" lon="23.04471">
        <ele>520.81615</ele>
        <time>2022-04-06T08:21:14.907Z</time>
      </trkpt>
      <trkpt lat="42.27011" lon="23.04458">
        <ele>520.894718</ele>
        <time>2022-04-06T08:21:17.900Z</time>
      </trkpt>
      <trkpt lat="42.27014" lon="23.04445">
        <ele>520.971159</ele>
        <time>2022-04-06T08:21:20.897Z</time>
      </trkpt>
      <trkpt lat="42.27017" lon="23.04432">
        <ele>521.048162</ele>
        <time>2022-04-06T08:21:23.911Z</time>
      </trkpt>
      <trkpt lat="42.2702" lon="23.04418">
        <ele>521.130732</ele>
        <time>2022-04-06T08:21:26.904Z</time>
      </trkpt>
      <trkpt lat="42.27022" lon="23.04404">
        <ele>521.214185</ele>
        <time>2022-04-06T08:21:29.906Z</time>
      </trkpt>
      <trkpt lat="42.27025" lon="23.04389">
        <ele>521.302652</ele>
        <time>2022-04-06T08:21:32.928Z</time>
      </trkpt>
      <trkpt lat="42.27027" lon="23.04374">
        <ele>521.389277</ele>
        <time>2022-04-06T08:21:35.912Z</time>
      </trkpt>
      <trkpt lat="42.2703" lon="23.0436">
        <ele>521.475154</ele>
        <time>2022-04-06T08:21:38.891Z</time>
      </trkpt>
      <trkpt lat="42.27033" lon="23.04344">
        <ele>521.563857</ele>
        <time>2022-04-06T08:21:41.911Z</time>
      </trkpt>
      <trkpt lat="42.27035" lon="23.0433">
        <ele>521.648807</ele>
        <time>2022-04-06T08:21:44.909Z</time>
      </trkpt>
      <trkpt lat="42.27038" lon="23.04316">
        <ele>521.730224</ele>
        <time>2022-04-06T08:21:47.889Z</time>
      </trkpt>
      <trkpt lat="42.2704" lon="23.04302">
        <ele>521.839762</ele>
        <time>2022-04-06T08:21:50.903Z</time>
      </trkpt>
      <trkpt lat="42.27043" lon="23.04288">
        <ele>521.973393</ele>
        <time>2022-04-06T08:21:53.914Z</time>
      </trkpt>
      <trkpt lat="42.27045" lon="23.04273">
        <ele>522.107889</ele>
        <time>2022-04-06T08:21:56.906Z</time>
      </trkpt>
      <trkpt lat="42.27048" lon="23.04259">
        <ele>522.241798</ele>
        <time>2022-04-06T08:21:59.903Z</time>
      </trkpt>
      <trkpt lat="42.27051" lon="23.04244">
        <ele>522.378683</ele>
        <time>2022-04-06T08:22:02.909Z</time>
      </trkpt>
      <trkpt lat="42.27054" lon="23.04231">
        <ele>522.509969</ele>
        <time>2022-04-06T08:22:05.901Z</time>
      </trkpt>
      <trkpt lat="42.27056" lon="23.04217">
        <ele>522.641218</ele>
        <time>2022-04-06T08:22:08.897Z</time>
      </trkpt>
      <trkpt lat="42.27058" lon="23.04202">
        <ele>522.773691</ele>
        <time>2022-04-06T08:22:11.882Z</time>
      </trkpt>
      <trkpt lat="42.27061" lon="23.04188">
        <ele>522.905275</ele>
        <time>2022-04-06T08:22:14.915Z</time>
      </trkpt>
      <trkpt lat="42.27063" lon="23.04174">
        <ele>523.039183</ele>
        <time>2022-04-06T08:22:17.896Z</time>
      </trkpt>
      <trkpt lat="42.27066" lon="23.0416">
        <ele>523.1666</ele>
        <time>2022-04-06T08:22:20.909Z</time>
      </trkpt>
      <trkpt lat="42.27068" lon="23.04146">
        <ele>523.299092</ele>
        <time>2022-04-06T08:22:23.900Z</time>
      </trkpt>
      <trkpt lat="42.27071" lon="23.04134">
        <ele>523.420216</ele>
        <time>2022-04-06T08:22:26.912Z</time>
      </trkpt>
      <trkpt lat="42.27074" lon="23.04121">
        <ele>523.541437</ele>
        <time>2022-04-06T08:22:29.896Z</time>
      </trkpt>
      <trkpt lat="42.27076" lon="23.04107">
        <ele>523.667123</ele>
        <time>2022-04-06T08:22:32.914Z</time>
      </trkpt>
      <trkpt lat="42.27079" lon="23.04093">
        <ele>523.801703</ele>
        <time>2022-04-06T08:22:35.892Z</time>
      </trkpt>
      <trkpt lat="42.27082" lon="23.04079">
        <ele>523.938556</ele>
        <time>2022-04-06T08:22:38.916Z</time>
      </trkpt>
      <trkpt lat="42.27085" lon="23.04065">
        <ele>524.036143</ele>
        <time>2022-04-06T08:22:41.993Z</time>
      </trkpt>
      <trkpt lat="42.27087" lon="23.04051">
        <ele>524.115771</ele>
        <time>2022-04-06T08:22:44.919Z</time>
      </trkpt>
      <trkpt lat="42.2709" lon="23.04036">
        <ele>524.19989</ele>
        <time>2022-04-06T08:22:47.879Z</time>
      </trkpt>
      <trkpt lat="42.27093" lon="23.04022">
        <ele>524.281169</ele>
        <time>2022-04-06T08:22:50.900Z</time>
      </trkpt>
      <trkpt lat="42.27095" lon="23.04008">
        <ele>524.364031</ele>
        <time>2022-04-06T08:22:53.900Z</time>
      </trkpt>
      <trkpt lat="42.27098" lon="23.03993">
        <ele>524.448179</ele>
        <time>2022-04-06T08:22:56.894Z</time>
      </trkpt>
      <trkpt lat="42.271" lon="23.03978">
        <ele>524.534117</ele>
        <time>2022-04-06T08:22:59.914Z</time>
      </trkpt>
      <trkpt lat="42.27103" lon="23.03963">
        <ele>524.617956</ele>
        <time>2022-04-06T08:23:02.909Z</time>
      </trkpt>
      <trkpt lat="42.27105" lon="23.03948">
        <ele>524.701796</ele>
        <time>2022-04-06T08:23:05.909Z</time>
      </trkpt>
      <trkpt lat="42.27107" lon="23.03933">
        <ele>524.785491</ele>
        <time>2022-04-06T08:23:08.953Z</time>
      </trkpt>
      <trkpt lat="42.27109" lon="23.0392">
        <ele>524.859904</ele>
        <time>2022-04-06T08:23:11.910Z</time>
      </trkpt>
      <trkpt lat="42.2711" lon="23.03907">
        <ele>524.933224</ele>
        <time>2022-04-06T08:23:14.934Z</time>
      </trkpt>
      <trkpt lat="42.27113" lon="23.03894">
        <ele>525.010977</ele>
        <time>2022-04-06T08:23:17.894Z</time>
      </trkpt>
      <trkpt lat="42.27116" lon="23.0388">
        <ele>525.090066</ele>
        <time>2022-04-06T08:23:20.901Z</time>
      </trkpt>
      <trkpt lat="42.27118" lon="23.03866">
        <ele>525.168711</ele>
        <time>2022-04-06T08:23:23.904Z</time>
      </trkpt>
      <trkpt lat="42.2712" lon="23.03852">
        <ele>525.246409</ele>
        <time>2022-04-06T08:23:26.901Z</time>
      </trkpt>
      <trkpt lat="42.27122" lon="23.03838">
        <ele>525.326834</ele>
        <time>2022-04-06T08:23:29.900Z</time>
      </trkpt>
      <trkpt lat="42.27124" lon="23.03824">
        <ele>525.387924</ele>
        <time>2022-04-06T08:23:32.901Z</time>
      </trkpt>
      <trkpt lat="42.27126" lon="23.0381">
        <ele>525.445154</ele>
        <time>2022-04-06T08:23:35.937Z</time>
      </trkpt>
      <trkpt lat="42.27129" lon="23.03795">
        <ele>525.50339</ele>
        <time>2022-04-06T08:23:38.912Z</time>
      </trkpt>
      <trkpt lat="42.27131" lon="23.03781">
        <ele>525.56136</ele>
        <time>2022-04-06T08:23:41.933Z</time>
      </trkpt>
      <trkpt lat="42.27133" lon="23.03767">
        <ele>525.619092</ele>
        <time>2022-04-06T08:23:44.895Z</time>
      </trkpt>
      <trkpt lat="42.27136" lon="23.03752">
        <ele>525.677835</ele>
        <time>2022-04-06T08:23:47.892Z</time>
      </trkpt>
      <trkpt lat="42.27138" lon="23.03738">
        <ele>525.737508</ele>
        <time>2022-04-06T08:23:50.907Z</time>
      </trkpt>
      <trkpt lat="42.2714" lon="23.03723">
        <ele>525.795408</ele>
        <time>2022-04-06T08:23:53.898Z</time>
      </trkpt>
      <trkpt lat="42.27143" lon="23.03709">
        <ele>525.853528</ele>
        <time>2022-04-06T08:23:56.905Z</time>
      </trkpt>
      <trkpt lat="42.27145" lon="23.03695">
        <ele>525.911818</ele>
        <time>2022-04-06T08:23:59.894Z</time>
      </trkpt>
      <trkpt lat="42.27146" lon="23.0368">
        <ele>525.971301</ele>
        <time>2022-04-06T08:24:02.884Z</time>
      </trkpt>
      <trkpt lat="42.27148" lon="23.03665">
        <ele>526.031151</ele>
        <time>2022-04-06T08:24:05.913Z</time>
      </trkpt>
      <trkpt lat="42.27151" lon="23.03651">
        <ele>526.089831</ele>
        <time>2022-04-06T08:24:08.920Z</time>
      </trkpt>
      <trkpt lat="42.27153" lon="23.03636">
        <ele>526.148801</ele>
        <time>2022-04-06T08:24:11.889Z</time>
      </trkpt>
      <trkpt lat="42.27155" lon="23.03621">
        <ele>526.208085</ele>
        <time>2022-04-06T08:24:14.938Z</time>
      </trkpt>
      <trkpt lat="42.27157" lon="23.03607">
        <ele>526.267215</ele>
        <time>2022-04-06T08:24:17.892Z</time>
      </trkpt>
      <trkpt lat="42.27159" lon="23.03593">
        <ele>526.346941</ele>
        <time>2022-04-06T08:24:20.933Z</time>
      </trkpt>
      <trkpt lat="42.27162" lon="23.03579">
        <ele>526.455718</ele>
        <time>2022-04-06T08:24:23.898Z</time>
      </trkpt>
      <trkpt lat="42.27164" lon="23.03565">
        <ele>526.567725</ele>
        <time>2022-04-06T08:24:26.940Z</time>
      </trkpt>
      <trkpt lat="42.27167" lon="23.0355">
        <ele>526.680477</ele>
        <time>2022-04-06T08:24:29.907Z</time>
      </trkpt>
      <trkpt lat="42.27169" lon="23.03536">
        <ele>526.7877</ele>
        <time>2022-04-06T08:24:32.900Z</time>
      </trkpt>
      <trkpt lat="42.27171" lon="23.03524">
        <ele>526.887849</ele>
        <time>2022-04-06T08:24:35.915Z</time>
      </trkpt>
      <trkpt lat="42.27173" lon="23.03512">
        <ele>526.981798</ele>
        <time>2022-04-06T08:24:38.895Z</time>
      </trkpt>
      <trkpt lat="42.27175" lon="23.035">
        <ele>527.075991</ele>
        <time>2022-04-06T08:24:41.909Z</time>
      </trkpt>
      <trkpt lat="42.27178" lon="23.03484">
        <ele>527.198139</ele>
        <time>2022-04-06T08:24:45.901Z</time>
      </trkpt>
      <trkpt lat="42.2718" lon="23.03472">
        <ele>527.291354</ele>
        <time>2022-04-06T08:24:48.908Z</time>
      </trkpt>
      <trkpt lat="42.27182" lon="23.03457">
        <ele>527.409468</ele>
        <time>2022-04-06T08:24:52.897Z</time>
      </trkpt>
      <trkpt lat="42.27184" lon="23.03443">
        <ele>527.520504</ele>
        <time>2022-04-06T08:24:56.908Z</time>
      </trkpt>
      <trkpt lat="42.27186" lon="23.0343">
        <ele>527.618154</ele>
        <time>2022-04-06T08:25:00.934Z</time>
      </trkpt>
      <trkpt lat="42.27189" lon="23.03418">
        <ele>527.713331</ele>
        <time>2022-04-06T08:25:04.888Z</time>
      </trkpt>
      <trkpt lat="42.27191" lon="23.03406">
        <ele>527.810734</ele>
        <time>2022-04-06T08:25:08.923Z</time>
      </trkpt>
      <trkpt lat="42.27193" lon="23.03393">
        <ele>527.910456</ele>
        <time>2022-04-06T08:25:12.923Z</time>
      </trkpt>
      <trkpt lat="42.27195" lon="23.03378">
        <ele>528.024818</ele>
        <time>2022-04-06T08:25:17.906Z</time>
      </trkpt>
      <trkpt lat="42.27197" lon="23.03365">
        <ele>528.131289</ele>
        <time>2022-04-06T08:25:22.912Z</time>
      </trkpt>
      <trkpt lat="42.27199" lon="23.0335">
        <ele>528.44401</ele>
        <time>2022-04-06T08:25:27.896Z</time>
      </trkpt>
      <trkpt lat="42.27201" lon="23.03335">
        <ele>528.806541</ele>
        <time>2022-04-06T08:25:32.910Z</time>
      </trkpt>
      <trkpt lat="42.27203" lon="23.03321">
        <ele>529.16245</ele>
        <time>2022-04-06T08:25:37.885Z</time>
      </trkpt>
      <trkpt lat="42.27204" lon="23.03307">
        <ele>529.504866</ele>
        <time>2022-04-06T08:25:42.908Z</time>
      </trkpt>
      <trkpt lat="42.27206" lon="23.03293">
        <ele>529.857402</ele>
        <time>2022-04-06T08:25:47.893Z</time>
      </trkpt>
      <trkpt lat="42.27207" lon="23.03279">
        <ele>530.208964</ele>
        <time>2022-04-06T08:25:52.888Z</time>
      </trkpt>
      <trkpt lat="42.27209" lon="23.03264">
        <ele>530.575107</ele>
        <time>2022-04-06T08:25:57.907Z</time>
      </trkpt>
      <trkpt lat="42.27211" lon="23.03252">
        <ele>530.879452</ele>
        <time>2022-04-06T08:26:01.951Z</time>
      </trkpt>
      <trkpt lat="42.27212" lon="23.0324">
        <ele>531.183178</ele>
        <time>2022-04-06T08:26:05.889Z</time>
      </trkpt>
      <trkpt lat="42.27214" lon="23.03227">
        <ele>531.495809</ele>
        <time>2022-04-06T08:26:09.906Z</time>
      </trkpt>
      <trkpt lat="42.27215" lon="23.03215">
        <ele>531.800701</ele>
        <time>2022-04-06T08:26:13.884Z</time>
      </trkpt>
      <trkpt lat="42.27216" lon="23.032">
        <ele>532.171707</ele>
        <time>2022-04-06T08:26:18.903Z</time>
      </trkpt>
      <trkpt lat="42.27218" lon="23.03188">
        <ele>532.483337</ele>
        <time>2022-04-06T08:26:22.902Z</time>
      </trkpt>
      <trkpt lat="42.27219" lon="23.03175">
        <ele>532.79556</ele>
        <time>2022-04-06T08:26:26.905Z</time>
      </trkpt>
      <trkpt lat="42.27221" lon="23.03162">
        <ele>533.121774</ele>
        <time>2022-04-06T08:26:30.908Z</time>
      </trkpt>
      <trkpt lat="42.27222" lon="23.03149">
        <ele>533.440631</ele>
        <time>2022-04-06T08:26:34.946Z</time>
      </trkpt>
      <trkpt lat="42.27223" lon="23.03136">
        <ele>533.762271</ele>
        <time>2022-04-06T08:26:38.911Z</time>
      </trkpt>
      <trkpt lat="42.27226" lon="23.03123">
        <ele>534.100785</ele>
        <time>2022-04-06T08:26:42.902Z</time>
      </trkpt>
      <trkpt lat="42.27227" lon="23.0311">
        <ele>534.372011</ele>
        <time>2022-04-06T08:26:46.942Z</time>
      </trkpt>
      <trkpt lat="42.27229" lon="23.03098">
        <ele>534.630122</ele>
        <time>2022-04-06T08:26:50.910Z</time>
      </trkpt>
      <trkpt lat="42.2723" lon="23.03084">
        <ele>534.913538</ele>
        <time>2022-04-06T08:26:54.902Z</time>
      </trkpt>
      <trkpt lat="42.27231" lon="23.03071">
        <ele>535.196293</ele>
        <time>2022-04-06T08:26:58.886Z</time>
      </trkpt>
      <trkpt lat="42.27233" lon="23.03058">
        <ele>535.468664</ele>
        <time>2022-04-06T08:27:02.911Z</time>
      </trkpt>
      <trkpt lat="42.27234" lon="23.03045">
        <ele>535.737438</ele>
        <time>2022-04-06T08:27:06.896Z</time>
      </trkpt>
      <trkpt lat="42.27236" lon="23.03031">
        <ele>536.027368</ele>
        <time>2022-04-06T08:27:10.894Z</time>
      </trkpt>
      <trkpt lat="42.27238" lon="23.03016">
        <ele>536.337354</ele>
        <time>2022-04-06T08:27:15.937Z</time>
      </trkpt>
      <trkpt lat="42.27239" lon="23.03003">
        <ele>536.612955</ele>
        <time>2022-04-06T08:27:19.908Z</time>
      </trkpt>
      <trkpt lat="42.27241" lon="23.02988">
        <ele>536.917994</ele>
        <time>2022-04-06T08:27:23.916Z</time>
      </trkpt>
      <trkpt lat="42.27243" lon="23.02974">
        <ele>537.22973</ele>
        <time>2022-04-06T08:27:27.899Z</time>
      </trkpt>
      <trkpt lat="42.27245" lon="23.02962">
        <ele>537.483955</ele>
        <time>2022-04-06T08:27:30.903Z</time>
      </trkpt>
      <trkpt lat="42.27248" lon="23.02947">
        <ele>537.798339</ele>
        <time>2022-04-06T08:27:34.893Z</time>
      </trkpt>
      <trkpt lat="42.2725" lon="23.02932">
        <ele>538.112722</ele>
        <time>2022-04-06T08:27:38.897Z</time>
      </trkpt>
      <trkpt lat="42.27252" lon="23.0292">
        <ele>538.377038</ele>
        <time>2022-04-06T08:27:41.915Z</time>
      </trkpt>
      <trkpt lat="42.27256" lon="23.02908">
        <ele>538.629411</ele>
        <time>2022-04-06T08:27:44.903Z</time>
      </trkpt>
      <trkpt lat="42.27259" lon="23.02893">
        <ele>538.965856</ele>
        <time>2022-04-06T08:27:48.943Z</time>
      </trkpt>
      <trkpt lat="42.27261" lon="23.0288">
        <ele>539.12819</ele>
        <time>2022-04-06T08:27:51.920Z</time>
      </trkpt>
      <trkpt lat="42.27263" lon="23.02867">
        <ele>538.97298</ele>
        <time>2022-04-06T08:27:54.916Z</time>
      </trkpt>
      <trkpt lat="42.27265" lon="23.02853">
        <ele>538.804857</ele>
        <time>2022-04-06T08:27:57.900Z</time>
      </trkpt>
      <trkpt lat="42.27266" lon="23.0284">
        <ele>538.642971</ele>
        <time>2022-04-06T08:28:01.930Z</time>
      </trkpt>
      <trkpt lat="42.27266" lon="23.02823">
        <ele>538.450093</ele>
        <time>2022-04-06T08:28:05.916Z</time>
      </trkpt>
      <trkpt lat="42.27268" lon="23.02809">
        <ele>538.285894</ele>
        <time>2022-04-06T08:28:08.888Z</time>
      </trkpt>
      <trkpt lat="42.27272" lon="23.02793">
        <ele>538.085156</ele>
        <time>2022-04-06T08:28:11.932Z</time>
      </trkpt>
      <trkpt lat="42.27275" lon="23.02781">
        <ele>537.94364</ele>
        <time>2022-04-06T08:28:13.900Z</time>
      </trkpt>
      <trkpt lat="42.27278" lon="23.02765">
        <ele>537.743225</ele>
        <time>2022-04-06T08:28:16.915Z</time>
      </trkpt>
      <trkpt lat="42.27281" lon="23.02749">
        <ele>537.555207</ele>
        <time>2022-04-06T08:28:19.912Z</time>
      </trkpt>
      <trkpt lat="42.27284" lon="23.02735">
        <ele>537.378162</ele>
        <time>2022-04-06T08:28:22.937Z</time>
      </trkpt>
      <trkpt lat="42.27286" lon="23.02719">
        <ele>537.194518</ele>
        <time>2022-04-06T08:28:25.899Z</time>
      </trkpt>
      <trkpt lat="42.27289" lon="23.02704">
        <ele>537.005367</ele>
        <time>2022-04-06T08:28:28.932Z</time>
      </trkpt>
      <trkpt lat="42.27292" lon="23.02688">
        <ele>536.822214</ele>
        <time>2022-04-06T08:28:31.902Z</time>
      </trkpt>
      <trkpt lat="42.27295" lon="23.02672">
        <ele>536.628307</ele>
        <time>2022-04-06T08:28:34.957Z</time>
      </trkpt>
      <trkpt lat="42.27298" lon="23.02656">
        <ele>536.429746</ele>
        <time>2022-04-06T08:28:37.908Z</time>
      </trkpt>
      <trkpt lat="42.273" lon="23.02639">
        <ele>536.295245</ele>
        <time>2022-04-06T08:28:40.903Z</time>
      </trkpt>
      <trkpt lat="42.27303" lon="23.02621">
        <ele>536.236779</ele>
        <time>2022-04-06T08:28:43.909Z</time>
      </trkpt>
      <trkpt lat="42.27305" lon="23.02605">
        <ele>536.181215</ele>
        <time>2022-04-06T08:28:46.911Z</time>
      </trkpt>
      <trkpt lat="42.27308" lon="23.02588">
        <ele>536.123566</ele>
        <time>2022-04-06T08:28:49.899Z</time>
      </trkpt>
      <trkpt lat="42.27311" lon="23.0257">
        <ele>536.065683</ele>
        <time>2022-04-06T08:28:52.945Z</time>
      </trkpt>
      <trkpt lat="42.27314" lon="23.02553">
        <ele>536.006196</ele>
        <time>2022-04-06T08:28:55.914Z</time>
      </trkpt>
      <trkpt lat="42.27317" lon="23.02535">
        <ele>535.947318</ele>
        <time>2022-04-06T08:28:58.910Z</time>
      </trkpt>
      <trkpt lat="42.27318" lon="23.02518">
        <ele>535.890164</ele>
        <time>2022-04-06T08:29:01.911Z</time>
      </trkpt>
      <trkpt lat="42.2732" lon="23.02501">
        <ele>535.832414</ele>
        <time>2022-04-06T08:29:04.912Z</time>
      </trkpt>
      <trkpt lat="42.27321" lon="23.02483">
        <ele>535.774636</ele>
        <time>2022-04-06T08:29:07.880Z</time>
      </trkpt>
      <trkpt lat="42.27322" lon="23.02466">
        <ele>535.718298</ele>
        <time>2022-04-06T08:29:10.915Z</time>
      </trkpt>
      <trkpt lat="42.27323" lon="23.02449">
        <ele>535.660817</ele>
        <time>2022-04-06T08:29:13.937Z</time>
      </trkpt>
      <trkpt lat="42.27324" lon="23.02431">
        <ele>535.601471</ele>
        <time>2022-04-06T08:29:16.909Z</time>
      </trkpt>
      <trkpt lat="42.27324" lon="23.02414">
        <ele>535.545121</ele>
        <time>2022-04-06T08:29:19.899Z</time>
      </trkpt>
      <trkpt lat="42.27325" lon="23.02396">
        <ele>535.668381</ele>
        <time>2022-04-06T08:29:22.899Z</time>
      </trkpt>
      <trkpt lat="42.27324" lon="23.02379">
        <ele>535.911925</ele>
        <time>2022-04-06T08:29:25.902Z</time>
      </trkpt>
      <trkpt lat="42.27323" lon="23.02361">
        <ele>536.163109</ele>
        <time>2022-04-06T08:29:28.898Z</time>
      </trkpt>
      <trkpt lat="42.27323" lon="23.02343">
        <ele>536.418301</ele>
        <time>2022-04-06T08:29:31.916Z</time>
      </trkpt>
      <trkpt lat="42.27322" lon="23.02325">
        <ele>536.67231</ele>
        <time>2022-04-06T08:29:34.905Z</time>
      </trkpt>
      <trkpt lat="42.27321" lon="23.02308">
        <ele>536.919553</ele>
        <time>2022-04-06T08:29:37.899Z</time>
      </trkpt>
      <trkpt lat="42.27319" lon="23.02292">
        <ele>537.154569</ele>
        <time>2022-04-06T08:29:40.912Z</time>
      </trkpt>
      <trkpt lat="42.27317" lon="23.02275">
        <ele>537.394634</ele>
        <time>2022-04-06T08:29:43.908Z</time>
      </trkpt>
      <trkpt lat="42.27315" lon="23.02258">
        <ele>537.631894</ele>
        <time>2022-04-06T08:29:46.937Z</time>
      </trkpt>
      <trkpt lat="42.27313" lon="23.02242">
        <ele>537.868611</ele>
        <time>2022-04-06T08:29:49.907Z</time>
      </trkpt>
      <trkpt lat="42.27311" lon="23.02226">
        <ele>538.091301</ele>
        <time>2022-04-06T08:29:52.948Z</time>
      </trkpt>
      <trkpt lat="42.27309" lon="23.02211">
        <ele>538.308944</ele>
        <time>2022-04-06T08:29:55.899Z</time>
      </trkpt>
      <trkpt lat="42.27307" lon="23.02195">
        <ele>538.548158</ele>
        <time>2022-04-06T08:29:58.947Z</time>
      </trkpt>
      <trkpt lat="42.27306" lon="23.02179">
        <ele>538.769233</ele>
        <time>2022-04-06T08:30:01.892Z</time>
      </trkpt>
      <trkpt lat="42.27304" lon="23.02164">
        <ele>538.973843</ele>
        <time>2022-04-06T08:30:04.946Z</time>
      </trkpt>
      <trkpt lat="42.27303" lon="23.02148">
        <ele>539.06414</ele>
        <time>2022-04-06T08:30:07.898Z</time>
      </trkpt>
      <trkpt lat="42.27302" lon="23.02135">
        <ele>539.144115</ele>
        <time>2022-04-06T08:30:10.903Z</time>
      </trkpt>
      <trkpt lat="42.273" lon="23.02121">
        <ele>539.224653</ele>
        <time>2022-04-06T08:30:13.915Z</time>
      </trkpt>
      <trkpt lat="42.273" lon="23.02107">
        <ele>539.30573</ele>
        <time>2022-04-06T08:30:16.909Z</time>
      </trkpt>
      <trkpt lat="42.27299" lon="23.02093">
        <ele>539.38739</ele>
        <time>2022-04-06T08:30:19.910Z</time>
      </trkpt>
      <trkpt lat="42.27299" lon="23.02079">
        <ele>539.471767</ele>
        <time>2022-04-06T08:30:22.905Z</time>
      </trkpt>
      <trkpt lat="42.27299" lon="23.02065">
        <ele>539.556144</ele>
        <time>2022-04-06T08:30:25.930Z</time>
      </trkpt>
      <trkpt lat="42.27299" lon="23.0205">
        <ele>539.644644</ele>
        <time>2022-04-06T08:30:28.898Z</time>
      </trkpt>
      <trkpt lat="42.273" lon="23.02035">
        <ele>539.730393</ele>
        <time>2022-04-06T08:30:31.903Z</time>
      </trkpt>
      <trkpt lat="42.27302" lon="23.02021">
        <ele>539.812089</ele>
        <time>2022-04-06T08:30:34.906Z</time>
      </trkpt>
      <trkpt lat="42.27303" lon="23.02008">
        <ele>539.892747</ele>
        <time>2022-04-06T08:30:37.879Z</time>
      </trkpt>
      <trkpt lat="42.27304" lon="23.01994">
        <ele>539.970062</ele>
        <time>2022-04-06T08:30:40.897Z</time>
      </trkpt>
      <trkpt lat="42.27306" lon="23.01981">
        <ele>540.048639</ele>
        <time>2022-04-06T08:30:43.924Z</time>
      </trkpt>
      <trkpt lat="42.27307" lon="23.01969">
        <ele>540.123802</ele>
        <time>2022-04-06T08:30:46.897Z</time>
      </trkpt>
      <trkpt lat="42.27309" lon="23.01956">
        <ele>540.19843</ele>
        <time>2022-04-06T08:30:49.931Z</time>
      </trkpt>
      <trkpt lat="42.2731" lon="23.01943">
        <ele>540.275493</ele>
        <time>2022-04-06T08:30:52.901Z</time>
      </trkpt>
      <trkpt lat="42.27311" lon="23.01929">
        <ele>540.355043</ele>
        <time>2022-04-06T08:30:55.923Z</time>
      </trkpt>
      <trkpt lat="42.27312" lon="23.01916">
        <ele>540.342003</ele>
        <time>2022-04-06T08:30:58.911Z</time>
      </trkpt>
      <trkpt lat="42.27314" lon="23.01902">
        <ele>540.266417</ele>
        <time>2022-04-06T08:31:01.937Z</time>
      </trkpt>
      <trkpt lat="42.27316" lon="23.01889">
        <ele>540.189632</ele>
        <time>2022-04-06T08:31:04.903Z</time>
      </trkpt>
      <trkpt lat="42.27317" lon="23.01875">
        <ele>540.11339</ele>
        <time>2022-04-06T08:31:07.895Z</time>
      </trkpt>
      <trkpt lat="42.27318" lon="23.01862">
        <ele>540.041279</ele>
        <time>2022-04-06T08:31:10.899Z</time>
      </trkpt>
      <trkpt lat="42.2732" lon="23.01848">
        <ele>539.966621</ele>
        <time>2022-04-06T08:31:13.908Z</time>
      </trkpt>
      <trkpt lat="42.27321" lon="23.01835">
        <ele>539.890946</ele>
        <time>2022-04-06T08:31:16.895Z</time>
      </trkpt>
      <trkpt lat="42.27321" lon="23.01821">
        <ele>539.818248</ele>
        <time>2022-04-06T08:31:19.915Z</time>
      </trkpt>
      <trkpt lat="42.27322" lon="23.01808">
        <ele>539.741663</ele>
        <time>2022-04-06T08:31:22.892Z</time>
      </trkpt>
      <trkpt lat="42.27324" lon="23.01794">
        <ele>539.665302</ele>
        <time>2022-04-06T08:31:25.891Z</time>
      </trkpt>
      <trkpt lat="42.27325" lon="23.0178">
        <ele>539.590688</ele>
        <time>2022-04-06T08:31:28.898Z</time>
      </trkpt>
      <trkpt lat="42.27327" lon="23.01767">
        <ele>539.51487</ele>
        <time>2022-04-06T08:31:31.898Z</time>
      </trkpt>
      <trkpt lat="42.27329" lon="23.01753">
        <ele>539.437424</ele>
        <time>2022-04-06T08:31:34.972Z</time>
      </trkpt>
      <trkpt lat="42.2733" lon="23.01739">
        <ele>539.358031</ele>
        <time>2022-04-06T08:31:37.894Z</time>
      </trkpt>
      <trkpt lat="42.27332" lon="23.01724">
        <ele>539.278836</ele>
        <time>2022-04-06T08:31:40.900Z</time>
      </trkpt>
      <trkpt lat="42.27333" lon="23.0171">
        <ele>539.201075</ele>
        <time>2022-04-06T08:31:43.898Z</time>
      </trkpt>
      <trkpt lat="42.27335" lon="23.01696">
        <ele>539.122156</ele>
        <time>2022-04-06T08:31:46.906Z</time>
      </trkpt>
      <trkpt lat="42.27337" lon="23.01681">
        <ele>539.099757</ele>
        <time>2022-04-06T08:31:49.906Z</time>
      </trkpt>
      <trkpt lat="42.27339" lon="23.01666">
        <ele>539.442756</ele>
        <time>2022-04-06T08:31:52.912Z</time>
      </trkpt>
      <trkpt lat="42.2734" lon="23.01651">
        <ele>539.782246</ele>
        <time>2022-04-06T08:31:55.912Z</time>
      </trkpt>
      <trkpt lat="42.27342" lon="23.01637">
        <ele>540.11903</ele>
        <time>2022-04-06T08:31:58.906Z</time>
      </trkpt>
      <trkpt lat="42.27344" lon="23.01622">
        <ele>540.459795</ele>
        <time>2022-04-06T08:32:01.915Z</time>
      </trkpt>
      <trkpt lat="42.27345" lon="23.01607">
        <ele>540.7934</ele>
        <time>2022-04-06T08:32:04.898Z</time>
      </trkpt>
      <trkpt lat="42.27348" lon="23.01593">
        <ele>541.121323</ele>
        <time>2022-04-06T08:32:07.928Z</time>
      </trkpt>
      <trkpt lat="42.2735" lon="23.01579">
        <ele>541.443945</ele>
        <time>2022-04-06T08:32:10.901Z</time>
      </trkpt>
      <trkpt lat="42.27352" lon="23.01565">
        <ele>541.764139</ele>
        <time>2022-04-06T08:32:13.947Z</time>
      </trkpt>
      <trkpt lat="42.27353" lon="23.01553">
        <ele>542.048668</ele>
        <time>2022-04-06T08:32:16.923Z</time>
      </trkpt>
      <trkpt lat="42.27354" lon="23.01538">
        <ele>542.383297</ele>
        <time>2022-04-06T08:32:20.906Z</time>
      </trkpt>
      <trkpt lat="42.27356" lon="23.01524">
        <ele>542.712429</ele>
        <time>2022-04-06T08:32:24.890Z</time>
      </trkpt>
      <trkpt lat="42.27356" lon="23.01509">
        <ele>543.034567</ele>
        <time>2022-04-06T08:32:28.913Z</time>
      </trkpt>
      <trkpt lat="42.27358" lon="23.01497">
        <ele>543.324793</ele>
        <time>2022-04-06T08:32:32.905Z</time>
      </trkpt>
      <trkpt lat="42.27359" lon="23.01482">
        <ele>543.659798</ele>
        <time>2022-04-06T08:32:37.918Z</time>
      </trkpt>
      <trkpt lat="42.2736" lon="23.01469">
        <ele>543.962644</ele>
        <time>2022-04-06T08:32:42.904Z</time>
      </trkpt>
      <trkpt lat="42.27361" lon="23.01455">
        <ele>544.273042</ele>
        <time>2022-04-06T08:32:47.912Z</time>
      </trkpt>
      <trkpt lat="42.27362" lon="23.0144">
        <ele>544.656121</ele>
        <time>2022-04-06T08:32:52.919Z</time>
      </trkpt>
      <trkpt lat="42.27364" lon="23.01426">
        <ele>545.27859</ele>
        <time>2022-04-06T08:32:57.917Z</time>
      </trkpt>
      <trkpt lat="42.27365" lon="23.01412">
        <ele>545.884759</ele>
        <time>2022-04-06T08:33:02.892Z</time>
      </trkpt>
      <trkpt lat="42.27367" lon="23.01399">
        <ele>546.487086</ele>
        <time>2022-04-06T08:33:07.892Z</time>
      </trkpt>
      <trkpt lat="42.27367" lon="23.01385">
        <ele>547.061829</ele>
        <time>2022-04-06T08:33:13.917Z</time>
      </trkpt>
      <trkpt lat="42.27368" lon="23.01371">
        <ele>547.692406</ele>
        <time>2022-04-06T08:33:19.914Z</time>
      </trkpt>
      <trkpt lat="42.2737" lon="23.01359">
        <ele>548.240771</ele>
        <time>2022-04-06T08:33:24.910Z</time>
      </trkpt>
      <trkpt lat="42.27372" lon="23.01344">
        <ele>548.861692</ele>
        <time>2022-04-06T08:33:30.914Z</time>
      </trkpt>
      <trkpt lat="42.27373" lon="23.01331">
        <ele>549.441232</ele>
        <time>2022-04-06T08:33:35.882Z</time>
      </trkpt>
      <trkpt lat="42.27374" lon="23.01318">
        <ele>550.021367</ele>
        <time>2022-04-06T08:33:40.907Z</time>
      </trkpt>
      <trkpt lat="42.27375" lon="23.01303">
        <ele>550.654529</ele>
        <time>2022-04-06T08:33:46.895Z</time>
      </trkpt>
      <trkpt lat="42.27375" lon="23.01291">
        <ele>551.196976</ele>
        <time>2022-04-06T08:33:51.910Z</time>
      </trkpt>
      <trkpt lat="42.27375" lon="23.01279">
        <ele>551.730744</ele>
        <time>2022-04-06T08:33:56.910Z</time>
      </trkpt>
      <trkpt lat="42.27375" lon="23.01265">
        <ele>552.304318</ele>
        <time>2022-04-06T08:34:01.878Z</time>
      </trkpt>
      <trkpt lat="42.27374" lon="23.01253">
        <ele>552.84879</ele>
        <time>2022-04-06T08:34:06.931Z</time>
      </trkpt>
      <trkpt lat="42.27373" lon="23.0124">
        <ele>553.412301</ele>
        <time>2022-04-06T08:34:11.894Z</time>
      </trkpt>
      <trkpt lat="42.27372" lon="23.01227">
        <ele>554.002356</ele>
        <time>2022-04-06T08:34:16.931Z</time>
      </trkpt>
      <trkpt lat="42.2737" lon="23.01214">
        <ele>554.55189</ele>
        <time>2022-04-06T08:34:21.908Z</time>
      </trkpt>
      <trkpt lat="42.27369" lon="23.01201">
        <ele>555.099646</ele>
        <time>2022-04-06T08:34:26.946Z</time>
      </trkpt>
      <trkpt lat="42.27368" lon="23.01188">
        <ele>555.232145</ele>
        <time>2022-04-06T08:34:31.898Z</time>
      </trkpt>
      <trkpt lat="42.27367" lon="23.01174">
        <ele>555.373545</ele>
        <time>2022-04-06T08:34:36.895Z</time>
      </trkpt>
      <trkpt lat="42.27364" lon="23.01162">
        <ele>555.50677</ele>
        <time>2022-04-06T08:34:41.915Z</time>
      </trkpt>
      <trkpt lat="42.27362" lon="23.01149">
        <ele>555.640302</ele>
        <time>2022-04-06T08:34:46.901Z</time>
      </trkpt>
      <trkpt lat="42.2736" lon="23.01136">
        <ele>555.776372</ele>
        <time>2022-04-06T08:34:51.910Z</time>
      </trkpt>
      <trkpt lat="42.27358" lon="23.01122">
        <ele>555.915519</ele>
        <time>2022-04-06T08:34:56.889Z</time>
      </trkpt>
      <trkpt lat="42.27355" lon="23.01109">
        <ele>556.050364</ele>
        <time>2022-04-06T08:35:01.891Z</time>
      </trkpt>
      <trkpt lat="42.27352" lon="23.01098">
        <ele>556.179353</ele>
        <time>2022-04-06T08:35:06.911Z</time>
      </trkpt>
      <trkpt lat="42.27349" lon="23.01084">
        <ele>556.318943</ele>
        <time>2022-04-06T08:35:11.954Z</time>
      </trkpt>
      <trkpt lat="42.27347" lon="23.01071">
        <ele>556.456769</ele>
        <time>2022-04-06T08:35:16.908Z</time>
      </trkpt>
      <trkpt lat="42.27344" lon="23.01058">
        <ele>556.594156</ele>
        <time>2022-04-06T08:35:21.899Z</time>
      </trkpt>
      <trkpt lat="42.27341" lon="23.01046">
        <ele>556.726054</ele>
        <time>2022-04-06T08:35:26.939Z</time>
      </trkpt>
      <trkpt lat="42.2734" lon="23.01032">
        <ele>556.862882</ele>
        <time>2022-04-06T08:35:31.917Z</time>
      </trkpt>
      <trkpt lat="42.27338" lon="23.01018">
        <ele>557.008933</ele>
        <time>2022-04-06T08:35:36.912Z</time>
      </trkpt>
      <trkpt lat="42.27335" lon="23.01006">
        <ele>557.135692</ele>
        <time>2022-04-06T08:35:40.906Z</time>
      </trkpt>
      <trkpt lat="42.27334" lon="23.00993">
        <ele>557.265319</ele>
        <time>2022-04-06T08:35:44.909Z</time>
      </trkpt>
      <trkpt lat="42.27333" lon="23.00978">
        <ele>557.418766</ele>
        <time>2022-04-06T08:35:49.925Z</time>
      </trkpt>
      <trkpt lat="42.27332" lon="23.00966">
        <ele>557.546764</ele>
        <time>2022-04-06T08:35:53.922Z</time>
      </trkpt>
      <trkpt lat="42.27332" lon="23.00951">
        <ele>557.557962</ele>
        <time>2022-04-06T08:35:58.897Z</time>
      </trkpt>
      <trkpt lat="42.27332" lon="23.00938">
        <ele>557.558139</ele>
        <time>2022-04-06T08:36:02.911Z</time>
      </trkpt>
      <trkpt lat="42.27331" lon="23.00926">
        <ele>557.558316</ele>
        <time>2022-04-06T08:36:06.911Z</time>
      </trkpt>
      <trkpt lat="42.27331" lon="23.00913">
        <ele>557.558489</ele>
        <time>2022-04-06T08:36:10.905Z</time>
      </trkpt>
      <trkpt lat="42.27331" lon="23.00901">
        <ele>557.558659</ele>
        <time>2022-04-06T08:36:14.892Z</time>
      </trkpt>
      <trkpt lat="42.27333" lon="23.00888">
        <ele>557.558844</ele>
        <time>2022-04-06T08:36:18.938Z</time>
      </trkpt>
      <trkpt lat="42.27333" lon="23.00875">
        <ele>557.55903</ele>
        <time>2022-04-06T08:36:22.912Z</time>
      </trkpt>
      <trkpt lat="42.27335" lon="23.00862">
        <ele>557.559218</ele>
        <time>2022-04-06T08:36:26.904Z</time>
      </trkpt>
      <trkpt lat="42.27337" lon="23.00849">
        <ele>557.559408</ele>
        <time>2022-04-06T08:36:30.944Z</time>
      </trkpt>
      <trkpt lat="42.27339" lon="23.00835">
        <ele>557.559605</ele>
        <time>2022-04-06T08:36:34.915Z</time>
      </trkpt>
      <trkpt lat="42.27341" lon="23.00821">
        <ele>557.559799</ele>
        <time>2022-04-06T08:36:38.905Z</time>
      </trkpt>
      <trkpt lat="42.27344" lon="23.00808">
        <ele>557.55999</ele>
        <time>2022-04-06T08:36:42.902Z</time>
      </trkpt>
      <trkpt lat="42.27347" lon="23.00794">
        <ele>557.560201</ele>
        <time>2022-04-06T08:36:46.908Z</time>
      </trkpt>
      <trkpt lat="42.27351" lon="23.00779">
        <ele>557.560424</ele>
        <time>2022-04-06T08:36:50.908Z</time>
      </trkpt>
      <trkpt lat="42.27354" lon="23.00764">
        <ele>557.560648</ele>
        <time>2022-04-06T08:36:54.951Z</time>
      </trkpt>
      <trkpt lat="42.27358" lon="23.00749">
        <ele>557.560865</ele>
        <time>2022-04-06T08:36:58.906Z</time>
      </trkpt>
      <trkpt lat="42.27363" lon="23.00734">
        <ele>557.561093</ele>
        <time>2022-04-06T08:37:02.921Z</time>
      </trkpt>
      <trkpt lat="42.27366" lon="23.00722">
        <ele>557.541655</ele>
        <time>2022-04-06T08:37:05.892Z</time>
      </trkpt>
      <trkpt lat="42.2737" lon="23.0071">
        <ele>557.501312</ele>
        <time>2022-04-06T08:37:08.897Z</time>
      </trkpt>
      <trkpt lat="42.27374" lon="23.00698">
        <ele>557.461167</ele>
        <time>2022-04-06T08:37:11.908Z</time>
      </trkpt>
      <trkpt lat="42.27378" lon="23.00684">
        <ele>557.415698</ele>
        <time>2022-04-06T08:37:14.917Z</time>
      </trkpt>
      <trkpt lat="42.27383" lon="23.00671">
        <ele>557.371615</ele>
        <time>2022-04-06T08:37:17.887Z</time>
      </trkpt>
      <trkpt lat="42.27386" lon="23.00658">
        <ele>557.330133</ele>
        <time>2022-04-06T08:37:20.910Z</time>
      </trkpt>
      <trkpt lat="42.2739" lon="23.00645">
        <ele>557.288822</ele>
        <time>2022-04-06T08:37:23.899Z</time>
      </trkpt>
      <trkpt lat="42.27394" lon="23.00632">
        <ele>557.246293</ele>
        <time>2022-04-06T08:37:26.897Z</time>
      </trkpt>
      <trkpt lat="42.27398" lon="23.00619">
        <ele>557.202392</ele>
        <time>2022-04-06T08:37:29.896Z</time>
      </trkpt>
      <trkpt lat="42.27402" lon="23.00606">
        <ele>557.159777</ele>
        <time>2022-04-06T08:37:32.909Z</time>
      </trkpt>
      <trkpt lat="42.27405" lon="23.00592">
        <ele>557.116835</ele>
        <time>2022-04-06T08:37:35.902Z</time>
      </trkpt>
      <trkpt lat="42.27408" lon="23.00579">
        <ele>557.074137</ele>
        <time>2022-04-06T08:37:38.923Z</time>
      </trkpt>
      <trkpt lat="42.27411" lon="23.00565">
        <ele>557.030311</ele>
        <time>2022-04-06T08:37:41.900Z</time>
      </trkpt>
      <trkpt lat="42.27413" lon="23.0055">
        <ele>556.985333</ele>
        <time>2022-04-06T08:37:44.910Z</time>
      </trkpt>
      <trkpt lat="42.27415" lon="23.00535">
        <ele>556.939052</ele>
        <time>2022-04-06T08:37:47.912Z</time>
      </trkpt>
      <trkpt lat="42.27417" lon="23.0052">
        <ele>556.890794</ele>
        <time>2022-04-06T08:37:50.948Z</time>
      </trkpt>
      <trkpt lat="42.27419" lon="23.00503">
        <ele>556.839337</ele>
        <time>2022-04-06T08:37:53.909Z</time>
      </trkpt>
      <trkpt lat="42.27423" lon="23.00486">
        <ele>556.949835</ele>
        <time>2022-04-06T08:37:56.940Z</time>
      </trkpt>
      <trkpt lat="42.27426" lon="23.00468">
        <ele>557.127243</ele>
        <time>2022-04-06T08:37:59.932Z</time>
      </trkpt>
      <trkpt lat="42.27428" lon="23.00451">
        <ele>557.295813</ele>
        <time>2022-04-06T08:38:02.953Z</time>
      </trkpt>
      <trkpt lat="42.27431" lon="23.00434">
        <ele>557.475272</ele>
        <time>2022-04-06T08:38:05.904Z</time>
      </trkpt>
      <trkpt lat="42.27433" lon="23.00416">
        <ele>557.647999</ele>
        <time>2022-04-06T08:38:08.904Z</time>
      </trkpt>
      <trkpt lat="42.27436" lon="23.00399">
        <ele>557.818531</ele>
        <time>2022-04-06T08:38:11.920Z</time>
      </trkpt>
      <trkpt lat="42.27438" lon="23.00383">
        <ele>557.979612</ele>
        <time>2022-04-06T08:38:14.907Z</time>
      </trkpt>
      <trkpt lat="42.27441" lon="23.00368">
        <ele>558.132022</ele>
        <time>2022-04-06T08:38:17.899Z</time>
      </trkpt>
      <trkpt lat="42.27443" lon="23.00353">
        <ele>558.278131</ele>
        <time>2022-04-06T08:38:20.892Z</time>
      </trkpt>
      <trkpt lat="42.27444" lon="23.0034">
        <ele>558.411073</ele>
        <time>2022-04-06T08:38:23.902Z</time>
      </trkpt>
      <trkpt lat="42.27446" lon="23.00327">
        <ele>558.544398</ele>
        <time>2022-04-06T08:38:26.903Z</time>
      </trkpt>
      <trkpt lat="42.27448" lon="23.00315">
        <ele>558.667447</ele>
        <time>2022-04-06T08:38:29.916Z</time>
      </trkpt>
      <trkpt lat="42.27451" lon="23.00302">
        <ele>558.794424</ele>
        <time>2022-04-06T08:38:32.907Z</time>
      </trkpt>
      <trkpt lat="42.27453" lon="23.00289">
        <ele>558.925313</ele>
        <time>2022-04-06T08:38:35.960Z</time>
      </trkpt>
      <trkpt lat="42.27454" lon="23.00275">
        <ele>559.060807</ele>
        <time>2022-04-06T08:38:38.912Z</time>
      </trkpt>
      <trkpt lat="42.27456" lon="23.00262">
        <ele>559.191999</ele>
        <time>2022-04-06T08:38:41.895Z</time>
      </trkpt>
      <trkpt lat="42.27458" lon="23.00249">
        <ele>559.290522</ele>
        <time>2022-04-06T08:38:44.901Z</time>
      </trkpt>
      <trkpt lat="42.2746" lon="23.00235">
        <ele>559.380718</ele>
        <time>2022-04-06T08:38:47.935Z</time>
      </trkpt>
      <trkpt lat="42.27462" lon="23.00222">
        <ele>559.469305</ele>
        <time>2022-04-06T08:38:50.935Z</time>
      </trkpt>
      <trkpt lat="42.27464" lon="23.00209">
        <ele>559.5592</ele>
        <time>2022-04-06T08:38:53.904Z</time>
      </trkpt>
      <trkpt lat="42.27465" lon="23.00196">
        <ele>559.646859</ele>
        <time>2022-04-06T08:38:56.908Z</time>
      </trkpt>
      <trkpt lat="42.27467" lon="23.00183">
        <ele>559.733343</ele>
        <time>2022-04-06T08:38:59.906Z</time>
      </trkpt>
      <trkpt lat="42.27468" lon="23.00171">
        <ele>559.81656</ele>
        <time>2022-04-06T08:39:02.912Z</time>
      </trkpt>
      <trkpt lat="42.27471" lon="23.00157">
        <ele>559.906627</ele>
        <time>2022-04-06T08:39:05.907Z</time>
      </trkpt>
      <trkpt lat="42.27472" lon="23.00145">
        <ele>559.990148</ele>
        <time>2022-04-06T08:39:08.921Z</time>
      </trkpt>
      <trkpt lat="42.27474" lon="23.00132">
        <ele>560.074014</ele>
        <time>2022-04-06T08:39:11.904Z</time>
      </trkpt>
      <trkpt lat="42.27476" lon="23.00117">
        <ele>560.174654</ele>
        <time>2022-04-06T08:39:15.923Z</time>
      </trkpt>
      <trkpt lat="42.27478" lon="23.00102">
        <ele>560.277778</ele>
        <time>2022-04-06T08:39:19.895Z</time>
      </trkpt>
      <trkpt lat="42.2748" lon="23.00086">
        <ele>560.384175</ele>
        <time>2022-04-06T08:39:23.915Z</time>
      </trkpt>
      <trkpt lat="42.27482" lon="23.00071">
        <ele>560.485734</ele>
        <time>2022-04-06T08:39:27.895Z</time>
      </trkpt>
      <trkpt lat="42.27483" lon="23.00057">
        <ele>560.582762</ele>
        <time>2022-04-06T08:39:31.901Z</time>
      </trkpt>
      <trkpt lat="42.27484" lon="23.00042">
        <ele>560.677523</ele>
        <time>2022-04-06T08:39:35.908Z</time>
      </trkpt>
      <trkpt lat="42.27486" lon="23.00029">
        <ele>560.770327</ele>
        <time>2022-04-06T08:39:39.906Z</time>
      </trkpt>
      <trkpt lat="42.27486" lon="23.00016">
        <ele>560.924111</ele>
        <time>2022-04-06T08:39:43.913Z</time>
      </trkpt>
      <trkpt lat="42.27487" lon="23.00003">
        <ele>561.19067</ele>
        <time>2022-04-06T08:39:47.885Z</time>
      </trkpt>
      <trkpt lat="42.27488" lon="22.99987">
        <ele>561.49954</ele>
        <time>2022-04-06T08:39:51.903Z</time>
      </trkpt>
      <trkpt lat="42.27487" lon="22.99972">
        <ele>561.804145</ele>
        <time>2022-04-06T08:39:55.898Z</time>
      </trkpt>
      <trkpt lat="42.27487" lon="22.99958">
        <ele>562.08959</ele>
        <time>2022-04-06T08:39:59.952Z</time>
      </trkpt>
      <trkpt lat="42.27486" lon="22.99944">
        <ele>562.383703</ele>
        <time>2022-04-06T08:40:03.904Z</time>
      </trkpt>
      <trkpt lat="42.27484" lon="22.99929">
        <ele>562.693219</ele>
        <time>2022-04-06T08:40:07.899Z</time>
      </trkpt>
      <trkpt lat="42.27482" lon="22.99915">
        <ele>562.984822</ele>
        <time>2022-04-06T08:40:11.907Z</time>
      </trkpt>
      <trkpt lat="42.27481" lon="22.99901">
        <ele>563.254021</ele>
        <time>2022-04-06T08:40:15.908Z</time>
      </trkpt>
      <trkpt lat="42.2748" lon="22.99888">
        <ele>563.534958</ele>
        <time>2022-04-06T08:40:19.936Z</time>
      </trkpt>
      <trkpt lat="42.27478" lon="22.99873">
        <ele>563.829524</ele>
        <time>2022-04-06T08:40:23.901Z</time>
      </trkpt>
      <trkpt lat="42.27476" lon="22.99859">
        <ele>564.11961</ele>
        <time>2022-04-06T08:40:27.884Z</time>
      </trkpt>
      <trkpt lat="42.27474" lon="22.99846">
        <ele>564.402252</ele>
        <time>2022-04-06T08:40:31.952Z</time>
      </trkpt>
      <trkpt lat="42.27472" lon="22.99832">
        <ele>564.676563</ele>
        <time>2022-04-06T08:40:35.898Z</time>
      </trkpt>
      <trkpt lat="42.2747" lon="22.99819">
        <ele>564.939377</ele>
        <time>2022-04-06T08:40:39.906Z</time>
      </trkpt>
      <trkpt lat="42.27468" lon="22.99805">
        <ele>565.230881</ele>
        <time>2022-04-06T08:40:44.920Z</time>
      </trkpt>
      <trkpt lat="42.27466" lon="22.99791">
        <ele>565.535901</ele>
        <time>2022-04-06T08:40:49.898Z</time>
      </trkpt>
      <trkpt lat="42.27464" lon="22.99778">
        <ele>565.803832</ele>
        <time>2022-04-06T08:40:53.904Z</time>
      </trkpt>
      <trkpt lat="42.27462" lon="22.99765">
        <ele>566.076137</ele>
        <time>2022-04-06T08:40:57.886Z</time>
      </trkpt>
      <trkpt lat="42.27459" lon="22.99752">
        <ele>566.377369</ele>
        <time>2022-04-06T08:41:02.890Z</time>
      </trkpt>
      <trkpt lat="42.27457" lon="22.99737">
        <ele>566.69171</ele>
        <time>2022-04-06T08:41:07.896Z</time>
      </trkpt>
      <trkpt lat="42.27454" lon="22.99725">
        <ele>566.955519</ele>
        <time>2022-04-06T08:41:11.892Z</time>
      </trkpt>
      <trkpt lat="42.27451" lon="22.99712">
        <ele>567.249742</ele>
        <time>2022-04-06T08:41:16.932Z</time>
      </trkpt>
      <trkpt lat="42.27448" lon="22.99698">
        <ele>567.565667</ele>
        <time>2022-04-06T08:41:21.907Z</time>
      </trkpt>
      <trkpt lat="42.27446" lon="22.99686">
        <ele>567.82485</ele>
        <time>2022-04-06T08:41:25.902Z</time>
      </trkpt>
      <trkpt lat="42.27444" lon="22.99675">
        <ele>568.083175</ele>
        <time>2022-04-06T08:41:29.905Z</time>
      </trkpt>
      <trkpt lat="42.27442" lon="22.9966">
        <ele>568.408413</ele>
        <time>2022-04-06T08:41:34.912Z</time>
      </trkpt>
      <trkpt lat="42.2744" lon="22.99645">
        <ele>568.725792</ele>
        <time>2022-04-06T08:41:39.907Z</time>
      </trkpt>
      <trkpt lat="42.27437" lon="22.99631">
        <ele>569.042966</ele>
        <time>2022-04-06T08:41:44.892Z</time>
      </trkpt>
      <trkpt lat="42.27434" lon="22.99619">
        <ele>569.303647</ele>
        <time>2022-04-06T08:41:48.923Z</time>
      </trkpt>
      <trkpt lat="42.27432" lon="22.99606">
        <ele>569.583349</ele>
        <time>2022-04-06T08:41:52.907Z</time>
      </trkpt>
      <trkpt lat="42.2743" lon="22.99594">
        <ele>569.856874</ele>
        <time>2022-04-06T08:41:56.904Z</time>
      </trkpt>
      <trkpt lat="42.27428" lon="22.99581">
        <ele>570.124119</ele>
        <time>2022-04-06T08:42:00.933Z</time>
      </trkpt>
      <trkpt lat="42.27427" lon="22.99569">
        <ele>570.393091</ele>
        <time>2022-04-06T08:42:04.892Z</time>
      </trkpt>
      <trkpt lat="42.27426" lon="22.99557">
        <ele>570.658647</ele>
        <time>2022-04-06T08:42:08.903Z</time>
      </trkpt>
      <trkpt lat="42.27424" lon="22.99544">
        <ele>570.928863</ele>
        <time>2022-04-06T08:42:12.925Z</time>
      </trkpt>
      <trkpt lat="42.27423" lon="22.99531">
        <ele>571.309898</ele>
        <time>2022-04-06T08:42:16.911Z</time>
      </trkpt>
      <trkpt lat="42.27422" lon="22.99518">
        <ele>571.651671</ele>
        <time>2022-04-06T08:42:20.897Z</time>
      </trkpt>
      <trkpt lat="42.27419" lon="22.99504">
        <ele>572.061272</ele>
        <time>2022-04-06T08:42:25.900Z</time>
      </trkpt>
      <trkpt lat="42.27417" lon="22.99491">
        <ele>572.445824</ele>
        <time>2022-04-06T08:42:30.939Z</time>
      </trkpt>
      <trkpt lat="42.27415" lon="22.99477">
        <ele>572.820286</ele>
        <time>2022-04-06T08:42:35.891Z</time>
      </trkpt>
      <trkpt lat="42.27413" lon="22.99465">
        <ele>573.178458</ele>
        <time>2022-04-06T08:42:40.895Z</time>
      </trkpt>
      <trkpt lat="42.2741" lon="22.99451">
        <ele>573.574059</ele>
        <time>2022-04-06T08:42:46.936Z</time>
      </trkpt>
      <trkpt lat="42.27407" lon="22.9944">
        <ele>573.916843</ele>
        <time>2022-04-06T08:42:51.904Z</time>
      </trkpt>
      <trkpt lat="42.27405" lon="22.99427">
        <ele>574.266359</ele>
        <time>2022-04-06T08:42:56.915Z</time>
      </trkpt>
      <trkpt lat="42.27403" lon="22.99415">
        <ele>574.612425</ele>
        <time>2022-04-06T08:43:01.916Z</time>
      </trkpt>
      <trkpt lat="42.27402" lon="22.99403">
        <ele>574.956474</ele>
        <time>2022-04-06T08:43:06.900Z</time>
      </trkpt>
      <trkpt lat="42.27399" lon="22.9939">
        <ele>575.348338</ele>
        <time>2022-04-06T08:43:12.908Z</time>
      </trkpt>
      <trkpt lat="42.27396" lon="22.99376">
        <ele>575.748107</ele>
        <time>2022-04-06T08:43:18.903Z</time>
      </trkpt>
      <trkpt lat="42.27395" lon="22.99363">
        <ele>576.102394</ele>
        <time>2022-04-06T08:43:23.901Z</time>
      </trkpt>
      <trkpt lat="42.27394" lon="22.99351">
        <ele>576.453765</ele>
        <time>2022-04-06T08:43:28.902Z</time>
      </trkpt>
      <trkpt lat="42.27391" lon="22.99339">
        <ele>576.794903</ele>
        <time>2022-04-06T08:43:33.904Z</time>
      </trkpt>
      <trkpt lat="42.27388" lon="22.99325">
        <ele>577.193794</ele>
        <time>2022-04-06T08:43:39.911Z</time>
      </trkpt>
      <trkpt lat="42.27387" lon="22.99313">
        <ele>577.539637</ele>
        <time>2022-04-06T08:43:44.896Z</time>
      </trkpt>
      <trkpt lat="42.27385" lon="22.993">
        <ele>577.83118</ele>
        <time>2022-04-06T08:43:49.922Z</time>
      </trkpt>
      <trkpt lat="42.27384" lon="22.99286">
        <ele>578.097865</ele>
        <time>2022-04-06T08:43:55.902Z</time>
      </trkpt>
      <trkpt lat="42.27381" lon="22.99275">
        <ele>578.327136</ele>
        <time>2022-04-06T08:44:00.902Z</time>
      </trkpt>
      <trkpt lat="42.27378" lon="22.99261">
        <ele>578.591397</ele>
        <time>2022-04-06T08:44:06.902Z</time>
      </trkpt>
      <trkpt lat="42.27375" lon="22.99248">
        <ele>578.855223</ele>
        <time>2022-04-06T08:44:11.907Z</time>
      </trkpt>
      <trkpt lat="42.27373" lon="22.99236">
        <ele>579.085535</ele>
        <time>2022-04-06T08:44:16.903Z</time>
      </trkpt>
      <trkpt lat="42.27372" lon="22.99222">
        <ele>579.341036</ele>
        <time>2022-04-06T08:44:21.913Z</time>
      </trkpt>
      <trkpt lat="42.27371" lon="22.99209">
        <ele>579.587534</ele>
        <time>2022-04-06T08:44:26.900Z</time>
      </trkpt>
      <trkpt lat="42.27369" lon="22.99197">
        <ele>579.816838</ele>
        <time>2022-04-06T08:44:31.910Z</time>
      </trkpt>
      <trkpt lat="42.27368" lon="22.99184">
        <ele>580.060904</ele>
        <time>2022-04-06T08:44:36.908Z</time>
      </trkpt>
      <trkpt lat="42.27366" lon="22.9917">
        <ele>580.327168</ele>
        <time>2022-04-06T08:44:41.919Z</time>
      </trkpt>
      <trkpt lat="42.27365" lon="22.99158">
        <ele>580.556289</ele>
        <time>2022-04-06T08:44:46.892Z</time>
      </trkpt>
      <trkpt lat="42.27363" lon="22.99145">
        <ele>580.799127</ele>
        <time>2022-04-06T08:44:51.921Z</time>
      </trkpt>
      <trkpt lat="42.27362" lon="22.99132">
        <ele>581.045821</ele>
        <time>2022-04-06T08:44:56.899Z</time>
      </trkpt>
      <trkpt lat="42.27362" lon="22.99118">
        <ele>581.313299</ele>
        <time>2022-04-06T08:45:02.942Z</time>
      </trkpt>
      <trkpt lat="42.27361" lon="22.99105">
        <ele>581.551704</ele>
        <time>2022-04-06T08:45:07.891Z</time>
      </trkpt>
      <trkpt lat="42.27361" lon="22.99091">
        <ele>581.829572</ele>
        <time>2022-04-06T08:45:12.922Z</time>
      </trkpt>
      <trkpt lat="42.27361" lon="22.99077">
        <ele>582.085016</ele>
        <time>2022-04-06T08:45:17.898Z</time>
      </trkpt>
      <trkpt lat="42.2736" lon="22.99064">
        <ele>582.35641</ele>
        <time>2022-04-06T08:45:22.910Z</time>
      </trkpt>
      <trkpt lat="42.2736" lon="22.9905">
        <ele>582.698976</ele>
        <time>2022-04-06T08:45:27.893Z</time>
      </trkpt>
      <trkpt lat="42.2736" lon="22.99037">
        <ele>583.049207</ele>
        <time>2022-04-06T08:45:32.900Z</time>
      </trkpt>
      <trkpt lat="42.2736" lon="22.99024">
        <ele>583.378995</ele>
        <time>2022-04-06T08:45:37.897Z</time>
      </trkpt>
      <trkpt lat="42.2736" lon="22.99011">
        <ele>583.713823</ele>
        <time>2022-04-06T08:45:42.901Z</time>
      </trkpt>
      <trkpt lat="42.2736" lon="22.98998">
        <ele>584.030759</ele>
        <time>2022-04-06T08:45:47.908Z</time>
      </trkpt>
      <trkpt lat="42.2736" lon="22.98985">
        <ele>584.381535</ele>
        <time>2022-04-06T08:45:52.894Z</time>
      </trkpt>
      <trkpt lat="42.27361" lon="22.9897">
        <ele>584.759955</ele>
        <time>2022-04-06T08:45:57.881Z</time>
      </trkpt>
      <trkpt lat="42.27361" lon="22.98956">
        <ele>585.110136</ele>
        <time>2022-04-06T08:46:02.912Z</time>
      </trkpt>
      <trkpt lat="42.27361" lon="22.98942">
        <ele>585.473226</ele>
        <time>2022-04-06T08:46:07.906Z</time>
      </trkpt>
      <trkpt lat="42.27361" lon="22.98928">
        <ele>585.836169</ele>
        <time>2022-04-06T08:46:12.909Z</time>
      </trkpt>
      <trkpt lat="42.2736" lon="22.98915">
        <ele>586.148929</ele>
        <time>2022-04-06T08:46:16.896Z</time>
      </trkpt>
      <trkpt lat="42.2736" lon="22.98903">
        <ele>586.47144</ele>
        <time>2022-04-06T08:46:20.892Z</time>
      </trkpt>
      <trkpt lat="42.2736" lon="22.9889">
        <ele>586.806268</ele>
        <time>2022-04-06T08:46:24.907Z</time>
      </trkpt>
      <trkpt lat="42.2736" lon="22.98875">
        <ele>587.174387</ele>
        <time>2022-04-06T08:46:28.903Z</time>
      </trkpt>
      <trkpt lat="42.2736" lon="22.98861">
        <ele>587.550364</ele>
        <time>2022-04-06T08:46:32.921Z</time>
      </trkpt>
      <trkpt lat="42.27361" lon="22.98845">
        <ele>587.944115</ele>
        <time>2022-04-06T08:46:36.908Z</time>
      </trkpt>
      <trkpt lat="42.2736" lon="22.9883">
        <ele>588.33592</ele>
        <time>2022-04-06T08:46:40.939Z</time>
      </trkpt>
      <trkpt lat="42.2736" lon="22.98815">
        <ele>588.214704</ele>
        <time>2022-04-06T08:46:44.918Z</time>
      </trkpt>
      <trkpt lat="42.2736" lon="22.98802">
        <ele>587.839166</ele>
        <time>2022-04-06T08:46:47.898Z</time>
      </trkpt>
      <trkpt lat="42.2736" lon="22.9879">
        <ele>587.477059</ele>
        <time>2022-04-06T08:46:50.906Z</time>
      </trkpt>
      <trkpt lat="42.27361" lon="22.98777">
        <ele>587.101359</ele>
        <time>2022-04-06T08:46:53.892Z</time>
      </trkpt>
      <trkpt lat="42.27361" lon="22.98763">
        <ele>586.719565</ele>
        <time>2022-04-06T08:46:56.900Z</time>
      </trkpt>
      <trkpt lat="42.27362" lon="22.98749">
        <ele>586.289902</ele>
        <time>2022-04-06T08:46:59.909Z</time>
      </trkpt>
      <trkpt lat="42.27363" lon="22.98734">
        <ele>585.85696</ele>
        <time>2022-04-06T08:47:02.898Z</time>
      </trkpt>
      <trkpt lat="42.27364" lon="22.98719">
        <ele>585.429287</ele>
        <time>2022-04-06T08:47:05.928Z</time>
      </trkpt>
      <trkpt lat="42.27364" lon="22.98704">
        <ele>585.004377</ele>
        <time>2022-04-06T08:47:08.915Z</time>
      </trkpt>
      <trkpt lat="42.27365" lon="22.98691">
        <ele>584.625247</ele>
        <time>2022-04-06T08:47:11.912Z</time>
      </trkpt>
      <trkpt lat="42.27365" lon="22.98677">
        <ele>584.228568</ele>
        <time>2022-04-06T08:47:14.894Z</time>
      </trkpt>
      <trkpt lat="42.27366" lon="22.98663">
        <ele>583.808559</ele>
        <time>2022-04-06T08:47:17.915Z</time>
      </trkpt>
      <trkpt lat="42.27366" lon="22.98649">
        <ele>583.395416</ele>
        <time>2022-04-06T08:47:20.909Z</time>
      </trkpt>
      <trkpt lat="42.27366" lon="22.98635">
        <ele>582.990712</ele>
        <time>2022-04-06T08:47:23.894Z</time>
      </trkpt>
      <trkpt lat="42.27365" lon="22.9862">
        <ele>582.57459</ele>
        <time>2022-04-06T08:47:26.908Z</time>
      </trkpt>
      <trkpt lat="42.27365" lon="22.98606">
        <ele>582.173056</ele>
        <time>2022-04-06T08:47:29.897Z</time>
      </trkpt>
      <trkpt lat="42.27365" lon="22.98592">
        <ele>581.765765</ele>
        <time>2022-04-06T08:47:32.898Z</time>
      </trkpt>
      <trkpt lat="42.27365" lon="22.98579">
        <ele>581.452977</ele>
        <time>2022-04-06T08:47:35.890Z</time>
      </trkpt>
      <trkpt lat="42.27364" lon="22.98567">
        <ele>581.419508</ele>
        <time>2022-04-06T08:47:38.936Z</time>
      </trkpt>
      <trkpt lat="42.27364" lon="22.98554">
        <ele>581.385818</ele>
        <time>2022-04-06T08:47:41.898Z</time>
      </trkpt>
      <trkpt lat="42.27364" lon="22.98539">
        <ele>581.34464</ele>
        <time>2022-04-06T08:47:45.911Z</time>
      </trkpt>
      <trkpt lat="42.27365" lon="22.98527">
        <ele>581.311376</ele>
        <time>2022-04-06T08:47:48.915Z</time>
      </trkpt>
      <trkpt lat="42.27365" lon="22.98513">
        <ele>581.274767</ele>
        <time>2022-04-06T08:47:51.903Z</time>
      </trkpt>
      <trkpt lat="42.27365" lon="22.98499">
        <ele>581.237357</ele>
        <time>2022-04-06T08:47:54.900Z</time>
      </trkpt>
      <trkpt lat="42.27365" lon="22.98485">
        <ele>581.198601</ele>
        <time>2022-04-06T08:47:57.909Z</time>
      </trkpt>
      <trkpt lat="42.27365" lon="22.9847">
        <ele>581.159281</ele>
        <time>2022-04-06T08:48:00.916Z</time>
      </trkpt>
      <trkpt lat="42.27366" lon="22.98455">
        <ele>581.119424</ele>
        <time>2022-04-06T08:48:03.904Z</time>
      </trkpt>
      <trkpt lat="42.27366" lon="22.98441">
        <ele>581.081207</ele>
        <time>2022-04-06T08:48:06.934Z</time>
      </trkpt>
      <trkpt lat="42.27366" lon="22.98427">
        <ele>581.043792</ele>
        <time>2022-04-06T08:48:09.896Z</time>
      </trkpt>
      <trkpt lat="42.27366" lon="22.98413">
        <ele>581.004492</ele>
        <time>2022-04-06T08:48:12.930Z</time>
      </trkpt>
      <trkpt lat="42.27366" lon="22.98398">
        <ele>580.964082</ele>
        <time>2022-04-06T08:48:15.895Z</time>
      </trkpt>
      <trkpt lat="42.27367" lon="22.98382">
        <ele>580.921277</ele>
        <time>2022-04-06T08:48:18.959Z</time>
      </trkpt>
      <trkpt lat="42.27367" lon="22.98366">
        <ele>580.879254</ele>
        <time>2022-04-06T08:48:21.896Z</time>
      </trkpt>
      <trkpt lat="42.27368" lon="22.9835">
        <ele>580.836387</ele>
        <time>2022-04-06T08:48:24.903Z</time>
      </trkpt>
      <trkpt lat="42.27368" lon="22.98334">
        <ele>580.865451</ele>
        <time>2022-04-06T08:48:27.909Z</time>
      </trkpt>
      <trkpt lat="42.27369" lon="22.98318">
        <ele>581.076278</ele>
        <time>2022-04-06T08:48:30.904Z</time>
      </trkpt>
      <trkpt lat="42.27369" lon="22.98302">
        <ele>581.284359</ele>
        <time>2022-04-06T08:48:33.893Z</time>
      </trkpt>
      <trkpt lat="42.27369" lon="22.98287">
        <ele>581.4925</ele>
        <time>2022-04-06T08:48:36.910Z</time>
      </trkpt>
      <trkpt lat="42.27368" lon="22.98271">
        <ele>581.691744</ele>
        <time>2022-04-06T08:48:39.879Z</time>
      </trkpt>
      <trkpt lat="42.27368" lon="22.98255">
        <ele>581.905115</ele>
        <time>2022-04-06T08:48:42.901Z</time>
      </trkpt>
      <trkpt lat="42.27369" lon="22.9824">
        <ele>582.108115</ele>
        <time>2022-04-06T08:48:45.917Z</time>
      </trkpt>
      <trkpt lat="42.27369" lon="22.98225">
        <ele>582.303052</ele>
        <time>2022-04-06T08:48:48.913Z</time>
      </trkpt>
      <trkpt lat="42.27369" lon="22.98211">
        <ele>582.492696</ele>
        <time>2022-04-06T08:48:51.918Z</time>
      </trkpt>
      <trkpt lat="42.27369" lon="22.98197">
        <ele>582.674439</ele>
        <time>2022-04-06T08:48:54.896Z</time>
      </trkpt>
      <trkpt lat="42.27369" lon="22.98183">
        <ele>582.857491</ele>
        <time>2022-04-06T08:48:57.947Z</time>
      </trkpt>
      <trkpt lat="42.2737" lon="22.98169">
        <ele>583.038224</ele>
        <time>2022-04-06T08:49:00.907Z</time>
      </trkpt>
      <trkpt lat="42.2737" lon="22.98155">
        <ele>583.221414</ele>
        <time>2022-04-06T08:49:03.903Z</time>
      </trkpt>
      <trkpt lat="42.2737" lon="22.98142">
        <ele>583.396709</ele>
        <time>2022-04-06T08:49:06.912Z</time>
      </trkpt>
      <trkpt lat="42.27371" lon="22.98129">
        <ele>583.570578</ele>
        <time>2022-04-06T08:49:09.902Z</time>
      </trkpt>
      <trkpt lat="42.2737" lon="22.98116">
        <ele>583.735232</ele>
        <time>2022-04-06T08:49:12.879Z</time>
      </trkpt>
      <trkpt lat="42.2737" lon="22.981">
        <ele>583.947263</ele>
        <time>2022-04-06T08:49:16.923Z</time>
      </trkpt>
      <trkpt lat="42.27371" lon="22.98088">
        <ele>584.12123</ele>
        <time>2022-04-06T08:49:19.884Z</time>
      </trkpt>
      <trkpt lat="42.27371" lon="22.98075">
        <ele>584.298357</ele>
        <time>2022-04-06T08:49:22.895Z</time>
      </trkpt>
      <trkpt lat="42.27372" lon="22.98059">
        <ele>584.522049</ele>
        <time>2022-04-06T08:49:26.903Z</time>
      </trkpt>
      <trkpt lat="42.27371" lon="22.98046">
        <ele>584.711662</ele>
        <time>2022-04-06T08:49:30.900Z</time>
      </trkpt>
      <trkpt lat="42.27372" lon="22.98033">
        <ele>584.892182</ele>
        <time>2022-04-06T08:49:34.913Z</time>
      </trkpt>
      <trkpt lat="42.27372" lon="22.98018">
        <ele>585.104502</ele>
        <time>2022-04-06T08:49:38.896Z</time>
      </trkpt>
      <trkpt lat="42.27372" lon="22.98006">
        <ele>585.279997</ele>
        <time>2022-04-06T08:49:41.893Z</time>
      </trkpt>
      <trkpt lat="42.27372" lon="22.97994">
        <ele>585.454036</ele>
        <time>2022-04-06T08:49:44.911Z</time>
      </trkpt>
      <trkpt lat="42.27372" lon="22.97978">
        <ele>585.674842</ele>
        <time>2022-04-06T08:49:48.910Z</time>
      </trkpt>
      <trkpt lat="42.27372" lon="22.97966">
        <ele>585.847508</ele>
        <time>2022-04-06T08:49:51.894Z</time>
      </trkpt>
      <trkpt lat="42.27373" lon="22.97952">
        <ele>586.03709</ele>
        <time>2022-04-06T08:49:54.900Z</time>
      </trkpt>
      <trkpt lat="42.27374" lon="22.97939">
        <ele>586.226247</ele>
        <time>2022-04-06T08:49:57.903Z</time>
      </trkpt>
      <trkpt lat="42.27374" lon="22.97924">
        <ele>586.446987</ele>
        <time>2022-04-06T08:50:01.916Z</time>
      </trkpt>
      <trkpt lat="42.27374" lon="22.97909">
        <ele>586.659264</ele>
        <time>2022-04-06T08:50:05.908Z</time>
      </trkpt>
      <trkpt lat="42.27374" lon="22.97894">
        <ele>586.860413</ele>
        <time>2022-04-06T08:50:09.932Z</time>
      </trkpt>
      <trkpt lat="42.27374" lon="22.9788">
        <ele>587.060068</ele>
        <time>2022-04-06T08:50:13.898Z</time>
      </trkpt>
      <trkpt lat="42.27373" lon="22.97866">
        <ele>587.263856</ele>
        <time>2022-04-06T08:50:17.920Z</time>
      </trkpt>
      <trkpt lat="42.27374" lon="22.97852">
        <ele>587.481173</ele>
        <time>2022-04-06T08:50:21.949Z</time>
      </trkpt>
      <trkpt lat="42.27374" lon="22.97838">
        <ele>587.911573</ele>
        <time>2022-04-06T08:50:25.921Z</time>
      </trkpt>
      <trkpt lat="42.27375" lon="22.97824">
        <ele>588.337721</ele>
        <time>2022-04-06T08:50:29.895Z</time>
      </trkpt>
      <trkpt lat="42.27376" lon="22.9781">
        <ele>588.779604</ele>
        <time>2022-04-06T08:50:33.893Z</time>
      </trkpt>
      <trkpt lat="42.27376" lon="22.97796">
        <ele>589.217742</ele>
        <time>2022-04-06T08:50:37.915Z</time>
      </trkpt>
      <trkpt lat="42.27375" lon="22.97782">
        <ele>589.657086</ele>
        <time>2022-04-06T08:50:41.900Z</time>
      </trkpt>
      <trkpt lat="42.27374" lon="22.97769">
        <ele>590.075508</ele>
        <time>2022-04-06T08:50:45.912Z</time>
      </trkpt>
      <trkpt lat="42.27374" lon="22.97754">
        <ele>590.513566</ele>
        <time>2022-04-06T08:50:49.940Z</time>
      </trkpt>
      <trkpt lat="42.27374" lon="22.97741">
        <ele>590.945736</ele>
        <time>2022-04-06T08:50:53.913Z</time>
      </trkpt>
      <trkpt lat="42.27373" lon="22.97727">
        <ele>591.365489</ele>
        <time>2022-04-06T08:50:57.902Z</time>
      </trkpt>
      <trkpt lat="42.27373" lon="22.97713">
        <ele>591.800947</ele>
        <time>2022-04-06T08:51:01.896Z</time>
      </trkpt>
      <trkpt lat="42.27372" lon="22.977">
        <ele>592.221392</ele>
        <time>2022-04-06T08:51:05.905Z</time>
      </trkpt>
      <trkpt lat="42.27371" lon="22.97687">
        <ele>592.62667</ele>
        <time>2022-04-06T08:51:09.898Z</time>
      </trkpt>
      <trkpt lat="42.27371" lon="22.97674">
        <ele>593.027644</ele>
        <time>2022-04-06T08:51:13.934Z</time>
      </trkpt>
      <trkpt lat="42.2737" lon="22.97661">
        <ele>593.42673</ele>
        <time>2022-04-06T08:51:17.906Z</time>
      </trkpt>
      <trkpt lat="42.27369" lon="22.97648">
        <ele>593.828721</ele>
        <time>2022-04-06T08:51:21.899Z</time>
      </trkpt>
      <trkpt lat="42.27367" lon="22.97633">
        <ele>594.298433</ele>
        <time>2022-04-06T08:51:26.909Z</time>
      </trkpt>
      <trkpt lat="42.27367" lon="22.97618">
        <ele>594.767634</ele>
        <time>2022-04-06T08:51:31.909Z</time>
      </trkpt>
      <trkpt lat="42.27366" lon="22.97606">
        <ele>595.122875</ele>
        <time>2022-04-06T08:51:35.913Z</time>
      </trkpt>
      <trkpt lat="42.27364" lon="22.97594">
        <ele>595.450514</ele>
        <time>2022-04-06T08:51:39.895Z</time>
      </trkpt>
      <trkpt lat="42.27363" lon="22.97581">
        <ele>595.780736</ele>
        <time>2022-04-06T08:51:43.919Z</time>
      </trkpt>
      <trkpt lat="42.27361" lon="22.97568">
        <ele>596.125384</ele>
        <time>2022-04-06T08:51:47.892Z</time>
      </trkpt>
      <trkpt lat="42.2736" lon="22.97554">
        <ele>596.503963</ele>
        <time>2022-04-06T08:51:52.895Z</time>
      </trkpt>
      <trkpt lat="42.27357" lon="22.9754">
        <ele>596.886345</ele>
        <time>2022-04-06T08:51:57.887Z</time>
      </trkpt>
      <trkpt lat="42.27354" lon="22.97525">
        <ele>597.277237</ele>
        <time>2022-04-06T08:52:02.940Z</time>
      </trkpt>
      <trkpt lat="42.27353" lon="22.97511">
        <ele>597.646852</ele>
        <time>2022-04-06T08:52:07.888Z</time>
      </trkpt>
      <trkpt lat="42.27352" lon="22.97498">
        <ele>597.99013</ele>
        <time>2022-04-06T08:52:12.922Z</time>
      </trkpt>
      <trkpt lat="42.2735" lon="22.97485">
        <ele>598.335871</ele>
        <time>2022-04-06T08:52:17.897Z</time>
      </trkpt>
      <trkpt lat="42.27348" lon="22.97473">
        <ele>598.660927</ele>
        <time>2022-04-06T08:52:22.902Z</time>
      </trkpt>
      <trkpt lat="42.27347" lon="22.97461">
        <ele>598.978236</ele>
        <time>2022-04-06T08:52:27.898Z</time>
      </trkpt>
      <trkpt lat="42.27345" lon="22.97447">
        <ele>599.351954</ele>
        <time>2022-04-06T08:52:33.912Z</time>
      </trkpt>
      <trkpt lat="42.27344" lon="22.97435">
        <ele>599.688816</ele>
        <time>2022-04-06T08:52:38.897Z</time>
      </trkpt>
      <trkpt lat="42.27342" lon="22.97421">
        <ele>600.036586</ele>
        <time>2022-04-06T08:52:43.894Z</time>
      </trkpt>
      <trkpt lat="42.27341" lon="22.97408">
        <ele>600.406201</ele>
        <time>2022-04-06T08:52:48.920Z</time>
      </trkpt>
      <trkpt lat="42.2734" lon="22.97394">
        <ele>600.759196</ele>
        <time>2022-04-06T08:52:53.897Z</time>
      </trkpt>
      <trkpt lat="42.27338" lon="22.9738">
        <ele>601.131991</ele>
        <time>2022-04-06T08:52:58.921Z</time>
      </trkpt>
      <trkpt lat="42.27337" lon="22.97367">
        <ele>601.412885</ele>
        <time>2022-04-06T08:53:03.930Z</time>
      </trkpt>
      <trkpt lat="42.27336" lon="22.97355">
        <ele>601.535143</ele>
        <time>2022-04-06T08:53:08.904Z</time>
      </trkpt>
      <trkpt lat="42.27334" lon="22.9734">
        <ele>601.678841</ele>
        <time>2022-04-06T08:53:14.893Z</time>
      </trkpt>
      <trkpt lat="42.27332" lon="22.97327">
        <ele>601.808709</ele>
        <time>2022-04-06T08:53:19.917Z</time>
      </trkpt>
      <trkpt lat="42.27331" lon="22.97315">
        <ele>601.929836</ele>
        <time>2022-04-06T08:53:24.912Z</time>
      </trkpt>
      <trkpt lat="42.27329" lon="22.97302">
        <ele>602.066512</ele>
        <time>2022-04-06T08:53:29.906Z</time>
      </trkpt>
      <trkpt lat="42.27328" lon="22.97289">
        <ele>602.192236</ele>
        <time>2022-04-06T08:53:34.920Z</time>
      </trkpt>
      <trkpt lat="42.27326" lon="22.97276">
        <ele>602.321598</ele>
        <time>2022-04-06T08:53:39.899Z</time>
      </trkpt>
      <trkpt lat="42.27325" lon="22.97263">
        <ele>602.451676</ele>
        <time>2022-04-06T08:53:44.903Z</time>
      </trkpt>
      <trkpt lat="42.27324" lon="22.9725">
        <ele>602.579799</ele>
        <time>2022-04-06T08:53:49.964Z</time>
      </trkpt>
      <trkpt lat="42.27323" lon="22.97237">
        <ele>602.709228</ele>
        <time>2022-04-06T08:53:54.899Z</time>
      </trkpt>
      <trkpt lat="42.27322" lon="22.97224">
        <ele>602.838876</ele>
        <time>2022-04-06T08:53:59.903Z</time>
      </trkpt>
      <trkpt lat="42.27321" lon="22.97211">
        <ele>602.966839</ele>
        <time>2022-04-06T08:54:04.906Z</time>
      </trkpt>
      <trkpt lat="42.2732" lon="22.97198">
        <ele>603.097597</ele>
        <time>2022-04-06T08:54:09.912Z</time>
      </trkpt>
      <trkpt lat="42.27319" lon="22.97185">
        <ele>603.219689</ele>
        <time>2022-04-06T08:54:14.907Z</time>
      </trkpt>
      <trkpt lat="42.27318" lon="22.97173">
        <ele>603.343506</ele>
        <time>2022-04-06T08:54:19.900Z</time>
      </trkpt>
      <trkpt lat="42.27317" lon="22.9716">
        <ele>603.469003</ele>
        <time>2022-04-06T08:54:24.899Z</time>
      </trkpt>
      <trkpt lat="42.27315" lon="22.97148">
        <ele>603.588932</ele>
        <time>2022-04-06T08:54:29.908Z</time>
      </trkpt>
      <trkpt lat="42.27314" lon="22.97134">
        <ele>603.732427</ele>
        <time>2022-04-06T08:54:35.901Z</time>
      </trkpt>
      <trkpt lat="42.27312" lon="22.97122">
        <ele>604.055307</ele>
        <time>2022-04-06T08:54:40.899Z</time>
      </trkpt>
      <trkpt lat="42.2731" lon="22.97108">
        <ele>604.533293</ele>
        <time>2022-04-06T08:54:46.902Z</time>
      </trkpt>
      <trkpt lat="42.27308" lon="22.97094">
        <ele>604.996917</ele>
        <time>2022-04-06T08:54:52.911Z</time>
      </trkpt>
      <trkpt lat="42.27306" lon="22.97081">
        <ele>605.418826</ele>
        <time>2022-04-06T08:54:57.911Z</time>
      </trkpt>
      <trkpt lat="42.27304" lon="22.97069">
        <ele>605.836746</ele>
        <time>2022-04-06T08:55:02.894Z</time>
      </trkpt>
      <trkpt lat="42.27303" lon="22.97056">
        <ele>606.265295</ele>
        <time>2022-04-06T08:55:07.894Z</time>
      </trkpt>
      <trkpt lat="42.27302" lon="22.97043">
        <ele>606.684735</ele>
        <time>2022-04-06T08:55:12.929Z</time>
      </trkpt>
      <trkpt lat="42.273" lon="22.97031">
        <ele>607.09689</ele>
        <time>2022-04-06T08:55:17.899Z</time>
      </trkpt>
      <trkpt lat="42.273" lon="22.97018">
        <ele>607.516614</ele>
        <time>2022-04-06T08:55:22.911Z</time>
      </trkpt>
      <trkpt lat="42.27298" lon="22.97005">
        <ele>607.955</ele>
        <time>2022-04-06T08:55:27.908Z</time>
      </trkpt>
      <trkpt lat="42.27298" lon="22.96992">
        <ele>608.390632</ele>
        <time>2022-04-06T08:55:32.899Z</time>
      </trkpt>
      <trkpt lat="42.27296" lon="22.96979">
        <ele>608.83622</ele>
        <time>2022-04-06T08:55:37.896Z</time>
      </trkpt>
      <trkpt lat="42.27295" lon="22.96965">
        <ele>609.282839</ele>
        <time>2022-04-06T08:55:42.905Z</time>
      </trkpt>
      <trkpt lat="42.27293" lon="22.96953">
        <ele>609.687734</ele>
        <time>2022-04-06T08:55:47.928Z</time>
      </trkpt>
      <trkpt lat="42.27291" lon="22.96941">
        <ele>610.101115</ele>
        <time>2022-04-06T08:55:52.889Z</time>
      </trkpt>
      <trkpt lat="42.2729" lon="22.96929">
        <ele>610.506208</ele>
        <time>2022-04-06T08:55:57.914Z</time>
      </trkpt>
      <trkpt lat="42.27289" lon="22.96915">
        <ele>610.952828</ele>
        <time>2022-04-06T08:56:02.913Z</time>
      </trkpt>
      <trkpt lat="42.27289" lon="22.96902">
        <ele>611.381953</ele>
        <time>2022-04-06T08:56:07.896Z</time>
      </trkpt>
      <trkpt lat="42.27287" lon="22.9689">
        <ele>611.816834</ele>
        <time>2022-04-06T08:56:12.899Z</time>
      </trkpt>
      <trkpt lat="42.27286" lon="22.96876">
        <ele>612.26674</ele>
        <time>2022-04-06T08:56:17.888Z</time>
      </trkpt>
      <trkpt lat="42.27284" lon="22.96863">
        <ele>612.741466</ele>
        <time>2022-04-06T08:56:22.901Z</time>
      </trkpt>
      <trkpt lat="42.27282" lon="22.9685">
        <ele>613.174551</ele>
        <time>2022-04-06T08:56:27.920Z</time>
      </trkpt>
      <trkpt lat="42.2728" lon="22.96836">
        <ele>613.664474</ele>
        <time>2022-04-06T08:56:33.900Z</time>
      </trkpt>
      <trkpt lat="42.27279" lon="22.96824">
        <ele>614.085094</ele>
        <time>2022-04-06T08:56:38.909Z</time>
      </trkpt>
      <trkpt lat="42.27279" lon="22.96811">
        <ele>614.542741</ele>
        <time>2022-04-06T08:56:44.897Z</time>
      </trkpt>
      <trkpt lat="42.27277" lon="22.96797">
        <ele>615.014207</ele>
        <time>2022-04-06T08:56:50.903Z</time>
      </trkpt>
      <trkpt lat="42.27275" lon="22.96783">
        <ele>615.491645</ele>
        <time>2022-04-06T08:56:56.899Z</time>
      </trkpt>
      <trkpt lat="42.27273" lon="22.96769">
        <ele>615.981029</ele>
        <time>2022-04-06T08:57:02.895Z</time>
      </trkpt>
      <trkpt lat="42.2727" lon="22.96756">
        <ele>616.449623</ele>
        <time>2022-04-06T08:57:08.900Z</time>
      </trkpt>
      <trkpt lat="42.27266" lon="22.96744">
        <ele>616.88649</ele>
        <time>2022-04-06T08:57:14.911Z</time>
      </trkpt>
      <trkpt lat="42.27263" lon="22.96731">
        <ele>617.342605</ele>
        <time>2022-04-06T08:57:20.923Z</time>
      </trkpt>
      <trkpt lat="42.2726" lon="22.9672">
        <ele>617.765209</ele>
        <time>2022-04-06T08:57:26.891Z</time>
      </trkpt>
      <trkpt lat="42.27256" lon="22.96707">
        <ele>618.226092</ele>
        <time>2022-04-06T08:57:33.895Z</time>
      </trkpt>
      <trkpt lat="42.27252" lon="22.96697">
        <ele>618.643827</ele>
        <time>2022-04-06T08:57:39.902Z</time>
      </trkpt>
      <trkpt lat="42.27247" lon="22.96685">
        <ele>619.123109</ele>
        <time>2022-04-06T08:57:45.939Z</time>
      </trkpt>
      <trkpt lat="42.27241" lon="22.96674">
        <ele>619.570511</ele>
        <time>2022-04-06T08:57:50.906Z</time>
      </trkpt>
      <trkpt lat="42.27235" lon="22.96662">
        <ele>620.06217</ele>
        <time>2022-04-06T08:57:56.922Z</time>
      </trkpt>
      <trkpt lat="42.27228" lon="22.96652">
        <ele>620.559477</ele>
        <time>2022-04-06T08:58:02.897Z</time>
      </trkpt>
      <trkpt lat="42.27223" lon="22.96642">
        <ele>621.013546</ele>
        <time>2022-04-06T08:58:08.893Z</time>
      </trkpt>
      <trkpt lat="42.27216" lon="22.96631">
        <ele>621.524615</ele>
        <time>2022-04-06T08:58:14.916Z</time>
      </trkpt>
      <trkpt lat="42.2721" lon="22.96622">
        <ele>622.001079</ele>
        <time>2022-04-06T08:58:20.887Z</time>
      </trkpt>
      <trkpt lat="42.27203" lon="22.96613">
        <ele>622.453388</ele>
        <time>2022-04-06T08:58:25.914Z</time>
      </trkpt>
      <trkpt lat="42.27198" lon="22.96603">
        <ele>622.943042</ele>
        <time>2022-04-06T08:58:31.912Z</time>
      </trkpt>
      <trkpt lat="42.2719" lon="22.96595">
        <ele>623.411936</ele>
        <time>2022-04-06T08:58:37.912Z</time>
      </trkpt>
      <trkpt lat="42.27184" lon="22.96584">
        <ele>623.902101</ele>
        <time>2022-04-06T08:58:43.913Z</time>
      </trkpt>
      <trkpt lat="42.27177" lon="22.96577">
        <ele>624.359184</ele>
        <time>2022-04-06T08:58:49.889Z</time>
      </trkpt>
      <trkpt lat="42.27169" lon="22.96569">
        <ele>624.827387</ele>
        <time>2022-04-06T08:58:55.895Z</time>
      </trkpt>
      <trkpt lat="42.27162" lon="22.96562">
        <ele>625.287124</ele>
        <time>2022-04-06T08:59:01.911Z</time>
      </trkpt>
      <trkpt lat="42.27155" lon="22.96552">
        <ele>625.78788</ele>
        <time>2022-04-06T08:59:08.959Z</time>
      </trkpt>
      <trkpt lat="42.27148" lon="22.96544">
        <ele>626.261414</ele>
        <time>2022-04-06T08:59:15.894Z</time>
      </trkpt>
      <trkpt lat="42.2714" lon="22.96536">
        <ele>626.729096</ele>
        <time>2022-04-06T08:59:21.905Z</time>
      </trkpt>
      <trkpt lat="42.27135" lon="22.96526">
        <ele>627.189102</ele>
        <time>2022-04-06T08:59:26.901Z</time>
      </trkpt>
      <trkpt lat="42.27129" lon="22.96515">
        <ele>627.69362</ele>
        <time>2022-04-06T08:59:32.903Z</time>
      </trkpt>
      <trkpt lat="42.27122" lon="22.96506">
        <ele>628.188904</ele>
        <time>2022-04-06T08:59:38.906Z</time>
      </trkpt>
      <trkpt lat="42.27116" lon="22.96496">
        <ele>628.659309</ele>
        <time>2022-04-06T08:59:43.883Z</time>
      </trkpt>
      <trkpt lat="42.27108" lon="22.96486">
        <ele>629.191682</ele>
        <time>2022-04-06T08:59:49.908Z</time>
      </trkpt>
      <trkpt lat="42.27101" lon="22.96478">
        <ele>629.711436</ele>
        <time>2022-04-06T08:59:55.883Z</time>
      </trkpt>
      <trkpt lat="42.27093" lon="22.96472">
        <ele>630.246117</ele>
        <time>2022-04-06T09:00:00.916Z</time>
      </trkpt>
      <trkpt lat="42.27085" lon="22.96464">
        <ele>630.761942</ele>
        <time>2022-04-06T09:00:05.932Z</time>
      </trkpt>
      <trkpt lat="42.27077" lon="22.96456">
        <ele>631.325721</ele>
        <time>2022-04-06T09:00:11.936Z</time>
      </trkpt>
      <trkpt lat="42.27069" lon="22.96446">
        <ele>631.907951</ele>
        <time>2022-04-06T09:00:18.908Z</time>
      </trkpt>
      <trkpt lat="42.27063" lon="22.96436">
        <ele>632.434597</ele>
        <time>2022-04-06T09:00:26.898Z</time>
      </trkpt>
      <trkpt lat="42.27057" lon="22.96426">
        <ele>632.974275</ele>
        <time>2022-04-06T09:00:33.902Z</time>
      </trkpt>
      <trkpt lat="42.2705" lon="22.96416">
        <ele>633.561062</ele>
        <time>2022-04-06T09:00:40.914Z</time>
      </trkpt>
      <trkpt lat="42.27046" lon="22.96403">
        <ele>634.125345</ele>
        <time>2022-04-06T09:00:47.883Z</time>
      </trkpt>
      <trkpt lat="42.27041" lon="22.96392">
        <ele>634.640608</ele>
        <time>2022-04-06T09:00:53.892Z</time>
      </trkpt>
      <trkpt lat="42.27037" lon="22.96381">
        <ele>635.144387</ele>
        <time>2022-04-06T09:00:59.898Z</time>
      </trkpt>
      <trkpt lat="42.27033" lon="22.96369">
        <ele>635.704439</ele>
        <time>2022-04-06T09:01:05.903Z</time>
      </trkpt>
      <trkpt lat="42.27028" lon="22.96357">
        <ele>636.251519</ele>
        <time>2022-04-06T09:01:11.898Z</time>
      </trkpt>
      <trkpt lat="42.27024" lon="22.96346">
        <ele>636.762959</ele>
        <time>2022-04-06T09:01:17.908Z</time>
      </trkpt>
      <trkpt lat="42.2702" lon="22.96334">
        <ele>637.301384</ele>
        <time>2022-04-06T09:01:23.906Z</time>
      </trkpt>
      <trkpt lat="42.27018" lon="22.96321">
        <ele>637.840849</ele>
        <time>2022-04-06T09:01:30.886Z</time>
      </trkpt>
      <trkpt lat="42.27015" lon="22.96308">
        <ele>638.397214</ele>
        <time>2022-04-06T09:01:37.893Z</time>
      </trkpt>
      <trkpt lat="42.27013" lon="22.96297">
        <ele>638.900487</ele>
        <time>2022-04-06T09:01:43.910Z</time>
      </trkpt>
      <trkpt lat="42.27011" lon="22.96285">
        <ele>639.787986</ele>
        <time>2022-04-06T09:01:49.898Z</time>
      </trkpt>
      <trkpt lat="42.27009" lon="22.96273">
        <ele>640.839959</ele>
        <time>2022-04-06T09:01:55.898Z</time>
      </trkpt>
      <trkpt lat="42.27008" lon="22.9626">
        <ele>641.961594</ele>
        <time>2022-04-06T09:02:02.907Z</time>
      </trkpt>
      <trkpt lat="42.27006" lon="22.96247">
        <ele>643.139574</ele>
        <time>2022-04-06T09:02:09.902Z</time>
      </trkpt>
      <trkpt lat="42.27006" lon="22.96234">
        <ele>644.223203</ele>
        <time>2022-04-06T09:02:16.900Z</time>
      </trkpt>
      <trkpt lat="42.27004" lon="22.96221">
        <ele>645.327166</ele>
        <time>2022-04-06T09:02:24.909Z</time>
      </trkpt>
      <trkpt lat="42.27004" lon="22.96209">
        <ele>646.436776</ele>
        <time>2022-04-06T09:02:33.903Z</time>
      </trkpt>
      <trkpt lat="42.27007" lon="22.96197">
        <ele>647.509654</ele>
        <time>2022-04-06T09:02:42.919Z</time>
      </trkpt>
      <trkpt lat="42.2701" lon="22.96184">
        <ele>648.667741</ele>
        <time>2022-04-06T09:02:50.903Z</time>
      </trkpt>
      <trkpt lat="42.27013" lon="22.96171">
        <ele>649.848317</ele>
        <time>2022-04-06T09:02:58.898Z</time>
      </trkpt>
      <trkpt lat="42.27016" lon="22.96159">
        <ele>650.929385</ele>
        <time>2022-04-06T09:03:06.906Z</time>
      </trkpt>
      <trkpt lat="42.27021" lon="22.96148">
        <ele>652.085063</ele>
        <time>2022-04-06T09:03:14.919Z</time>
      </trkpt>
      <trkpt lat="42.27024" lon="22.96135">
        <ele>653.220103</ele>
        <time>2022-04-06T09:03:23.896Z</time>
      </trkpt>
      <trkpt lat="42.27028" lon="22.96124">
        <ele>654.300296</ele>
        <time>2022-04-06T09:03:30.911Z</time>
      </trkpt>
      <trkpt lat="42.27032" lon="22.96112">
        <ele>655.492907</ele>
        <time>2022-04-06T09:03:38.907Z</time>
      </trkpt>
      <trkpt lat="42.27035" lon="22.96099">
        <ele>656.604536</ele>
        <time>2022-04-06T09:03:46.900Z</time>
      </trkpt>
      <trkpt lat="42.27038" lon="22.96088">
        <ele>657.68644</ele>
        <time>2022-04-06T09:03:53.911Z</time>
      </trkpt>
      <trkpt lat="42.27038" lon="22.96074">
        <ele>658.84771</ele>
        <time>2022-04-06T09:03:59.917Z</time>
      </trkpt>
      <trkpt lat="42.27039" lon="22.9606">
        <ele>660.070293</ele>
        <time>2022-04-06T09:04:06.898Z</time>
      </trkpt>
      <trkpt lat="42.27037" lon="22.96047">
        <ele>660.407324</ele>
        <time>2022-04-06T09:04:12.899Z</time>
      </trkpt>
      <trkpt lat="42.27035" lon="22.96035">
        <ele>660.697125</ele>
        <time>2022-04-06T09:04:18.909Z</time>
      </trkpt>
      <trkpt lat="42.27031" lon="22.96023">
        <ele>661.01606</ele>
        <time>2022-04-06T09:04:25.890Z</time>
      </trkpt>
      <trkpt lat="42.27024" lon="22.96012">
        <ele>661.337118</ele>
        <time>2022-04-06T09:04:32.911Z</time>
      </trkpt>
      <trkpt lat="42.27019" lon="22.96002">
        <ele>661.629178</ele>
        <time>2022-04-06T09:04:39.922Z</time>
      </trkpt>
      <trkpt lat="42.27013" lon="22.95991">
        <ele>661.934327</ele>
        <time>2022-04-06T09:04:46.900Z</time>
      </trkpt>
      <trkpt lat="42.2701" lon="22.95977">
        <ele>662.264461</ele>
        <time>2022-04-06T09:04:53.937Z</time>
      </trkpt>
      <trkpt lat="42.27007" lon="22.95964">
        <ele>662.575615</ele>
        <time>2022-04-06T09:04:59.900Z</time>
      </trkpt>
      <trkpt lat="42.27004" lon="22.9595">
        <ele>662.902029</ele>
        <time>2022-04-06T09:05:05.936Z</time>
      </trkpt>
      <trkpt lat="42.26998" lon="22.95939">
        <ele>663.22489</ele>
        <time>2022-04-06T09:05:11.903Z</time>
      </trkpt>
      <trkpt lat="42.26991" lon="22.95928">
        <ele>663.556236</ele>
        <time>2022-04-06T09:05:17.880Z</time>
      </trkpt>
      <trkpt lat="42.26985" lon="22.95919">
        <ele>663.854142</ele>
        <time>2022-04-06T09:05:23.895Z</time>
      </trkpt>
      <trkpt lat="42.26978" lon="22.9591">
        <ele>664.1411</ele>
        <time>2022-04-06T09:05:28.897Z</time>
      </trkpt>
      <trkpt lat="42.2697" lon="22.95901">
        <ele>664.475056</ele>
        <time>2022-04-06T09:05:34.887Z</time>
      </trkpt>
      <trkpt lat="42.26961" lon="22.95895">
        <ele>664.76699</ele>
        <time>2022-04-06T09:05:40.914Z</time>
      </trkpt>
      <trkpt lat="42.26952" lon="22.9589">
        <ele>665.08548</ele>
        <time>2022-04-06T09:05:46.905Z</time>
      </trkpt>
      <trkpt lat="42.26943" lon="22.95887">
        <ele>665.387336</ele>
        <time>2022-04-06T09:05:52.920Z</time>
      </trkpt>
      <trkpt lat="42.26933" lon="22.95886">
        <ele>665.679447</ele>
        <time>2022-04-06T09:05:58.915Z</time>
      </trkpt>
      <trkpt lat="42.26924" lon="22.95888">
        <ele>666.245011</ele>
        <time>2022-04-06T09:06:06.907Z</time>
      </trkpt>
      <trkpt lat="42.26914" lon="22.95888">
        <ele>666.870982</ele>
        <time>2022-04-06T09:06:12.911Z</time>
      </trkpt>
      <trkpt lat="42.26904" lon="22.95888">
        <ele>667.509724</ele>
        <time>2022-04-06T09:06:18.910Z</time>
      </trkpt>
      <trkpt lat="42.26894" lon="22.95886">
        <ele>668.157581</ele>
        <time>2022-04-06T09:06:24.900Z</time>
      </trkpt>
      <trkpt lat="42.26885" lon="22.95883">
        <ele>668.751621</ele>
        <time>2022-04-06T09:06:30.902Z</time>
      </trkpt>
      <trkpt lat="42.26875" lon="22.95881">
        <ele>669.388413</ele>
        <time>2022-04-06T09:06:36.910Z</time>
      </trkpt>
      <trkpt lat="42.26866" lon="22.95878">
        <ele>669.982781</ele>
        <time>2022-04-06T09:06:42.948Z</time>
      </trkpt>
      <trkpt lat="42.26856" lon="22.95875">
        <ele>670.646427</ele>
        <time>2022-04-06T09:06:49.899Z</time>
      </trkpt>
      <trkpt lat="42.26847" lon="22.9587">
        <ele>671.28517</ele>
        <time>2022-04-06T09:06:57.882Z</time>
      </trkpt>
      <trkpt lat="42.26838" lon="22.95864">
        <ele>671.873315</ele>
        <time>2022-04-06T09:07:04.946Z</time>
      </trkpt>
      <trkpt lat="42.2683" lon="22.95858">
        <ele>672.46468</ele>
        <time>2022-04-06T09:07:11.890Z</time>
      </trkpt>
      <trkpt lat="42.26823" lon="22.9585">
        <ele>673.090811</ele>
        <time>2022-04-06T09:07:17.892Z</time>
      </trkpt>
      <trkpt lat="42.26817" lon="22.9584">
        <ele>673.684241</ele>
        <time>2022-04-06T09:07:24.902Z</time>
      </trkpt>
      <trkpt lat="42.26809" lon="22.95832">
        <ele>674.322686</ele>
        <time>2022-04-06T09:07:32.927Z</time>
      </trkpt>
      <trkpt lat="42.26801" lon="22.95825">
        <ele>674.941895</ele>
        <time>2022-04-06T09:07:40.907Z</time>
      </trkpt>
      <trkpt lat="42.26794" lon="22.95817">
        <ele>675.521353</ele>
        <time>2022-04-06T09:07:48.895Z</time>
      </trkpt>
      <trkpt lat="42.26787" lon="22.95808">
        <ele>676.126948</ele>
        <time>2022-04-06T09:07:57.912Z</time>
      </trkpt>
      <trkpt lat="42.26781" lon="22.95797">
        <ele>676.753935</ele>
        <time>2022-04-06T09:08:05.903Z</time>
      </trkpt>
      <trkpt lat="42.26775" lon="22.95789">
        <ele>677.354857</ele>
        <time>2022-04-06T09:08:12.933Z</time>
      </trkpt>
      <trkpt lat="42.2677" lon="22.95778">
        <ele>678.098377</ele>
        <time>2022-04-06T09:08:21.905Z</time>
      </trkpt>
      <trkpt lat="42.26763" lon="22.95768">
        <ele>678.837653</ele>
        <time>2022-04-06T09:08:30.907Z</time>
      </trkpt>
      <trkpt lat="42.2676" lon="22.95749">
        <ele>679.947648</ele>
        <time>2022-04-06T09:10:52.917Z</time>
      </trkpt>
      <trkpt lat="42.26753" lon="22.95739">
        <ele>680.694054</ele>
        <time>2022-04-06T09:11:00.887Z</time>
      </trkpt>
      <trkpt lat="42.26749" lon="22.95728">
        <ele>681.425927</ele>
        <time>2022-04-06T09:11:07.902Z</time>
      </trkpt>
      <trkpt lat="42.26744" lon="22.95716">
        <ele>682.189995</ele>
        <time>2022-04-06T09:11:14.917Z</time>
      </trkpt>
      <trkpt lat="42.26739" lon="22.95706">
        <ele>682.895975</ele>
        <time>2022-04-06T09:11:21.912Z</time>
      </trkpt>
      <trkpt lat="42.26734" lon="22.95694">
        <ele>683.653795</ele>
        <time>2022-04-06T09:11:29.900Z</time>
      </trkpt>
      <trkpt lat="42.26728" lon="22.95683">
        <ele>684.440533</ele>
        <time>2022-04-06T09:11:38.020Z</time>
      </trkpt>
      <trkpt lat="42.26723" lon="22.95672">
        <ele>685.178847</ele>
        <time>2022-04-06T09:11:44.949Z</time>
      </trkpt>
      <trkpt lat="42.26717" lon="22.95661">
        <ele>685.9074</ele>
        <time>2022-04-06T09:11:52.898Z</time>
      </trkpt>
      <trkpt lat="42.26713" lon="22.95651">
        <ele>686.617108</ele>
        <time>2022-04-06T09:12:00.882Z</time>
      </trkpt>
      <trkpt lat="42.26708" lon="22.9564">
        <ele>687.340461</ele>
        <time>2022-04-06T09:12:07.873Z</time>
      </trkpt>
      <trkpt lat="42.26704" lon="22.95627">
        <ele>688.094978</ele>
        <time>2022-04-06T09:12:15.876Z</time>
      </trkpt>
      <trkpt lat="42.26702" lon="22.95614">
        <ele>688.875935</ele>
        <time>2022-04-06T09:12:22.893Z</time>
      </trkpt>
      <trkpt lat="42.26699" lon="22.95601">
        <ele>689.612925</ele>
        <time>2022-04-06T09:12:28.890Z</time>
      </trkpt>
      <trkpt lat="42.26698" lon="22.95589">
        <ele>690.306656</ele>
        <time>2022-04-06T09:12:35.883Z</time>
      </trkpt>
      <trkpt lat="42.26699" lon="22.95576">
        <ele>691.012086</ele>
        <time>2022-04-06T09:12:43.876Z</time>
      </trkpt>
      <trkpt lat="42.26704" lon="22.95565">
        <ele>691.475834</ele>
        <time>2022-04-06T09:12:51.874Z</time>
      </trkpt>
      <trkpt lat="42.26708" lon="22.95553">
        <ele>691.946009</ele>
        <time>2022-04-06T09:12:58.885Z</time>
      </trkpt>
      <trkpt lat="42.26714" lon="22.95543">
        <ele>692.399318</ele>
        <time>2022-04-06T09:13:06.871Z</time>
      </trkpt>
      <trkpt lat="42.26719" lon="22.95532">
        <ele>692.85583</ele>
        <time>2022-04-06T09:13:14.874Z</time>
      </trkpt>
      <trkpt lat="42.26725" lon="22.95523">
        <ele>693.298393</ele>
        <time>2022-04-06T09:13:24.878Z</time>
      </trkpt>
      <trkpt lat="42.26731" lon="22.95514">
        <ele>693.741577</ele>
        <time>2022-04-06T09:13:33.868Z</time>
      </trkpt>
      <trkpt lat="42.26739" lon="22.95506">
        <ele>694.180295</ele>
        <time>2022-04-06T09:13:41.877Z</time>
      </trkpt>
      <trkpt lat="42.26746" lon="22.95498">
        <ele>694.652014</ele>
        <time>2022-04-06T09:13:49.883Z</time>
      </trkpt>
      <trkpt lat="42.26754" lon="22.9549">
        <ele>695.107642</ele>
        <time>2022-04-06T09:13:57.877Z</time>
      </trkpt>
      <trkpt lat="42.26761" lon="22.95481">
        <ele>695.596984</ele>
        <time>2022-04-06T09:14:05.874Z</time>
      </trkpt>
      <trkpt lat="42.26767" lon="22.95471">
        <ele>696.053662</ele>
        <time>2022-04-06T09:14:13.872Z</time>
      </trkpt>
      <trkpt lat="42.26774" lon="22.95462">
        <ele>696.501366</ele>
        <time>2022-04-06T09:14:21.878Z</time>
      </trkpt>
      <trkpt lat="42.2678" lon="22.95452">
        <ele>696.951666</ele>
        <time>2022-04-06T09:14:29.890Z</time>
      </trkpt>
      <trkpt lat="42.26784" lon="22.9544">
        <ele>697.433567</ele>
        <time>2022-04-06T09:14:37.912Z</time>
      </trkpt>
      <trkpt lat="42.26788" lon="22.95428">
        <ele>697.916989</ele>
        <time>2022-04-06T09:14:45.883Z</time>
      </trkpt>
      <trkpt lat="42.2679" lon="22.95415">
        <ele>698.390343</ele>
        <time>2022-04-06T09:14:55.879Z</time>
      </trkpt>
      <trkpt lat="42.26794" lon="22.95403">
        <ele>698.855245</ele>
        <time>2022-04-06T09:15:02.873Z</time>
      </trkpt>
      <trkpt lat="42.26794" lon="22.95389">
        <ele>699.347754</ele>
        <time>2022-04-06T09:15:10.873Z</time>
      </trkpt>
      <trkpt lat="42.26796" lon="22.95375">
        <ele>699.755706</ele>
        <time>2022-04-06T09:15:18.892Z</time>
      </trkpt>
      <trkpt lat="42.26797" lon="22.95361">
        <ele>700.039504</ele>
        <time>2022-04-06T09:15:25.884Z</time>
      </trkpt>
      <trkpt lat="42.26795" lon="22.95348">
        <ele>700.312841</ele>
        <time>2022-04-06T09:15:32.877Z</time>
      </trkpt>
      <trkpt lat="42.26797" lon="22.95334">
        <ele>700.589806</ele>
        <time>2022-04-06T09:15:40.869Z</time>
      </trkpt>
      <trkpt lat="42.26798" lon="22.95322">
        <ele>700.849855</ele>
        <time>2022-04-06T09:15:48.916Z</time>
      </trkpt>
      <trkpt lat="42.26798" lon="22.95308">
        <ele>701.124931</ele>
        <time>2022-04-06T09:15:55.876Z</time>
      </trkpt>
      <trkpt lat="42.26799" lon="22.95296">
        <ele>701.379052</ele>
        <time>2022-04-06T09:16:02.876Z</time>
      </trkpt>
      <trkpt lat="42.26802" lon="22.95284">
        <ele>701.635463</ele>
        <time>2022-04-06T09:16:09.884Z</time>
      </trkpt>
      <trkpt lat="42.26803" lon="22.9527">
        <ele>701.913892</ele>
        <time>2022-04-06T09:16:16.876Z</time>
      </trkpt>
      <trkpt lat="42.26804" lon="22.95257">
        <ele>702.175155</ele>
        <time>2022-04-06T09:16:24.906Z</time>
      </trkpt>
      <trkpt lat="42.26806" lon="22.95244">
        <ele>702.449116</ele>
        <time>2022-04-06T09:16:32.876Z</time>
      </trkpt>
      <trkpt lat="42.26806" lon="22.9523">
        <ele>702.722648</ele>
        <time>2022-04-06T09:16:39.880Z</time>
      </trkpt>
      <trkpt lat="42.26807" lon="22.95218">
        <ele>702.976656</ele>
        <time>2022-04-06T09:16:46.926Z</time>
      </trkpt>
      <trkpt lat="42.26807" lon="22.95205">
        <ele>703.229485</ele>
        <time>2022-04-06T09:16:53.883Z</time>
      </trkpt>
      <trkpt lat="42.26808" lon="22.95192">
        <ele>703.493107</ele>
        <time>2022-04-06T09:17:01.880Z</time>
      </trkpt>
      <trkpt lat="42.26809" lon="22.9518">
        <ele>703.742836</ele>
        <time>2022-04-06T09:17:07.877Z</time>
      </trkpt>
      <trkpt lat="42.2681" lon="22.95167">
        <ele>703.99944</ele>
        <time>2022-04-06T09:17:13.874Z</time>
      </trkpt>
      <trkpt lat="42.26809" lon="22.95154">
        <ele>704.270109</ele>
        <time>2022-04-06T09:17:20.908Z</time>
      </trkpt>
      <trkpt lat="42.26808" lon="22.9514">
        <ele>704.557164</ele>
        <time>2022-04-06T09:17:27.877Z</time>
      </trkpt>
      <trkpt lat="42.26807" lon="22.95127">
        <ele>704.799567</ele>
        <time>2022-04-06T09:17:32.869Z</time>
      </trkpt>
      <trkpt lat="42.26805" lon="22.95115">
        <ele>705.037609</ele>
        <time>2022-04-06T09:17:37.909Z</time>
      </trkpt>
      <trkpt lat="42.26803" lon="22.95103">
        <ele>705.272959</ele>
        <time>2022-04-06T09:17:42.879Z</time>
      </trkpt>
      <trkpt lat="42.26799" lon="22.9509">
        <ele>705.549853</ele>
        <time>2022-04-06T09:17:47.892Z</time>
      </trkpt>
      <trkpt lat="42.26794" lon="22.95079">
        <ele>705.800084</ele>
        <time>2022-04-06T09:17:51.878Z</time>
      </trkpt>
      <trkpt lat="42.26789" lon="22.95067">
        <ele>706.070098</ele>
        <time>2022-04-06T09:17:55.878Z</time>
      </trkpt>
      <trkpt lat="42.26783" lon="22.95054">
        <ele>706.361445</ele>
        <time>2022-04-06T09:17:59.874Z</time>
      </trkpt>
      <trkpt lat="42.26781" lon="22.95042">
        <ele>706.600032</ele>
        <time>2022-04-06T09:18:02.877Z</time>
      </trkpt>
      <trkpt lat="42.26776" lon="22.95029">
        <ele>706.867648</ele>
        <time>2022-04-06T09:18:05.874Z</time>
      </trkpt>
      <trkpt lat="42.26771" lon="22.95016">
        <ele>707.145104</ele>
        <time>2022-04-06T09:18:08.876Z</time>
      </trkpt>
      <trkpt lat="42.26767" lon="22.94999">
        <ele>707.500547</ele>
        <time>2022-04-06T09:18:11.875Z</time>
      </trkpt>
      <trkpt lat="42.26763" lon="22.94986">
        <ele>707.775501</ele>
        <time>2022-04-06T09:18:13.878Z</time>
      </trkpt>
      <trkpt lat="42.2676" lon="22.94972">
        <ele>708.059691</ele>
        <time>2022-04-06T09:18:15.880Z</time>
      </trkpt>
      <trkpt lat="42.26756" lon="22.94958">
        <ele>708.337407</ele>
        <time>2022-04-06T09:18:17.872Z</time>
      </trkpt>
      <trkpt lat="42.26753" lon="22.94944">
        <ele>708.622955</ele>
        <time>2022-04-06T09:18:19.896Z</time>
      </trkpt>
      <trkpt lat="42.2675" lon="22.9493">
        <ele>708.911487</ele>
        <time>2022-04-06T09:18:21.887Z</time>
      </trkpt>
      <trkpt lat="42.26747" lon="22.94915">
        <ele>709.198652</ele>
        <time>2022-04-06T09:18:23.891Z</time>
      </trkpt>
      <trkpt lat="42.26745" lon="22.94901">
        <ele>709.083571</ele>
        <time>2022-04-06T09:18:25.880Z</time>
      </trkpt>
      <trkpt lat="42.26742" lon="22.94889">
        <ele>708.886466</ele>
        <time>2022-04-06T09:18:27.876Z</time>
      </trkpt>
      <trkpt lat="42.26739" lon="22.94876">
        <ele>708.681871</ele>
        <time>2022-04-06T09:18:29.880Z</time>
      </trkpt>
      <trkpt lat="42.26737" lon="22.94862">
        <ele>708.46291</ele>
        <time>2022-04-06T09:18:31.898Z</time>
      </trkpt>
      <trkpt lat="42.26734" lon="22.94846">
        <ele>708.223612</ele>
        <time>2022-04-06T09:18:33.881Z</time>
      </trkpt>
      <trkpt lat="42.26733" lon="22.9483">
        <ele>707.972286</ele>
        <time>2022-04-06T09:18:35.873Z</time>
      </trkpt>
      <trkpt lat="42.26734" lon="22.94812">
        <ele>707.711476</ele>
        <time>2022-04-06T09:18:37.876Z</time>
      </trkpt>
      <trkpt lat="42.26735" lon="22.94794">
        <ele>707.441525</ele>
        <time>2022-04-06T09:18:39.907Z</time>
      </trkpt>
      <trkpt lat="42.26739" lon="22.94776">
        <ele>707.155667</ele>
        <time>2022-04-06T09:18:41.887Z</time>
      </trkpt>
      <trkpt lat="42.26744" lon="22.94758">
        <ele>706.863754</ele>
        <time>2022-04-06T09:18:43.876Z</time>
      </trkpt>
      <trkpt lat="42.2675" lon="22.94742">
        <ele>706.583043</ele>
        <time>2022-04-06T09:18:45.907Z</time>
      </trkpt>
      <trkpt lat="42.26758" lon="22.94726">
        <ele>706.304324</ele>
        <time>2022-04-06T09:18:47.883Z</time>
      </trkpt>
      <trkpt lat="42.26767" lon="22.94713">
        <ele>706.033008</ele>
        <time>2022-04-06T09:18:49.876Z</time>
      </trkpt>
      <trkpt lat="42.26776" lon="22.94701">
        <ele>705.775938</ele>
        <time>2022-04-06T09:18:51.874Z</time>
      </trkpt>
      <trkpt lat="42.26785" lon="22.9469">
        <ele>705.406314</ele>
        <time>2022-04-06T09:18:53.884Z</time>
      </trkpt>
      <trkpt lat="42.26796" lon="22.94681">
        <ele>704.667922</ele>
        <time>2022-04-06T09:18:55.873Z</time>
      </trkpt>
      <trkpt lat="42.26805" lon="22.94672">
        <ele>704.000012</ele>
        <time>2022-04-06T09:18:57.890Z</time>
      </trkpt>
      <trkpt lat="42.26814" lon="22.94663">
        <ele>703.344176</ele>
        <time>2022-04-06T09:18:59.875Z</time>
      </trkpt>
      <trkpt lat="42.26822" lon="22.94653">
        <ele>702.686986</ele>
        <time>2022-04-06T09:19:01.881Z</time>
      </trkpt>
      <trkpt lat="42.26831" lon="22.94643">
        <ele>701.989938</ele>
        <time>2022-04-06T09:19:03.882Z</time>
      </trkpt>
      <trkpt lat="42.2684" lon="22.94632">
        <ele>701.282271</ele>
        <time>2022-04-06T09:19:05.878Z</time>
      </trkpt>
      <trkpt lat="42.26849" lon="22.9462">
        <ele>700.555511</ele>
        <time>2022-04-06T09:19:07.888Z</time>
      </trkpt>
      <trkpt lat="42.26857" lon="22.94606">
        <ele>699.78337</ele>
        <time>2022-04-06T09:19:09.875Z</time>
      </trkpt>
      <trkpt lat="42.26864" lon="22.94591">
        <ele>699.023354</ele>
        <time>2022-04-06T09:19:11.874Z</time>
      </trkpt>
      <trkpt lat="42.26869" lon="22.94575">
        <ele>698.244382</ele>
        <time>2022-04-06T09:19:13.883Z</time>
      </trkpt>
      <trkpt lat="42.26873" lon="22.94557">
        <ele>697.435554</ele>
        <time>2022-04-06T09:19:15.878Z</time>
      </trkpt>
      <trkpt lat="42.26875" lon="22.9454">
        <ele>696.677661</ele>
        <time>2022-04-06T09:19:17.880Z</time>
      </trkpt>
      <trkpt lat="42.26877" lon="22.94522">
        <ele>695.903644</ele>
        <time>2022-04-06T09:19:19.879Z</time>
      </trkpt>
      <trkpt lat="42.26879" lon="22.94503">
        <ele>695.033818</ele>
        <time>2022-04-06T09:19:21.895Z</time>
      </trkpt>
      <trkpt lat="42.26883" lon="22.9448">
        <ele>694.000349</ele>
        <time>2022-04-06T09:19:23.877Z</time>
      </trkpt>
      <trkpt lat="42.26887" lon="22.94459">
        <ele>693.033584</ele>
        <time>2022-04-06T09:19:25.874Z</time>
      </trkpt>
      <trkpt lat="42.26893" lon="22.94439">
        <ele>692.086091</ele>
        <time>2022-04-06T09:19:27.882Z</time>
      </trkpt>
      <trkpt lat="42.26901" lon="22.94422">
        <ele>691.167642</ele>
        <time>2022-04-06T09:19:29.885Z</time>
      </trkpt>
      <trkpt lat="42.26911" lon="22.94404">
        <ele>690.189214</ele>
        <time>2022-04-06T09:19:31.912Z</time>
      </trkpt>
      <trkpt lat="42.26922" lon="22.94388">
        <ele>689.190172</ele>
        <time>2022-04-06T09:19:33.876Z</time>
      </trkpt>
      <trkpt lat="42.26935" lon="22.94373">
        <ele>688.193433</ele>
        <time>2022-04-06T09:19:35.875Z</time>
      </trkpt>
      <trkpt lat="42.26949" lon="22.9436">
        <ele>687.132557</ele>
        <time>2022-04-06T09:19:37.902Z</time>
      </trkpt>
      <trkpt lat="42.26965" lon="22.9435">
        <ele>686.065017</ele>
        <time>2022-04-06T09:19:39.872Z</time>
      </trkpt>
      <trkpt lat="42.26974" lon="22.94346">
        <ele>685.505649</ele>
        <time>2022-04-06T09:19:40.880Z</time>
      </trkpt>
      <trkpt lat="42.26983" lon="22.94342">
        <ele>684.934846</ele>
        <time>2022-04-06T09:19:41.886Z</time>
      </trkpt>
      <trkpt lat="42.26993" lon="22.94338">
        <ele>684.341104</ele>
        <time>2022-04-06T09:19:42.886Z</time>
      </trkpt>
      <trkpt lat="42.27002" lon="22.94334">
        <ele>683.711236</ele>
        <time>2022-04-06T09:19:43.875Z</time>
      </trkpt>
      <trkpt lat="42.27012" lon="22.9433">
        <ele>683.055585</ele>
        <time>2022-04-06T09:19:44.882Z</time>
      </trkpt>
      <trkpt lat="42.27022" lon="22.94325">
        <ele>682.39086</ele>
        <time>2022-04-06T09:19:45.876Z</time>
      </trkpt>
      <trkpt lat="42.27031" lon="22.9432">
        <ele>681.727554</ele>
        <time>2022-04-06T09:19:46.876Z</time>
      </trkpt>
      <trkpt lat="42.27041" lon="22.94316">
        <ele>681.067403</ele>
        <time>2022-04-06T09:19:47.894Z</time>
      </trkpt>
      <trkpt lat="42.2705" lon="22.94312">
        <ele>680.420975</ele>
        <time>2022-04-06T09:19:48.896Z</time>
      </trkpt>
      <trkpt lat="42.2706" lon="22.94307">
        <ele>679.791179</ele>
        <time>2022-04-06T09:19:49.873Z</time>
      </trkpt>
      <trkpt lat="42.27069" lon="22.94303">
        <ele>679.149263</ele>
        <time>2022-04-06T09:19:50.885Z</time>
      </trkpt>
      <trkpt lat="42.27079" lon="22.94298">
        <ele>678.496742</ele>
        <time>2022-04-06T09:19:51.879Z</time>
      </trkpt>
      <trkpt lat="42.27088" lon="22.94294">
        <ele>677.85009</ele>
        <time>2022-04-06T09:19:52.881Z</time>
      </trkpt>
      <trkpt lat="42.27098" lon="22.94291">
        <ele>677.190165</ele>
        <time>2022-04-06T09:19:53.880Z</time>
      </trkpt>
      <trkpt lat="42.27108" lon="22.94287">
        <ele>676.536024</ele>
        <time>2022-04-06T09:19:54.903Z</time>
      </trkpt>
      <trkpt lat="42.27118" lon="22.94285">
        <ele>675.874201</ele>
        <time>2022-04-06T09:19:55.873Z</time>
      </trkpt>
      <trkpt lat="42.27129" lon="22.94283">
        <ele>675.19096</ele>
        <time>2022-04-06T09:19:56.887Z</time>
      </trkpt>
      <trkpt lat="42.27139" lon="22.94281">
        <ele>674.491605</ele>
        <time>2022-04-06T09:19:57.879Z</time>
      </trkpt>
      <trkpt lat="42.2715" lon="22.9428">
        <ele>673.787653</ele>
        <time>2022-04-06T09:19:58.878Z</time>
      </trkpt>
      <trkpt lat="42.27161" lon="22.94279">
        <ele>673.098092</ele>
        <time>2022-04-06T09:19:59.874Z</time>
      </trkpt>
      <trkpt lat="42.27172" lon="22.94279">
        <ele>672.400237</ele>
        <time>2022-04-06T09:20:00.904Z</time>
      </trkpt>
      <trkpt lat="42.27182" lon="22.94279">
        <ele>671.690266</ele>
        <time>2022-04-06T09:20:01.887Z</time>
      </trkpt>
      <trkpt lat="42.27192" lon="22.94278">
        <ele>670.980391</ele>
        <time>2022-04-06T09:20:02.876Z</time>
      </trkpt>
      <trkpt lat="42.27202" lon="22.94278">
        <ele>670.277673</ele>
        <time>2022-04-06T09:20:03.874Z</time>
      </trkpt>
      <trkpt lat="42.27211" lon="22.94278">
        <ele>669.574955</ele>
        <time>2022-04-06T09:20:04.882Z</time>
      </trkpt>
      <trkpt lat="42.27221" lon="22.94279">
        <ele>668.87155</ele>
        <time>2022-04-06T09:20:05.875Z</time>
      </trkpt>
      <trkpt lat="42.27231" lon="22.9428">
        <ele>668.161268</ele>
        <time>2022-04-06T09:20:06.900Z</time>
      </trkpt>
      <trkpt lat="42.27242" lon="22.9428">
        <ele>667.429706</ele>
        <time>2022-04-06T09:20:07.877Z</time>
      </trkpt>
      <trkpt lat="42.27252" lon="22.9428">
        <ele>666.712638</ele>
        <time>2022-04-06T09:20:08.880Z</time>
      </trkpt>
      <trkpt lat="42.27262" lon="22.94281">
        <ele>666.009763</ele>
        <time>2022-04-06T09:20:09.880Z</time>
      </trkpt>
      <trkpt lat="42.27271" lon="22.94281">
        <ele>665.363506</ele>
        <time>2022-04-06T09:20:10.878Z</time>
      </trkpt>
      <trkpt lat="42.2728" lon="22.94282">
        <ele>664.709965</ele>
        <time>2022-04-06T09:20:11.882Z</time>
      </trkpt>
      <trkpt lat="42.2729" lon="22.94281">
        <ele>664.02854</ele>
        <time>2022-04-06T09:20:12.895Z</time>
      </trkpt>
      <trkpt lat="42.27299" lon="22.94282">
        <ele>663.33292</ele>
        <time>2022-04-06T09:20:13.877Z</time>
      </trkpt>
      <trkpt lat="42.27309" lon="22.94282">
        <ele>662.672809</ele>
        <time>2022-04-06T09:20:14.873Z</time>
      </trkpt>
      <trkpt lat="42.27318" lon="22.94281">
        <ele>662.033906</ele>
        <time>2022-04-06T09:20:15.886Z</time>
      </trkpt>
      <trkpt lat="42.27327" lon="22.94281">
        <ele>661.38797</ele>
        <time>2022-04-06T09:20:16.871Z</time>
      </trkpt>
      <trkpt lat="42.27344" lon="22.94281">
        <ele>660.174206</ele>
        <time>2022-04-06T09:20:18.910Z</time>
      </trkpt>
      <trkpt lat="42.27361" lon="22.94281">
        <ele>658.583813</ele>
        <time>2022-04-06T09:20:20.883Z</time>
      </trkpt>
      <trkpt lat="42.2737" lon="22.9428">
        <ele>657.656046</ele>
        <time>2022-04-06T09:20:21.885Z</time>
      </trkpt>
      <trkpt lat="42.27381" lon="22.9428">
        <ele>656.564648</ele>
        <time>2022-04-06T09:20:22.877Z</time>
      </trkpt>
      <trkpt lat="42.27392" lon="22.94279">
        <ele>655.431518</ele>
        <time>2022-04-06T09:20:23.879Z</time>
      </trkpt>
      <trkpt lat="42.27403" lon="22.94278">
        <ele>654.34718</ele>
        <time>2022-04-06T09:20:24.909Z</time>
      </trkpt>
      <trkpt lat="42.27413" lon="22.94276">
        <ele>653.287474</ele>
        <time>2022-04-06T09:20:25.879Z</time>
      </trkpt>
      <trkpt lat="42.27423" lon="22.94273">
        <ele>652.246436</ele>
        <time>2022-04-06T09:20:26.874Z</time>
      </trkpt>
      <trkpt lat="42.27433" lon="22.9427">
        <ele>651.221022</ele>
        <time>2022-04-06T09:20:27.891Z</time>
      </trkpt>
      <trkpt lat="42.27442" lon="22.94265">
        <ele>650.168335</ele>
        <time>2022-04-06T09:20:28.873Z</time>
      </trkpt>
      <trkpt lat="42.27452" lon="22.9426">
        <ele>649.135776</ele>
        <time>2022-04-06T09:20:29.875Z</time>
      </trkpt>
      <trkpt lat="42.27461" lon="22.94254">
        <ele>648.091152</ele>
        <time>2022-04-06T09:20:30.903Z</time>
      </trkpt>
      <trkpt lat="42.2747" lon="22.94247">
        <ele>647.052639</ele>
        <time>2022-04-06T09:20:31.875Z</time>
      </trkpt>
      <trkpt lat="42.27478" lon="22.9424">
        <ele>646.039022</ele>
        <time>2022-04-06T09:20:32.874Z</time>
      </trkpt>
      <trkpt lat="42.27486" lon="22.94232">
        <ele>645.039691</ele>
        <time>2022-04-06T09:20:33.875Z</time>
      </trkpt>
      <trkpt lat="42.27493" lon="22.94223">
        <ele>644.072573</ele>
        <time>2022-04-06T09:20:34.872Z</time>
      </trkpt>
      <trkpt lat="42.27499" lon="22.94214">
        <ele>643.120179</ele>
        <time>2022-04-06T09:20:35.883Z</time>
      </trkpt>
      <trkpt lat="42.27506" lon="22.94205">
        <ele>642.20365</ele>
        <time>2022-04-06T09:20:36.868Z</time>
      </trkpt>
      <trkpt lat="42.27517" lon="22.94186">
        <ele>640.706648</ele>
        <time>2022-04-06T09:20:38.875Z</time>
      </trkpt>
      <trkpt lat="42.27522" lon="22.94176">
        <ele>640.055392</ele>
        <time>2022-04-06T09:20:39.874Z</time>
      </trkpt>
      <trkpt lat="42.27527" lon="22.94166">
        <ele>639.39825</ele>
        <time>2022-04-06T09:20:40.874Z</time>
      </trkpt>
      <trkpt lat="42.27531" lon="22.94154">
        <ele>638.731532</ele>
        <time>2022-04-06T09:20:41.880Z</time>
      </trkpt>
      <trkpt lat="42.27535" lon="22.94142">
        <ele>638.018796</ele>
        <time>2022-04-06T09:20:42.868Z</time>
      </trkpt>
      <trkpt lat="42.27538" lon="22.94128">
        <ele>637.278478</ele>
        <time>2022-04-06T09:20:43.891Z</time>
      </trkpt>
      <trkpt lat="42.27541" lon="22.94114">
        <ele>636.510907</ele>
        <time>2022-04-06T09:20:44.872Z</time>
      </trkpt>
      <trkpt lat="42.27544" lon="22.941">
        <ele>635.72477</ele>
        <time>2022-04-06T09:20:45.877Z</time>
      </trkpt>
      <trkpt lat="42.27546" lon="22.94085">
        <ele>634.913113</ele>
        <time>2022-04-06T09:20:46.876Z</time>
      </trkpt>
      <trkpt lat="42.27549" lon="22.9407">
        <ele>634.086</ele>
        <time>2022-04-06T09:20:47.885Z</time>
      </trkpt>
      <trkpt lat="42.27552" lon="22.94054">
        <ele>633.236735</ele>
        <time>2022-04-06T09:20:48.868Z</time>
      </trkpt>
      <trkpt lat="42.27556" lon="22.94038">
        <ele>632.351874</ele>
        <time>2022-04-06T09:20:49.886Z</time>
      </trkpt>
      <trkpt lat="42.27559" lon="22.94021">
        <ele>631.454463</ele>
        <time>2022-04-06T09:20:50.873Z</time>
      </trkpt>
      <trkpt lat="42.27563" lon="22.94005">
        <ele>630.572196</ele>
        <time>2022-04-06T09:20:51.886Z</time>
      </trkpt>
      <trkpt lat="42.27566" lon="22.93989">
        <ele>629.67862</ele>
        <time>2022-04-06T09:20:52.878Z</time>
      </trkpt>
      <trkpt lat="42.27569" lon="22.93972">
        <ele>628.781797</ele>
        <time>2022-04-06T09:20:53.871Z</time>
      </trkpt>
      <trkpt lat="42.27572" lon="22.93956">
        <ele>628.006103</ele>
        <time>2022-04-06T09:20:54.910Z</time>
      </trkpt>
      <trkpt lat="42.27575" lon="22.93939">
        <ele>627.242028</ele>
        <time>2022-04-06T09:20:55.879Z</time>
      </trkpt>
      <trkpt lat="42.27578" lon="22.93923">
        <ele>626.506362</ele>
        <time>2022-04-06T09:20:56.872Z</time>
      </trkpt>
      <trkpt lat="42.27581" lon="22.93907">
        <ele>625.803616</ele>
        <time>2022-04-06T09:20:57.880Z</time>
      </trkpt>
      <trkpt lat="42.27584" lon="22.93893">
        <ele>625.159074</ele>
        <time>2022-04-06T09:20:58.880Z</time>
      </trkpt>
      <trkpt lat="42.27586" lon="22.9388">
        <ele>624.556985</ele>
        <time>2022-04-06T09:20:59.876Z</time>
      </trkpt>
      <trkpt lat="42.27587" lon="22.93867">
        <ele>623.992719</ele>
        <time>2022-04-06T09:21:00.905Z</time>
      </trkpt>
      <trkpt lat="42.27587" lon="22.93855">
        <ele>623.45756</ele>
        <time>2022-04-06T09:21:01.880Z</time>
      </trkpt>
      <trkpt lat="42.27587" lon="22.93831">
        <ele>622.398313</ele>
        <time>2022-04-06T09:21:03.875Z</time>
      </trkpt>
      <trkpt lat="42.27587" lon="22.93807">
        <ele>621.338947</ele>
        <time>2022-04-06T09:21:05.874Z</time>
      </trkpt>
      <trkpt lat="42.27586" lon="22.93783">
        <ele>620.275421</ele>
        <time>2022-04-06T09:21:07.884Z</time>
      </trkpt>
      <trkpt lat="42.27587" lon="22.9377">
        <ele>619.719363</ele>
        <time>2022-04-06T09:21:08.876Z</time>
      </trkpt>
      <trkpt lat="42.27587" lon="22.93757">
        <ele>619.150098</ele>
        <time>2022-04-06T09:21:09.886Z</time>
      </trkpt>
      <trkpt lat="42.27587" lon="22.93744">
        <ele>618.576297</ele>
        <time>2022-04-06T09:21:10.875Z</time>
      </trkpt>
      <trkpt lat="42.27587" lon="22.93731">
        <ele>617.993519</ele>
        <time>2022-04-06T09:21:11.879Z</time>
      </trkpt>
      <trkpt lat="42.27587" lon="22.93717">
        <ele>617.537022</ele>
        <time>2022-04-06T09:21:12.899Z</time>
      </trkpt>
      <trkpt lat="42.27588" lon="22.93703">
        <ele>617.073633</ele>
        <time>2022-04-06T09:21:13.890Z</time>
      </trkpt>
      <trkpt lat="42.27588" lon="22.93689">
        <ele>616.607108</ele>
        <time>2022-04-06T09:21:14.873Z</time>
      </trkpt>
      <trkpt lat="42.27588" lon="22.93675">
        <ele>616.147201</ele>
        <time>2022-04-06T09:21:15.916Z</time>
      </trkpt>
      <trkpt lat="42.27587" lon="22.93662">
        <ele>615.703767</ele>
        <time>2022-04-06T09:21:16.878Z</time>
      </trkpt>
      <trkpt lat="42.27587" lon="22.93649">
        <ele>615.276967</ele>
        <time>2022-04-06T09:21:17.884Z</time>
      </trkpt>
      <trkpt lat="42.27587" lon="22.93637">
        <ele>614.860068</ele>
        <time>2022-04-06T09:21:18.871Z</time>
      </trkpt>
      <trkpt lat="42.27588" lon="22.93624">
        <ele>614.436481</ele>
        <time>2022-04-06T09:21:19.886Z</time>
      </trkpt>
      <trkpt lat="42.27588" lon="22.93611">
        <ele>614.016274</ele>
        <time>2022-04-06T09:21:20.873Z</time>
      </trkpt>
      <trkpt lat="42.27588" lon="22.93598">
        <ele>613.576035</ele>
        <time>2022-04-06T09:21:21.878Z</time>
      </trkpt>
      <trkpt lat="42.27588" lon="22.93584">
        <ele>613.115801</ele>
        <time>2022-04-06T09:21:22.883Z</time>
      </trkpt>
      <trkpt lat="42.27589" lon="22.9357">
        <ele>612.661981</ele>
        <time>2022-04-06T09:21:23.878Z</time>
      </trkpt>
      <trkpt lat="42.27589" lon="22.93557">
        <ele>612.211932</ele>
        <time>2022-04-06T09:21:24.907Z</time>
      </trkpt>
      <trkpt lat="42.27589" lon="22.93543">
        <ele>611.758575</ele>
        <time>2022-04-06T09:21:25.882Z</time>
      </trkpt>
      <trkpt lat="42.2759" lon="22.93529">
        <ele>611.298603</ele>
        <time>2022-04-06T09:21:26.874Z</time>
      </trkpt>
      <trkpt lat="42.27589" lon="22.93516">
        <ele>610.855057</ele>
        <time>2022-04-06T09:21:27.870Z</time>
      </trkpt>
      <trkpt lat="42.27589" lon="22.93502">
        <ele>610.410902</ele>
        <time>2022-04-06T09:21:28.879Z</time>
      </trkpt>
      <trkpt lat="42.27588" lon="22.93489">
        <ele>609.964839</ele>
        <time>2022-04-06T09:21:29.869Z</time>
      </trkpt>
      <trkpt lat="42.27586" lon="22.93476">
        <ele>609.481199</ele>
        <time>2022-04-06T09:21:30.897Z</time>
      </trkpt>
      <trkpt lat="42.27585" lon="22.93463">
        <ele>608.991908</ele>
        <time>2022-04-06T09:21:31.875Z</time>
      </trkpt>
      <trkpt lat="42.27582" lon="22.9345">
        <ele>608.498735</ele>
        <time>2022-04-06T09:21:32.869Z</time>
      </trkpt>
      <trkpt lat="42.2758" lon="22.93437">
        <ele>608.012546</ele>
        <time>2022-04-06T09:21:33.881Z</time>
      </trkpt>
      <trkpt lat="42.27577" lon="22.93425">
        <ele>607.537611</ele>
        <time>2022-04-06T09:21:34.877Z</time>
      </trkpt>
      <trkpt lat="42.27573" lon="22.93413">
        <ele>607.052355</ele>
        <time>2022-04-06T09:21:35.878Z</time>
      </trkpt>
      <trkpt lat="42.27569" lon="22.93401">
        <ele>606.562466</ele>
        <time>2022-04-06T09:21:36.900Z</time>
      </trkpt>
      <trkpt lat="42.27564" lon="22.93389">
        <ele>606.06813</ele>
        <time>2022-04-06T09:21:37.891Z</time>
      </trkpt>
      <trkpt lat="42.2756" lon="22.93378">
        <ele>605.590904</ele>
        <time>2022-04-06T09:21:38.879Z</time>
      </trkpt>
      <trkpt lat="42.27555" lon="22.93367">
        <ele>605.120776</ele>
        <time>2022-04-06T09:21:39.886Z</time>
      </trkpt>
      <trkpt lat="42.2755" lon="22.93356">
        <ele>604.651729</ele>
        <time>2022-04-06T09:21:40.883Z</time>
      </trkpt>
      <trkpt lat="42.27545" lon="22.93346">
        <ele>604.197426</ele>
        <time>2022-04-06T09:21:41.878Z</time>
      </trkpt>
      <trkpt lat="42.2754" lon="22.93335">
        <ele>603.743123</ele>
        <time>2022-04-06T09:21:42.903Z</time>
      </trkpt>
      <trkpt lat="42.27535" lon="22.93325">
        <ele>603.286542</ele>
        <time>2022-04-06T09:21:43.883Z</time>
      </trkpt>
      <trkpt lat="42.2753" lon="22.93315">
        <ele>602.83027</ele>
        <time>2022-04-06T09:21:44.881Z</time>
      </trkpt>
      <trkpt lat="42.27525" lon="22.93304">
        <ele>602.370164</ele>
        <time>2022-04-06T09:21:45.882Z</time>
      </trkpt>
      <trkpt lat="42.2752" lon="22.93293">
        <ele>601.889478</ele>
        <time>2022-04-06T09:21:46.875Z</time>
      </trkpt>
      <trkpt lat="42.27515" lon="22.93282">
        <ele>601.382313</ele>
        <time>2022-04-06T09:21:47.884Z</time>
      </trkpt>
      <trkpt lat="42.27509" lon="22.9327">
        <ele>600.877879</ele>
        <time>2022-04-06T09:21:48.902Z</time>
      </trkpt>
      <trkpt lat="42.27503" lon="22.93258">
        <ele>600.569316</ele>
        <time>2022-04-06T09:21:49.873Z</time>
      </trkpt>
      <trkpt lat="42.27497" lon="22.93246">
        <ele>600.255499</ele>
        <time>2022-04-06T09:21:50.877Z</time>
      </trkpt>
      <trkpt lat="42.27492" lon="22.93234">
        <ele>599.941682</ele>
        <time>2022-04-06T09:21:51.879Z</time>
      </trkpt>
      <trkpt lat="42.27486" lon="22.93222">
        <ele>599.620523</ele>
        <time>2022-04-06T09:21:52.884Z</time>
      </trkpt>
      <trkpt lat="42.2748" lon="22.93209">
        <ele>599.292769</ele>
        <time>2022-04-06T09:21:53.875Z</time>
      </trkpt>
      <trkpt lat="42.27473" lon="22.93197">
        <ele>598.968935</ele>
        <time>2022-04-06T09:21:54.897Z</time>
      </trkpt>
      <trkpt lat="42.27466" lon="22.93185">
        <ele>598.637881</ele>
        <time>2022-04-06T09:21:55.880Z</time>
      </trkpt>
      <trkpt lat="42.27459" lon="22.93173">
        <ele>598.300626</ele>
        <time>2022-04-06T09:21:56.885Z</time>
      </trkpt>
      <trkpt lat="42.27451" lon="22.93162">
        <ele>597.959055</ele>
        <time>2022-04-06T09:21:57.895Z</time>
      </trkpt>
      <trkpt lat="42.27443" lon="22.93151">
        <ele>597.623813</ele>
        <time>2022-04-06T09:21:58.871Z</time>
      </trkpt>
      <trkpt lat="42.27435" lon="22.9314">
        <ele>597.296618</ele>
        <time>2022-04-06T09:21:59.878Z</time>
      </trkpt>
      <trkpt lat="42.27428" lon="22.93129">
        <ele>596.977239</ele>
        <time>2022-04-06T09:22:00.901Z</time>
      </trkpt>
      <trkpt lat="42.27421" lon="22.93118">
        <ele>596.664997</ele>
        <time>2022-04-06T09:22:01.887Z</time>
      </trkpt>
      <trkpt lat="42.27415" lon="22.93106">
        <ele>596.346527</ele>
        <time>2022-04-06T09:22:02.873Z</time>
      </trkpt>
      <trkpt lat="42.27409" lon="22.93094">
        <ele>596.029619</ele>
        <time>2022-04-06T09:22:03.872Z</time>
      </trkpt>
      <trkpt lat="42.27403" lon="22.93082">
        <ele>595.715551</ele>
        <time>2022-04-06T09:22:04.876Z</time>
      </trkpt>
      <trkpt lat="42.27398" lon="22.93069">
        <ele>595.208587</ele>
        <time>2022-04-06T09:22:05.883Z</time>
      </trkpt>
      <trkpt lat="42.27393" lon="22.93056">
        <ele>594.605839</ele>
        <time>2022-04-06T09:22:06.895Z</time>
      </trkpt>
      <trkpt lat="42.27388" lon="22.93043">
        <ele>593.978592</ele>
        <time>2022-04-06T09:22:07.891Z</time>
      </trkpt>
      <trkpt lat="42.27383" lon="22.93029">
        <ele>593.343814</ele>
        <time>2022-04-06T09:22:08.879Z</time>
      </trkpt>
      <trkpt lat="42.27378" lon="22.93014">
        <ele>592.693151</ele>
        <time>2022-04-06T09:22:09.875Z</time>
      </trkpt>
      <trkpt lat="42.27374" lon="22.92999">
        <ele>592.042858</ele>
        <time>2022-04-06T09:22:10.872Z</time>
      </trkpt>
      <trkpt lat="42.27369" lon="22.92985">
        <ele>591.39599</ele>
        <time>2022-04-06T09:22:11.881Z</time>
      </trkpt>
      <trkpt lat="42.27365" lon="22.92971">
        <ele>590.762653</ele>
        <time>2022-04-06T09:22:12.906Z</time>
      </trkpt>
      <trkpt lat="42.27361" lon="22.92956">
        <ele>590.123364</ele>
        <time>2022-04-06T09:22:13.878Z</time>
      </trkpt>
      <trkpt lat="42.27356" lon="22.92942">
        <ele>589.495414</ele>
        <time>2022-04-06T09:22:14.876Z</time>
      </trkpt>
      <trkpt lat="42.27352" lon="22.92929">
        <ele>588.875001</ele>
        <time>2022-04-06T09:22:15.882Z</time>
      </trkpt>
      <trkpt lat="42.27347" lon="22.92915">
        <ele>588.266229</ele>
        <time>2022-04-06T09:22:16.886Z</time>
      </trkpt>
      <trkpt lat="42.27341" lon="22.92903">
        <ele>587.660845</ele>
        <time>2022-04-06T09:22:17.875Z</time>
      </trkpt>
      <trkpt lat="42.27335" lon="22.9289">
        <ele>587.04826</ele>
        <time>2022-04-06T09:22:18.902Z</time>
      </trkpt>
      <trkpt lat="42.27328" lon="22.92878">
        <ele>586.429809</ele>
        <time>2022-04-06T09:22:19.874Z</time>
      </trkpt>
      <trkpt lat="42.27322" lon="22.92867">
        <ele>585.820975</ele>
        <time>2022-04-06T09:22:20.874Z</time>
      </trkpt>
      <trkpt lat="42.27315" lon="22.92855">
        <ele>585.08877</ele>
        <time>2022-04-06T09:22:21.885Z</time>
      </trkpt>
      <trkpt lat="42.27307" lon="22.92842">
        <ele>584.276098</ele>
        <time>2022-04-06T09:22:22.873Z</time>
      </trkpt>
      <trkpt lat="42.27299" lon="22.9283">
        <ele>583.445665</ele>
        <time>2022-04-06T09:22:23.884Z</time>
      </trkpt>
      <trkpt lat="42.27292" lon="22.92818">
        <ele>582.644866</ele>
        <time>2022-04-06T09:22:24.897Z</time>
      </trkpt>
      <trkpt lat="42.27285" lon="22.92806">
        <ele>581.868686</ele>
        <time>2022-04-06T09:22:25.877Z</time>
      </trkpt>
      <trkpt lat="42.27278" lon="22.92795">
        <ele>581.118543</ele>
        <time>2022-04-06T09:22:26.879Z</time>
      </trkpt>
      <trkpt lat="42.27272" lon="22.92784">
        <ele>580.384805</ele>
        <time>2022-04-06T09:22:27.879Z</time>
      </trkpt>
      <trkpt lat="42.27265" lon="22.92772">
        <ele>579.655107</ele>
        <time>2022-04-06T09:22:28.877Z</time>
      </trkpt>
      <trkpt lat="42.27259" lon="22.92761">
        <ele>578.933449</ele>
        <time>2022-04-06T09:22:29.876Z</time>
      </trkpt>
      <trkpt lat="42.27252" lon="22.9275">
        <ele>578.208154</ele>
        <time>2022-04-06T09:22:30.895Z</time>
      </trkpt>
      <trkpt lat="42.27246" lon="22.92738">
        <ele>577.466356</ele>
        <time>2022-04-06T09:22:31.874Z</time>
      </trkpt>
      <trkpt lat="42.2724" lon="22.92726">
        <ele>576.703872</ele>
        <time>2022-04-06T09:22:32.889Z</time>
      </trkpt>
      <trkpt lat="42.27233" lon="22.92714">
        <ele>575.936989</ele>
        <time>2022-04-06T09:22:33.887Z</time>
      </trkpt>
      <trkpt lat="42.27227" lon="22.92702">
        <ele>575.190279</ele>
        <time>2022-04-06T09:22:34.878Z</time>
      </trkpt>
      <trkpt lat="42.27222" lon="22.9269">
        <ele>574.467863</ele>
        <time>2022-04-06T09:22:35.869Z</time>
      </trkpt>
      <trkpt lat="42.27216" lon="22.92679">
        <ele>573.771245</ele>
        <time>2022-04-06T09:22:36.944Z</time>
      </trkpt>
      <trkpt lat="42.2721" lon="22.92668">
        <ele>573.054489</ele>
        <time>2022-04-06T09:22:37.877Z</time>
      </trkpt>
      <trkpt lat="42.27205" lon="22.92657">
        <ele>572.222354</ele>
        <time>2022-04-06T09:22:38.879Z</time>
      </trkpt>
      <trkpt lat="42.272" lon="22.92646">
        <ele>571.390219</ele>
        <time>2022-04-06T09:22:39.890Z</time>
      </trkpt>
      <trkpt lat="42.27194" lon="22.92636">
        <ele>570.56934</ele>
        <time>2022-04-06T09:22:40.873Z</time>
      </trkpt>
      <trkpt lat="42.27188" lon="22.92626">
        <ele>569.747829</ele>
        <time>2022-04-06T09:22:41.887Z</time>
      </trkpt>
      <trkpt lat="42.27182" lon="22.92617">
        <ele>568.921078</ele>
        <time>2022-04-06T09:22:42.871Z</time>
      </trkpt>
      <trkpt lat="42.27175" lon="22.92608">
        <ele>568.086088</ele>
        <time>2022-04-06T09:22:43.913Z</time>
      </trkpt>
      <trkpt lat="42.27167" lon="22.926">
        <ele>567.244723</ele>
        <time>2022-04-06T09:22:44.874Z</time>
      </trkpt>
      <trkpt lat="42.27159" lon="22.92593">
        <ele>566.354287</ele>
        <time>2022-04-06T09:22:45.883Z</time>
      </trkpt>
      <trkpt lat="42.27149" lon="22.92586">
        <ele>565.44458</ele>
        <time>2022-04-06T09:22:46.872Z</time>
      </trkpt>
      <trkpt lat="42.2714" lon="22.9258">
        <ele>564.525854</ele>
        <time>2022-04-06T09:22:47.890Z</time>
      </trkpt>
      <trkpt lat="42.27129" lon="22.92577">
        <ele>563.557943</ele>
        <time>2022-04-06T09:22:48.878Z</time>
      </trkpt>
      <trkpt lat="42.27118" lon="22.92574">
        <ele>562.560727</ele>
        <time>2022-04-06T09:22:49.870Z</time>
      </trkpt>
      <trkpt lat="42.27107" lon="22.92571">
        <ele>561.588577</ele>
        <time>2022-04-06T09:22:50.873Z</time>
      </trkpt>
      <trkpt lat="42.27096" lon="22.9257">
        <ele>560.622979</ele>
        <time>2022-04-06T09:22:51.877Z</time>
      </trkpt>
      <trkpt lat="42.27085" lon="22.92569">
        <ele>559.677516</ele>
        <time>2022-04-06T09:22:52.910Z</time>
      </trkpt>
      <trkpt lat="42.27074" lon="22.92568">
        <ele>558.72518</ele>
        <time>2022-04-06T09:22:53.876Z</time>
      </trkpt>
      <trkpt lat="42.27063" lon="22.92569">
        <ele>557.790461</ele>
        <time>2022-04-06T09:22:54.892Z</time>
      </trkpt>
      <trkpt lat="42.27053" lon="22.9257">
        <ele>556.944479</ele>
        <time>2022-04-06T09:22:55.874Z</time>
      </trkpt>
      <trkpt lat="42.27043" lon="22.92571">
        <ele>556.19049</ele>
        <time>2022-04-06T09:22:56.878Z</time>
      </trkpt>
      <trkpt lat="42.27034" lon="22.92572">
        <ele>555.48322</ele>
        <time>2022-04-06T09:22:57.874Z</time>
      </trkpt>
      <trkpt lat="42.27024" lon="22.92574">
        <ele>554.720922</ele>
        <time>2022-04-06T09:22:58.876Z</time>
      </trkpt>
      <trkpt lat="42.27015" lon="22.92575">
        <ele>553.958624</ele>
        <time>2022-04-06T09:22:59.887Z</time>
      </trkpt>
      <trkpt lat="42.27005" lon="22.92577">
        <ele>553.211684</ele>
        <time>2022-04-06T09:23:00.876Z</time>
      </trkpt>
      <trkpt lat="42.26995" lon="22.92578">
        <ele>552.472422</ele>
        <time>2022-04-06T09:23:01.873Z</time>
      </trkpt>
      <trkpt lat="42.26986" lon="22.9258">
        <ele>551.732474</ele>
        <time>2022-04-06T09:23:02.875Z</time>
      </trkpt>
      <trkpt lat="42.26977" lon="22.92582">
        <ele>551.014777</ele>
        <time>2022-04-06T09:23:03.897Z</time>
      </trkpt>
      <trkpt lat="42.26959" lon="22.92585">
        <ele>549.624505</ele>
        <time>2022-04-06T09:23:05.876Z</time>
      </trkpt>
      <trkpt lat="42.26949" lon="22.92586">
        <ele>548.880307</ele>
        <time>2022-04-06T09:23:06.874Z</time>
      </trkpt>
      <trkpt lat="42.2694" lon="22.92587">
        <ele>548.129513</ele>
        <time>2022-04-06T09:23:07.875Z</time>
      </trkpt>
      <trkpt lat="42.2693" lon="22.92587">
        <ele>547.402952</ele>
        <time>2022-04-06T09:23:08.878Z</time>
      </trkpt>
      <trkpt lat="42.26921" lon="22.92586">
        <ele>546.659876</ele>
        <time>2022-04-06T09:23:09.914Z</time>
      </trkpt>
      <trkpt lat="42.26911" lon="22.92585">
        <ele>545.905886</ele>
        <time>2022-04-06T09:23:10.874Z</time>
      </trkpt>
      <trkpt lat="42.26901" lon="22.92583">
        <ele>545.126881</ele>
        <time>2022-04-06T09:23:11.888Z</time>
      </trkpt>
      <trkpt lat="42.26891" lon="22.9258">
        <ele>544.352682</ele>
        <time>2022-04-06T09:23:12.876Z</time>
      </trkpt>
      <trkpt lat="42.26881" lon="22.92577">
        <ele>543.568495</ele>
        <time>2022-04-06T09:23:13.883Z</time>
      </trkpt>
      <trkpt lat="42.26872" lon="22.92574">
        <ele>543.080345</ele>
        <time>2022-04-06T09:23:14.872Z</time>
      </trkpt>
      <trkpt lat="42.26862" lon="22.92571">
        <ele>542.625677</ele>
        <time>2022-04-06T09:23:15.871Z</time>
      </trkpt>
      <trkpt lat="42.26846" lon="22.92566">
        <ele>541.814744</ele>
        <time>2022-04-06T09:23:17.876Z</time>
      </trkpt>
      <trkpt lat="42.26829" lon="22.92561">
        <ele>540.970267</ele>
        <time>2022-04-06T09:23:19.875Z</time>
      </trkpt>
      <trkpt lat="42.26819" lon="22.92559">
        <ele>540.50465</ele>
        <time>2022-04-06T09:23:20.878Z</time>
      </trkpt>
      <trkpt lat="42.26809" lon="22.92558">
        <ele>540.016108</ele>
        <time>2022-04-06T09:23:21.871Z</time>
      </trkpt>
      <trkpt lat="42.26799" lon="22.92556">
        <ele>539.536211</ele>
        <time>2022-04-06T09:23:22.879Z</time>
      </trkpt>
      <trkpt lat="42.2679" lon="22.92554">
        <ele>539.074844</ele>
        <time>2022-04-06T09:23:23.876Z</time>
      </trkpt>
      <trkpt lat="42.2678" lon="22.92552">
        <ele>538.608725</ele>
        <time>2022-04-06T09:23:24.871Z</time>
      </trkpt>
      <trkpt lat="42.2677" lon="22.9255">
        <ele>538.136204</ele>
        <time>2022-04-06T09:23:25.872Z</time>
      </trkpt>
      <trkpt lat="42.26761" lon="22.92547">
        <ele>537.667813</ele>
        <time>2022-04-06T09:23:26.907Z</time>
      </trkpt>
      <trkpt lat="42.26751" lon="22.92545">
        <ele>537.19469</ele>
        <time>2022-04-06T09:23:27.886Z</time>
      </trkpt>
      <trkpt lat="42.26741" lon="22.92543">
        <ele>536.720287</ele>
        <time>2022-04-06T09:23:28.877Z</time>
      </trkpt>
      <trkpt lat="42.26732" lon="22.9254">
        <ele>536.245884</ele>
        <time>2022-04-06T09:23:29.882Z</time>
      </trkpt>
      <trkpt lat="42.26722" lon="22.92537">
        <ele>535.75453</ele>
        <time>2022-04-06T09:23:30.878Z</time>
      </trkpt>
      <trkpt lat="42.26712" lon="22.92534">
        <ele>535.28417</ele>
        <time>2022-04-06T09:23:31.878Z</time>
      </trkpt>
      <trkpt lat="42.26694" lon="22.92528">
        <ele>534.797033</ele>
        <time>2022-04-06T09:23:33.876Z</time>
      </trkpt>
      <trkpt lat="42.26685" lon="22.92524">
        <ele>534.702506</ele>
        <time>2022-04-06T09:23:34.875Z</time>
      </trkpt>
      <trkpt lat="42.26677" lon="22.9252">
        <ele>534.611023</ele>
        <time>2022-04-06T09:23:35.876Z</time>
      </trkpt>
      <trkpt lat="42.26668" lon="22.92515">
        <ele>534.520846</ele>
        <time>2022-04-06T09:23:36.876Z</time>
      </trkpt>
      <trkpt lat="42.26653" lon="22.92505">
        <ele>534.353277</ele>
        <time>2022-04-06T09:23:38.876Z</time>
      </trkpt>
      <trkpt lat="42.26639" lon="22.92496">
        <ele>534.203459</ele>
        <time>2022-04-06T09:23:40.871Z</time>
      </trkpt>
      <trkpt lat="42.26627" lon="22.92484">
        <ele>534.050809</ele>
        <time>2022-04-06T09:23:42.873Z</time>
      </trkpt>
      <trkpt lat="42.26614" lon="22.9247">
        <ele>533.889778</ele>
        <time>2022-04-06T09:23:44.889Z</time>
      </trkpt>
      <trkpt lat="42.26603" lon="22.92455">
        <ele>533.740089</ele>
        <time>2022-04-06T09:23:46.880Z</time>
      </trkpt>
      <trkpt lat="42.26594" lon="22.9244">
        <ele>533.594912</ele>
        <time>2022-04-06T09:23:48.868Z</time>
      </trkpt>
      <trkpt lat="42.26585" lon="22.92426">
        <ele>533.457986</ele>
        <time>2022-04-06T09:23:50.886Z</time>
      </trkpt>
      <trkpt lat="42.26577" lon="22.9241">
        <ele>533.320964</ele>
        <time>2022-04-06T09:23:52.875Z</time>
      </trkpt>
      <trkpt lat="42.26571" lon="22.92395">
        <ele>533.191125</ele>
        <time>2022-04-06T09:23:54.877Z</time>
      </trkpt>
      <trkpt lat="42.26565" lon="22.92379">
        <ele>533.043944</ele>
        <time>2022-04-06T09:23:56.885Z</time>
      </trkpt>
      <trkpt lat="42.26559" lon="22.92364">
        <ele>532.876084</ele>
        <time>2022-04-06T09:23:58.873Z</time>
      </trkpt>
      <trkpt lat="42.26554" lon="22.92349">
        <ele>532.711197</ele>
        <time>2022-04-06T09:24:00.872Z</time>
      </trkpt>
      <trkpt lat="42.2655" lon="22.92334">
        <ele>532.550304</ele>
        <time>2022-04-06T09:24:02.884Z</time>
      </trkpt>
      <trkpt lat="42.26546" lon="22.9232">
        <ele>532.395927</ele>
        <time>2022-04-06T09:24:04.894Z</time>
      </trkpt>
      <trkpt lat="42.26543" lon="22.92306">
        <ele>532.248731</ele>
        <time>2022-04-06T09:24:06.894Z</time>
      </trkpt>
      <trkpt lat="42.26541" lon="22.92292">
        <ele>532.108616</ele>
        <time>2022-04-06T09:24:08.886Z</time>
      </trkpt>
      <trkpt lat="42.26538" lon="22.92277">
        <ele>531.958518</ele>
        <time>2022-04-06T09:24:10.872Z</time>
      </trkpt>
      <trkpt lat="42.26535" lon="22.92262">
        <ele>531.796474</ele>
        <time>2022-04-06T09:24:12.883Z</time>
      </trkpt>
      <trkpt lat="42.26532" lon="22.92246">
        <ele>531.634052</ele>
        <time>2022-04-06T09:24:14.881Z</time>
      </trkpt>
      <trkpt lat="42.26529" lon="22.9223">
        <ele>531.470308</ele>
        <time>2022-04-06T09:24:16.875Z</time>
      </trkpt>
      <trkpt lat="42.26525" lon="22.92214">
        <ele>531.299833</ele>
        <time>2022-04-06T09:24:18.865Z</time>
      </trkpt>
      <trkpt lat="42.26522" lon="22.92198">
        <ele>531.135129</ele>
        <time>2022-04-06T09:24:20.911Z</time>
      </trkpt>
      <trkpt lat="42.26518" lon="22.92183">
        <ele>530.975613</ele>
        <time>2022-04-06T09:24:22.899Z</time>
      </trkpt>
      <trkpt lat="42.26514" lon="22.92167">
        <ele>530.816017</ele>
        <time>2022-04-06T09:24:24.879Z</time>
      </trkpt>
      <trkpt lat="42.2651" lon="22.92151">
        <ele>530.616747</ele>
        <time>2022-04-06T09:24:26.867Z</time>
      </trkpt>
      <trkpt lat="42.26506" lon="22.92135">
        <ele>530.365691</ele>
        <time>2022-04-06T09:24:28.886Z</time>
      </trkpt>
      <trkpt lat="42.26501" lon="22.9212">
        <ele>530.127364</ele>
        <time>2022-04-06T09:24:30.877Z</time>
      </trkpt>
      <trkpt lat="42.26496" lon="22.92106">
        <ele>529.887869</ele>
        <time>2022-04-06T09:24:32.875Z</time>
      </trkpt>
      <trkpt lat="42.26489" lon="22.92091">
        <ele>529.644252</ele>
        <time>2022-04-06T09:24:34.878Z</time>
      </trkpt>
      <trkpt lat="42.26483" lon="22.92077">
        <ele>529.394399</ele>
        <time>2022-04-06T09:24:36.882Z</time>
      </trkpt>
      <trkpt lat="42.26475" lon="22.92063">
        <ele>529.135634</ele>
        <time>2022-04-06T09:24:38.900Z</time>
      </trkpt>
      <trkpt lat="42.26467" lon="22.92049">
        <ele>528.8875</ele>
        <time>2022-04-06T09:24:40.883Z</time>
      </trkpt>
      <trkpt lat="42.26459" lon="22.92035">
        <ele>528.620454</ele>
        <time>2022-04-06T09:24:42.874Z</time>
      </trkpt>
      <trkpt lat="42.2645" lon="22.9202">
        <ele>528.334686</ele>
        <time>2022-04-06T09:24:44.891Z</time>
      </trkpt>
      <trkpt lat="42.26439" lon="22.92006">
        <ele>528.047615</ele>
        <time>2022-04-06T09:24:46.870Z</time>
      </trkpt>
      <trkpt lat="42.26429" lon="22.91993">
        <ele>527.766212</ele>
        <time>2022-04-06T09:24:48.878Z</time>
      </trkpt>
      <trkpt lat="42.26418" lon="22.91981">
        <ele>527.488486</ele>
        <time>2022-04-06T09:24:50.873Z</time>
      </trkpt>
      <trkpt lat="42.26407" lon="22.9197">
        <ele>527.201977</ele>
        <time>2022-04-06T09:24:52.874Z</time>
      </trkpt>
      <trkpt lat="42.26395" lon="22.91959">
        <ele>526.834313</ele>
        <time>2022-04-06T09:24:54.881Z</time>
      </trkpt>
      <trkpt lat="42.26383" lon="22.91947">
        <ele>526.435912</ele>
        <time>2022-04-06T09:24:56.871Z</time>
      </trkpt>
      <trkpt lat="42.26372" lon="22.91935">
        <ele>526.03676</ele>
        <time>2022-04-06T09:24:58.876Z</time>
      </trkpt>
      <trkpt lat="42.26361" lon="22.91922">
        <ele>525.641886</ele>
        <time>2022-04-06T09:25:00.874Z</time>
      </trkpt>
      <trkpt lat="42.2635" lon="22.9191">
        <ele>525.248312</ele>
        <time>2022-04-06T09:25:02.870Z</time>
      </trkpt>
      <trkpt lat="42.2634" lon="22.91898">
        <ele>524.861116</ele>
        <time>2022-04-06T09:25:04.876Z</time>
      </trkpt>
      <trkpt lat="42.26329" lon="22.91885">
        <ele>524.462298</ele>
        <time>2022-04-06T09:25:06.880Z</time>
      </trkpt>
      <trkpt lat="42.26317" lon="22.91874">
        <ele>524.067619</ele>
        <time>2022-04-06T09:25:08.872Z</time>
      </trkpt>
      <trkpt lat="42.26305" lon="22.91862">
        <ele>523.669882</ele>
        <time>2022-04-06T09:25:10.879Z</time>
      </trkpt>
      <trkpt lat="42.26294" lon="22.91852">
        <ele>523.276865</ele>
        <time>2022-04-06T09:25:12.881Z</time>
      </trkpt>
      <trkpt lat="42.2628" lon="22.91842">
        <ele>522.859337</ele>
        <time>2022-04-06T09:25:14.874Z</time>
      </trkpt>
      <trkpt lat="42.26268" lon="22.91833">
        <ele>522.466685</ele>
        <time>2022-04-06T09:25:16.877Z</time>
      </trkpt>
      <trkpt lat="42.26254" lon="22.91825">
        <ele>522.109131</ele>
        <time>2022-04-06T09:25:18.878Z</time>
      </trkpt>
      <trkpt lat="42.26239" lon="22.91816">
        <ele>521.940116</ele>
        <time>2022-04-06T09:25:20.874Z</time>
      </trkpt>
      <trkpt lat="42.26225" lon="22.91807">
        <ele>521.776282</ele>
        <time>2022-04-06T09:25:22.885Z</time>
      </trkpt>
      <trkpt lat="42.26212" lon="22.91799">
        <ele>521.619859</ele>
        <time>2022-04-06T09:25:24.900Z</time>
      </trkpt>
      <trkpt lat="42.26198" lon="22.91789">
        <ele>521.450092</ele>
        <time>2022-04-06T09:25:26.868Z</time>
      </trkpt>
      <trkpt lat="42.26185" lon="22.91781">
        <ele>521.298207</ele>
        <time>2022-04-06T09:25:28.868Z</time>
      </trkpt>
      <trkpt lat="42.26172" lon="22.91774">
        <ele>521.155376</ele>
        <time>2022-04-06T09:25:30.899Z</time>
      </trkpt>
      <trkpt lat="42.2616" lon="22.91767">
        <ele>521.009307</ele>
        <time>2022-04-06T09:25:32.875Z</time>
      </trkpt>
      <trkpt lat="42.26147" lon="22.91759">
        <ele>520.867766</ele>
        <time>2022-04-06T09:25:34.874Z</time>
      </trkpt>
      <trkpt lat="42.26135" lon="22.91753">
        <ele>520.729418</ele>
        <time>2022-04-06T09:25:36.904Z</time>
      </trkpt>
      <trkpt lat="42.26124" lon="22.91746">
        <ele>520.597901</ele>
        <time>2022-04-06T09:25:38.876Z</time>
      </trkpt>
      <trkpt lat="42.26113" lon="22.91739">
        <ele>520.467997</ele>
        <time>2022-04-06T09:25:40.873Z</time>
      </trkpt>
      <trkpt lat="42.26102" lon="22.91733">
        <ele>520.343905</ele>
        <time>2022-04-06T09:25:42.879Z</time>
      </trkpt>
      <trkpt lat="42.26092" lon="22.91726">
        <ele>520.215097</ele>
        <time>2022-04-06T09:25:44.870Z</time>
      </trkpt>
      <trkpt lat="42.26083" lon="22.9172">
        <ele>520.022422</ele>
        <time>2022-04-06T09:25:46.870Z</time>
      </trkpt>
      <trkpt lat="42.26073" lon="22.91714">
        <ele>519.825169</ele>
        <time>2022-04-06T09:25:48.869Z</time>
      </trkpt>
      <trkpt lat="42.26062" lon="22.91708">
        <ele>519.600446</ele>
        <time>2022-04-06T09:25:50.879Z</time>
      </trkpt>
      <trkpt lat="42.26053" lon="22.91702">
        <ele>519.400357</ele>
        <time>2022-04-06T09:25:52.872Z</time>
      </trkpt>
      <trkpt lat="42.26044" lon="22.91697">
        <ele>519.225375</ele>
        <time>2022-04-06T09:25:54.877Z</time>
      </trkpt>
      <trkpt lat="42.26036" lon="22.91693">
        <ele>519.054672</ele>
        <time>2022-04-06T09:25:56.871Z</time>
      </trkpt>
      <trkpt lat="42.26023" lon="22.91686">
        <ele>518.803705</ele>
        <time>2022-04-06T09:25:59.871Z</time>
      </trkpt>
      <trkpt lat="42.26012" lon="22.9168">
        <ele>518.577244</ele>
        <time>2022-04-06T09:26:02.866Z</time>
      </trkpt>
      <trkpt lat="42.26001" lon="22.91674">
        <ele>518.360304</ele>
        <time>2022-04-06T09:26:05.880Z</time>
      </trkpt>
      <trkpt lat="42.2599" lon="22.91669">
        <ele>518.137293</ele>
        <time>2022-04-06T09:26:08.880Z</time>
      </trkpt>
      <trkpt lat="42.25979" lon="22.91663">
        <ele>517.92385</ele>
        <time>2022-04-06T09:26:11.880Z</time>
      </trkpt>
      <trkpt lat="42.25969" lon="22.91658">
        <ele>517.708367</ele>
        <time>2022-04-06T09:26:14.877Z</time>
      </trkpt>
      <trkpt lat="42.25957" lon="22.91652">
        <ele>517.480886</ele>
        <time>2022-04-06T09:26:17.875Z</time>
      </trkpt>
      <trkpt lat="42.25946" lon="22.91647">
        <ele>517.258684</ele>
        <time>2022-04-06T09:26:20.911Z</time>
      </trkpt>
      <trkpt lat="42.25935" lon="22.91642">
        <ele>517.037476</ele>
        <time>2022-04-06T09:26:23.877Z</time>
      </trkpt>
      <trkpt lat="42.25924" lon="22.91637">
        <ele>516.824588</ele>
        <time>2022-04-06T09:26:26.899Z</time>
      </trkpt>
      <trkpt lat="42.25913" lon="22.91632">
        <ele>516.629894</ele>
        <time>2022-04-06T09:26:29.913Z</time>
      </trkpt>
      <trkpt lat="42.25902" lon="22.91627">
        <ele>516.431395</ele>
        <time>2022-04-06T09:26:32.884Z</time>
      </trkpt>
      <trkpt lat="42.25892" lon="22.91623">
        <ele>516.24369</ele>
        <time>2022-04-06T09:26:35.900Z</time>
      </trkpt>
      <trkpt lat="42.25881" lon="22.91618">
        <ele>516.042028</ele>
        <time>2022-04-06T09:26:38.886Z</time>
      </trkpt>
      <trkpt lat="42.25869" lon="22.91613">
        <ele>515.825211</ele>
        <time>2022-04-06T09:26:41.880Z</time>
      </trkpt>
      <trkpt lat="42.25857" lon="22.91608">
        <ele>515.606271</ele>
        <time>2022-04-06T09:26:44.875Z</time>
      </trkpt>
      <trkpt lat="42.25845" lon="22.91603">
        <ele>515.382909</ele>
        <time>2022-04-06T09:26:47.873Z</time>
      </trkpt>
      <trkpt lat="42.25836" lon="22.91598">
        <ele>515.216617</ele>
        <time>2022-04-06T09:26:49.868Z</time>
      </trkpt>
      <trkpt lat="42.25827" lon="22.91594">
        <ele>515.050226</ele>
        <time>2022-04-06T09:26:51.880Z</time>
      </trkpt>
      <trkpt lat="42.25818" lon="22.91589">
        <ele>514.894798</ele>
        <time>2022-04-06T09:26:53.875Z</time>
      </trkpt>
      <trkpt lat="42.25806" lon="22.91583">
        <ele>514.660503</ele>
        <time>2022-04-06T09:26:56.876Z</time>
      </trkpt>
      <trkpt lat="42.25796" lon="22.91579">
        <ele>514.492753</ele>
        <time>2022-04-06T09:26:58.883Z</time>
      </trkpt>
      <trkpt lat="42.25787" lon="22.91574">
        <ele>514.328325</ele>
        <time>2022-04-06T09:27:00.906Z</time>
      </trkpt>
      <trkpt lat="42.25775" lon="22.91569">
        <ele>514.096769</ele>
        <time>2022-04-06T09:27:03.873Z</time>
      </trkpt>
      <trkpt lat="42.25765" lon="22.91564">
        <ele>513.923</ele>
        <time>2022-04-06T09:27:05.880Z</time>
      </trkpt>
      <trkpt lat="42.25755" lon="22.9156">
        <ele>513.73445</ele>
        <time>2022-04-06T09:27:07.883Z</time>
      </trkpt>
      <trkpt lat="42.25744" lon="22.91555">
        <ele>513.531514</ele>
        <time>2022-04-06T09:27:09.870Z</time>
      </trkpt>
      <trkpt lat="42.25733" lon="22.9155">
        <ele>513.323292</ele>
        <time>2022-04-06T09:27:11.897Z</time>
      </trkpt>
      <trkpt lat="42.25722" lon="22.91544">
        <ele>513.107095</ele>
        <time>2022-04-06T09:27:13.879Z</time>
      </trkpt>
      <trkpt lat="42.25713" lon="22.91536">
        <ele>512.914821</ele>
        <time>2022-04-06T09:27:15.873Z</time>
      </trkpt>
      <trkpt lat="42.25701" lon="22.91528">
        <ele>512.673369</ele>
        <time>2022-04-06T09:27:17.876Z</time>
      </trkpt>
      <trkpt lat="42.2569" lon="22.9152">
        <ele>512.445014</ele>
        <time>2022-04-06T09:27:19.875Z</time>
      </trkpt>
      <trkpt lat="42.25679" lon="22.91512">
        <ele>512.221737</ele>
        <time>2022-04-06T09:27:21.884Z</time>
      </trkpt>
      <trkpt lat="42.25668" lon="22.91504">
        <ele>512.004102</ele>
        <time>2022-04-06T09:27:23.872Z</time>
      </trkpt>
      <trkpt lat="42.25658" lon="22.91496">
        <ele>511.790914</ele>
        <time>2022-04-06T09:27:25.883Z</time>
      </trkpt>
      <trkpt lat="42.25649" lon="22.91489">
        <ele>511.595964</ele>
        <time>2022-04-06T09:27:27.880Z</time>
      </trkpt>
      <trkpt lat="42.25637" lon="22.9148">
        <ele>511.362234</ele>
        <time>2022-04-06T09:27:29.872Z</time>
      </trkpt>
      <trkpt lat="42.25626" lon="22.91472">
        <ele>511.13674</ele>
        <time>2022-04-06T09:27:31.887Z</time>
      </trkpt>
      <trkpt lat="42.25616" lon="22.91464">
        <ele>510.916619</ele>
        <time>2022-04-06T09:27:33.899Z</time>
      </trkpt>
      <trkpt lat="42.25605" lon="22.91456">
        <ele>510.687615</ele>
        <time>2022-04-06T09:27:35.874Z</time>
      </trkpt>
      <trkpt lat="42.25593" lon="22.91447">
        <ele>510.498444</ele>
        <time>2022-04-06T09:27:37.871Z</time>
      </trkpt>
      <trkpt lat="42.25582" lon="22.91439">
        <ele>510.425071</ele>
        <time>2022-04-06T09:27:39.898Z</time>
      </trkpt>
      <trkpt lat="42.25569" lon="22.91429">
        <ele>510.348415</ele>
        <time>2022-04-06T09:27:41.877Z</time>
      </trkpt>
      <trkpt lat="42.25556" lon="22.91419">
        <ele>510.267047</ele>
        <time>2022-04-06T09:27:43.874Z</time>
      </trkpt>
      <trkpt lat="42.25544" lon="22.91409">
        <ele>510.187901</ele>
        <time>2022-04-06T09:27:45.870Z</time>
      </trkpt>
      <trkpt lat="42.25531" lon="22.91398">
        <ele>510.105032</ele>
        <time>2022-04-06T09:27:47.875Z</time>
      </trkpt>
      <trkpt lat="42.25517" lon="22.91387">
        <ele>510.016664</ele>
        <time>2022-04-06T09:27:49.880Z</time>
      </trkpt>
      <trkpt lat="42.25503" lon="22.91375">
        <ele>509.925731</ele>
        <time>2022-04-06T09:27:51.878Z</time>
      </trkpt>
      <trkpt lat="42.25489" lon="22.91364">
        <ele>509.835811</ele>
        <time>2022-04-06T09:27:53.912Z</time>
      </trkpt>
      <trkpt lat="42.25474" lon="22.91353">
        <ele>509.747376</ele>
        <time>2022-04-06T09:27:55.905Z</time>
      </trkpt>
      <trkpt lat="42.25461" lon="22.91342">
        <ele>509.661967</ele>
        <time>2022-04-06T09:27:57.880Z</time>
      </trkpt>
      <trkpt lat="42.25448" lon="22.91331">
        <ele>509.576863</ele>
        <time>2022-04-06T09:27:59.898Z</time>
      </trkpt>
      <trkpt lat="42.25435" lon="22.9132">
        <ele>509.417578</ele>
        <time>2022-04-06T09:28:01.900Z</time>
      </trkpt>
      <trkpt lat="42.25422" lon="22.91309">
        <ele>509.190625</ele>
        <time>2022-04-06T09:28:03.892Z</time>
      </trkpt>
      <trkpt lat="42.2541" lon="22.91299">
        <ele>508.963553</ele>
        <time>2022-04-06T09:28:05.877Z</time>
      </trkpt>
      <trkpt lat="42.25397" lon="22.91288">
        <ele>508.728411</ele>
        <time>2022-04-06T09:28:07.939Z</time>
      </trkpt>
      <trkpt lat="42.25384" lon="22.91277">
        <ele>508.491438</ele>
        <time>2022-04-06T09:28:09.903Z</time>
      </trkpt>
      <trkpt lat="42.25371" lon="22.91264">
        <ele>508.250609</ele>
        <time>2022-04-06T09:28:11.908Z</time>
      </trkpt>
      <trkpt lat="42.25358" lon="22.91252">
        <ele>508.014591</ele>
        <time>2022-04-06T09:28:13.911Z</time>
      </trkpt>
      <trkpt lat="42.25347" lon="22.91238">
        <ele>507.780795</ele>
        <time>2022-04-06T09:28:15.910Z</time>
      </trkpt>
      <trkpt lat="42.25335" lon="22.91225">
        <ele>507.552694</ele>
        <time>2022-04-06T09:28:17.893Z</time>
      </trkpt>
      <trkpt lat="42.25325" lon="22.91212">
        <ele>507.326178</ele>
        <time>2022-04-06T09:28:19.883Z</time>
      </trkpt>
      <trkpt lat="42.25314" lon="22.91198">
        <ele>507.103579</ele>
        <time>2022-04-06T09:28:21.897Z</time>
      </trkpt>
      <trkpt lat="42.25303" lon="22.91183">
        <ele>506.864506</ele>
        <time>2022-04-06T09:28:23.902Z</time>
      </trkpt>
      <trkpt lat="42.25292" lon="22.91168">
        <ele>506.478553</ele>
        <time>2022-04-06T09:28:25.895Z</time>
      </trkpt>
      <trkpt lat="42.25282" lon="22.91151">
        <ele>506.031749</ele>
        <time>2022-04-06T09:28:27.906Z</time>
      </trkpt>
      <trkpt lat="42.25273" lon="22.91135">
        <ele>505.592312</ele>
        <time>2022-04-06T09:28:29.902Z</time>
      </trkpt>
      <trkpt lat="42.25264" lon="22.91118">
        <ele>505.154567</ele>
        <time>2022-04-06T09:28:31.898Z</time>
      </trkpt>
      <trkpt lat="42.25255" lon="22.91101">
        <ele>504.721592</ele>
        <time>2022-04-06T09:28:33.897Z</time>
      </trkpt>
      <trkpt lat="42.25247" lon="22.91084">
        <ele>504.27999</ele>
        <time>2022-04-06T09:28:35.899Z</time>
      </trkpt>
      <trkpt lat="42.25238" lon="22.91066">
        <ele>503.827283</ele>
        <time>2022-04-06T09:28:37.887Z</time>
      </trkpt>
      <trkpt lat="42.2523" lon="22.91049">
        <ele>503.406139</ele>
        <time>2022-04-06T09:28:39.885Z</time>
      </trkpt>
      <trkpt lat="42.25223" lon="22.91034">
        <ele>503.016564</ele>
        <time>2022-04-06T09:28:41.936Z</time>
      </trkpt>
      <trkpt lat="42.25216" lon="22.91018">
        <ele>502.629042</ele>
        <time>2022-04-06T09:28:43.910Z</time>
      </trkpt>
      <trkpt lat="42.25208" lon="22.91002">
        <ele>502.225644</ele>
        <time>2022-04-06T09:28:45.883Z</time>
      </trkpt>
      <trkpt lat="42.25201" lon="22.90987">
        <ele>501.838122</ele>
        <time>2022-04-06T09:28:47.881Z</time>
      </trkpt>
      <trkpt lat="42.25194" lon="22.90972">
        <ele>501.56668</ele>
        <time>2022-04-06T09:28:49.903Z</time>
      </trkpt>
      <trkpt lat="42.25187" lon="22.90957">
        <ele>501.425381</ele>
        <time>2022-04-06T09:28:51.908Z</time>
      </trkpt>
      <trkpt lat="42.2518" lon="22.90943">
        <ele>501.278165</ele>
        <time>2022-04-06T09:28:53.930Z</time>
      </trkpt>
      <trkpt lat="42.25173" lon="22.90928">
        <ele>501.126054</ele>
        <time>2022-04-06T09:28:55.934Z</time>
      </trkpt>
      <trkpt lat="42.25166" lon="22.90912">
        <ele>500.973226</ele>
        <time>2022-04-06T09:28:57.877Z</time>
      </trkpt>
      <trkpt lat="42.25159" lon="22.90897">
        <ele>500.824363</ele>
        <time>2022-04-06T09:28:59.888Z</time>
      </trkpt>
      <trkpt lat="42.25153" lon="22.90882">
        <ele>500.675501</ele>
        <time>2022-04-06T09:29:01.898Z</time>
      </trkpt>
      <trkpt lat="42.25146" lon="22.90868">
        <ele>500.529514</ele>
        <time>2022-04-06T09:29:03.926Z</time>
      </trkpt>
      <trkpt lat="42.25139" lon="22.90854">
        <ele>500.393218</ele>
        <time>2022-04-06T09:29:05.951Z</time>
      </trkpt>
      <trkpt lat="42.25133" lon="22.90841">
        <ele>500.262953</ele>
        <time>2022-04-06T09:29:07.887Z</time>
      </trkpt>
      <trkpt lat="42.25127" lon="22.90828">
        <ele>500.131858</ele>
        <time>2022-04-06T09:29:09.898Z</time>
      </trkpt>
      <trkpt lat="42.25121" lon="22.90816">
        <ele>500.004573</ele>
        <time>2022-04-06T09:29:11.898Z</time>
      </trkpt>
      <trkpt lat="42.25115" lon="22.90803">
        <ele>499.87307</ele>
        <time>2022-04-06T09:29:13.896Z</time>
      </trkpt>
      <trkpt lat="42.25108" lon="22.90788">
        <ele>499.729936</ele>
        <time>2022-04-06T09:29:15.898Z</time>
      </trkpt>
      <trkpt lat="42.25101" lon="22.90774">
        <ele>499.584555</ele>
        <time>2022-04-06T09:29:17.887Z</time>
      </trkpt>
      <trkpt lat="42.25095" lon="22.9076">
        <ele>499.461694</ele>
        <time>2022-04-06T09:29:19.888Z</time>
      </trkpt>
      <trkpt lat="42.25088" lon="22.90745">
        <ele>499.332335</ele>
        <time>2022-04-06T09:29:21.931Z</time>
      </trkpt>
      <trkpt lat="42.25081" lon="22.90729">
        <ele>499.19508</ele>
        <time>2022-04-06T09:29:23.901Z</time>
      </trkpt>
      <trkpt lat="42.25074" lon="22.90715">
        <ele>499.06518</ele>
        <time>2022-04-06T09:29:25.910Z</time>
      </trkpt>
      <trkpt lat="42.25067" lon="22.90699">
        <ele>498.934857</ele>
        <time>2022-04-06T09:29:27.884Z</time>
      </trkpt>
      <trkpt lat="42.25061" lon="22.90685">
        <ele>498.806325</ele>
        <time>2022-04-06T09:29:29.912Z</time>
      </trkpt>
      <trkpt lat="42.25055" lon="22.9067">
        <ele>498.680556</ele>
        <time>2022-04-06T09:29:31.913Z</time>
      </trkpt>
      <trkpt lat="42.25049" lon="22.90655">
        <ele>498.558147</ele>
        <time>2022-04-06T09:29:33.928Z</time>
      </trkpt>
      <trkpt lat="42.25044" lon="22.9064">
        <ele>498.438335</ele>
        <time>2022-04-06T09:29:35.914Z</time>
      </trkpt>
      <trkpt lat="42.2504" lon="22.90627">
        <ele>498.328031</ele>
        <time>2022-04-06T09:29:37.896Z</time>
      </trkpt>
      <trkpt lat="42.25036" lon="22.90613">
        <ele>498.21789</ele>
        <time>2022-04-06T09:29:39.935Z</time>
      </trkpt>
      <trkpt lat="42.25032" lon="22.90599">
        <ele>498.106373</ele>
        <time>2022-04-06T09:29:41.910Z</time>
      </trkpt>
      <trkpt lat="42.25029" lon="22.90584">
        <ele>497.990906</ele>
        <time>2022-04-06T09:29:43.915Z</time>
      </trkpt>
      <trkpt lat="42.25025" lon="22.90568">
        <ele>497.86704</ele>
        <time>2022-04-06T09:29:45.894Z</time>
      </trkpt>
      <trkpt lat="42.25021" lon="22.9055">
        <ele>497.681338</ele>
        <time>2022-04-06T09:29:47.884Z</time>
      </trkpt>
      <trkpt lat="42.25018" lon="22.90531">
        <ele>497.418935</ele>
        <time>2022-04-06T09:29:49.902Z</time>
      </trkpt>
      <trkpt lat="42.25015" lon="22.90513">
        <ele>497.156087</ele>
        <time>2022-04-06T09:29:51.916Z</time>
      </trkpt>
      <trkpt lat="42.25012" lon="22.90495">
        <ele>496.900207</ele>
        <time>2022-04-06T09:29:53.910Z</time>
      </trkpt>
      <trkpt lat="42.25011" lon="22.90478">
        <ele>496.655403</ele>
        <time>2022-04-06T09:29:55.897Z</time>
      </trkpt>
      <trkpt lat="42.25009" lon="22.90462">
        <ele>496.430314</ele>
        <time>2022-04-06T09:29:57.886Z</time>
      </trkpt>
      <trkpt lat="42.25008" lon="22.90447">
        <ele>496.214492</ele>
        <time>2022-04-06T09:29:59.908Z</time>
      </trkpt>
      <trkpt lat="42.25007" lon="22.90432">
        <ele>496.003662</ele>
        <time>2022-04-06T09:30:01.900Z</time>
      </trkpt>
      <trkpt lat="42.25007" lon="22.90416">
        <ele>495.780617</ele>
        <time>2022-04-06T09:30:03.895Z</time>
      </trkpt>
      <trkpt lat="42.25007" lon="22.904">
        <ele>495.554767</ele>
        <time>2022-04-06T09:30:05.909Z</time>
      </trkpt>
      <trkpt lat="42.25007" lon="22.90383">
        <ele>495.324685</ele>
        <time>2022-04-06T09:30:07.889Z</time>
      </trkpt>
      <trkpt lat="42.25008" lon="22.90367">
        <ele>495.088901</ele>
        <time>2022-04-06T09:30:09.887Z</time>
      </trkpt>
      <trkpt lat="42.25008" lon="22.90349">
        <ele>494.847361</ele>
        <time>2022-04-06T09:30:11.916Z</time>
      </trkpt>
      <trkpt lat="42.25009" lon="22.90332">
        <ele>494.598814</ele>
        <time>2022-04-06T09:30:13.895Z</time>
      </trkpt>
      <trkpt lat="42.2501" lon="22.90314">
        <ele>494.381331</ele>
        <time>2022-04-06T09:30:15.887Z</time>
      </trkpt>
      <trkpt lat="42.2501" lon="22.90296">
        <ele>494.607518</ele>
        <time>2022-04-06T09:30:17.885Z</time>
      </trkpt>
      <trkpt lat="42.25011" lon="22.90278">
        <ele>494.840618</ele>
        <time>2022-04-06T09:30:19.928Z</time>
      </trkpt>
      <trkpt lat="42.25012" lon="22.90261">
        <ele>495.064445</ele>
        <time>2022-04-06T09:30:21.902Z</time>
      </trkpt>
      <trkpt lat="42.25014" lon="22.90245">
        <ele>495.280277</ele>
        <time>2022-04-06T09:30:23.899Z</time>
      </trkpt>
      <trkpt lat="42.25015" lon="22.90229">
        <ele>495.477223</ele>
        <time>2022-04-06T09:30:25.927Z</time>
      </trkpt>
      <trkpt lat="42.25016" lon="22.90215">
        <ele>495.663732</ele>
        <time>2022-04-06T09:30:27.884Z</time>
      </trkpt>
      <trkpt lat="42.25016" lon="22.90201">
        <ele>495.838392</ele>
        <time>2022-04-06T09:30:29.909Z</time>
      </trkpt>
      <trkpt lat="42.25017" lon="22.90184">
        <ele>496.063019</ele>
        <time>2022-04-06T09:30:32.907Z</time>
      </trkpt>
      <trkpt lat="42.25016" lon="22.90169">
        <ele>496.260605</ele>
        <time>2022-04-06T09:30:35.904Z</time>
      </trkpt>
      <trkpt lat="42.25016" lon="22.90154">
        <ele>496.446658</ele>
        <time>2022-04-06T09:30:38.903Z</time>
      </trkpt>
      <trkpt lat="42.25015" lon="22.90142">
        <ele>496.607461</ele>
        <time>2022-04-06T09:30:41.906Z</time>
      </trkpt>
      <trkpt lat="42.25014" lon="22.90127">
        <ele>496.800551</ele>
        <time>2022-04-06T09:30:45.899Z</time>
      </trkpt>
      <trkpt lat="42.25012" lon="22.90113">
        <ele>496.98312</ele>
        <time>2022-04-06T09:30:49.929Z</time>
      </trkpt>
      <trkpt lat="42.2501" lon="22.901">
        <ele>497.154138</ele>
        <time>2022-04-06T09:30:53.895Z</time>
      </trkpt>
      <trkpt lat="42.25008" lon="22.90088">
        <ele>497.31787</ele>
        <time>2022-04-06T09:30:57.899Z</time>
      </trkpt>
      <trkpt lat="42.25005" lon="22.90074">
        <ele>497.504541</ele>
        <time>2022-04-06T09:31:02.891Z</time>
      </trkpt>
      <trkpt lat="42.25002" lon="22.9006">
        <ele>497.592349</ele>
        <time>2022-04-06T09:31:07.895Z</time>
      </trkpt>
      <trkpt lat="42.24999" lon="22.90048">
        <ele>497.675706</ele>
        <time>2022-04-06T09:31:12.908Z</time>
      </trkpt>
      <trkpt lat="42.24995" lon="22.90035">
        <ele>497.759636</ele>
        <time>2022-04-06T09:31:17.888Z</time>
      </trkpt>
      <trkpt lat="42.24991" lon="22.90024">
        <ele>497.84065</ele>
        <time>2022-04-06T09:31:22.888Z</time>
      </trkpt>
      <trkpt lat="42.24987" lon="22.90012">
        <ele>497.924168</ele>
        <time>2022-04-06T09:31:27.871Z</time>
      </trkpt>
      <trkpt lat="42.24983" lon="22.90001">
        <ele>498.003523</ele>
        <time>2022-04-06T09:31:32.899Z</time>
      </trkpt>
      <trkpt lat="42.24978" lon="22.89989">
        <ele>498.086494</ele>
        <time>2022-04-06T09:31:37.890Z</time>
      </trkpt>
      <trkpt lat="42.24972" lon="22.89978">
        <ele>498.172324</ele>
        <time>2022-04-06T09:31:42.908Z</time>
      </trkpt>
      <trkpt lat="42.24966" lon="22.89965">
        <ele>498.268599</ele>
        <time>2022-04-06T09:31:47.893Z</time>
      </trkpt>
      <trkpt lat="42.24961" lon="22.89955">
        <ele>498.348219</ele>
        <time>2022-04-06T09:31:51.894Z</time>
      </trkpt>
      <trkpt lat="42.24955" lon="22.89945">
        <ele>498.427766</ele>
        <time>2022-04-06T09:31:55.901Z</time>
      </trkpt>
      <trkpt lat="42.2495" lon="22.89935">
        <ele>498.505279</ele>
        <time>2022-04-06T09:31:59.947Z</time>
      </trkpt>
      <trkpt lat="42.24944" lon="22.89924">
        <ele>498.586367</ele>
        <time>2022-04-06T09:32:03.898Z</time>
      </trkpt>
      <trkpt lat="42.24938" lon="22.89912">
        <ele>498.681321</ele>
        <time>2022-04-06T09:32:08.907Z</time>
      </trkpt>
      <trkpt lat="42.24933" lon="22.89902">
        <ele>498.759347</ele>
        <time>2022-04-06T09:32:12.979Z</time>
      </trkpt>
      <trkpt lat="42.24926" lon="22.8989">
        <ele>498.853074</ele>
        <time>2022-04-06T09:32:17.903Z</time>
      </trkpt>
      <trkpt lat="42.24921" lon="22.8988">
        <ele>498.931597</ele>
        <time>2022-04-06T09:32:21.911Z</time>
      </trkpt>
      <trkpt lat="42.24915" lon="22.8987">
        <ele>499.010183</ele>
        <time>2022-04-06T09:32:25.905Z</time>
      </trkpt>
      <trkpt lat="42.24909" lon="22.89861">
        <ele>499.376114</ele>
        <time>2022-04-06T09:32:29.922Z</time>
      </trkpt>
      <trkpt lat="42.24902" lon="22.89851">
        <ele>499.928241</ele>
        <time>2022-04-06T09:32:34.918Z</time>
      </trkpt>
      <trkpt lat="42.24897" lon="22.89841">
        <ele>500.42997</ele>
        <time>2022-04-06T09:32:38.895Z</time>
      </trkpt>
      <trkpt lat="42.2489" lon="22.89831">
        <ele>500.993863</ele>
        <time>2022-04-06T09:32:42.892Z</time>
      </trkpt>
      <trkpt lat="42.24884" lon="22.89821">
        <ele>501.507596</ele>
        <time>2022-04-06T09:32:46.917Z</time>
      </trkpt>
      <trkpt lat="42.24878" lon="22.89811">
        <ele>502.035522</ele>
        <time>2022-04-06T09:32:50.928Z</time>
      </trkpt>
      <trkpt lat="42.24872" lon="22.898">
        <ele>502.5924</ele>
        <time>2022-04-06T09:32:54.903Z</time>
      </trkpt>
      <trkpt lat="42.24866" lon="22.8979">
        <ele>503.096595</ele>
        <time>2022-04-06T09:32:58.890Z</time>
      </trkpt>
      <trkpt lat="42.2486" lon="22.8978">
        <ele>503.659806</ele>
        <time>2022-04-06T09:33:02.861Z</time>
      </trkpt>
      <trkpt lat="42.24853" lon="22.89768">
        <ele>504.22924</ele>
        <time>2022-04-06T09:33:06.895Z</time>
      </trkpt>
      <trkpt lat="42.24847" lon="22.89757">
        <ele>504.81184</ele>
        <time>2022-04-06T09:33:10.913Z</time>
      </trkpt>
      <trkpt lat="42.24841" lon="22.89745">
        <ele>505.404143</ele>
        <time>2022-04-06T09:33:15.007Z</time>
      </trkpt>
      <trkpt lat="42.24835" lon="22.89734">
        <ele>505.947453</ele>
        <time>2022-04-06T09:33:18.876Z</time>
      </trkpt>
      <trkpt lat="42.24829" lon="22.89724">
        <ele>506.503858</ele>
        <time>2022-04-06T09:33:22.896Z</time>
      </trkpt>
      <trkpt lat="42.24824" lon="22.89712">
        <ele>507.0396</ele>
        <time>2022-04-06T09:33:26.895Z</time>
      </trkpt>
      <trkpt lat="42.24819" lon="22.897">
        <ele>507.612726</ele>
        <time>2022-04-06T09:33:30.878Z</time>
      </trkpt>
      <trkpt lat="42.24814" lon="22.89687">
        <ele>508.213368</ele>
        <time>2022-04-06T09:33:34.877Z</time>
      </trkpt>
      <trkpt lat="42.24809" lon="22.89674">
        <ele>508.795057</ele>
        <time>2022-04-06T09:33:38.879Z</time>
      </trkpt>
      <trkpt lat="42.24805" lon="22.89661">
        <ele>509.142723</ele>
        <time>2022-04-06T09:33:42.885Z</time>
      </trkpt>
      <trkpt lat="42.24802" lon="22.89646">
        <ele>509.431512</ele>
        <time>2022-04-06T09:33:46.873Z</time>
      </trkpt>
      <trkpt lat="42.24798" lon="22.89632">
        <ele>509.720301</ele>
        <time>2022-04-06T09:33:50.881Z</time>
      </trkpt>
      <trkpt lat="42.24796" lon="22.89619">
        <ele>509.972705</ele>
        <time>2022-04-06T09:33:54.874Z</time>
      </trkpt>
      <trkpt lat="42.24795" lon="22.89606">
        <ele>510.232216</ele>
        <time>2022-04-06T09:33:58.871Z</time>
      </trkpt>
      <trkpt lat="42.24794" lon="22.89593">
        <ele>510.485432</ele>
        <time>2022-04-06T09:34:02.900Z</time>
      </trkpt>
      <trkpt lat="42.24793" lon="22.89579">
        <ele>510.758575</ele>
        <time>2022-04-06T09:34:06.894Z</time>
      </trkpt>
      <trkpt lat="42.24794" lon="22.89565">
        <ele>511.027811</ele>
        <time>2022-04-06T09:34:10.886Z</time>
      </trkpt>
      <trkpt lat="42.24794" lon="22.89551">
        <ele>511.287708</ele>
        <time>2022-04-06T09:34:14.874Z</time>
      </trkpt>
      <trkpt lat="42.24795" lon="22.89539">
        <ele>511.528509</ele>
        <time>2022-04-06T09:34:18.876Z</time>
      </trkpt>
      <trkpt lat="42.24797" lon="22.89526">
        <ele>511.780913</ele>
        <time>2022-04-06T09:34:22.876Z</time>
      </trkpt>
      <trkpt lat="42.248" lon="22.89512">
        <ele>512.053506</ele>
        <time>2022-04-06T09:34:26.873Z</time>
      </trkpt>
      <trkpt lat="42.24803" lon="22.89499">
        <ele>512.324231</ele>
        <time>2022-04-06T09:34:30.875Z</time>
      </trkpt>
      <trkpt lat="42.24807" lon="22.89486">
        <ele>512.592028</ele>
        <time>2022-04-06T09:34:34.890Z</time>
      </trkpt>
      <trkpt lat="42.24811" lon="22.89474">
        <ele>512.846827</ele>
        <time>2022-04-06T09:34:38.901Z</time>
      </trkpt>
      <trkpt lat="42.24815" lon="22.8946">
        <ele>513.128465</ele>
        <time>2022-04-06T09:34:42.893Z</time>
      </trkpt>
      <trkpt lat="42.24821" lon="22.89447">
        <ele>513.421662</ele>
        <time>2022-04-06T09:34:46.895Z</time>
      </trkpt>
      <trkpt lat="42.24827" lon="22.89434">
        <ele>513.59456</ele>
        <time>2022-04-06T09:34:50.908Z</time>
      </trkpt>
      <trkpt lat="42.24833" lon="22.89422">
        <ele>513.586061</ele>
        <time>2022-04-06T09:34:54.875Z</time>
      </trkpt>
      <trkpt lat="42.24839" lon="22.89411">
        <ele>513.579166</ele>
        <time>2022-04-06T09:34:57.907Z</time>
      </trkpt>
      <trkpt lat="42.24844" lon="22.894">
        <ele>513.571866</ele>
        <time>2022-04-06T09:35:00.932Z</time>
      </trkpt>
      <trkpt lat="42.2485" lon="22.89389">
        <ele>513.564352</ele>
        <time>2022-04-06T09:35:03.902Z</time>
      </trkpt>
      <trkpt lat="42.24856" lon="22.89378">
        <ele>513.556484</ele>
        <time>2022-04-06T09:35:06.906Z</time>
      </trkpt>
      <trkpt lat="42.24863" lon="22.89366">
        <ele>513.548394</ele>
        <time>2022-04-06T09:35:09.905Z</time>
      </trkpt>
      <trkpt lat="42.24869" lon="22.89354">
        <ele>513.54004</ele>
        <time>2022-04-06T09:35:12.893Z</time>
      </trkpt>
      <trkpt lat="42.24875" lon="22.89341">
        <ele>513.531985</ele>
        <time>2022-04-06T09:35:15.889Z</time>
      </trkpt>
      <trkpt lat="42.24882" lon="22.89329">
        <ele>513.523844</ele>
        <time>2022-04-06T09:35:18.904Z</time>
      </trkpt>
      <trkpt lat="42.24888" lon="22.89317">
        <ele>513.515661</ele>
        <time>2022-04-06T09:35:21.898Z</time>
      </trkpt>
      <trkpt lat="42.24893" lon="22.89304">
        <ele>513.507379</ele>
        <time>2022-04-06T09:35:24.911Z</time>
      </trkpt>
      <trkpt lat="42.24899" lon="22.8929">
        <ele>513.498785</ele>
        <time>2022-04-06T09:35:27.886Z</time>
      </trkpt>
      <trkpt lat="42.24904" lon="22.89276">
        <ele>513.490402</ele>
        <time>2022-04-06T09:35:30.915Z</time>
      </trkpt>
      <trkpt lat="42.24908" lon="22.89263">
        <ele>513.48253</ele>
        <time>2022-04-06T09:35:33.934Z</time>
      </trkpt>
      <trkpt lat="42.24913" lon="22.8925">
        <ele>513.474288</ele>
        <time>2022-04-06T09:35:36.908Z</time>
      </trkpt>
      <trkpt lat="42.24916" lon="22.89235">
        <ele>513.465854</ele>
        <time>2022-04-06T09:35:39.902Z</time>
      </trkpt>
      <trkpt lat="42.2492" lon="22.8922">
        <ele>513.003793</ele>
        <time>2022-04-06T09:35:42.930Z</time>
      </trkpt>
      <trkpt lat="42.24924" lon="22.89204">
        <ele>512.407201</ele>
        <time>2022-04-06T09:35:45.913Z</time>
      </trkpt>
      <trkpt lat="42.24927" lon="22.89187">
        <ele>511.781701</ele>
        <time>2022-04-06T09:35:48.899Z</time>
      </trkpt>
      <trkpt lat="42.24931" lon="22.8917">
        <ele>511.162252</ele>
        <time>2022-04-06T09:35:51.936Z</time>
      </trkpt>
      <trkpt lat="42.24935" lon="22.89153">
        <ele>510.53294</ele>
        <time>2022-04-06T09:35:54.886Z</time>
      </trkpt>
      <trkpt lat="42.24937" lon="22.89141">
        <ele>510.063971</ele>
        <time>2022-04-06T09:35:56.902Z</time>
      </trkpt>
      <trkpt lat="42.24941" lon="22.89126">
        <ele>509.51924</ele>
        <time>2022-04-06T09:35:58.897Z</time>
      </trkpt>
      <trkpt lat="42.24944" lon="22.89112">
        <ele>508.984672</ele>
        <time>2022-04-06T09:36:00.902Z</time>
      </trkpt>
      <trkpt lat="42.24947" lon="22.89098">
        <ele>508.461752</ele>
        <time>2022-04-06T09:36:02.898Z</time>
      </trkpt>
      <trkpt lat="42.2495" lon="22.89085">
        <ele>507.989424</ele>
        <time>2022-04-06T09:36:04.912Z</time>
      </trkpt>
      <trkpt lat="42.24953" lon="22.8907">
        <ele>507.430417</ele>
        <time>2022-04-06T09:36:07.894Z</time>
      </trkpt>
      <trkpt lat="42.24957" lon="22.89055">
        <ele>506.8861</ele>
        <time>2022-04-06T09:36:10.896Z</time>
      </trkpt>
      <trkpt lat="42.24961" lon="22.89043">
        <ele>506.39346</ele>
        <time>2022-04-06T09:36:13.897Z</time>
      </trkpt>
      <trkpt lat="42.24965" lon="22.8903">
        <ele>505.887263</ele>
        <time>2022-04-06T09:36:16.899Z</time>
      </trkpt>
      <trkpt lat="42.2497" lon="22.89016">
        <ele>505.336141</ele>
        <time>2022-04-06T09:36:19.895Z</time>
      </trkpt>
      <trkpt lat="42.24977" lon="22.89">
        <ele>504.710278</ele>
        <time>2022-04-06T09:36:22.915Z</time>
      </trkpt>
      <trkpt lat="42.24983" lon="22.88986">
        <ele>504.196971</ele>
        <time>2022-04-06T09:36:25.930Z</time>
      </trkpt>
      <trkpt lat="42.2499" lon="22.88973">
        <ele>503.738167</ele>
        <time>2022-04-06T09:36:28.895Z</time>
      </trkpt>
      <trkpt lat="42.24997" lon="22.88961">
        <ele>503.267151</ele>
        <time>2022-04-06T09:36:31.900Z</time>
      </trkpt>
      <trkpt lat="42.25004" lon="22.88949">
        <ele>502.798069</ele>
        <time>2022-04-06T09:36:34.893Z</time>
      </trkpt>
      <trkpt lat="42.25013" lon="22.88937">
        <ele>502.280661</ele>
        <time>2022-04-06T09:36:37.889Z</time>
      </trkpt>
      <trkpt lat="42.25019" lon="22.88927">
        <ele>501.892458</ele>
        <time>2022-04-06T09:36:39.892Z</time>
      </trkpt>
      <trkpt lat="42.25026" lon="22.88918">
        <ele>501.484151</ele>
        <time>2022-04-06T09:36:41.869Z</time>
      </trkpt>
      <trkpt lat="42.25033" lon="22.88909">
        <ele>501.09888</ele>
        <time>2022-04-06T09:36:43.901Z</time>
      </trkpt>
      <trkpt lat="42.25039" lon="22.889">
        <ele>500.721567</ele>
        <time>2022-04-06T09:36:45.895Z</time>
      </trkpt>
      <trkpt lat="42.25048" lon="22.88887">
        <ele>500.192315</ele>
        <time>2022-04-06T09:36:48.906Z</time>
      </trkpt>
      <trkpt lat="42.25055" lon="22.88878">
        <ele>499.790525</ele>
        <time>2022-04-06T09:36:50.896Z</time>
      </trkpt>
      <trkpt lat="42.25063" lon="22.88869">
        <ele>499.361949</ele>
        <time>2022-04-06T09:36:52.897Z</time>
      </trkpt>
      <trkpt lat="42.25071" lon="22.88859">
        <ele>498.929066</ele>
        <time>2022-04-06T09:36:54.896Z</time>
      </trkpt>
      <trkpt lat="42.25078" lon="22.88848">
        <ele>498.483959</ele>
        <time>2022-04-06T09:36:56.896Z</time>
      </trkpt>
      <trkpt lat="42.25087" lon="22.88838">
        <ele>498.017327</ele>
        <time>2022-04-06T09:36:58.896Z</time>
      </trkpt>
      <trkpt lat="42.25094" lon="22.88827">
        <ele>497.570886</ele>
        <time>2022-04-06T09:37:00.903Z</time>
      </trkpt>
      <trkpt lat="42.25102" lon="22.88817">
        <ele>497.199569</ele>
        <time>2022-04-06T09:37:02.895Z</time>
      </trkpt>
      <trkpt lat="42.2511" lon="22.88806">
        <ele>496.868717</ele>
        <time>2022-04-06T09:37:04.897Z</time>
      </trkpt>
      <trkpt lat="42.25117" lon="22.88796">
        <ele>496.551067</ele>
        <time>2022-04-06T09:37:06.912Z</time>
      </trkpt>
      <trkpt lat="42.25126" lon="22.88785">
        <ele>496.21377</ele>
        <time>2022-04-06T09:37:08.906Z</time>
      </trkpt>
      <trkpt lat="42.25134" lon="22.88774">
        <ele>495.851752</ele>
        <time>2022-04-06T09:37:10.890Z</time>
      </trkpt>
      <trkpt lat="42.25142" lon="22.88763">
        <ele>495.5055</ele>
        <time>2022-04-06T09:37:12.900Z</time>
      </trkpt>
      <trkpt lat="42.25151" lon="22.88752">
        <ele>495.158831</ele>
        <time>2022-04-06T09:37:14.909Z</time>
      </trkpt>
      <trkpt lat="42.25159" lon="22.88742">
        <ele>494.81565</ele>
        <time>2022-04-06T09:37:16.899Z</time>
      </trkpt>
      <trkpt lat="42.25167" lon="22.88731">
        <ele>494.477017</ele>
        <time>2022-04-06T09:37:18.906Z</time>
      </trkpt>
      <trkpt lat="42.25175" lon="22.88722">
        <ele>494.159978</ele>
        <time>2022-04-06T09:37:20.935Z</time>
      </trkpt>
      <trkpt lat="42.25182" lon="22.88713">
        <ele>493.870412</ele>
        <time>2022-04-06T09:37:22.900Z</time>
      </trkpt>
      <trkpt lat="42.25189" lon="22.88705">
        <ele>493.600937</ele>
        <time>2022-04-06T09:37:24.907Z</time>
      </trkpt>
      <trkpt lat="42.25199" lon="22.88695">
        <ele>493.215628</ele>
        <time>2022-04-06T09:37:27.890Z</time>
      </trkpt>
      <trkpt lat="42.25208" lon="22.88685">
        <ele>492.872963</ele>
        <time>2022-04-06T09:37:30.889Z</time>
      </trkpt>
      <trkpt lat="42.25217" lon="22.88677">
        <ele>492.55923</ele>
        <time>2022-04-06T09:37:33.909Z</time>
      </trkpt>
      <trkpt lat="42.25226" lon="22.88669">
        <ele>492.23894</ele>
        <time>2022-04-06T09:37:36.935Z</time>
      </trkpt>
      <trkpt lat="42.25236" lon="22.88662">
        <ele>492.124545</ele>
        <time>2022-04-06T09:37:39.887Z</time>
      </trkpt>
      <trkpt lat="42.25245" lon="22.88656">
        <ele>492.318084</ele>
        <time>2022-04-06T09:37:42.899Z</time>
      </trkpt>
      <trkpt lat="42.25254" lon="22.8865">
        <ele>492.506968</ele>
        <time>2022-04-06T09:37:45.914Z</time>
      </trkpt>
      <trkpt lat="42.25263" lon="22.88644">
        <ele>492.709583</ele>
        <time>2022-04-06T09:37:48.901Z</time>
      </trkpt>
      <trkpt lat="42.25273" lon="22.88639">
        <ele>492.896363</ele>
        <time>2022-04-06T09:37:51.926Z</time>
      </trkpt>
      <trkpt lat="42.25282" lon="22.88635">
        <ele>493.084433</ele>
        <time>2022-04-06T09:37:54.901Z</time>
      </trkpt>
      <trkpt lat="42.25291" lon="22.88631">
        <ele>493.265935</ele>
        <time>2022-04-06T09:37:57.932Z</time>
      </trkpt>
      <trkpt lat="42.253" lon="22.88628">
        <ele>493.445994</ele>
        <time>2022-04-06T09:38:00.897Z</time>
      </trkpt>
      <trkpt lat="42.25309" lon="22.88625">
        <ele>493.620767</ele>
        <time>2022-04-06T09:38:03.928Z</time>
      </trkpt>
      <trkpt lat="42.25319" lon="22.88623">
        <ele>493.815509</ele>
        <time>2022-04-06T09:38:06.895Z</time>
      </trkpt>
      <trkpt lat="42.2533" lon="22.88621">
        <ele>494.011659</ele>
        <time>2022-04-06T09:38:09.891Z</time>
      </trkpt>
      <trkpt lat="42.2534" lon="22.88618">
        <ele>494.211782</ele>
        <time>2022-04-06T09:38:12.904Z</time>
      </trkpt>
      <trkpt lat="42.25349" lon="22.88617">
        <ele>494.393762</ele>
        <time>2022-04-06T09:38:15.895Z</time>
      </trkpt>
      <trkpt lat="42.2536" lon="22.88615">
        <ele>494.593248</ele>
        <time>2022-04-06T09:38:18.907Z</time>
      </trkpt>
      <trkpt lat="42.25371" lon="22.88613">
        <ele>494.797531</ele>
        <time>2022-04-06T09:38:21.911Z</time>
      </trkpt>
      <trkpt lat="42.25381" lon="22.88612">
        <ele>494.999314</ele>
        <time>2022-04-06T09:38:24.898Z</time>
      </trkpt>
      <trkpt lat="42.25391" lon="22.8861">
        <ele>495.193817</ele>
        <time>2022-04-06T09:38:27.875Z</time>
      </trkpt>
      <trkpt lat="42.25402" lon="22.88609">
        <ele>495.40688</ele>
        <time>2022-04-06T09:38:30.896Z</time>
      </trkpt>
      <trkpt lat="42.25414" lon="22.88608">
        <ele>495.388622</ele>
        <time>2022-04-06T09:38:33.921Z</time>
      </trkpt>
      <trkpt lat="42.25425" lon="22.88607">
        <ele>495.305194</ele>
        <time>2022-04-06T09:38:36.903Z</time>
      </trkpt>
      <trkpt lat="42.25436" lon="22.88605">
        <ele>495.223226</ele>
        <time>2022-04-06T09:38:39.934Z</time>
      </trkpt>
      <trkpt lat="42.25447" lon="22.88604">
        <ele>495.139173</ele>
        <time>2022-04-06T09:38:42.912Z</time>
      </trkpt>
      <trkpt lat="42.25459" lon="22.88603">
        <ele>495.055323</ele>
        <time>2022-04-06T09:38:45.906Z</time>
      </trkpt>
      <trkpt lat="42.25471" lon="22.88602">
        <ele>494.968391</ele>
        <time>2022-04-06T09:38:48.894Z</time>
      </trkpt>
      <trkpt lat="42.25482" lon="22.88601">
        <ele>494.882308</ele>
        <time>2022-04-06T09:38:51.900Z</time>
      </trkpt>
      <trkpt lat="42.25494" lon="22.88598">
        <ele>494.797024</ele>
        <time>2022-04-06T09:38:54.895Z</time>
      </trkpt>
      <trkpt lat="42.25506" lon="22.88596">
        <ele>494.707606</ele>
        <time>2022-04-06T09:38:57.901Z</time>
      </trkpt>
      <trkpt lat="42.25518" lon="22.88591">
        <ele>494.615162</ele>
        <time>2022-04-06T09:39:00.913Z</time>
      </trkpt>
      <trkpt lat="42.25531" lon="22.88586">
        <ele>494.516619</ele>
        <time>2022-04-06T09:39:03.923Z</time>
      </trkpt>
      <trkpt lat="42.25543" lon="22.8858">
        <ele>494.420324</ele>
        <time>2022-04-06T09:39:06.943Z</time>
      </trkpt>
      <trkpt lat="42.25555" lon="22.88573">
        <ele>494.325475</ele>
        <time>2022-04-06T09:39:09.916Z</time>
      </trkpt>
      <trkpt lat="42.25567" lon="22.88564">
        <ele>494.225709</ele>
        <time>2022-04-06T09:39:12.940Z</time>
      </trkpt>
      <trkpt lat="42.25575" lon="22.88557">
        <ele>494.157219</ele>
        <time>2022-04-06T09:39:14.878Z</time>
      </trkpt>
      <trkpt lat="42.25585" lon="22.88548">
        <ele>493.929233</ele>
        <time>2022-04-06T09:39:17.880Z</time>
      </trkpt>
      <trkpt lat="42.25593" lon="22.8854">
        <ele>493.714358</ele>
        <time>2022-04-06T09:39:19.911Z</time>
      </trkpt>
      <trkpt lat="42.25601" lon="22.88532">
        <ele>493.493774</ele>
        <time>2022-04-06T09:39:21.894Z</time>
      </trkpt>
      <trkpt lat="42.25609" lon="22.88524">
        <ele>493.265458</ele>
        <time>2022-04-06T09:39:23.899Z</time>
      </trkpt>
      <trkpt lat="42.25617" lon="22.88515">
        <ele>493.040877</ele>
        <time>2022-04-06T09:39:25.880Z</time>
      </trkpt>
      <trkpt lat="42.25624" lon="22.88506">
        <ele>492.821797</ele>
        <time>2022-04-06T09:39:27.888Z</time>
      </trkpt>
      <trkpt lat="42.25633" lon="22.88495">
        <ele>492.56139</ele>
        <time>2022-04-06T09:39:30.901Z</time>
      </trkpt>
      <trkpt lat="42.25639" lon="22.88486">
        <ele>492.34646</ele>
        <time>2022-04-06T09:39:33.895Z</time>
      </trkpt>
      <trkpt lat="42.25646" lon="22.88476">
        <ele>492.12187</ele>
        <time>2022-04-06T09:39:36.896Z</time>
      </trkpt>
      <trkpt lat="42.25653" lon="22.88464">
        <ele>491.883083</ele>
        <time>2022-04-06T09:39:39.894Z</time>
      </trkpt>
      <trkpt lat="42.2566" lon="22.88453">
        <ele>491.641633</ele>
        <time>2022-04-06T09:39:42.892Z</time>
      </trkpt>
      <trkpt lat="42.25666" lon="22.88441">
        <ele>491.402577</ele>
        <time>2022-04-06T09:39:45.902Z</time>
      </trkpt>
      <trkpt lat="42.25671" lon="22.88428">
        <ele>491.167989</ele>
        <time>2022-04-06T09:39:48.896Z</time>
      </trkpt>
      <trkpt lat="42.25676" lon="22.88415">
        <ele>490.931601</ele>
        <time>2022-04-06T09:39:51.887Z</time>
      </trkpt>
      <trkpt lat="42.2568" lon="22.88403">
        <ele>490.70131</ele>
        <time>2022-04-06T09:39:54.900Z</time>
      </trkpt>
      <trkpt lat="42.25684" lon="22.8839">
        <ele>490.473135</ele>
        <time>2022-04-06T09:39:57.891Z</time>
      </trkpt>
      <trkpt lat="42.25688" lon="22.88378">
        <ele>490.268477</ele>
        <time>2022-04-06T09:40:00.910Z</time>
      </trkpt>
      <trkpt lat="42.25691" lon="22.88362">
        <ele>489.967704</ele>
        <time>2022-04-06T09:40:04.891Z</time>
      </trkpt>
      <trkpt lat="42.25694" lon="22.88349">
        <ele>489.697561</ele>
        <time>2022-04-06T09:40:07.908Z</time>
      </trkpt>
      <trkpt lat="42.25696" lon="22.88336">
        <ele>489.432418</ele>
        <time>2022-04-06T09:40:10.899Z</time>
      </trkpt>
      <trkpt lat="42.25698" lon="22.88323">
        <ele>489.169301</ele>
        <time>2022-04-06T09:40:13.892Z</time>
      </trkpt>
      <trkpt lat="42.25699" lon="22.88309">
        <ele>488.892531</ele>
        <time>2022-04-06T09:40:16.918Z</time>
      </trkpt>
      <trkpt lat="42.257" lon="22.88295">
        <ele>488.626344</ele>
        <time>2022-04-06T09:40:19.898Z</time>
      </trkpt>
      <trkpt lat="42.25699" lon="22.8828">
        <ele>488.32774</ele>
        <time>2022-04-06T09:40:22.894Z</time>
      </trkpt>
      <trkpt lat="42.25699" lon="22.88262">
        <ele>487.979985</ele>
        <time>2022-04-06T09:40:25.912Z</time>
      </trkpt>
      <trkpt lat="42.25698" lon="22.88245">
        <ele>487.635951</ele>
        <time>2022-04-06T09:40:28.921Z</time>
      </trkpt>
      <trkpt lat="42.25698" lon="22.88228">
        <ele>487.305168</ele>
        <time>2022-04-06T09:40:31.907Z</time>
      </trkpt>
      <trkpt lat="42.25697" lon="22.88212">
        <ele>486.995712</ele>
        <time>2022-04-06T09:40:34.907Z</time>
      </trkpt>
      <trkpt lat="42.25696" lon="22.88197">
        <ele>486.688624</ele>
        <time>2022-04-06T09:40:37.895Z</time>
      </trkpt>
      <trkpt lat="42.25695" lon="22.88181">
        <ele>486.374012</ele>
        <time>2022-04-06T09:40:40.882Z</time>
      </trkpt>
      <trkpt lat="42.25694" lon="22.88165">
        <ele>486.060406</ele>
        <time>2022-04-06T09:40:43.907Z</time>
      </trkpt>
      <trkpt lat="42.25693" lon="22.88149">
        <ele>485.741165</ele>
        <time>2022-04-06T09:40:46.911Z</time>
      </trkpt>
      <trkpt lat="42.25692" lon="22.88133">
        <ele>485.437068</ele>
        <time>2022-04-06T09:40:49.891Z</time>
      </trkpt>
      <trkpt lat="42.25691" lon="22.88117">
        <ele>485.337491</ele>
        <time>2022-04-06T09:40:52.900Z</time>
      </trkpt>
      <trkpt lat="42.2569" lon="22.88101">
        <ele>485.289633</ele>
        <time>2022-04-06T09:40:55.935Z</time>
      </trkpt>
      <trkpt lat="42.25688" lon="22.88085">
        <ele>485.245705</ele>
        <time>2022-04-06T09:40:58.911Z</time>
      </trkpt>
      <trkpt lat="42.25688" lon="22.88071">
        <ele>485.203427</ele>
        <time>2022-04-06T09:41:01.931Z</time>
      </trkpt>
      <trkpt lat="42.25687" lon="22.88055">
        <ele>485.158161</ele>
        <time>2022-04-06T09:41:04.911Z</time>
      </trkpt>
      <trkpt lat="42.25685" lon="22.88039">
        <ele>485.113709</ele>
        <time>2022-04-06T09:41:07.899Z</time>
      </trkpt>
      <trkpt lat="42.25685" lon="22.88025">
        <ele>485.073373</ele>
        <time>2022-04-06T09:41:10.905Z</time>
      </trkpt>
      <trkpt lat="42.25683" lon="22.88011">
        <ele>485.033499</ele>
        <time>2022-04-06T09:41:13.903Z</time>
      </trkpt>
      <trkpt lat="42.25683" lon="22.87998">
        <ele>484.994375</ele>
        <time>2022-04-06T09:41:16.890Z</time>
      </trkpt>
      <trkpt lat="42.25682" lon="22.87984">
        <ele>484.955229</ele>
        <time>2022-04-06T09:41:19.931Z</time>
      </trkpt>
      <trkpt lat="42.25682" lon="22.87971">
        <ele>484.918305</ele>
        <time>2022-04-06T09:41:22.899Z</time>
      </trkpt>
      <trkpt lat="42.25681" lon="22.87959">
        <ele>484.88343</ele>
        <time>2022-04-06T09:41:25.899Z</time>
      </trkpt>
      <trkpt lat="42.25681" lon="22.87946">
        <ele>484.846032</ele>
        <time>2022-04-06T09:41:28.937Z</time>
      </trkpt>
      <trkpt lat="42.2568" lon="22.87933">
        <ele>484.808617</ele>
        <time>2022-04-06T09:41:31.908Z</time>
      </trkpt>
      <trkpt lat="42.2568" lon="22.87919">
        <ele>484.770948</ele>
        <time>2022-04-06T09:41:34.897Z</time>
      </trkpt>
      <trkpt lat="42.25679" lon="22.87907">
        <ele>484.734387</ele>
        <time>2022-04-06T09:41:37.926Z</time>
      </trkpt>
      <trkpt lat="42.25679" lon="22.87894">
        <ele>484.697275</ele>
        <time>2022-04-06T09:41:40.911Z</time>
      </trkpt>
      <trkpt lat="42.25678" lon="22.87881">
        <ele>484.803861</ele>
        <time>2022-04-06T09:41:43.940Z</time>
      </trkpt>
      <trkpt lat="42.25678" lon="22.87868">
        <ele>485.038288</ele>
        <time>2022-04-06T09:41:46.894Z</time>
      </trkpt>
      <trkpt lat="42.25678" lon="22.87854">
        <ele>485.30014</ele>
        <time>2022-04-06T09:41:49.894Z</time>
      </trkpt>
      <trkpt lat="42.25677" lon="22.87839">
        <ele>485.56382</ele>
        <time>2022-04-06T09:41:52.904Z</time>
      </trkpt>
      <trkpt lat="42.25677" lon="22.87826">
        <ele>485.801749</ele>
        <time>2022-04-06T09:41:55.894Z</time>
      </trkpt>
      <trkpt lat="42.25677" lon="22.87813">
        <ele>486.041571</ele>
        <time>2022-04-06T09:41:58.894Z</time>
      </trkpt>
      <trkpt lat="42.25676" lon="22.87799">
        <ele>486.294281</ele>
        <time>2022-04-06T09:42:01.915Z</time>
      </trkpt>
      <trkpt lat="42.25676" lon="22.87784">
        <ele>486.572513</ele>
        <time>2022-04-06T09:42:04.903Z</time>
      </trkpt>
      <trkpt lat="42.25676" lon="22.8777">
        <ele>486.827051</ele>
        <time>2022-04-06T09:42:07.894Z</time>
      </trkpt>
      <trkpt lat="42.25676" lon="22.87757">
        <ele>487.072248</ele>
        <time>2022-04-06T09:42:10.899Z</time>
      </trkpt>
      <trkpt lat="42.25675" lon="22.87744">
        <ele>487.317495</ele>
        <time>2022-04-06T09:42:13.898Z</time>
      </trkpt>
      <trkpt lat="42.25675" lon="22.87728">
        <ele>487.597556</ele>
        <time>2022-04-06T09:42:16.887Z</time>
      </trkpt>
      <trkpt lat="42.25675" lon="22.87712">
        <ele>487.897903</ele>
        <time>2022-04-06T09:42:19.894Z</time>
      </trkpt>
      <trkpt lat="42.25674" lon="22.87698">
        <ele>488.152681</ele>
        <time>2022-04-06T09:42:22.903Z</time>
      </trkpt>
      <trkpt lat="42.25674" lon="22.87685">
        <ele>488.383292</ele>
        <time>2022-04-06T09:42:25.890Z</time>
      </trkpt>
      <trkpt lat="42.25673" lon="22.87671">
        <ele>488.654287</ele>
        <time>2022-04-06T09:42:28.907Z</time>
      </trkpt>
      <trkpt lat="42.25673" lon="22.87656">
        <ele>488.923374</ele>
        <time>2022-04-06T09:42:31.916Z</time>
      </trkpt>
      <trkpt lat="42.25672" lon="22.87641">
        <ele>489.189584</ele>
        <time>2022-04-06T09:42:34.894Z</time>
      </trkpt>
      <trkpt lat="42.25673" lon="22.87626">
        <ele>489.430584</ele>
        <time>2022-04-06T09:42:37.896Z</time>
      </trkpt>
      <trkpt lat="42.25672" lon="22.87611">
        <ele>489.682042</ele>
        <time>2022-04-06T09:42:40.903Z</time>
      </trkpt>
      <trkpt lat="42.25671" lon="22.87597">
        <ele>489.915361</ele>
        <time>2022-04-06T09:42:43.898Z</time>
      </trkpt>
      <trkpt lat="42.25671" lon="22.87584">
        <ele>490.128393</ele>
        <time>2022-04-06T09:42:46.905Z</time>
      </trkpt>
      <trkpt lat="42.2567" lon="22.8757">
        <ele>490.34821</ele>
        <time>2022-04-06T09:42:49.897Z</time>
      </trkpt>
      <trkpt lat="42.2567" lon="22.87556">
        <ele>490.582871</ele>
        <time>2022-04-06T09:42:52.905Z</time>
      </trkpt>
      <trkpt lat="42.25669" lon="22.87541">
        <ele>490.822162</ele>
        <time>2022-04-06T09:42:55.890Z</time>
      </trkpt>
      <trkpt lat="42.25669" lon="22.87526">
        <ele>491.073074</ele>
        <time>2022-04-06T09:42:58.898Z</time>
      </trkpt>
      <trkpt lat="42.25668" lon="22.8751">
        <ele>491.330533</ele>
        <time>2022-04-06T09:43:01.897Z</time>
      </trkpt>
      <trkpt lat="42.25668" lon="22.87495">
        <ele>491.579602</ele>
        <time>2022-04-06T09:43:04.903Z</time>
      </trkpt>
      <trkpt lat="42.25668" lon="22.8748">
        <ele>491.827003</ele>
        <time>2022-04-06T09:43:07.896Z</time>
      </trkpt>
      <trkpt lat="42.25668" lon="22.87465">
        <ele>492.074404</ele>
        <time>2022-04-06T09:43:10.908Z</time>
      </trkpt>
      <trkpt lat="42.25668" lon="22.8745">
        <ele>492.318528</ele>
        <time>2022-04-06T09:43:13.894Z</time>
      </trkpt>
      <trkpt lat="42.25668" lon="22.87432">
        <ele>492.611801</ele>
        <time>2022-04-06T09:43:16.911Z</time>
      </trkpt>
      <trkpt lat="42.25667" lon="22.87414">
        <ele>492.905275</ele>
        <time>2022-04-06T09:43:19.909Z</time>
      </trkpt>
      <trkpt lat="42.25668" lon="22.87398">
        <ele>493.012706</ele>
        <time>2022-04-06T09:43:22.900Z</time>
      </trkpt>
      <trkpt lat="42.25668" lon="22.87381">
        <ele>492.661588</ele>
        <time>2022-04-06T09:43:25.934Z</time>
      </trkpt>
      <trkpt lat="42.25668" lon="22.87364">
        <ele>492.297584</ele>
        <time>2022-04-06T09:43:28.882Z</time>
      </trkpt>
      <trkpt lat="42.25668" lon="22.87347">
        <ele>491.928997</ele>
        <time>2022-04-06T09:43:31.930Z</time>
      </trkpt>
      <trkpt lat="42.25669" lon="22.87331">
        <ele>491.579887</ele>
        <time>2022-04-06T09:43:34.890Z</time>
      </trkpt>
      <trkpt lat="42.25669" lon="22.87316">
        <ele>491.250304</ele>
        <time>2022-04-06T09:43:37.887Z</time>
      </trkpt>
      <trkpt lat="42.25669" lon="22.873">
        <ele>490.903432</ele>
        <time>2022-04-06T09:43:40.891Z</time>
      </trkpt>
      <trkpt lat="42.2567" lon="22.87283">
        <ele>490.53457</ele>
        <time>2022-04-06T09:43:43.899Z</time>
      </trkpt>
      <trkpt lat="42.25671" lon="22.87265">
        <ele>490.146187</ele>
        <time>2022-04-06T09:43:46.891Z</time>
      </trkpt>
      <trkpt lat="42.25671" lon="22.87252">
        <ele>489.881206</ele>
        <time>2022-04-06T09:43:48.915Z</time>
      </trkpt>
      <trkpt lat="42.25672" lon="22.87234">
        <ele>489.496243</ele>
        <time>2022-04-06T09:43:51.903Z</time>
      </trkpt>
      <trkpt lat="42.25674" lon="22.87217">
        <ele>489.12172</ele>
        <time>2022-04-06T09:43:54.898Z</time>
      </trkpt>
      <trkpt lat="42.25675" lon="22.872">
        <ele>488.756323</ele>
        <time>2022-04-06T09:43:57.917Z</time>
      </trkpt>
      <trkpt lat="42.25676" lon="22.87184">
        <ele>488.404278</ele>
        <time>2022-04-06T09:44:00.906Z</time>
      </trkpt>
      <trkpt lat="42.25677" lon="22.87169">
        <ele>488.074004</ele>
        <time>2022-04-06T09:44:03.880Z</time>
      </trkpt>
      <trkpt lat="42.25678" lon="22.87153">
        <ele>487.789729</ele>
        <time>2022-04-06T09:44:06.883Z</time>
      </trkpt>
      <trkpt lat="42.2568" lon="22.87138">
        <ele>487.577005</ele>
        <time>2022-04-06T09:44:09.892Z</time>
      </trkpt>
      <trkpt lat="42.25681" lon="22.87122">
        <ele>487.360458</ele>
        <time>2022-04-06T09:44:12.895Z</time>
      </trkpt>
      <trkpt lat="42.25683" lon="22.87106">
        <ele>487.142357</ele>
        <time>2022-04-06T09:44:15.876Z</time>
      </trkpt>
      <trkpt lat="42.25684" lon="22.87089">
        <ele>486.918879</ele>
        <time>2022-04-06T09:44:18.903Z</time>
      </trkpt>
      <trkpt lat="42.25685" lon="22.87073">
        <ele>486.69964</ele>
        <time>2022-04-06T09:44:21.907Z</time>
      </trkpt>
      <trkpt lat="42.25686" lon="22.87058">
        <ele>486.492896</ele>
        <time>2022-04-06T09:44:24.930Z</time>
      </trkpt>
      <trkpt lat="42.25688" lon="22.87041">
        <ele>486.262693</ele>
        <time>2022-04-06T09:44:27.902Z</time>
      </trkpt>
      <trkpt lat="42.25689" lon="22.87025">
        <ele>486.03807</ele>
        <time>2022-04-06T09:44:30.901Z</time>
      </trkpt>
      <trkpt lat="42.25691" lon="22.87008">
        <ele>485.812801</ele>
        <time>2022-04-06T09:44:33.893Z</time>
      </trkpt>
      <trkpt lat="42.25692" lon="22.86992">
        <ele>485.585075</ele>
        <time>2022-04-06T09:44:36.904Z</time>
      </trkpt>
      <trkpt lat="42.25694" lon="22.86975">
        <ele>485.35822</ele>
        <time>2022-04-06T09:44:39.889Z</time>
      </trkpt>
      <trkpt lat="42.25696" lon="22.86958">
        <ele>485.127089</ele>
        <time>2022-04-06T09:44:42.913Z</time>
      </trkpt>
      <trkpt lat="42.25697" lon="22.86941">
        <ele>484.891298</ele>
        <time>2022-04-06T09:44:45.901Z</time>
      </trkpt>
      <trkpt lat="42.25699" lon="22.86923">
        <ele>484.651027</ele>
        <time>2022-04-06T09:44:48.895Z</time>
      </trkpt>
      <trkpt lat="42.257" lon="22.86906">
        <ele>484.556499</ele>
        <time>2022-04-06T09:44:51.913Z</time>
      </trkpt>
      <trkpt lat="42.25702" lon="22.86889">
        <ele>484.515859</ele>
        <time>2022-04-06T09:44:54.907Z</time>
      </trkpt>
      <trkpt lat="42.25703" lon="22.86871">
        <ele>484.473829</ele>
        <time>2022-04-06T09:44:57.891Z</time>
      </trkpt>
      <trkpt lat="42.25705" lon="22.86853">
        <ele>484.431682</ele>
        <time>2022-04-06T09:45:00.905Z</time>
      </trkpt>
      <trkpt lat="42.25706" lon="22.86841">
        <ele>484.402736</ele>
        <time>2022-04-06T09:45:02.893Z</time>
      </trkpt>
      <trkpt lat="42.25708" lon="22.86823">
        <ele>484.359852</ele>
        <time>2022-04-06T09:45:05.955Z</time>
      </trkpt>
      <trkpt lat="42.2571" lon="22.86805">
        <ele>484.317242</ele>
        <time>2022-04-06T09:45:08.899Z</time>
      </trkpt>
      <trkpt lat="42.25711" lon="22.86792">
        <ele>484.288104</ele>
        <time>2022-04-06T09:45:10.896Z</time>
      </trkpt>
      <trkpt lat="42.25712" lon="22.8678">
        <ele>484.259577</ele>
        <time>2022-04-06T09:45:12.892Z</time>
      </trkpt>
      <trkpt lat="42.25714" lon="22.86768">
        <ele>484.230081</ele>
        <time>2022-04-06T09:45:14.900Z</time>
      </trkpt>
      <trkpt lat="42.25715" lon="22.86755">
        <ele>484.200441</ele>
        <time>2022-04-06T09:45:16.927Z</time>
      </trkpt>
      <trkpt lat="42.25716" lon="22.86742">
        <ele>484.170411</ele>
        <time>2022-04-06T09:45:18.909Z</time>
      </trkpt>
      <trkpt lat="42.25717" lon="22.86729">
        <ele>484.13965</ele>
        <time>2022-04-06T09:45:20.904Z</time>
      </trkpt>
      <trkpt lat="42.25718" lon="22.86716">
        <ele>484.109084</ele>
        <time>2022-04-06T09:45:22.879Z</time>
      </trkpt>
      <trkpt lat="42.25719" lon="22.86703">
        <ele>484.078982</ele>
        <time>2022-04-06T09:45:24.894Z</time>
      </trkpt>
      <trkpt lat="42.25721" lon="22.86691">
        <ele>484.048879</ele>
        <time>2022-04-06T09:45:26.897Z</time>
      </trkpt>
      <trkpt lat="42.25722" lon="22.86677">
        <ele>484.017866</ele>
        <time>2022-04-06T09:45:28.927Z</time>
      </trkpt>
      <trkpt lat="42.25723" lon="22.86664">
        <ele>484.147317</ele>
        <time>2022-04-06T09:45:30.909Z</time>
      </trkpt>
      <trkpt lat="42.25724" lon="22.86651">
        <ele>484.271853</ele>
        <time>2022-04-06T09:45:32.886Z</time>
      </trkpt>
      <trkpt lat="42.25726" lon="22.86638">
        <ele>484.39579</ele>
        <time>2022-04-06T09:45:34.914Z</time>
      </trkpt>
      <trkpt lat="42.25727" lon="22.86625">
        <ele>484.522393</ele>
        <time>2022-04-06T09:45:36.908Z</time>
      </trkpt>
      <trkpt lat="42.25728" lon="22.86612">
        <ele>484.645978</ele>
        <time>2022-04-06T09:45:38.902Z</time>
      </trkpt>
      <trkpt lat="42.2573" lon="22.866">
        <ele>484.766887</ele>
        <time>2022-04-06T09:45:40.888Z</time>
      </trkpt>
      <trkpt lat="42.25731" lon="22.86587">
        <ele>484.888572</ele>
        <time>2022-04-06T09:45:42.908Z</time>
      </trkpt>
      <trkpt lat="42.25732" lon="22.86575">
        <ele>485.004934</ele>
        <time>2022-04-06T09:45:44.915Z</time>
      </trkpt>
      <trkpt lat="42.25734" lon="22.86557">
        <ele>485.177016</ele>
        <time>2022-04-06T09:45:47.894Z</time>
      </trkpt>
      <trkpt lat="42.25735" lon="22.86545">
        <ele>485.293953</ele>
        <time>2022-04-06T09:45:49.882Z</time>
      </trkpt>
      <trkpt lat="42.25736" lon="22.86533">
        <ele>485.410725</ele>
        <time>2022-04-06T09:45:51.895Z</time>
      </trkpt>
      <trkpt lat="42.25737" lon="22.86521">
        <ele>485.52956</ele>
        <time>2022-04-06T09:45:53.900Z</time>
      </trkpt>
      <trkpt lat="42.2574" lon="22.86503">
        <ele>485.70053</ele>
        <time>2022-04-06T09:45:56.895Z</time>
      </trkpt>
      <trkpt lat="42.25741" lon="22.86491">
        <ele>485.818416</ele>
        <time>2022-04-06T09:45:58.891Z</time>
      </trkpt>
      <trkpt lat="42.25742" lon="22.86479">
        <ele>485.935352</ele>
        <time>2022-04-06T09:46:00.908Z</time>
      </trkpt>
      <trkpt lat="42.25743" lon="22.86466">
        <ele>486.056261</ele>
        <time>2022-04-06T09:46:02.895Z</time>
      </trkpt>
      <trkpt lat="42.25745" lon="22.86454">
        <ele>486.17622</ele>
        <time>2022-04-06T09:46:04.892Z</time>
      </trkpt>
      <trkpt lat="42.25746" lon="22.86442">
        <ele>486.293157</ele>
        <time>2022-04-06T09:46:06.902Z</time>
      </trkpt>
      <trkpt lat="42.25747" lon="22.8643">
        <ele>486.351862</ele>
        <time>2022-04-06T09:46:08.934Z</time>
      </trkpt>
      <trkpt lat="42.25749" lon="22.86412">
        <ele>486.369404</ele>
        <time>2022-04-06T09:46:11.896Z</time>
      </trkpt>
      <trkpt lat="42.2575" lon="22.86395">
        <ele>486.385717</ele>
        <time>2022-04-06T09:46:14.895Z</time>
      </trkpt>
      <trkpt lat="42.25752" lon="22.86379">
        <ele>486.40151</ele>
        <time>2022-04-06T09:46:17.888Z</time>
      </trkpt>
      <trkpt lat="42.25753" lon="22.86363">
        <ele>486.417628</ele>
        <time>2022-04-06T09:46:20.893Z</time>
      </trkpt>
      <trkpt lat="42.25755" lon="22.86348">
        <ele>486.432238</ele>
        <time>2022-04-06T09:46:23.890Z</time>
      </trkpt>
      <trkpt lat="42.25756" lon="22.86332">
        <ele>486.447951</ele>
        <time>2022-04-06T09:46:26.911Z</time>
      </trkpt>
      <trkpt lat="42.25758" lon="22.86316">
        <ele>486.464326</ele>
        <time>2022-04-06T09:46:29.895Z</time>
      </trkpt>
      <trkpt lat="42.25759" lon="22.86299">
        <ele>486.480604</ele>
        <time>2022-04-06T09:46:32.886Z</time>
      </trkpt>
      <trkpt lat="42.25761" lon="22.86284">
        <ele>486.496203</ele>
        <time>2022-04-06T09:46:35.898Z</time>
      </trkpt>
      <trkpt lat="42.25762" lon="22.86268">
        <ele>486.511104</ele>
        <time>2022-04-06T09:46:38.896Z</time>
      </trkpt>
      <trkpt lat="42.25764" lon="22.86254">
        <ele>486.525247</ele>
        <time>2022-04-06T09:46:41.901Z</time>
      </trkpt>
      <trkpt lat="42.25765" lon="22.8624">
        <ele>486.539533</ele>
        <time>2022-04-06T09:46:44.895Z</time>
      </trkpt>
      <trkpt lat="42.25767" lon="22.86226">
        <ele>486.553482</ele>
        <time>2022-04-06T09:46:47.902Z</time>
      </trkpt>
      <trkpt lat="42.25768" lon="22.86212">
        <ele>486.566991</ele>
        <time>2022-04-06T09:46:50.873Z</time>
      </trkpt>
      <trkpt lat="42.25769" lon="22.86199">
        <ele>486.579642</ele>
        <time>2022-04-06T09:46:53.902Z</time>
      </trkpt>
      <trkpt lat="42.2577" lon="22.86187">
        <ele>486.669608</ele>
        <time>2022-04-06T09:46:56.898Z</time>
      </trkpt>
      <trkpt lat="42.25771" lon="22.86174">
        <ele>486.796777</ele>
        <time>2022-04-06T09:46:59.923Z</time>
      </trkpt>
      <trkpt lat="42.25772" lon="22.8616">
        <ele>486.938969</ele>
        <time>2022-04-06T09:47:02.921Z</time>
      </trkpt>
      <trkpt lat="42.25773" lon="22.86146">
        <ele>487.076254</ele>
        <time>2022-04-06T09:47:05.903Z</time>
      </trkpt>
      <trkpt lat="42.25774" lon="22.86134">
        <ele>487.197529</ele>
        <time>2022-04-06T09:47:08.892Z</time>
      </trkpt>
      <trkpt lat="42.25776" lon="22.8612">
        <ele>487.330076</ele>
        <time>2022-04-06T09:47:11.902Z</time>
      </trkpt>
      <trkpt lat="42.25777" lon="22.86106">
        <ele>487.469656</ele>
        <time>2022-04-06T09:47:14.886Z</time>
      </trkpt>
      <trkpt lat="42.25779" lon="22.86093">
        <ele>487.602579</ele>
        <time>2022-04-06T09:47:17.894Z</time>
      </trkpt>
      <trkpt lat="42.2578" lon="22.8608">
        <ele>487.728464</ele>
        <time>2022-04-06T09:47:20.902Z</time>
      </trkpt>
      <trkpt lat="42.25781" lon="22.86068">
        <ele>487.850443</ele>
        <time>2022-04-06T09:47:23.895Z</time>
      </trkpt>
      <trkpt lat="42.25782" lon="22.86056">
        <ele>487.969754</ele>
        <time>2022-04-06T09:47:26.895Z</time>
      </trkpt>
      <trkpt lat="42.25784" lon="22.86041">
        <ele>488.124379</ele>
        <time>2022-04-06T09:47:30.892Z</time>
      </trkpt>
      <trkpt lat="42.25785" lon="22.86026">
        <ele>488.272613</ele>
        <time>2022-04-06T09:47:34.895Z</time>
      </trkpt>
      <trkpt lat="42.25787" lon="22.86011">
        <ele>488.425473</ele>
        <time>2022-04-06T09:47:38.906Z</time>
      </trkpt>
      <trkpt lat="42.25788" lon="22.85995">
        <ele>488.576651</ele>
        <time>2022-04-06T09:47:42.911Z</time>
      </trkpt>
      <trkpt lat="42.25789" lon="22.85983">
        <ele>488.6971</ele>
        <time>2022-04-06T09:47:45.899Z</time>
      </trkpt>
      <trkpt lat="42.25791" lon="22.85971">
        <ele>488.821815</ele>
        <time>2022-04-06T09:47:48.927Z</time>
      </trkpt>
      <trkpt lat="42.25792" lon="22.85959">
        <ele>488.942433</ele>
        <time>2022-04-06T09:47:51.899Z</time>
      </trkpt>
      <trkpt lat="42.25794" lon="22.85943">
        <ele>489.212377</ele>
        <time>2022-04-06T09:47:55.892Z</time>
      </trkpt>
      <trkpt lat="42.25794" lon="22.85931">
        <ele>489.444651</ele>
        <time>2022-04-06T09:47:58.908Z</time>
      </trkpt>
      <trkpt lat="42.25796" lon="22.85915">
        <ele>489.75112</ele>
        <time>2022-04-06T09:48:02.896Z</time>
      </trkpt>
      <trkpt lat="42.25797" lon="22.85902">
        <ele>489.98679</ele>
        <time>2022-04-06T09:48:05.937Z</time>
      </trkpt>
      <trkpt lat="42.25799" lon="22.85886">
        <ele>490.294842</ele>
        <time>2022-04-06T09:48:09.899Z</time>
      </trkpt>
      <trkpt lat="42.258" lon="22.85871">
        <ele>490.598608</ele>
        <time>2022-04-06T09:48:13.928Z</time>
      </trkpt>
      <trkpt lat="42.25802" lon="22.85858">
        <ele>490.841507</ele>
        <time>2022-04-06T09:48:16.915Z</time>
      </trkpt>
      <trkpt lat="42.25803" lon="22.85846">
        <ele>491.079999</ele>
        <time>2022-04-06T09:48:19.891Z</time>
      </trkpt>
      <trkpt lat="42.25804" lon="22.85833">
        <ele>491.322582</ele>
        <time>2022-04-06T09:48:22.919Z</time>
      </trkpt>
      <trkpt lat="42.25805" lon="22.8582">
        <ele>491.566285</ele>
        <time>2022-04-06T09:48:25.897Z</time>
      </trkpt>
      <trkpt lat="42.25806" lon="22.85808">
        <ele>491.808579</ele>
        <time>2022-04-06T09:48:28.892Z</time>
      </trkpt>
      <trkpt lat="42.25807" lon="22.85796">
        <ele>492.04517</ele>
        <time>2022-04-06T09:48:31.913Z</time>
      </trkpt>
      <trkpt lat="42.25808" lon="22.85783">
        <ele>492.289365</ele>
        <time>2022-04-06T09:48:34.903Z</time>
      </trkpt>
      <trkpt lat="42.25807" lon="22.8577">
        <ele>492.530291</ele>
        <time>2022-04-06T09:48:37.931Z</time>
      </trkpt>
      <trkpt lat="42.25804" lon="22.85758">
        <ele>492.779574</ele>
        <time>2022-04-06T09:48:40.895Z</time>
      </trkpt>
      <trkpt lat="42.25801" lon="22.85743">
        <ele>493.08428</ele>
        <time>2022-04-06T09:48:44.893Z</time>
      </trkpt>
      <trkpt lat="42.25799" lon="22.8573">
        <ele>493.332541</ele>
        <time>2022-04-06T09:48:48.887Z</time>
      </trkpt>
      <trkpt lat="42.25797" lon="22.85718">
        <ele>493.574147</ele>
        <time>2022-04-06T09:48:52.898Z</time>
      </trkpt>
      <trkpt lat="42.25798" lon="22.85703">
        <ele>493.673863</ele>
        <time>2022-04-06T09:48:57.904Z</time>
      </trkpt>
      <trkpt lat="42.25789" lon="22.85704">
        <ele>493.719133</ele>
        <time>2022-04-06T10:10:34.922Z</time>
      </trkpt>
      <trkpt lat="42.25783" lon="22.85694">
        <ele>493.765677</ele>
        <time>2022-04-06T10:10:43.894Z</time>
      </trkpt>
      <trkpt lat="42.25781" lon="22.8568">
        <ele>493.81589</ele>
        <time>2022-04-06T10:10:47.891Z</time>
      </trkpt>
      <trkpt lat="42.25778" lon="22.85668">
        <ele>493.861247</ele>
        <time>2022-04-06T10:10:50.875Z</time>
      </trkpt>
      <trkpt lat="42.25773" lon="22.85646">
        <ele>493.944735</ele>
        <time>2022-04-06T10:10:53.912Z</time>
      </trkpt>
      <trkpt lat="42.2577" lon="22.85632">
        <ele>493.994928</ele>
        <time>2022-04-06T10:10:57.899Z</time>
      </trkpt>
      <trkpt lat="42.25766" lon="22.8562">
        <ele>494.045508</ele>
        <time>2022-04-06T10:11:01.872Z</time>
      </trkpt>
      <trkpt lat="42.25762" lon="22.85607">
        <ele>494.091962</ele>
        <time>2022-04-06T10:11:05.864Z</time>
      </trkpt>
      <trkpt lat="42.25759" lon="22.85596">
        <ele>494.137296</ele>
        <time>2022-04-06T10:11:09.876Z</time>
      </trkpt>
      <trkpt lat="42.25755" lon="22.85583">
        <ele>494.18543</ele>
        <time>2022-04-06T10:11:14.881Z</time>
      </trkpt>
      <trkpt lat="42.25753" lon="22.85571">
        <ele>494.230444</ele>
        <time>2022-04-06T10:11:18.881Z</time>
      </trkpt>
      <trkpt lat="42.25749" lon="22.85556">
        <ele>494.287346</ele>
        <time>2022-04-06T10:11:22.879Z</time>
      </trkpt>
      <trkpt lat="42.25745" lon="22.85542">
        <ele>494.342042</ele>
        <time>2022-04-06T10:11:26.886Z</time>
      </trkpt>
      <trkpt lat="42.2574" lon="22.8553">
        <ele>494.390106</ele>
        <time>2022-04-06T10:11:30.877Z</time>
      </trkpt>
      <trkpt lat="42.25737" lon="22.85517">
        <ele>494.440607</ele>
        <time>2022-04-06T10:11:34.900Z</time>
      </trkpt>
      <trkpt lat="42.25734" lon="22.85504">
        <ele>494.488262</ele>
        <time>2022-04-06T10:11:38.874Z</time>
      </trkpt>
      <trkpt lat="42.2573" lon="22.8549">
        <ele>494.551372</ele>
        <time>2022-04-06T10:11:43.879Z</time>
      </trkpt>
      <trkpt lat="42.25728" lon="22.85477">
        <ele>494.613411</ele>
        <time>2022-04-06T10:11:47.875Z</time>
      </trkpt>
      <trkpt lat="42.25724" lon="22.85464">
        <ele>494.67986</ele>
        <time>2022-04-06T10:11:51.882Z</time>
      </trkpt>
      <trkpt lat="42.25721" lon="22.85451">
        <ele>494.742005</ele>
        <time>2022-04-06T10:11:55.902Z</time>
      </trkpt>
      <trkpt lat="42.25718" lon="22.85439">
        <ele>494.800952</ele>
        <time>2022-04-06T10:11:59.872Z</time>
      </trkpt>
      <trkpt lat="42.25715" lon="22.85427">
        <ele>494.858398</ele>
        <time>2022-04-06T10:12:03.884Z</time>
      </trkpt>
      <trkpt lat="42.25711" lon="22.85414">
        <ele>494.922763</ele>
        <time>2022-04-06T10:12:07.894Z</time>
      </trkpt>
      <trkpt lat="42.25706" lon="22.85402">
        <ele>494.986705</ele>
        <time>2022-04-06T10:12:11.888Z</time>
      </trkpt>
      <trkpt lat="42.25703" lon="22.85388">
        <ele>495.052124</ele>
        <time>2022-04-06T10:12:15.912Z</time>
      </trkpt>
      <trkpt lat="42.257" lon="22.85374">
        <ele>495.120294</ele>
        <time>2022-04-06T10:12:19.908Z</time>
      </trkpt>
      <trkpt lat="42.25694" lon="22.85365">
        <ele>495.176882</ele>
        <time>2022-04-06T10:12:23.900Z</time>
      </trkpt>
      <trkpt lat="42.25686" lon="22.85359">
        <ele>495.235328</ele>
        <time>2022-04-06T10:12:28.875Z</time>
      </trkpt>
      <trkpt lat="42.25666" lon="22.85356">
        <ele>495.357418</ele>
        <time>2022-04-06T10:14:47.008Z</time>
      </trkpt>
      <trkpt lat="42.25657" lon="22.85358">
        <ele>495.415316</ele>
        <time>2022-04-06T10:14:52.882Z</time>
      </trkpt>
      <trkpt lat="42.25647" lon="22.85361">
        <ele>495.48</ele>
        <time>2022-04-06T10:14:58.927Z</time>
      </trkpt>
      <trkpt lat="42.25638" lon="22.85363">
        <ele>495.536871</ele>
        <time>2022-04-06T10:15:05.887Z</time>
      </trkpt>
      <trkpt lat="42.25628" lon="22.85366">
        <ele>495.596598</ele>
        <time>2022-04-06T10:15:13.872Z</time>
      </trkpt>
      <trkpt lat="42.25618" lon="22.85368">
        <ele>495.732411</ele>
        <time>2022-04-06T10:15:19.891Z</time>
      </trkpt>
      <trkpt lat="42.25608" lon="22.8537">
        <ele>495.90556</ele>
        <time>2022-04-06T10:15:22.907Z</time>
      </trkpt>
      <trkpt lat="42.25598" lon="22.85374">
        <ele>496.081453</ele>
        <time>2022-04-06T10:15:26.914Z</time>
      </trkpt>
      <trkpt lat="42.25588" lon="22.85375">
        <ele>496.253409</ele>
        <time>2022-04-06T10:15:31.880Z</time>
      </trkpt>
      <trkpt lat="42.25576" lon="22.8537">
        <ele>496.451495</ele>
        <time>2022-04-06T10:15:36.888Z</time>
      </trkpt>
      <trkpt lat="42.25569" lon="22.85359">
        <ele>496.639876</ele>
        <time>2022-04-06T10:15:40.874Z</time>
      </trkpt>
      <trkpt lat="42.25563" lon="22.85345">
        <ele>496.834833</ele>
        <time>2022-04-06T10:15:44.885Z</time>
      </trkpt>
      <trkpt lat="42.2556" lon="22.85332">
        <ele>497.010621</ele>
        <time>2022-04-06T10:15:47.929Z</time>
      </trkpt>
      <trkpt lat="42.25555" lon="22.85319">
        <ele>497.194505</ele>
        <time>2022-04-06T10:15:50.879Z</time>
      </trkpt>
      <trkpt lat="42.2555" lon="22.85304">
        <ele>497.398257</ele>
        <time>2022-04-06T10:15:53.949Z</time>
      </trkpt>
      <trkpt lat="42.25547" lon="22.8529">
        <ele>497.581607</ele>
        <time>2022-04-06T10:15:56.885Z</time>
      </trkpt>
      <trkpt lat="42.25542" lon="22.85275">
        <ele>497.785122</ele>
        <time>2022-04-06T10:15:59.880Z</time>
      </trkpt>
      <trkpt lat="42.25538" lon="22.8526">
        <ele>497.992785</ele>
        <time>2022-04-06T10:16:02.891Z</time>
      </trkpt>
      <trkpt lat="42.25535" lon="22.85248">
        <ele>498.146957</ele>
        <time>2022-04-06T10:16:04.927Z</time>
      </trkpt>
      <trkpt lat="42.25531" lon="22.85231">
        <ele>498.375265</ele>
        <time>2022-04-06T10:16:07.897Z</time>
      </trkpt>
      <trkpt lat="42.25529" lon="22.85217">
        <ele>498.553738</ele>
        <time>2022-04-06T10:16:09.890Z</time>
      </trkpt>
      <trkpt lat="42.25528" lon="22.85203">
        <ele>498.851973</ele>
        <time>2022-04-06T10:16:11.932Z</time>
      </trkpt>
      <trkpt lat="42.25525" lon="22.8519">
        <ele>499.395283</ele>
        <time>2022-04-06T10:16:13.876Z</time>
      </trkpt>
      <trkpt lat="42.25523" lon="22.85178">
        <ele>499.896693</ele>
        <time>2022-04-06T10:16:15.916Z</time>
      </trkpt>
      <trkpt lat="42.25519" lon="22.85163">
        <ele>500.548209</ele>
        <time>2022-04-06T10:16:18.890Z</time>
      </trkpt>
      <trkpt lat="42.25516" lon="22.85149">
        <ele>501.133615</ele>
        <time>2022-04-06T10:16:21.907Z</time>
      </trkpt>
      <trkpt lat="42.25514" lon="22.85135">
        <ele>501.728062</ele>
        <time>2022-04-06T10:16:24.911Z</time>
      </trkpt>
      <trkpt lat="42.25512" lon="22.8512">
        <ele>502.340712</ele>
        <time>2022-04-06T10:16:27.876Z</time>
      </trkpt>
      <trkpt lat="42.25509" lon="22.85106">
        <ele>502.933</ele>
        <time>2022-04-06T10:16:30.890Z</time>
      </trkpt>
      <trkpt lat="42.25506" lon="22.85093">
        <ele>503.469965</ele>
        <time>2022-04-06T10:16:33.883Z</time>
      </trkpt>
      <trkpt lat="42.25503" lon="22.85081">
        <ele>503.982629</ele>
        <time>2022-04-06T10:16:36.888Z</time>
      </trkpt>
      <trkpt lat="42.255" lon="22.8507">
        <ele>504.49071</ele>
        <time>2022-04-06T10:16:39.875Z</time>
      </trkpt>
      <trkpt lat="42.25496" lon="22.85059">
        <ele>504.986407</ele>
        <time>2022-04-06T10:16:42.916Z</time>
      </trkpt>
      <trkpt lat="42.25493" lon="22.85045">
        <ele>505.571815</ele>
        <time>2022-04-06T10:16:46.884Z</time>
      </trkpt>
      <trkpt lat="42.2549" lon="22.85032">
        <ele>506.138004</ele>
        <time>2022-04-06T10:16:50.876Z</time>
      </trkpt>
      <trkpt lat="42.25487" lon="22.85017">
        <ele>506.764578</ele>
        <time>2022-04-06T10:16:54.899Z</time>
      </trkpt>
      <trkpt lat="42.25483" lon="22.85003">
        <ele>507.349704</ele>
        <time>2022-04-06T10:16:58.895Z</time>
      </trkpt>
      <trkpt lat="42.2548" lon="22.84989">
        <ele>507.968481</ele>
        <time>2022-04-06T10:17:02.887Z</time>
      </trkpt>
      <trkpt lat="42.25478" lon="22.84973">
        <ele>508.562651</ele>
        <time>2022-04-06T10:17:06.872Z</time>
      </trkpt>
      <trkpt lat="42.25476" lon="22.84961">
        <ele>508.633859</ele>
        <time>2022-04-06T10:17:09.896Z</time>
      </trkpt>
      <trkpt lat="42.25474" lon="22.84949">
        <ele>508.707323</ele>
        <time>2022-04-06T10:17:12.892Z</time>
      </trkpt>
      <trkpt lat="42.25473" lon="22.84936">
        <ele>508.786242</ele>
        <time>2022-04-06T10:17:16.876Z</time>
      </trkpt>
      <trkpt lat="42.25472" lon="22.84923">
        <ele>508.864171</ele>
        <time>2022-04-06T10:17:20.880Z</time>
      </trkpt>
      <trkpt lat="42.2547" lon="22.84908">
        <ele>508.949718</ele>
        <time>2022-04-06T10:17:24.916Z</time>
      </trkpt>
      <trkpt lat="42.25472" lon="22.84895">
        <ele>509.026177</ele>
        <time>2022-04-06T10:17:27.882Z</time>
      </trkpt>
      <trkpt lat="42.25475" lon="22.84882">
        <ele>509.109451</ele>
        <time>2022-04-06T10:17:30.878Z</time>
      </trkpt>
      <trkpt lat="42.25479" lon="22.84869">
        <ele>509.190725</ele>
        <time>2022-04-06T10:17:33.876Z</time>
      </trkpt>
      <trkpt lat="42.25482" lon="22.84858">
        <ele>509.261561</ele>
        <time>2022-04-06T10:17:36.872Z</time>
      </trkpt>
      <trkpt lat="42.25486" lon="22.84844">
        <ele>509.343102</ele>
        <time>2022-04-06T10:17:40.927Z</time>
      </trkpt>
      <trkpt lat="42.25489" lon="22.84833">
        <ele>509.415069</ele>
        <time>2022-04-06T10:17:43.882Z</time>
      </trkpt>
      <trkpt lat="42.25493" lon="22.84821">
        <ele>509.489313</ele>
        <time>2022-04-06T10:17:46.894Z</time>
      </trkpt>
      <trkpt lat="42.25497" lon="22.8481">
        <ele>509.564336</ele>
        <time>2022-04-06T10:17:49.916Z</time>
      </trkpt>
      <trkpt lat="42.25502" lon="22.84798">
        <ele>509.644072</ele>
        <time>2022-04-06T10:17:52.887Z</time>
      </trkpt>
      <trkpt lat="42.25507" lon="22.84785">
        <ele>509.729275</ele>
        <time>2022-04-06T10:17:55.910Z</time>
      </trkpt>
      <trkpt lat="42.25512" lon="22.84774">
        <ele>509.804299</ele>
        <time>2022-04-06T10:17:58.891Z</time>
      </trkpt>
      <trkpt lat="42.25516" lon="22.84762">
        <ele>509.881048</ele>
        <time>2022-04-06T10:18:01.885Z</time>
      </trkpt>
      <trkpt lat="42.2552" lon="22.84751">
        <ele>509.95414</ele>
        <time>2022-04-06T10:18:04.892Z</time>
      </trkpt>
      <trkpt lat="42.25525" lon="22.84737">
        <ele>509.628122</ele>
        <time>2022-04-06T10:18:08.885Z</time>
      </trkpt>
      <trkpt lat="42.25528" lon="22.84724">
        <ele>509.218972</ele>
        <time>2022-04-06T10:18:11.880Z</time>
      </trkpt>
      <trkpt lat="42.25532" lon="22.84713">
        <ele>508.827461</ele>
        <time>2022-04-06T10:18:14.871Z</time>
      </trkpt>
      <trkpt lat="42.25537" lon="22.84702">
        <ele>508.450586</ele>
        <time>2022-04-06T10:18:17.882Z</time>
      </trkpt>
      <trkpt lat="42.25541" lon="22.8469">
        <ele>508.050295</ele>
        <time>2022-04-06T10:18:20.886Z</time>
      </trkpt>
      <trkpt lat="42.25545" lon="22.84678">
        <ele>507.638184</ele>
        <time>2022-04-06T10:18:23.867Z</time>
      </trkpt>
      <trkpt lat="42.2555" lon="22.84665">
        <ele>507.209567</ele>
        <time>2022-04-06T10:18:26.870Z</time>
      </trkpt>
      <trkpt lat="42.25555" lon="22.84652">
        <ele>506.771832</ele>
        <time>2022-04-06T10:18:29.868Z</time>
      </trkpt>
      <trkpt lat="42.25559" lon="22.84639">
        <ele>506.346198</ele>
        <time>2022-04-06T10:18:32.866Z</time>
      </trkpt>
      <trkpt lat="42.25564" lon="22.84626">
        <ele>505.902082</ele>
        <time>2022-04-06T10:18:35.873Z</time>
      </trkpt>
      <trkpt lat="42.25569" lon="22.84612">
        <ele>505.432943</ele>
        <time>2022-04-06T10:18:38.876Z</time>
      </trkpt>
      <trkpt lat="42.25575" lon="22.84596">
        <ele>504.897718</ele>
        <time>2022-04-06T10:18:41.863Z</time>
      </trkpt>
      <trkpt lat="42.2558" lon="22.84581">
        <ele>504.393797</ele>
        <time>2022-04-06T10:18:44.875Z</time>
      </trkpt>
      <trkpt lat="42.25585" lon="22.84566">
        <ele>503.872164</ele>
        <time>2022-04-06T10:18:47.892Z</time>
      </trkpt>
      <trkpt lat="42.25591" lon="22.8455">
        <ele>503.347819</ele>
        <time>2022-04-06T10:18:50.912Z</time>
      </trkpt>
      <trkpt lat="42.25597" lon="22.84534">
        <ele>502.812521</ele>
        <time>2022-04-06T10:18:53.880Z</time>
      </trkpt>
      <trkpt lat="42.25602" lon="22.84518">
        <ele>502.443258</ele>
        <time>2022-04-06T10:18:56.878Z</time>
      </trkpt>
      <trkpt lat="42.25607" lon="22.84503">
        <ele>502.19501</ele>
        <time>2022-04-06T10:18:59.874Z</time>
      </trkpt>
      <trkpt lat="42.25612" lon="22.84489">
        <ele>501.956691</ele>
        <time>2022-04-06T10:19:02.864Z</time>
      </trkpt>
      <trkpt lat="42.25618" lon="22.84473">
        <ele>501.690794</ele>
        <time>2022-04-06T10:19:05.881Z</time>
      </trkpt>
      <trkpt lat="42.25623" lon="22.84457">
        <ele>501.429161</ele>
        <time>2022-04-06T10:19:08.869Z</time>
      </trkpt>
      <trkpt lat="42.25629" lon="22.84442">
        <ele>501.180605</ele>
        <time>2022-04-06T10:19:11.875Z</time>
      </trkpt>
      <trkpt lat="42.25633" lon="22.84428">
        <ele>500.940353</ele>
        <time>2022-04-06T10:19:14.868Z</time>
      </trkpt>
      <trkpt lat="42.25638" lon="22.84413">
        <ele>500.70309</ele>
        <time>2022-04-06T10:19:17.882Z</time>
      </trkpt>
      <trkpt lat="42.25643" lon="22.844">
        <ele>500.472589</ele>
        <time>2022-04-06T10:19:20.876Z</time>
      </trkpt>
      <trkpt lat="42.25648" lon="22.84386">
        <ele>500.243357</ele>
        <time>2022-04-06T10:19:23.876Z</time>
      </trkpt>
      <trkpt lat="42.25653" lon="22.84372">
        <ele>500.005637</ele>
        <time>2022-04-06T10:19:26.872Z</time>
      </trkpt>
      <trkpt lat="42.25658" lon="22.84358">
        <ele>499.775136</ele>
        <time>2022-04-06T10:19:29.906Z</time>
      </trkpt>
      <trkpt lat="42.25663" lon="22.84344">
        <ele>499.540567</ele>
        <time>2022-04-06T10:19:32.880Z</time>
      </trkpt>
      <trkpt lat="42.25668" lon="22.84332">
        <ele>499.327353</ele>
        <time>2022-04-06T10:19:35.880Z</time>
      </trkpt>
      <trkpt lat="42.25675" lon="22.84321">
        <ele>499.102527</ele>
        <time>2022-04-06T10:19:38.884Z</time>
      </trkpt>
      <trkpt lat="42.25686" lon="22.8431">
        <ele>498.916927</ele>
        <time>2022-04-06T10:19:41.879Z</time>
      </trkpt>
      <trkpt lat="42.25697" lon="22.84305">
        <ele>498.85872</ele>
        <time>2022-04-06T10:19:43.892Z</time>
      </trkpt>
      <trkpt lat="42.2571" lon="22.843">
        <ele>498.792794</ele>
        <time>2022-04-06T10:19:45.892Z</time>
      </trkpt>
      <trkpt lat="42.25719" lon="22.84292">
        <ele>498.736602</ele>
        <time>2022-04-06T10:19:47.875Z</time>
      </trkpt>
      <trkpt lat="42.25725" lon="22.84278">
        <ele>498.677822</ele>
        <time>2022-04-06T10:19:49.895Z</time>
      </trkpt>
      <trkpt lat="42.25727" lon="22.84264">
        <ele>498.624572</ele>
        <time>2022-04-06T10:19:51.899Z</time>
      </trkpt>
      <trkpt lat="42.25729" lon="22.84251">
        <ele>498.576505</ele>
        <time>2022-04-06T10:19:53.871Z</time>
      </trkpt>
      <trkpt lat="42.2573" lon="22.84239">
        <ele>498.531361</ele>
        <time>2022-04-06T10:19:55.925Z</time>
      </trkpt>
      <trkpt lat="42.25731" lon="22.84223">
        <ele>498.471612</ele>
        <time>2022-04-06T10:19:58.895Z</time>
      </trkpt>
      <trkpt lat="42.25732" lon="22.84208">
        <ele>498.416629</ele>
        <time>2022-04-06T10:20:01.923Z</time>
      </trkpt>
      <trkpt lat="42.25734" lon="22.84194">
        <ele>498.363392</ele>
        <time>2022-04-06T10:20:04.914Z</time>
      </trkpt>
      <trkpt lat="42.25736" lon="22.8418">
        <ele>498.311053</ele>
        <time>2022-04-06T10:20:07.875Z</time>
      </trkpt>
      <trkpt lat="42.25738" lon="22.84165">
        <ele>498.256808</ele>
        <time>2022-04-06T10:20:10.875Z</time>
      </trkpt>
      <trkpt lat="42.2574" lon="22.84151">
        <ele>498.20493</ele>
        <time>2022-04-06T10:20:13.883Z</time>
      </trkpt>
      <trkpt lat="42.25743" lon="22.84137">
        <ele>498.149411</ele>
        <time>2022-04-06T10:20:16.886Z</time>
      </trkpt>
      <trkpt lat="42.25745" lon="22.84123">
        <ele>498.095562</ele>
        <time>2022-04-06T10:20:19.874Z</time>
      </trkpt>
      <trkpt lat="42.25748" lon="22.84109">
        <ele>498.091074</ele>
        <time>2022-04-06T10:20:22.883Z</time>
      </trkpt>
      <trkpt lat="42.25751" lon="22.84097">
        <ele>498.559776</ele>
        <time>2022-04-06T10:20:25.889Z</time>
      </trkpt>
      <trkpt lat="42.25754" lon="22.84085">
        <ele>499.011726</ele>
        <time>2022-04-06T10:20:28.877Z</time>
      </trkpt>
      <trkpt lat="42.25757" lon="22.84071">
        <ele>499.525987</ele>
        <time>2022-04-06T10:20:31.892Z</time>
      </trkpt>
      <trkpt lat="42.25762" lon="22.84057">
        <ele>500.09383</ele>
        <time>2022-04-06T10:20:34.886Z</time>
      </trkpt>
      <trkpt lat="42.25765" lon="22.84043">
        <ele>500.602897</ele>
        <time>2022-04-06T10:20:37.880Z</time>
      </trkpt>
      <trkpt lat="42.2577" lon="22.84029">
        <ele>501.163431</ele>
        <time>2022-04-06T10:20:40.895Z</time>
      </trkpt>
      <trkpt lat="42.25775" lon="22.84014">
        <ele>501.752535</ele>
        <time>2022-04-06T10:20:43.889Z</time>
      </trkpt>
      <trkpt lat="42.25781" lon="22.83999">
        <ele>502.353323</ele>
        <time>2022-04-06T10:20:46.894Z</time>
      </trkpt>
      <trkpt lat="42.25786" lon="22.83984">
        <ele>502.949813</ele>
        <time>2022-04-06T10:20:49.896Z</time>
      </trkpt>
      <trkpt lat="42.25792" lon="22.83968">
        <ele>503.57532</ele>
        <time>2022-04-06T10:20:52.885Z</time>
      </trkpt>
      <trkpt lat="42.25797" lon="22.83953">
        <ele>504.179335</ele>
        <time>2022-04-06T10:20:55.880Z</time>
      </trkpt>
      <trkpt lat="42.25801" lon="22.83942">
        <ele>504.618171</ele>
        <time>2022-04-06T10:20:57.879Z</time>
      </trkpt>
      <trkpt lat="42.25805" lon="22.83931">
        <ele>505.062814</ele>
        <time>2022-04-06T10:20:59.885Z</time>
      </trkpt>
      <trkpt lat="42.2581" lon="22.83914">
        <ele>505.713963</ele>
        <time>2022-04-06T10:21:02.873Z</time>
      </trkpt>
      <trkpt lat="42.25815" lon="22.83903">
        <ele>506.154199</ele>
        <time>2022-04-06T10:21:04.894Z</time>
      </trkpt>
      <trkpt lat="42.2582" lon="22.83889">
        <ele>506.739979</ele>
        <time>2022-04-06T10:21:07.870Z</time>
      </trkpt>
      <trkpt lat="42.25825" lon="22.83874">
        <ele>506.394607</ele>
        <time>2022-04-06T10:21:10.873Z</time>
      </trkpt>
      <trkpt lat="42.25829" lon="22.83863">
        <ele>506.116637</ele>
        <time>2022-04-06T10:21:12.873Z</time>
      </trkpt>
      <trkpt lat="42.25833" lon="22.83851">
        <ele>505.822085</ele>
        <time>2022-04-06T10:21:14.871Z</time>
      </trkpt>
      <trkpt lat="42.25837" lon="22.83839">
        <ele>505.52602</ele>
        <time>2022-04-06T10:21:16.876Z</time>
      </trkpt>
      <trkpt lat="42.25841" lon="22.83827">
        <ele>505.235656</ele>
        <time>2022-04-06T10:21:18.874Z</time>
      </trkpt>
      <trkpt lat="42.25845" lon="22.83815">
        <ele>504.930929</ele>
        <time>2022-04-06T10:21:20.870Z</time>
      </trkpt>
      <trkpt lat="42.25849" lon="22.83803">
        <ele>504.643776</ele>
        <time>2022-04-06T10:21:22.873Z</time>
      </trkpt>
      <trkpt lat="42.25854" lon="22.83792">
        <ele>504.355292</ele>
        <time>2022-04-06T10:21:24.860Z</time>
      </trkpt>
      <trkpt lat="42.25858" lon="22.8378">
        <ele>504.06814</ele>
        <time>2022-04-06T10:21:26.875Z</time>
      </trkpt>
      <trkpt lat="42.25862" lon="22.83769">
        <ele>503.783683</ele>
        <time>2022-04-06T10:21:28.876Z</time>
      </trkpt>
      <trkpt lat="42.25866" lon="22.83757">
        <ele>503.491832</ele>
        <time>2022-04-06T10:21:30.873Z</time>
      </trkpt>
      <trkpt lat="42.2587" lon="22.83746">
        <ele>503.205986</ele>
        <time>2022-04-06T10:21:32.901Z</time>
      </trkpt>
      <trkpt lat="42.25874" lon="22.83734">
        <ele>502.909406</ele>
        <time>2022-04-06T10:21:34.871Z</time>
      </trkpt>
      <trkpt lat="42.25878" lon="22.83721">
        <ele>502.601833</ele>
        <time>2022-04-06T10:21:36.875Z</time>
      </trkpt>
      <trkpt lat="42.25882" lon="22.8371">
        <ele>502.307819</ele>
        <time>2022-04-06T10:21:38.872Z</time>
      </trkpt>
      <trkpt lat="42.25886" lon="22.83698">
        <ele>502.021974</ele>
        <time>2022-04-06T10:21:40.871Z</time>
      </trkpt>
      <trkpt lat="42.25891" lon="22.83686">
        <ele>501.732795</ele>
        <time>2022-04-06T10:21:42.866Z</time>
      </trkpt>
      <trkpt lat="42.25895" lon="22.83675">
        <ele>501.436915</ele>
        <time>2022-04-06T10:21:44.868Z</time>
      </trkpt>
      <trkpt lat="42.25899" lon="22.83663">
        <ele>501.173788</ele>
        <time>2022-04-06T10:21:46.873Z</time>
      </trkpt>
      <trkpt lat="42.25903" lon="22.83652">
        <ele>500.933463</ele>
        <time>2022-04-06T10:21:48.874Z</time>
      </trkpt>
      <trkpt lat="42.25907" lon="22.83641">
        <ele>500.6941</ele>
        <time>2022-04-06T10:21:50.874Z</time>
      </trkpt>
      <trkpt lat="42.25911" lon="22.8363">
        <ele>500.445111</ele>
        <time>2022-04-06T10:21:52.869Z</time>
      </trkpt>
      <trkpt lat="42.25915" lon="22.83618">
        <ele>500.18496</ele>
        <time>2022-04-06T10:21:54.873Z</time>
      </trkpt>
      <trkpt lat="42.25919" lon="22.83605">
        <ele>499.916979</ele>
        <time>2022-04-06T10:21:56.872Z</time>
      </trkpt>
      <trkpt lat="42.25924" lon="22.83592">
        <ele>499.651104</ele>
        <time>2022-04-06T10:21:58.876Z</time>
      </trkpt>
      <trkpt lat="42.25928" lon="22.8358">
        <ele>499.394485</ele>
        <time>2022-04-06T10:22:00.906Z</time>
      </trkpt>
      <trkpt lat="42.25932" lon="22.83568">
        <ele>499.134676</ele>
        <time>2022-04-06T10:22:02.867Z</time>
      </trkpt>
      <trkpt lat="42.25936" lon="22.83556">
        <ele>498.870986</ele>
        <time>2022-04-06T10:22:04.875Z</time>
      </trkpt>
      <trkpt lat="42.2594" lon="22.83543">
        <ele>498.604448</ele>
        <time>2022-04-06T10:22:06.873Z</time>
      </trkpt>
      <trkpt lat="42.25944" lon="22.83531">
        <ele>498.341441</ele>
        <time>2022-04-06T10:22:08.873Z</time>
      </trkpt>
      <trkpt lat="42.25949" lon="22.83518">
        <ele>498.071555</ele>
        <time>2022-04-06T10:22:10.880Z</time>
      </trkpt>
      <trkpt lat="42.25953" lon="22.83506">
        <ele>497.806784</ele>
        <time>2022-04-06T10:22:12.873Z</time>
      </trkpt>
      <trkpt lat="42.25957" lon="22.83494">
        <ele>497.55479</ele>
        <time>2022-04-06T10:22:14.884Z</time>
      </trkpt>
      <trkpt lat="42.25961" lon="22.83483">
        <ele>497.311588</ele>
        <time>2022-04-06T10:22:16.873Z</time>
      </trkpt>
      <trkpt lat="42.25966" lon="22.83467">
        <ele>496.960913</ele>
        <time>2022-04-06T10:22:19.870Z</time>
      </trkpt>
      <trkpt lat="42.2597" lon="22.83455">
        <ele>496.721209</ele>
        <time>2022-04-06T10:22:21.876Z</time>
      </trkpt>
      <trkpt lat="42.25974" lon="22.83444">
        <ele>496.576876</ele>
        <time>2022-04-06T10:22:23.871Z</time>
      </trkpt>
      <trkpt lat="42.2598" lon="22.83429">
        <ele>496.603738</ele>
        <time>2022-04-06T10:22:26.873Z</time>
      </trkpt>
      <trkpt lat="42.25985" lon="22.83413">
        <ele>496.630118</ele>
        <time>2022-04-06T10:22:29.892Z</time>
      </trkpt>
      <trkpt lat="42.25989" lon="22.83398">
        <ele>496.655313</ele>
        <time>2022-04-06T10:22:32.883Z</time>
      </trkpt>
      <trkpt lat="42.25994" lon="22.83385">
        <ele>496.678256</ele>
        <time>2022-04-06T10:22:35.900Z</time>
      </trkpt>
      <trkpt lat="42.25998" lon="22.83372">
        <ele>496.69958</ele>
        <time>2022-04-06T10:22:38.869Z</time>
      </trkpt>
      <trkpt lat="42.26002" lon="22.83359">
        <ele>496.721434</ele>
        <time>2022-04-06T10:22:41.874Z</time>
      </trkpt>
      <trkpt lat="42.26007" lon="22.83347">
        <ele>496.742942</ele>
        <time>2022-04-06T10:22:44.873Z</time>
      </trkpt>
      <trkpt lat="42.26011" lon="22.83334">
        <ele>496.765744</ele>
        <time>2022-04-06T10:22:47.874Z</time>
      </trkpt>
      <trkpt lat="42.26016" lon="22.8332">
        <ele>496.788509</ele>
        <time>2022-04-06T10:22:50.877Z</time>
      </trkpt>
      <trkpt lat="42.26021" lon="22.83307">
        <ele>496.811915</ele>
        <time>2022-04-06T10:22:53.866Z</time>
      </trkpt>
      <trkpt lat="42.26025" lon="22.83293">
        <ele>496.835369</ele>
        <time>2022-04-06T10:22:56.873Z</time>
      </trkpt>
      <trkpt lat="42.26031" lon="22.8328">
        <ele>496.859221</ele>
        <time>2022-04-06T10:22:59.867Z</time>
      </trkpt>
      <trkpt lat="42.26036" lon="22.83266">
        <ele>496.883483</ele>
        <time>2022-04-06T10:23:02.870Z</time>
      </trkpt>
      <trkpt lat="42.26042" lon="22.83252">
        <ele>496.908629</ele>
        <time>2022-04-06T10:23:05.872Z</time>
      </trkpt>
      <trkpt lat="42.26047" lon="22.83237">
        <ele>496.93353</ele>
        <time>2022-04-06T10:23:08.880Z</time>
      </trkpt>
      <trkpt lat="42.26052" lon="22.83223">
        <ele>497.098561</ele>
        <time>2022-04-06T10:23:11.867Z</time>
      </trkpt>
      <trkpt lat="42.26056" lon="22.8321">
        <ele>497.469572</ele>
        <time>2022-04-06T10:23:14.873Z</time>
      </trkpt>
      <trkpt lat="42.26059" lon="22.83198">
        <ele>497.798993</ele>
        <time>2022-04-06T10:23:17.867Z</time>
      </trkpt>
      <trkpt lat="42.26063" lon="22.83185">
        <ele>498.145164</ele>
        <time>2022-04-06T10:23:20.865Z</time>
      </trkpt>
      <trkpt lat="42.26068" lon="22.83171">
        <ele>498.535903</ele>
        <time>2022-04-06T10:23:23.877Z</time>
      </trkpt>
      <trkpt lat="42.26073" lon="22.83156">
        <ele>498.934436</ele>
        <time>2022-04-06T10:23:26.872Z</time>
      </trkpt>
      <trkpt lat="42.26077" lon="22.83142">
        <ele>499.333932</ele>
        <time>2022-04-06T10:23:29.867Z</time>
      </trkpt>
      <trkpt lat="42.26081" lon="22.83127">
        <ele>499.721165</ele>
        <time>2022-04-06T10:23:32.887Z</time>
      </trkpt>
      <trkpt lat="42.26085" lon="22.83113">
        <ele>500.102753</ele>
        <time>2022-04-06T10:23:35.868Z</time>
      </trkpt>
      <trkpt lat="42.26089" lon="22.83099">
        <ele>500.486439</ele>
        <time>2022-04-06T10:23:38.874Z</time>
      </trkpt>
      <trkpt lat="42.26092" lon="22.83085">
        <ele>500.856088</ele>
        <time>2022-04-06T10:23:41.870Z</time>
      </trkpt>
      <trkpt lat="42.26096" lon="22.83071">
        <ele>501.23175</ele>
        <time>2022-04-06T10:23:44.876Z</time>
      </trkpt>
      <trkpt lat="42.261" lon="22.83057">
        <ele>501.615495</ele>
        <time>2022-04-06T10:23:47.877Z</time>
      </trkpt>
      <trkpt lat="42.26104" lon="22.83042">
        <ele>502.011172</ele>
        <time>2022-04-06T10:23:50.866Z</time>
      </trkpt>
      <trkpt lat="42.26108" lon="22.83028">
        <ele>502.392497</ele>
        <time>2022-04-06T10:23:53.874Z</time>
      </trkpt>
      <trkpt lat="42.26111" lon="22.83014">
        <ele>502.763454</ele>
        <time>2022-04-06T10:23:56.876Z</time>
      </trkpt>
      <trkpt lat="42.26115" lon="22.82999">
        <ele>503.064121</ele>
        <time>2022-04-06T10:23:59.895Z</time>
      </trkpt>
      <trkpt lat="42.26118" lon="22.82986">
        <ele>503.053656</ele>
        <time>2022-04-06T10:24:02.872Z</time>
      </trkpt>
      <trkpt lat="42.26121" lon="22.82973">
        <ele>503.043291</ele>
        <time>2022-04-06T10:24:05.872Z</time>
      </trkpt>
      <trkpt lat="42.26124" lon="22.8296">
        <ele>503.033278</ele>
        <time>2022-04-06T10:24:08.902Z</time>
      </trkpt>
      <trkpt lat="42.26127" lon="22.82946">
        <ele>503.022382</ele>
        <time>2022-04-06T10:24:11.871Z</time>
      </trkpt>
      <trkpt lat="42.26131" lon="22.82932">
        <ele>503.0109</ele>
        <time>2022-04-06T10:24:14.874Z</time>
      </trkpt>
      <trkpt lat="42.26134" lon="22.82918">
        <ele>502.999912</ele>
        <time>2022-04-06T10:24:17.872Z</time>
      </trkpt>
      <trkpt lat="42.26139" lon="22.82904">
        <ele>502.98818</ele>
        <time>2022-04-06T10:24:20.874Z</time>
      </trkpt>
      <trkpt lat="42.26143" lon="22.8289">
        <ele>502.976803</ele>
        <time>2022-04-06T10:24:23.880Z</time>
      </trkpt>
      <trkpt lat="42.26146" lon="22.82876">
        <ele>502.96613</ele>
        <time>2022-04-06T10:24:26.871Z</time>
      </trkpt>
      <trkpt lat="42.2615" lon="22.82863">
        <ele>502.955531</ele>
        <time>2022-04-06T10:24:29.873Z</time>
      </trkpt>
      <trkpt lat="42.26153" lon="22.8285">
        <ele>502.944967</ele>
        <time>2022-04-06T10:24:32.869Z</time>
      </trkpt>
      <trkpt lat="42.26157" lon="22.82838">
        <ele>502.934964</ele>
        <time>2022-04-06T10:24:35.868Z</time>
      </trkpt>
      <trkpt lat="42.26161" lon="22.82824">
        <ele>502.924152</ele>
        <time>2022-04-06T10:24:38.870Z</time>
      </trkpt>
      <trkpt lat="42.26165" lon="22.82811">
        <ele>502.913235</ele>
        <time>2022-04-06T10:24:41.877Z</time>
      </trkpt>
      <trkpt lat="42.26168" lon="22.82797">
        <ele>502.90253</ele>
        <time>2022-04-06T10:24:44.875Z</time>
      </trkpt>
      <trkpt lat="42.26172" lon="22.82784">
        <ele>502.89186</ele>
        <time>2022-04-06T10:24:47.872Z</time>
      </trkpt>
      <trkpt lat="42.26175" lon="22.82771">
        <ele>502.880797</ele>
        <time>2022-04-06T10:24:50.877Z</time>
      </trkpt>
      <trkpt lat="42.26178" lon="22.82758">
        <ele>502.867685</ele>
        <time>2022-04-06T10:24:53.874Z</time>
      </trkpt>
      <trkpt lat="42.26182" lon="22.82744">
        <ele>502.854044</ele>
        <time>2022-04-06T10:24:56.875Z</time>
      </trkpt>
      <trkpt lat="42.26185" lon="22.82731">
        <ele>502.840931</ele>
        <time>2022-04-06T10:24:59.876Z</time>
      </trkpt>
      <trkpt lat="42.26189" lon="22.82717">
        <ele>502.827156</ele>
        <time>2022-04-06T10:25:02.899Z</time>
      </trkpt>
      <trkpt lat="42.26192" lon="22.82703">
        <ele>502.813154</ele>
        <time>2022-04-06T10:25:05.871Z</time>
      </trkpt>
      <trkpt lat="42.26196" lon="22.8269">
        <ele>502.799735</ele>
        <time>2022-04-06T10:25:08.881Z</time>
      </trkpt>
      <trkpt lat="42.262" lon="22.82676">
        <ele>502.785822</ele>
        <time>2022-04-06T10:25:11.872Z</time>
      </trkpt>
      <trkpt lat="42.26203" lon="22.82662">
        <ele>502.771781</ele>
        <time>2022-04-06T10:25:14.865Z</time>
      </trkpt>
      <trkpt lat="42.26207" lon="22.82648">
        <ele>502.757959</ele>
        <time>2022-04-06T10:25:17.871Z</time>
      </trkpt>
      <trkpt lat="42.2621" lon="22.82635">
        <ele>502.744397</ele>
        <time>2022-04-06T10:25:20.875Z</time>
      </trkpt>
      <trkpt lat="42.26214" lon="22.82622">
        <ele>502.731243</ele>
        <time>2022-04-06T10:25:23.871Z</time>
      </trkpt>
      <trkpt lat="42.26217" lon="22.82608">
        <ele>502.717778</ele>
        <time>2022-04-06T10:25:26.872Z</time>
      </trkpt>
      <trkpt lat="42.2622" lon="22.82595">
        <ele>502.704706</ele>
        <time>2022-04-06T10:25:29.868Z</time>
      </trkpt>
      <trkpt lat="42.26224" lon="22.82582">
        <ele>502.691598</ele>
        <time>2022-04-06T10:25:32.868Z</time>
      </trkpt>
      <trkpt lat="42.26227" lon="22.8257">
        <ele>502.678979</ele>
        <time>2022-04-06T10:25:35.894Z</time>
      </trkpt>
      <trkpt lat="42.26232" lon="22.82554">
        <ele>502.66316</ele>
        <time>2022-04-06T10:25:38.873Z</time>
      </trkpt>
      <trkpt lat="42.26236" lon="22.82539">
        <ele>502.664548</ele>
        <time>2022-04-06T10:25:41.894Z</time>
      </trkpt>
      <trkpt lat="42.26239" lon="22.82524">
        <ele>502.696243</ele>
        <time>2022-04-06T10:25:44.877Z</time>
      </trkpt>
      <trkpt lat="42.26243" lon="22.82511">
        <ele>502.725313</ele>
        <time>2022-04-06T10:25:47.895Z</time>
      </trkpt>
      <trkpt lat="42.26246" lon="22.82498">
        <ele>502.75369</ele>
        <time>2022-04-06T10:25:50.872Z</time>
      </trkpt>
      <trkpt lat="42.26249" lon="22.82485">
        <ele>502.781629</ele>
        <time>2022-04-06T10:25:53.870Z</time>
      </trkpt>
      <trkpt lat="42.26253" lon="22.82471">
        <ele>502.813407</ele>
        <time>2022-04-06T10:25:56.877Z</time>
      </trkpt>
      <trkpt lat="42.26257" lon="22.82457">
        <ele>502.844546</ele>
        <time>2022-04-06T10:25:59.893Z</time>
      </trkpt>
      <trkpt lat="42.26261" lon="22.82443">
        <ele>502.876228</ele>
        <time>2022-04-06T10:26:02.874Z</time>
      </trkpt>
      <trkpt lat="42.26265" lon="22.82429">
        <ele>502.906942</ele>
        <time>2022-04-06T10:26:05.874Z</time>
      </trkpt>
      <trkpt lat="42.26269" lon="22.82414">
        <ele>502.939407</ele>
        <time>2022-04-06T10:26:08.874Z</time>
      </trkpt>
      <trkpt lat="42.26272" lon="22.82399">
        <ele>502.971605</ele>
        <time>2022-04-06T10:26:11.879Z</time>
      </trkpt>
      <trkpt lat="42.26276" lon="22.82385">
        <ele>503.003015</ele>
        <time>2022-04-06T10:26:14.875Z</time>
      </trkpt>
      <trkpt lat="42.26279" lon="22.8237">
        <ele>503.034536</ele>
        <time>2022-04-06T10:26:17.865Z</time>
      </trkpt>
      <trkpt lat="42.26282" lon="22.82355">
        <ele>503.067129</ele>
        <time>2022-04-06T10:26:20.872Z</time>
      </trkpt>
      <trkpt lat="42.26286" lon="22.82341">
        <ele>503.099217</ele>
        <time>2022-04-06T10:26:23.867Z</time>
      </trkpt>
      <trkpt lat="42.2629" lon="22.82326">
        <ele>503.130716</ele>
        <time>2022-04-06T10:26:26.871Z</time>
      </trkpt>
      <trkpt lat="42.26293" lon="22.82312">
        <ele>503.141108</ele>
        <time>2022-04-06T10:26:29.864Z</time>
      </trkpt>
      <trkpt lat="42.26297" lon="22.82298">
        <ele>503.048984</ele>
        <time>2022-04-06T10:26:32.868Z</time>
      </trkpt>
      <trkpt lat="42.263" lon="22.82284">
        <ele>502.957637</ele>
        <time>2022-04-06T10:26:35.895Z</time>
      </trkpt>
      <trkpt lat="42.26304" lon="22.82269">
        <ele>502.862863</ele>
        <time>2022-04-06T10:26:38.876Z</time>
      </trkpt>
      <trkpt lat="42.26308" lon="22.82255">
        <ele>502.773346</ele>
        <time>2022-04-06T10:26:41.901Z</time>
      </trkpt>
      <trkpt lat="42.26312" lon="22.82241">
        <ele>502.680095</ele>
        <time>2022-04-06T10:26:44.873Z</time>
      </trkpt>
      <trkpt lat="42.26315" lon="22.82226">
        <ele>502.580779</ele>
        <time>2022-04-06T10:26:47.890Z</time>
      </trkpt>
      <trkpt lat="42.2632" lon="22.82211">
        <ele>502.481371</ele>
        <time>2022-04-06T10:26:50.875Z</time>
      </trkpt>
      <trkpt lat="42.26324" lon="22.82195">
        <ele>502.376021</ele>
        <time>2022-04-06T10:26:53.900Z</time>
      </trkpt>
      <trkpt lat="42.26327" lon="22.82183">
        <ele>502.300904</ele>
        <time>2022-04-06T10:26:55.864Z</time>
      </trkpt>
      <trkpt lat="42.26332" lon="22.82166">
        <ele>502.18836</ele>
        <time>2022-04-06T10:26:58.868Z</time>
      </trkpt>
      <trkpt lat="42.26335" lon="22.82154">
        <ele>502.112556</ele>
        <time>2022-04-06T10:27:00.870Z</time>
      </trkpt>
      <trkpt lat="42.26338" lon="22.82143">
        <ele>502.036856</ele>
        <time>2022-04-06T10:27:02.867Z</time>
      </trkpt>
      <trkpt lat="42.26341" lon="22.8213">
        <ele>501.952813</ele>
        <time>2022-04-06T10:27:04.867Z</time>
      </trkpt>
      <trkpt lat="42.26345" lon="22.82117">
        <ele>501.870782</ele>
        <time>2022-04-06T10:27:06.872Z</time>
      </trkpt>
      <trkpt lat="42.26348" lon="22.82105">
        <ele>501.790743</ele>
        <time>2022-04-06T10:27:08.873Z</time>
      </trkpt>
      <trkpt lat="42.26351" lon="22.82093">
        <ele>501.712424</ele>
        <time>2022-04-06T10:27:10.865Z</time>
      </trkpt>
      <trkpt lat="42.26354" lon="22.82081">
        <ele>501.68623</ele>
        <time>2022-04-06T10:27:12.875Z</time>
      </trkpt>
      <trkpt lat="42.26357" lon="22.82069">
        <ele>501.738955</ele>
        <time>2022-04-06T10:27:14.870Z</time>
      </trkpt>
      <trkpt lat="42.2636" lon="22.82058">
        <ele>501.792032</ele>
        <time>2022-04-06T10:27:16.874Z</time>
      </trkpt>
      <trkpt lat="42.26363" lon="22.82046">
        <ele>501.84511</ele>
        <time>2022-04-06T10:27:18.879Z</time>
      </trkpt>
      <trkpt lat="42.26366" lon="22.82035">
        <ele>501.898153</ele>
        <time>2022-04-06T10:27:20.868Z</time>
      </trkpt>
      <trkpt lat="42.26368" lon="22.82023">
        <ele>501.950818</ele>
        <time>2022-04-06T10:27:22.883Z</time>
      </trkpt>
      <trkpt lat="42.26371" lon="22.82012">
        <ele>502.003716</ele>
        <time>2022-04-06T10:27:24.874Z</time>
      </trkpt>
      <trkpt lat="42.26375" lon="22.81995">
        <ele>502.081384</ele>
        <time>2022-04-06T10:27:27.871Z</time>
      </trkpt>
      <trkpt lat="42.26378" lon="22.81983">
        <ele>502.135059</ele>
        <time>2022-04-06T10:27:29.861Z</time>
      </trkpt>
      <trkpt lat="42.26381" lon="22.81971">
        <ele>502.188505</ele>
        <time>2022-04-06T10:27:31.868Z</time>
      </trkpt>
      <trkpt lat="42.26384" lon="22.8196">
        <ele>502.243379</ele>
        <time>2022-04-06T10:27:33.866Z</time>
      </trkpt>
      <trkpt lat="42.26387" lon="22.81948">
        <ele>502.296833</ele>
        <time>2022-04-06T10:27:35.901Z</time>
      </trkpt>
      <trkpt lat="42.26392" lon="22.81931">
        <ele>502.376195</ele>
        <time>2022-04-06T10:27:38.876Z</time>
      </trkpt>
      <trkpt lat="42.26396" lon="22.8192">
        <ele>502.429483</ele>
        <time>2022-04-06T10:27:40.865Z</time>
      </trkpt>
      <trkpt lat="42.264" lon="22.81903">
        <ele>502.505777</ele>
        <time>2022-04-06T10:27:43.867Z</time>
      </trkpt>
      <trkpt lat="42.26405" lon="22.81887">
        <ele>502.582284</ele>
        <time>2022-04-06T10:27:46.873Z</time>
      </trkpt>
      <trkpt lat="42.26409" lon="22.8187">
        <ele>502.658188</ele>
        <time>2022-04-06T10:27:49.871Z</time>
      </trkpt>
      <trkpt lat="42.26413" lon="22.81854">
        <ele>502.713227</ele>
        <time>2022-04-06T10:27:52.878Z</time>
      </trkpt>
      <trkpt lat="42.26416" lon="22.81838">
        <ele>502.631281</ele>
        <time>2022-04-06T10:27:55.871Z</time>
      </trkpt>
      <trkpt lat="42.2642" lon="22.81822">
        <ele>502.546724</ele>
        <time>2022-04-06T10:27:58.867Z</time>
      </trkpt>
      <trkpt lat="42.26425" lon="22.81806">
        <ele>502.46301</ele>
        <time>2022-04-06T10:28:01.870Z</time>
      </trkpt>
      <trkpt lat="42.26429" lon="22.8179">
        <ele>502.381132</ele>
        <time>2022-04-06T10:28:04.873Z</time>
      </trkpt>
      <trkpt lat="42.26433" lon="22.81775">
        <ele>502.300119</ele>
        <time>2022-04-06T10:28:07.875Z</time>
      </trkpt>
      <trkpt lat="42.26436" lon="22.81759">
        <ele>502.221177</ele>
        <time>2022-04-06T10:28:10.872Z</time>
      </trkpt>
      <trkpt lat="42.26441" lon="22.81743">
        <ele>502.13699</ele>
        <time>2022-04-06T10:28:13.865Z</time>
      </trkpt>
      <trkpt lat="42.26445" lon="22.81727">
        <ele>502.054875</ele>
        <time>2022-04-06T10:28:16.866Z</time>
      </trkpt>
      <trkpt lat="42.26449" lon="22.81711">
        <ele>501.972296</ele>
        <time>2022-04-06T10:28:19.876Z</time>
      </trkpt>
      <trkpt lat="42.26454" lon="22.81695">
        <ele>501.887372</ele>
        <time>2022-04-06T10:28:22.870Z</time>
      </trkpt>
      <trkpt lat="42.26458" lon="22.81679">
        <ele>501.803402</ele>
        <time>2022-04-06T10:28:25.864Z</time>
      </trkpt>
      <trkpt lat="42.26461" lon="22.81664">
        <ele>501.724772</ele>
        <time>2022-04-06T10:28:28.875Z</time>
      </trkpt>
      <trkpt lat="42.26465" lon="22.81648">
        <ele>501.643692</ele>
        <time>2022-04-06T10:28:31.867Z</time>
      </trkpt>
      <trkpt lat="42.26469" lon="22.81633">
        <ele>501.565718</ele>
        <time>2022-04-06T10:28:34.867Z</time>
      </trkpt>
      <trkpt lat="42.26473" lon="22.81618">
        <ele>501.703529</ele>
        <time>2022-04-06T10:28:37.872Z</time>
      </trkpt>
      <trkpt lat="42.26477" lon="22.81602">
        <ele>502.023066</ele>
        <time>2022-04-06T10:28:40.867Z</time>
      </trkpt>
      <trkpt lat="42.26481" lon="22.81587">
        <ele>502.34798</ele>
        <time>2022-04-06T10:28:43.867Z</time>
      </trkpt>
      <trkpt lat="42.26485" lon="22.81571">
        <ele>502.672893</ele>
        <time>2022-04-06T10:28:46.879Z</time>
      </trkpt>
      <trkpt lat="42.26489" lon="22.81555">
        <ele>502.995976</ele>
        <time>2022-04-06T10:28:49.870Z</time>
      </trkpt>
      <trkpt lat="42.26493" lon="22.8154">
        <ele>503.31284</ele>
        <time>2022-04-06T10:28:52.863Z</time>
      </trkpt>
      <trkpt lat="42.26497" lon="22.81524">
        <ele>503.625197</ele>
        <time>2022-04-06T10:28:55.862Z</time>
      </trkpt>
      <trkpt lat="42.26501" lon="22.81509">
        <ele>503.939169</ele>
        <time>2022-04-06T10:28:58.872Z</time>
      </trkpt>
      <trkpt lat="42.26505" lon="22.81494">
        <ele>504.25136</ele>
        <time>2022-04-06T10:29:01.867Z</time>
      </trkpt>
      <trkpt lat="42.26509" lon="22.81479">
        <ele>504.558942</ele>
        <time>2022-04-06T10:29:04.877Z</time>
      </trkpt>
      <trkpt lat="42.26513" lon="22.81463">
        <ele>504.889285</ele>
        <time>2022-04-06T10:29:07.873Z</time>
      </trkpt>
      <trkpt lat="42.26517" lon="22.81448">
        <ele>505.206148</ele>
        <time>2022-04-06T10:29:10.876Z</time>
      </trkpt>
      <trkpt lat="42.26521" lon="22.81433">
        <ele>505.512157</ele>
        <time>2022-04-06T10:29:13.876Z</time>
      </trkpt>
      <trkpt lat="42.26525" lon="22.81418">
        <ele>505.807902</ele>
        <time>2022-04-06T10:29:16.871Z</time>
      </trkpt>
      <trkpt lat="42.26528" lon="22.81403">
        <ele>506.119453</ele>
        <time>2022-04-06T10:29:19.870Z</time>
      </trkpt>
      <trkpt lat="42.26532" lon="22.81388">
        <ele>506.247322</ele>
        <time>2022-04-06T10:29:22.861Z</time>
      </trkpt>
      <trkpt lat="42.26535" lon="22.81373">
        <ele>506.248103</ele>
        <time>2022-04-06T10:29:25.869Z</time>
      </trkpt>
      <trkpt lat="42.26539" lon="22.81358">
        <ele>506.248885</ele>
        <time>2022-04-06T10:29:28.871Z</time>
      </trkpt>
      <trkpt lat="42.26542" lon="22.81343">
        <ele>506.249643</ele>
        <time>2022-04-06T10:29:31.865Z</time>
      </trkpt>
      <trkpt lat="42.26546" lon="22.81329">
        <ele>506.250391</ele>
        <time>2022-04-06T10:29:34.871Z</time>
      </trkpt>
      <trkpt lat="42.2655" lon="22.81314">
        <ele>506.251187</ele>
        <time>2022-04-06T10:29:37.866Z</time>
      </trkpt>
      <trkpt lat="42.26554" lon="22.81299">
        <ele>506.25199</ele>
        <time>2022-04-06T10:29:40.867Z</time>
      </trkpt>
      <trkpt lat="42.26558" lon="22.81284">
        <ele>506.252773</ele>
        <time>2022-04-06T10:29:43.867Z</time>
      </trkpt>
      <trkpt lat="42.26562" lon="22.81269">
        <ele>506.253591</ele>
        <time>2022-04-06T10:29:46.872Z</time>
      </trkpt>
      <trkpt lat="42.26566" lon="22.81254">
        <ele>506.254397</ele>
        <time>2022-04-06T10:29:49.874Z</time>
      </trkpt>
      <trkpt lat="42.26569" lon="22.81238">
        <ele>506.255221</ele>
        <time>2022-04-06T10:29:52.867Z</time>
      </trkpt>
      <trkpt lat="42.26573" lon="22.81224">
        <ele>506.255985</ele>
        <time>2022-04-06T10:29:55.873Z</time>
      </trkpt>
      <trkpt lat="42.26577" lon="22.81208">
        <ele>506.256792</ele>
        <time>2022-04-06T10:29:58.884Z</time>
      </trkpt>
      <trkpt lat="42.26581" lon="22.81193">
        <ele>506.257614</ele>
        <time>2022-04-06T10:30:01.874Z</time>
      </trkpt>
      <trkpt lat="42.26585" lon="22.81177">
        <ele>506.25847</ele>
        <time>2022-04-06T10:30:04.867Z</time>
      </trkpt>
      <trkpt lat="42.26589" lon="22.8116">
        <ele>506.231702</ele>
        <time>2022-04-06T10:30:07.871Z</time>
      </trkpt>
      <trkpt lat="42.26593" lon="22.81143">
        <ele>506.162247</ele>
        <time>2022-04-06T10:30:10.873Z</time>
      </trkpt>
      <trkpt lat="42.26596" lon="22.81132">
        <ele>506.113868</ele>
        <time>2022-04-06T10:30:12.877Z</time>
      </trkpt>
      <trkpt lat="42.26599" lon="22.8112">
        <ele>506.063661</ele>
        <time>2022-04-06T10:30:14.875Z</time>
      </trkpt>
      <trkpt lat="42.26602" lon="22.81108">
        <ele>506.014782</ele>
        <time>2022-04-06T10:30:16.871Z</time>
      </trkpt>
      <trkpt lat="42.26605" lon="22.81096">
        <ele>505.965172</ele>
        <time>2022-04-06T10:30:18.860Z</time>
      </trkpt>
      <trkpt lat="42.26608" lon="22.81084">
        <ele>505.914214</ele>
        <time>2022-04-06T10:30:20.869Z</time>
      </trkpt>
      <trkpt lat="42.26611" lon="22.81071">
        <ele>505.862374</ele>
        <time>2022-04-06T10:30:22.873Z</time>
      </trkpt>
      <trkpt lat="42.26614" lon="22.81059">
        <ele>505.809613</ele>
        <time>2022-04-06T10:30:24.875Z</time>
      </trkpt>
      <trkpt lat="42.26617" lon="22.81046">
        <ele>505.757224</ele>
        <time>2022-04-06T10:30:26.872Z</time>
      </trkpt>
      <trkpt lat="42.26621" lon="22.81034">
        <ele>505.706502</ele>
        <time>2022-04-06T10:30:28.871Z</time>
      </trkpt>
      <trkpt lat="42.26624" lon="22.81022">
        <ele>505.653916</ele>
        <time>2022-04-06T10:30:30.872Z</time>
      </trkpt>
      <trkpt lat="42.26628" lon="22.81009">
        <ele>505.600207</ele>
        <time>2022-04-06T10:30:32.872Z</time>
      </trkpt>
      <trkpt lat="42.26631" lon="22.80996">
        <ele>505.546874</ele>
        <time>2022-04-06T10:30:34.872Z</time>
      </trkpt>
      <trkpt lat="42.26634" lon="22.80984">
        <ele>505.496328</ele>
        <time>2022-04-06T10:30:36.871Z</time>
      </trkpt>
      <trkpt lat="42.26637" lon="22.80972">
        <ele>505.447996</ele>
        <time>2022-04-06T10:30:38.866Z</time>
      </trkpt>
      <trkpt lat="42.26641" lon="22.80956">
        <ele>505.37857</ele>
        <time>2022-04-06T10:30:41.890Z</time>
      </trkpt>
      <trkpt lat="42.26645" lon="22.80939">
        <ele>505.307558</ele>
        <time>2022-04-06T10:30:44.924Z</time>
      </trkpt>
      <trkpt lat="42.26648" lon="22.80927">
        <ele>505.508421</ele>
        <time>2022-04-06T10:30:46.864Z</time>
      </trkpt>
      <trkpt lat="42.26652" lon="22.8091">
        <ele>505.863853</ele>
        <time>2022-04-06T10:30:49.874Z</time>
      </trkpt>
      <trkpt lat="42.26657" lon="22.80893">
        <ele>506.2129</ele>
        <time>2022-04-06T10:30:52.867Z</time>
      </trkpt>
      <trkpt lat="42.26662" lon="22.80877">
        <ele>506.560007</ele>
        <time>2022-04-06T10:30:55.866Z</time>
      </trkpt>
      <trkpt lat="42.26666" lon="22.8086">
        <ele>506.897394</ele>
        <time>2022-04-06T10:30:58.867Z</time>
      </trkpt>
      <trkpt lat="42.26669" lon="22.80849">
        <ele>507.137124</ele>
        <time>2022-04-06T10:31:00.871Z</time>
      </trkpt>
      <trkpt lat="42.26674" lon="22.80832">
        <ele>507.491644</ele>
        <time>2022-04-06T10:31:03.866Z</time>
      </trkpt>
      <trkpt lat="42.26677" lon="22.80815">
        <ele>507.841806</ele>
        <time>2022-04-06T10:31:06.911Z</time>
      </trkpt>
      <trkpt lat="42.26678" lon="22.80803">
        <ele>508.079892</ele>
        <time>2022-04-06T10:31:08.875Z</time>
      </trkpt>
      <trkpt lat="42.26679" lon="22.8079">
        <ele>508.322824</ele>
        <time>2022-04-06T10:31:10.872Z</time>
      </trkpt>
      <trkpt lat="42.2668" lon="22.80773">
        <ele>508.669005</ele>
        <time>2022-04-06T10:31:13.865Z</time>
      </trkpt>
      <trkpt lat="42.26682" lon="22.80756">
        <ele>508.999196</ele>
        <time>2022-04-06T10:31:16.874Z</time>
      </trkpt>
      <trkpt lat="42.26678" lon="22.8074">
        <ele>509.336188</ele>
        <time>2022-04-06T10:31:19.865Z</time>
      </trkpt>
      <trkpt lat="42.2667" lon="22.80733">
        <ele>509.579094</ele>
        <time>2022-04-06T10:31:21.864Z</time>
      </trkpt>
      <trkpt lat="42.26661" lon="22.80726">
        <ele>509.867705</ele>
        <time>2022-04-06T10:31:24.876Z</time>
      </trkpt>
      <trkpt lat="42.26652" lon="22.80718">
        <ele>510.038397</ele>
        <time>2022-04-06T10:31:27.870Z</time>
      </trkpt>
      <trkpt lat="42.26643" lon="22.8071">
        <ele>509.919158</ele>
        <time>2022-04-06T10:31:30.873Z</time>
      </trkpt>
      <trkpt lat="42.26635" lon="22.80701">
        <ele>509.799424</ele>
        <time>2022-04-06T10:31:33.867Z</time>
      </trkpt>
      <trkpt lat="42.26626" lon="22.80693">
        <ele>509.678307</ele>
        <time>2022-04-06T10:31:36.868Z</time>
      </trkpt>
      <trkpt lat="42.26617" lon="22.80685">
        <ele>509.560388</ele>
        <time>2022-04-06T10:31:39.866Z</time>
      </trkpt>
      <trkpt lat="42.26607" lon="22.80676">
        <ele>509.422602</ele>
        <time>2022-04-06T10:31:42.873Z</time>
      </trkpt>
      <trkpt lat="42.26597" lon="22.80667">
        <ele>509.290363</ele>
        <time>2022-04-06T10:31:45.891Z</time>
      </trkpt>
      <trkpt lat="42.26587" lon="22.80659">
        <ele>509.163233</ele>
        <time>2022-04-06T10:31:48.875Z</time>
      </trkpt>
      <trkpt lat="42.26578" lon="22.8065">
        <ele>509.032405</ele>
        <time>2022-04-06T10:31:51.896Z</time>
      </trkpt>
      <trkpt lat="42.26568" lon="22.80641">
        <ele>508.899226</ele>
        <time>2022-04-06T10:31:54.867Z</time>
      </trkpt>
      <trkpt lat="42.26558" lon="22.80633">
        <ele>508.777523</ele>
        <time>2022-04-06T10:31:57.898Z</time>
      </trkpt>
      <trkpt lat="42.2655" lon="22.80626">
        <ele>508.667099</ele>
        <time>2022-04-06T10:32:00.868Z</time>
      </trkpt>
      <trkpt lat="42.26541" lon="22.80618">
        <ele>508.544592</ele>
        <time>2022-04-06T10:32:03.894Z</time>
      </trkpt>
      <trkpt lat="42.26531" lon="22.80609">
        <ele>508.413764</ele>
        <time>2022-04-06T10:32:06.888Z</time>
      </trkpt>
      <trkpt lat="42.26522" lon="22.80601">
        <ele>508.288923</ele>
        <time>2022-04-06T10:32:09.892Z</time>
      </trkpt>
      <trkpt lat="42.26513" lon="22.80592">
        <ele>508.159368</ele>
        <time>2022-04-06T10:32:12.867Z</time>
      </trkpt>
      <trkpt lat="42.26503" lon="22.80582">
        <ele>508.071236</ele>
        <time>2022-04-06T10:32:15.897Z</time>
      </trkpt>
      <trkpt lat="42.26495" lon="22.80574">
        <ele>508.130564</ele>
        <time>2022-04-06T10:32:18.875Z</time>
      </trkpt>
      <trkpt lat="42.26486" lon="22.80566">
        <ele>508.188726</ele>
        <time>2022-04-06T10:32:21.890Z</time>
      </trkpt>
      <trkpt lat="42.26478" lon="22.80558">
        <ele>508.244441</ele>
        <time>2022-04-06T10:32:24.873Z</time>
      </trkpt>
      <trkpt lat="42.26471" lon="22.8055">
        <ele>508.297528</ele>
        <time>2022-04-06T10:32:27.901Z</time>
      </trkpt>
      <trkpt lat="42.26464" lon="22.80542">
        <ele>508.349737</ele>
        <time>2022-04-06T10:32:30.873Z</time>
      </trkpt>
      <trkpt lat="42.26457" lon="22.80534">
        <ele>508.403256</ele>
        <time>2022-04-06T10:32:33.864Z</time>
      </trkpt>
      <trkpt lat="42.26448" lon="22.80525">
        <ele>508.465539</ele>
        <time>2022-04-06T10:32:37.868Z</time>
      </trkpt>
      <trkpt lat="42.26439" lon="22.80515">
        <ele>508.531467</ele>
        <time>2022-04-06T10:32:41.876Z</time>
      </trkpt>
      <trkpt lat="42.26431" lon="22.80507">
        <ele>508.588754</ele>
        <time>2022-04-06T10:32:45.870Z</time>
      </trkpt>
      <trkpt lat="42.26422" lon="22.80498">
        <ele>508.649013</ele>
        <time>2022-04-06T10:32:49.892Z</time>
      </trkpt>
      <trkpt lat="42.26413" lon="22.80488">
        <ele>508.715851</ele>
        <time>2022-04-06T10:32:53.872Z</time>
      </trkpt>
      <trkpt lat="42.26404" lon="22.80478">
        <ele>508.782242</ele>
        <time>2022-04-06T10:32:57.862Z</time>
      </trkpt>
      <trkpt lat="42.26397" lon="22.8047">
        <ele>508.833308</ele>
        <time>2022-04-06T10:33:00.871Z</time>
      </trkpt>
      <trkpt lat="42.26388" lon="22.80461">
        <ele>508.89508</ele>
        <time>2022-04-06T10:33:04.879Z</time>
      </trkpt>
      <trkpt lat="42.26379" lon="22.80452">
        <ele>508.956219</ele>
        <time>2022-04-06T10:33:08.883Z</time>
      </trkpt>
      <trkpt lat="42.26371" lon="22.80444">
        <ele>509.015099</ele>
        <time>2022-04-06T10:33:12.867Z</time>
      </trkpt>
      <trkpt lat="42.26363" lon="22.80435">
        <ele>509.081748</ele>
        <time>2022-04-06T10:33:16.872Z</time>
      </trkpt>
      <trkpt lat="42.26355" lon="22.80425">
        <ele>509.292586</ele>
        <time>2022-04-06T10:33:20.866Z</time>
      </trkpt>
      <trkpt lat="42.26346" lon="22.80416">
        <ele>509.504091</ele>
        <time>2022-04-06T10:33:24.895Z</time>
      </trkpt>
      <trkpt lat="42.26338" lon="22.80407">
        <ele>509.702118</ele>
        <time>2022-04-06T10:33:28.874Z</time>
      </trkpt>
      <trkpt lat="42.26329" lon="22.80399">
        <ele>509.905813</ele>
        <time>2022-04-06T10:33:32.865Z</time>
      </trkpt>
      <trkpt lat="42.26321" lon="22.8039">
        <ele>510.110167</ele>
        <time>2022-04-06T10:33:36.874Z</time>
      </trkpt>
      <trkpt lat="42.26313" lon="22.80381">
        <ele>510.309968</ele>
        <time>2022-04-06T10:33:40.876Z</time>
      </trkpt>
      <trkpt lat="42.26305" lon="22.80373">
        <ele>510.491343</ele>
        <time>2022-04-06T10:33:44.873Z</time>
      </trkpt>
      <trkpt lat="42.26298" lon="22.80367">
        <ele>510.666094</ele>
        <time>2022-04-06T10:33:48.870Z</time>
      </trkpt>
      <trkpt lat="42.26289" lon="22.80358">
        <ele>510.877444</ele>
        <time>2022-04-06T10:33:52.863Z</time>
      </trkpt>
      <trkpt lat="42.2628" lon="22.80348">
        <ele>511.0978</ele>
        <time>2022-04-06T10:33:56.876Z</time>
      </trkpt>
      <trkpt lat="42.26272" lon="22.80339">
        <ele>511.299677</ele>
        <time>2022-04-06T10:34:00.875Z</time>
      </trkpt>
      <trkpt lat="42.26263" lon="22.8033">
        <ele>511.502507</ele>
        <time>2022-04-06T10:34:04.874Z</time>
      </trkpt>
      <trkpt lat="42.26256" lon="22.80321">
        <ele>511.694316</ele>
        <time>2022-04-06T10:34:08.868Z</time>
      </trkpt>
      <trkpt lat="42.26248" lon="22.80313">
        <ele>511.8935</ele>
        <time>2022-04-06T10:34:12.883Z</time>
      </trkpt>
      <trkpt lat="42.2624" lon="22.80304">
        <ele>512.082932</ele>
        <time>2022-04-06T10:34:16.888Z</time>
      </trkpt>
      <trkpt lat="42.26232" lon="22.80294">
        <ele>512.290479</ele>
        <time>2022-04-06T10:34:20.867Z</time>
      </trkpt>
      <trkpt lat="42.26223" lon="22.80285">
        <ele>512.499814</ele>
        <time>2022-04-06T10:34:24.878Z</time>
      </trkpt>
      <trkpt lat="42.26215" lon="22.80277">
        <ele>513.061758</ele>
        <time>2022-04-06T10:34:28.879Z</time>
      </trkpt>
      <trkpt lat="42.26205" lon="22.80268">
        <ele>513.69656</ele>
        <time>2022-04-06T10:34:32.879Z</time>
      </trkpt>
      <trkpt lat="42.26198" lon="22.8026">
        <ele>514.195769</ele>
        <time>2022-04-06T10:34:35.863Z</time>
      </trkpt>
      <trkpt lat="42.26189" lon="22.8025">
        <ele>514.866163</ele>
        <time>2022-04-06T10:34:39.876Z</time>
      </trkpt>
      <trkpt lat="42.2618" lon="22.80242">
        <ele>515.452821</ele>
        <time>2022-04-06T10:34:43.875Z</time>
      </trkpt>
      <trkpt lat="42.26172" lon="22.80233">
        <ele>515.996846</ele>
        <time>2022-04-06T10:34:47.872Z</time>
      </trkpt>
      <trkpt lat="42.26165" lon="22.80224">
        <ele>516.554603</ele>
        <time>2022-04-06T10:34:51.874Z</time>
      </trkpt>
      <trkpt lat="42.26158" lon="22.80216">
        <ele>517.06756</ele>
        <time>2022-04-06T10:34:55.895Z</time>
      </trkpt>
      <trkpt lat="42.26149" lon="22.80207">
        <ele>517.64755</ele>
        <time>2022-04-06T10:35:00.879Z</time>
      </trkpt>
      <trkpt lat="42.26142" lon="22.80198">
        <ele>518.224351</ele>
        <time>2022-04-06T10:35:06.867Z</time>
      </trkpt>
      <trkpt lat="42.26136" lon="22.80189">
        <ele>518.719022</ele>
        <time>2022-04-06T10:35:12.871Z</time>
      </trkpt>
      <trkpt lat="42.26128" lon="22.80181">
        <ele>519.24316</ele>
        <time>2022-04-06T10:35:18.871Z</time>
      </trkpt>
      <trkpt lat="42.2612" lon="22.80175">
        <ele>519.748431</ele>
        <time>2022-04-06T10:35:23.868Z</time>
      </trkpt>
      <trkpt lat="42.26112" lon="22.80167">
        <ele>520.291656</ele>
        <time>2022-04-06T10:35:28.871Z</time>
      </trkpt>
      <trkpt lat="42.26104" lon="22.80159">
        <ele>520.855355</ele>
        <time>2022-04-06T10:35:33.872Z</time>
      </trkpt>
      <trkpt lat="42.26097" lon="22.80152">
        <ele>521.363193</ele>
        <time>2022-04-06T10:35:38.874Z</time>
      </trkpt>
      <trkpt lat="42.2609" lon="22.80143">
        <ele>521.871406</ele>
        <time>2022-04-06T10:35:43.868Z</time>
      </trkpt>
      <trkpt lat="42.26083" lon="22.80136">
        <ele>522.376129</ele>
        <time>2022-04-06T10:35:48.874Z</time>
      </trkpt>
      <trkpt lat="42.26075" lon="22.80128">
        <ele>522.476262</ele>
        <time>2022-04-06T10:35:53.890Z</time>
      </trkpt>
      <trkpt lat="42.26067" lon="22.8012">
        <ele>522.488586</ele>
        <time>2022-04-06T10:35:58.863Z</time>
      </trkpt>
      <trkpt lat="42.2606" lon="22.80113">
        <ele>522.500054</ele>
        <time>2022-04-06T10:36:03.875Z</time>
      </trkpt>
      <trkpt lat="42.26052" lon="22.80104">
        <ele>522.51273</ele>
        <time>2022-04-06T10:36:08.871Z</time>
      </trkpt>
      <trkpt lat="42.26044" lon="22.80096">
        <ele>522.525629</ele>
        <time>2022-04-06T10:36:13.861Z</time>
      </trkpt>
      <trkpt lat="42.26035" lon="22.80087">
        <ele>522.539317</ele>
        <time>2022-04-06T10:36:18.876Z</time>
      </trkpt>
      <trkpt lat="42.26027" lon="22.80079">
        <ele>522.552776</ele>
        <time>2022-04-06T10:36:23.893Z</time>
      </trkpt>
      <trkpt lat="42.26019" lon="22.8007">
        <ele>522.565881</ele>
        <time>2022-04-06T10:36:28.872Z</time>
      </trkpt>
      <trkpt lat="42.26011" lon="22.80061">
        <ele>522.578679</ele>
        <time>2022-04-06T10:36:32.875Z</time>
      </trkpt>
      <trkpt lat="42.26002" lon="22.80051">
        <ele>522.593952</ele>
        <time>2022-04-06T10:36:36.868Z</time>
      </trkpt>
      <trkpt lat="42.25994" lon="22.80042">
        <ele>522.606569</ele>
        <time>2022-04-06T10:36:39.873Z</time>
      </trkpt>
      <trkpt lat="42.25986" lon="22.80033">
        <ele>522.620586</ele>
        <time>2022-04-06T10:36:42.868Z</time>
      </trkpt>
      <trkpt lat="42.25977" lon="22.80025">
        <ele>522.633257</ele>
        <time>2022-04-06T10:36:45.866Z</time>
      </trkpt>
      <trkpt lat="42.25969" lon="22.80017">
        <ele>522.646777</ele>
        <time>2022-04-06T10:36:48.872Z</time>
      </trkpt>
      <trkpt lat="42.25962" lon="22.80009">
        <ele>522.658156</ele>
        <time>2022-04-06T10:36:51.870Z</time>
      </trkpt>
      <trkpt lat="42.25954" lon="22.79999">
        <ele>522.671827</ele>
        <time>2022-04-06T10:36:55.876Z</time>
      </trkpt>
      <trkpt lat="42.25946" lon="22.7999">
        <ele>522.684995</ele>
        <time>2022-04-06T10:36:59.899Z</time>
      </trkpt>
      <trkpt lat="42.25938" lon="22.79979">
        <ele>522.751244</ele>
        <time>2022-04-06T10:37:03.864Z</time>
      </trkpt>
      <trkpt lat="42.25932" lon="22.79971">
        <ele>522.87878</ele>
        <time>2022-04-06T10:37:06.869Z</time>
      </trkpt>
      <trkpt lat="42.25925" lon="22.79959">
        <ele>523.031607</ele>
        <time>2022-04-06T10:37:10.873Z</time>
      </trkpt>
      <trkpt lat="42.25918" lon="22.7995">
        <ele>523.166314</ele>
        <time>2022-04-06T10:37:13.874Z</time>
      </trkpt>
      <trkpt lat="42.25909" lon="22.7994">
        <ele>523.333639</ele>
        <time>2022-04-06T10:37:17.899Z</time>
      </trkpt>
      <trkpt lat="42.25901" lon="22.79929">
        <ele>523.494542</ele>
        <time>2022-04-06T10:37:21.867Z</time>
      </trkpt>
      <trkpt lat="42.25893" lon="22.79918">
        <ele>523.655288</ele>
        <time>2022-04-06T10:37:25.863Z</time>
      </trkpt>
      <trkpt lat="42.25885" lon="22.79907">
        <ele>523.812807</ele>
        <time>2022-04-06T10:37:29.894Z</time>
      </trkpt>
      <trkpt lat="42.25877" lon="22.79897">
        <ele>523.958531</ele>
        <time>2022-04-06T10:37:33.867Z</time>
      </trkpt>
      <trkpt lat="42.2587" lon="22.79887">
        <ele>524.112046</ele>
        <time>2022-04-06T10:37:37.861Z</time>
      </trkpt>
      <trkpt lat="42.25863" lon="22.79877">
        <ele>524.253921</ele>
        <time>2022-04-06T10:37:41.897Z</time>
      </trkpt>
      <trkpt lat="42.25856" lon="22.79868">
        <ele>524.390362</ele>
        <time>2022-04-06T10:37:45.867Z</time>
      </trkpt>
      <trkpt lat="42.25849" lon="22.79858">
        <ele>524.534947</ele>
        <time>2022-04-06T10:37:49.867Z</time>
      </trkpt>
      <trkpt lat="42.25842" lon="22.79849">
        <ele>524.671388</ele>
        <time>2022-04-06T10:37:53.894Z</time>
      </trkpt>
      <trkpt lat="42.25834" lon="22.79839">
        <ele>524.818854</ele>
        <time>2022-04-06T10:37:58.871Z</time>
      </trkpt>
      <trkpt lat="42.25826" lon="22.7983">
        <ele>524.968074</ele>
        <time>2022-04-06T10:38:03.872Z</time>
      </trkpt>
      <trkpt lat="42.2582" lon="22.79821">
        <ele>525.0952</ele>
        <time>2022-04-06T10:38:07.868Z</time>
      </trkpt>
      <trkpt lat="42.25814" lon="22.79812">
        <ele>525.222243</ele>
        <time>2022-04-06T10:38:11.889Z</time>
      </trkpt>
      <trkpt lat="42.25806" lon="22.79802">
        <ele>525.403909</ele>
        <time>2022-04-06T10:38:16.867Z</time>
      </trkpt>
      <trkpt lat="42.25799" lon="22.79793">
        <ele>525.56088</ele>
        <time>2022-04-06T10:38:20.867Z</time>
      </trkpt>
      <trkpt lat="42.25793" lon="22.79785">
        <ele>525.711303</ele>
        <time>2022-04-06T10:38:24.872Z</time>
      </trkpt>
      <trkpt lat="42.25786" lon="22.79775">
        <ele>525.878485</ele>
        <time>2022-04-06T10:38:28.864Z</time>
      </trkpt>
      <trkpt lat="42.25778" lon="22.79765">
        <ele>526.060407</ele>
        <time>2022-04-06T10:38:32.871Z</time>
      </trkpt>
      <trkpt lat="42.2577" lon="22.79754">
        <ele>526.244662</ele>
        <time>2022-04-06T10:38:36.870Z</time>
      </trkpt>
      <trkpt lat="42.25763" lon="22.79744">
        <ele>526.423681</ele>
        <time>2022-04-06T10:38:40.882Z</time>
      </trkpt>
      <trkpt lat="42.25754" lon="22.79733">
        <ele>526.62547</ele>
        <time>2022-04-06T10:38:44.875Z</time>
      </trkpt>
      <trkpt lat="42.25747" lon="22.79724">
        <ele>526.782646</ele>
        <time>2022-04-06T10:38:47.895Z</time>
      </trkpt>
      <trkpt lat="42.25741" lon="22.79715">
        <ele>526.942487</ele>
        <time>2022-04-06T10:38:50.870Z</time>
      </trkpt>
      <trkpt lat="42.25734" lon="22.79706">
        <ele>527.098246</ele>
        <time>2022-04-06T10:38:53.896Z</time>
      </trkpt>
      <trkpt lat="42.25727" lon="22.79697">
        <ele>527.253522</ele>
        <time>2022-04-06T10:38:56.868Z</time>
      </trkpt>
      <trkpt lat="42.25719" lon="22.79687">
        <ele>527.441017</ele>
        <time>2022-04-06T10:39:00.872Z</time>
      </trkpt>
      <trkpt lat="42.25712" lon="22.79676">
        <ele>527.627052</ele>
        <time>2022-04-06T10:39:04.879Z</time>
      </trkpt>
      <trkpt lat="42.25704" lon="22.79665">
        <ele>527.815204</ele>
        <time>2022-04-06T10:39:08.863Z</time>
      </trkpt>
      <trkpt lat="42.25695" lon="22.79654">
        <ele>528.010081</ele>
        <time>2022-04-06T10:39:12.881Z</time>
      </trkpt>
      <trkpt lat="42.25687" lon="22.79643">
        <ele>528.207582</ele>
        <time>2022-04-06T10:39:16.874Z</time>
      </trkpt>
      <trkpt lat="42.25679" lon="22.79632">
        <ele>528.512649</ele>
        <time>2022-04-06T10:39:20.873Z</time>
      </trkpt>
      <trkpt lat="42.25674" lon="22.79622">
        <ele>528.782627</ele>
        <time>2022-04-06T10:39:24.874Z</time>
      </trkpt>
      <trkpt lat="42.25666" lon="22.79614">
        <ele>529.05458</ele>
        <time>2022-04-06T10:39:28.870Z</time>
      </trkpt>
      <trkpt lat="42.2566" lon="22.79605">
        <ele>529.331648</ele>
        <time>2022-04-06T10:39:32.879Z</time>
      </trkpt>
      <trkpt lat="42.25653" lon="22.79596">
        <ele>529.599415</ele>
        <time>2022-04-06T10:39:36.876Z</time>
      </trkpt>
      <trkpt lat="42.25646" lon="22.79586">
        <ele>529.914753</ele>
        <time>2022-04-06T10:39:41.888Z</time>
      </trkpt>
      <trkpt lat="42.25638" lon="22.79576">
        <ele>530.215395</ele>
        <time>2022-04-06T10:39:46.870Z</time>
      </trkpt>
      <trkpt lat="42.25631" lon="22.79567">
        <ele>530.522024</ele>
        <time>2022-04-06T10:39:51.874Z</time>
      </trkpt>
      <trkpt lat="42.25624" lon="22.79558">
        <ele>530.789792</ele>
        <time>2022-04-06T10:39:55.873Z</time>
      </trkpt>
      <trkpt lat="42.25618" lon="22.79549">
        <ele>531.064477</ele>
        <time>2022-04-06T10:39:59.893Z</time>
      </trkpt>
      <trkpt lat="42.25611" lon="22.79538">
        <ele>531.367776</ele>
        <time>2022-04-06T10:40:04.873Z</time>
      </trkpt>
      <trkpt lat="42.25604" lon="22.7953">
        <ele>531.633134</ele>
        <time>2022-04-06T10:40:08.876Z</time>
      </trkpt>
      <trkpt lat="42.25598" lon="22.79521">
        <ele>531.903479</ele>
        <time>2022-04-06T10:40:12.875Z</time>
      </trkpt>
      <trkpt lat="42.25591" lon="22.79512">
        <ele>532.167122</ele>
        <time>2022-04-06T10:40:16.859Z</time>
      </trkpt>
      <trkpt lat="42.25584" lon="22.79502">
        <ele>532.483696</ele>
        <time>2022-04-06T10:40:21.877Z</time>
      </trkpt>
      <trkpt lat="42.25577" lon="22.79492">
        <ele>532.779739</ele>
        <time>2022-04-06T10:40:26.872Z</time>
      </trkpt>
      <trkpt lat="42.25569" lon="22.79483">
        <ele>533.082094</ele>
        <time>2022-04-06T10:40:31.864Z</time>
      </trkpt>
      <trkpt lat="42.25561" lon="22.79473">
        <ele>533.398277</ele>
        <time>2022-04-06T10:40:36.878Z</time>
      </trkpt>
      <trkpt lat="42.25553" lon="22.79464">
        <ele>533.624164</ele>
        <time>2022-04-06T10:40:41.891Z</time>
      </trkpt>
      <trkpt lat="42.25546" lon="22.79455">
        <ele>533.799823</ele>
        <time>2022-04-06T10:40:46.873Z</time>
      </trkpt>
      <trkpt lat="42.25538" lon="22.79445">
        <ele>533.983312</ele>
        <time>2022-04-06T10:40:51.876Z</time>
      </trkpt>
      <trkpt lat="42.25531" lon="22.79435">
        <ele>534.165801</ele>
        <time>2022-04-06T10:40:56.869Z</time>
      </trkpt>
      <trkpt lat="42.25524" lon="22.79425">
        <ele>534.345868</ele>
        <time>2022-04-06T10:41:00.880Z</time>
      </trkpt>
      <trkpt lat="42.25516" lon="22.79414">
        <ele>534.532964</ele>
        <time>2022-04-06T10:41:04.875Z</time>
      </trkpt>
      <trkpt lat="42.25509" lon="22.79405">
        <ele>534.70756</ele>
        <time>2022-04-06T10:41:08.872Z</time>
      </trkpt>
      <trkpt lat="42.25501" lon="22.79396">
        <ele>534.885873</ele>
        <time>2022-04-06T10:41:12.868Z</time>
      </trkpt>
      <trkpt lat="42.25494" lon="22.79386">
        <ele>535.071027</ele>
        <time>2022-04-06T10:41:16.867Z</time>
      </trkpt>
      <trkpt lat="42.25486" lon="22.79375">
        <ele>535.260593</ele>
        <time>2022-04-06T10:41:20.880Z</time>
      </trkpt>
      <trkpt lat="42.25478" lon="22.79365">
        <ele>535.453239</ele>
        <time>2022-04-06T10:41:24.877Z</time>
      </trkpt>
      <trkpt lat="42.25472" lon="22.79356">
        <ele>535.620731</ele>
        <time>2022-04-06T10:41:27.869Z</time>
      </trkpt>
      <trkpt lat="42.25465" lon="22.79347">
        <ele>535.782071</ele>
        <time>2022-04-06T10:41:30.873Z</time>
      </trkpt>
      <trkpt lat="42.25458" lon="22.79335">
        <ele>535.972867</ele>
        <time>2022-04-06T10:41:34.868Z</time>
      </trkpt>
      <trkpt lat="42.2545" lon="22.79325">
        <ele>536.162718</ele>
        <time>2022-04-06T10:41:38.876Z</time>
      </trkpt>
      <trkpt lat="42.25443" lon="22.79316">
        <ele>536.344411</ele>
        <time>2022-04-06T10:41:42.880Z</time>
      </trkpt>
      <trkpt lat="42.25436" lon="22.79306">
        <ele>536.511904</ele>
        <time>2022-04-06T10:41:46.872Z</time>
      </trkpt>
      <trkpt lat="42.2543" lon="22.79297">
        <ele>536.678865</ele>
        <time>2022-04-06T10:41:50.877Z</time>
      </trkpt>
      <trkpt lat="42.25423" lon="22.79287">
        <ele>536.944504</ele>
        <time>2022-04-06T10:41:55.869Z</time>
      </trkpt>
      <trkpt lat="42.25416" lon="22.79277">
        <ele>537.190803</ele>
        <time>2022-04-06T10:42:00.877Z</time>
      </trkpt>
      <trkpt lat="42.25409" lon="22.79267">
        <ele>537.453052</ele>
        <time>2022-04-06T10:42:05.892Z</time>
      </trkpt>
      <trkpt lat="42.25403" lon="22.79258">
        <ele>537.68363</ele>
        <time>2022-04-06T10:42:10.871Z</time>
      </trkpt>
      <trkpt lat="42.25395" lon="22.79249">
        <ele>537.953597</ele>
        <time>2022-04-06T10:42:16.868Z</time>
      </trkpt>
      <trkpt lat="42.25388" lon="22.79241">
        <ele>538.197673</ele>
        <time>2022-04-06T10:42:22.872Z</time>
      </trkpt>
      <trkpt lat="42.25382" lon="22.79229">
        <ele>538.460065</ele>
        <time>2022-04-06T10:42:27.870Z</time>
      </trkpt>
      <trkpt lat="42.25377" lon="22.79218">
        <ele>538.698874</ele>
        <time>2022-04-06T10:42:31.863Z</time>
      </trkpt>
      <trkpt lat="42.2537" lon="22.7921">
        <ele>538.933507</ele>
        <time>2022-04-06T10:42:36.881Z</time>
      </trkpt>
      <trkpt lat="42.25363" lon="22.79201">
        <ele>539.179716</ele>
        <time>2022-04-06T10:42:41.915Z</time>
      </trkpt>
      <trkpt lat="42.25354" lon="22.79195">
        <ele>539.417473</ele>
        <time>2022-04-06T10:42:47.897Z</time>
      </trkpt>
      <trkpt lat="42.25347" lon="22.79187">
        <ele>539.664055</ele>
        <time>2022-04-06T10:42:53.892Z</time>
      </trkpt>
      <trkpt lat="42.25339" lon="22.79179">
        <ele>539.919763</ele>
        <time>2022-04-06T10:42:59.894Z</time>
      </trkpt>
      <trkpt lat="42.25332" lon="22.79168">
        <ele>540.188789</ele>
        <time>2022-04-06T10:43:05.896Z</time>
      </trkpt>
      <trkpt lat="42.25326" lon="22.79158">
        <ele>540.435646</ele>
        <time>2022-04-06T10:43:10.865Z</time>
      </trkpt>
      <trkpt lat="42.25319" lon="22.79149">
        <ele>540.670927</ele>
        <time>2022-04-06T10:43:15.872Z</time>
      </trkpt>
      <trkpt lat="42.25313" lon="22.7914">
        <ele>540.914891</ele>
        <time>2022-04-06T10:43:20.876Z</time>
      </trkpt>
      <trkpt lat="42.25306" lon="22.79131">
        <ele>541.15172</ele>
        <time>2022-04-06T10:43:25.867Z</time>
      </trkpt>
      <trkpt lat="42.25299" lon="22.79121">
        <ele>541.660984</ele>
        <time>2022-04-06T10:43:31.870Z</time>
      </trkpt>
      <trkpt lat="42.25292" lon="22.79111">
        <ele>542.224678</ele>
        <time>2022-04-06T10:43:36.873Z</time>
      </trkpt>
      <trkpt lat="42.25286" lon="22.79101">
        <ele>542.794782</ele>
        <time>2022-04-06T10:43:41.892Z</time>
      </trkpt>
      <trkpt lat="42.2528" lon="22.79091">
        <ele>543.356872</ele>
        <time>2022-04-06T10:43:47.885Z</time>
      </trkpt>
      <trkpt lat="42.25273" lon="22.79082">
        <ele>543.909682</ele>
        <time>2022-04-06T10:43:53.873Z</time>
      </trkpt>
      <trkpt lat="42.25267" lon="22.79073">
        <ele>544.430124</ele>
        <time>2022-04-06T10:43:59.876Z</time>
      </trkpt>
      <trkpt lat="42.2526" lon="22.79063">
        <ele>545.012636</ele>
        <time>2022-04-06T10:44:06.871Z</time>
      </trkpt>
      <trkpt lat="42.25253" lon="22.79052">
        <ele>545.620024</ele>
        <time>2022-04-06T10:44:13.895Z</time>
      </trkpt>
      <trkpt lat="42.25247" lon="22.79042">
        <ele>546.171464</ele>
        <time>2022-04-06T10:44:19.867Z</time>
      </trkpt>
      <trkpt lat="42.2524" lon="22.79033">
        <ele>546.745692</ele>
        <time>2022-04-06T10:44:25.880Z</time>
      </trkpt>
      <trkpt lat="42.25233" lon="22.79023">
        <ele>547.318021</ele>
        <time>2022-04-06T10:44:31.875Z</time>
      </trkpt>
      <trkpt lat="42.25226" lon="22.79014">
        <ele>547.882814</ele>
        <time>2022-04-06T10:44:37.872Z</time>
      </trkpt>
      <trkpt lat="42.25219" lon="22.79006">
        <ele>548.427814</ele>
        <time>2022-04-06T10:44:43.867Z</time>
      </trkpt>
      <trkpt lat="42.25213" lon="22.78996">
        <ele>549.000199</ele>
        <time>2022-04-06T10:44:49.867Z</time>
      </trkpt>
      <trkpt lat="42.25206" lon="22.78986">
        <ele>549.573532</ele>
        <time>2022-04-06T10:44:55.872Z</time>
      </trkpt>
      <trkpt lat="42.25199" lon="22.78976">
        <ele>550.168639</ele>
        <time>2022-04-06T10:45:02.871Z</time>
      </trkpt>
      <trkpt lat="42.25193" lon="22.78966">
        <ele>550.716573</ele>
        <time>2022-04-06T10:45:08.873Z</time>
      </trkpt>
      <trkpt lat="42.25186" lon="22.78956">
        <ele>551.295977</ele>
        <time>2022-04-06T10:45:15.874Z</time>
      </trkpt>
      <trkpt lat="42.25179" lon="22.78947">
        <ele>551.673626</ele>
        <time>2022-04-06T10:45:21.867Z</time>
      </trkpt>
      <trkpt lat="42.25172" lon="22.78937">
        <ele>551.792186</ele>
        <time>2022-04-06T10:45:27.880Z</time>
      </trkpt>
      <trkpt lat="42.25164" lon="22.78928">
        <ele>551.913593</ele>
        <time>2022-04-06T10:45:33.875Z</time>
      </trkpt>
      <trkpt lat="42.25156" lon="22.78918">
        <ele>552.033798</ele>
        <time>2022-04-06T10:45:39.875Z</time>
      </trkpt>
      <trkpt lat="42.25149" lon="22.78909">
        <ele>552.152726</ele>
        <time>2022-04-06T10:45:45.874Z</time>
      </trkpt>
      <trkpt lat="42.2514" lon="22.78901">
        <ele>552.275046</ele>
        <time>2022-04-06T10:45:51.871Z</time>
      </trkpt>
      <trkpt lat="42.25133" lon="22.78892">
        <ele>552.390769</ele>
        <time>2022-04-06T10:45:57.873Z</time>
      </trkpt>
      <trkpt lat="42.25126" lon="22.78883">
        <ele>552.504758</ele>
        <time>2022-04-06T10:46:02.880Z</time>
      </trkpt>
      <trkpt lat="42.25119" lon="22.78874">
        <ele>552.621365</ele>
        <time>2022-04-06T10:46:07.873Z</time>
      </trkpt>
      <trkpt lat="42.2511" lon="22.78865">
        <ele>552.74883</ele>
        <time>2022-04-06T10:46:12.871Z</time>
      </trkpt>
      <trkpt lat="42.25101" lon="22.78855">
        <ele>552.877343</ele>
        <time>2022-04-06T10:46:17.891Z</time>
      </trkpt>
      <trkpt lat="42.25095" lon="22.78847">
        <ele>552.984386</ele>
        <time>2022-04-06T10:46:21.870Z</time>
      </trkpt>
      <trkpt lat="42.25087" lon="22.78838">
        <ele>553.103639</ele>
        <time>2022-04-06T10:46:25.875Z</time>
      </trkpt>
      <trkpt lat="42.25077" lon="22.78828">
        <ele>553.246294</ele>
        <time>2022-04-06T10:46:29.875Z</time>
      </trkpt>
      <trkpt lat="42.25069" lon="22.7882">
        <ele>553.366339</ele>
        <time>2022-04-06T10:46:32.876Z</time>
      </trkpt>
      <trkpt lat="42.25059" lon="22.78812">
        <ele>553.503974</ele>
        <time>2022-04-06T10:46:35.867Z</time>
      </trkpt>
      <trkpt lat="42.25048" lon="22.78804">
        <ele>553.645419</ele>
        <time>2022-04-06T10:46:38.863Z</time>
      </trkpt>
      <trkpt lat="42.25037" lon="22.78794">
        <ele>553.771758</ele>
        <time>2022-04-06T10:46:41.865Z</time>
      </trkpt>
      <trkpt lat="42.25029" lon="22.78788">
        <ele>553.839699</ele>
        <time>2022-04-06T10:46:43.874Z</time>
      </trkpt>
      <trkpt lat="42.25018" lon="22.78781">
        <ele>553.932624</ele>
        <time>2022-04-06T10:46:46.879Z</time>
      </trkpt>
      <trkpt lat="42.25008" lon="22.78772">
        <ele>554.016159</ele>
        <time>2022-04-06T10:46:49.863Z</time>
      </trkpt>
      <trkpt lat="42.24998" lon="22.78764">
        <ele>554.101812</ele>
        <time>2022-04-06T10:46:53.890Z</time>
      </trkpt>
      <trkpt lat="42.24989" lon="22.78756">
        <ele>554.179542</ele>
        <time>2022-04-06T10:46:57.891Z</time>
      </trkpt>
      <trkpt lat="42.24981" lon="22.78748">
        <ele>554.254848</ele>
        <time>2022-04-06T10:47:01.868Z</time>
      </trkpt>
      <trkpt lat="42.24972" lon="22.78739">
        <ele>554.33867</ele>
        <time>2022-04-06T10:47:05.864Z</time>
      </trkpt>
      <trkpt lat="42.24963" lon="22.78729">
        <ele>554.421068</ele>
        <time>2022-04-06T10:47:09.892Z</time>
      </trkpt>
      <trkpt lat="42.24955" lon="22.7872">
        <ele>554.500164</ele>
        <time>2022-04-06T10:47:13.868Z</time>
      </trkpt>
      <trkpt lat="42.24946" lon="22.7871">
        <ele>554.582351</ele>
        <time>2022-04-06T10:47:17.867Z</time>
      </trkpt>
      <trkpt lat="42.24937" lon="22.787">
        <ele>554.671144</ele>
        <time>2022-04-06T10:47:21.895Z</time>
      </trkpt>
      <trkpt lat="42.24928" lon="22.78691">
        <ele>554.753499</ele>
        <time>2022-04-06T10:47:24.865Z</time>
      </trkpt>
      <trkpt lat="42.24917" lon="22.78682">
        <ele>554.848651</ele>
        <time>2022-04-06T10:47:27.887Z</time>
      </trkpt>
      <trkpt lat="42.24906" lon="22.78672">
        <ele>554.944034</ele>
        <time>2022-04-06T10:47:30.869Z</time>
      </trkpt>
      <trkpt lat="42.24896" lon="22.78662">
        <ele>555.035811</ele>
        <time>2022-04-06T10:47:33.894Z</time>
      </trkpt>
      <trkpt lat="42.24887" lon="22.78652">
        <ele>555.042383</ele>
        <time>2022-04-06T10:47:36.871Z</time>
      </trkpt>
      <trkpt lat="42.24878" lon="22.78641">
        <ele>555.037323</ele>
        <time>2022-04-06T10:47:39.892Z</time>
      </trkpt>
      <trkpt lat="42.24869" lon="22.78631">
        <ele>555.032562</ele>
        <time>2022-04-06T10:47:42.867Z</time>
      </trkpt>
      <trkpt lat="42.24861" lon="22.78622">
        <ele>555.028238</ele>
        <time>2022-04-06T10:47:45.894Z</time>
      </trkpt>
      <trkpt lat="42.24855" lon="22.78611">
        <ele>555.023827</ele>
        <time>2022-04-06T10:47:48.871Z</time>
      </trkpt>
      <trkpt lat="42.24847" lon="22.78599">
        <ele>555.018957</ele>
        <time>2022-04-06T10:47:51.890Z</time>
      </trkpt>
      <trkpt lat="42.2484" lon="22.7859">
        <ele>555.014787</ele>
        <time>2022-04-06T10:47:54.877Z</time>
      </trkpt>
      <trkpt lat="42.24834" lon="22.7858">
        <ele>555.010973</ele>
        <time>2022-04-06T10:47:57.893Z</time>
      </trkpt>
      <trkpt lat="42.24826" lon="22.7857">
        <ele>555.006182</ele>
        <time>2022-04-06T10:48:01.863Z</time>
      </trkpt>
      <trkpt lat="42.24818" lon="22.78558">
        <ele>555.001332</ele>
        <time>2022-04-06T10:48:05.868Z</time>
      </trkpt>
      <trkpt lat="42.24811" lon="22.78547">
        <ele>554.996767</ele>
        <time>2022-04-06T10:48:09.896Z</time>
      </trkpt>
      <trkpt lat="42.24805" lon="22.78538">
        <ele>554.992895</ele>
        <time>2022-04-06T10:48:12.867Z</time>
      </trkpt>
      <trkpt lat="42.24798" lon="22.78528">
        <ele>554.988657</ele>
        <time>2022-04-06T10:48:15.894Z</time>
      </trkpt>
      <trkpt lat="42.24792" lon="22.78518">
        <ele>554.984557</ele>
        <time>2022-04-06T10:48:18.865Z</time>
      </trkpt>
      <trkpt lat="42.24786" lon="22.78506">
        <ele>554.980233</ele>
        <time>2022-04-06T10:48:21.893Z</time>
      </trkpt>
      <trkpt lat="42.2478" lon="22.78491">
        <ele>554.974778</ele>
        <time>2022-04-06T10:48:24.875Z</time>
      </trkpt>
      <trkpt lat="42.24776" lon="22.78479">
        <ele>554.980626</ele>
        <time>2022-04-06T10:48:27.896Z</time>
      </trkpt>
      <trkpt lat="42.24774" lon="22.78467">
        <ele>555.040418</ele>
        <time>2022-04-06T10:48:30.878Z</time>
      </trkpt>
      <trkpt lat="42.24771" lon="22.78452">
        <ele>555.113159</ele>
        <time>2022-04-06T10:48:33.887Z</time>
      </trkpt>
      <trkpt lat="42.2477" lon="22.78439">
        <ele>555.177813</ele>
        <time>2022-04-06T10:48:36.880Z</time>
      </trkpt>
      <trkpt lat="42.24768" lon="22.78424">
        <ele>555.248016</ele>
        <time>2022-04-06T10:48:39.895Z</time>
      </trkpt>
      <trkpt lat="42.24766" lon="22.7841">
        <ele>555.321071</ele>
        <time>2022-04-06T10:48:42.869Z</time>
      </trkpt>
      <trkpt lat="42.24762" lon="22.78396">
        <ele>555.391373</ele>
        <time>2022-04-06T10:48:45.884Z</time>
      </trkpt>
      <trkpt lat="42.24759" lon="22.78384">
        <ele>555.452579</ele>
        <time>2022-04-06T10:48:48.877Z</time>
      </trkpt>
      <trkpt lat="42.24754" lon="22.7837">
        <ele>555.525027</ele>
        <time>2022-04-06T10:48:52.871Z</time>
      </trkpt>
      <trkpt lat="42.2475" lon="22.78359">
        <ele>555.58949</ele>
        <time>2022-04-06T10:48:56.877Z</time>
      </trkpt>
      <trkpt lat="42.24745" lon="22.78347">
        <ele>555.651335</ele>
        <time>2022-04-06T10:49:00.868Z</time>
      </trkpt>
      <trkpt lat="42.24738" lon="22.78335">
        <ele>555.724806</ele>
        <time>2022-04-06T10:49:04.877Z</time>
      </trkpt>
      <trkpt lat="42.24733" lon="22.78325">
        <ele>555.789301</ele>
        <time>2022-04-06T10:49:08.875Z</time>
      </trkpt>
      <trkpt lat="42.24726" lon="22.78312">
        <ele>555.866622</ele>
        <time>2022-04-06T10:49:12.877Z</time>
      </trkpt>
      <trkpt lat="42.2472" lon="22.78301">
        <ele>555.93114</ele>
        <time>2022-04-06T10:49:15.874Z</time>
      </trkpt>
      <trkpt lat="42.24712" lon="22.78289">
        <ele>556.004313</ele>
        <time>2022-04-06T10:49:18.867Z</time>
      </trkpt>
      <trkpt lat="42.24704" lon="22.78277">
        <ele>556.087247</ele>
        <time>2022-04-06T10:49:21.862Z</time>
      </trkpt>
      <trkpt lat="42.24695" lon="22.78265">
        <ele>556.247606</ele>
        <time>2022-04-06T10:49:24.875Z</time>
      </trkpt>
      <trkpt lat="42.24688" lon="22.78256">
        <ele>556.520684</ele>
        <time>2022-04-06T10:49:27.873Z</time>
      </trkpt>
      <trkpt lat="42.24683" lon="22.78246">
        <ele>556.781559</ele>
        <time>2022-04-06T10:49:30.878Z</time>
      </trkpt>
      <trkpt lat="42.24679" lon="22.78233">
        <ele>557.077189</ele>
        <time>2022-04-06T10:49:33.864Z</time>
      </trkpt>
      <trkpt lat="42.24673" lon="22.78221">
        <ele>557.367518</ele>
        <time>2022-04-06T10:49:36.869Z</time>
      </trkpt>
      <trkpt lat="42.24668" lon="22.78209">
        <ele>557.664478</ele>
        <time>2022-04-06T10:49:39.866Z</time>
      </trkpt>
      <trkpt lat="42.24663" lon="22.78198">
        <ele>557.939206</ele>
        <time>2022-04-06T10:49:42.876Z</time>
      </trkpt>
      <trkpt lat="42.24659" lon="22.78184">
        <ele>558.255535</ele>
        <time>2022-04-06T10:49:46.876Z</time>
      </trkpt>
      <trkpt lat="42.24654" lon="22.78172">
        <ele>558.543529</ele>
        <time>2022-04-06T10:49:50.876Z</time>
      </trkpt>
      <trkpt lat="42.24648" lon="22.78159">
        <ele>558.871006</ele>
        <time>2022-04-06T10:49:55.887Z</time>
      </trkpt>
      <trkpt lat="42.24641" lon="22.78147">
        <ele>559.186176</ele>
        <time>2022-04-06T10:49:59.871Z</time>
      </trkpt>
      <trkpt lat="42.24635" lon="22.78136">
        <ele>559.469167</ele>
        <time>2022-04-06T10:50:02.867Z</time>
      </trkpt>
      <trkpt lat="42.24631" lon="22.78122">
        <ele>559.791237</ele>
        <time>2022-04-06T10:50:06.860Z</time>
      </trkpt>
      <trkpt lat="42.24627" lon="22.78111">
        <ele>560.050901</ele>
        <time>2022-04-06T10:50:10.870Z</time>
      </trkpt>
      <trkpt lat="42.24624" lon="22.78097">
        <ele>560.348802</ele>
        <time>2022-04-06T10:50:14.875Z</time>
      </trkpt>
      <trkpt lat="42.24619" lon="22.78084">
        <ele>560.669479</ele>
        <time>2022-04-06T10:50:18.876Z</time>
      </trkpt>
      <trkpt lat="42.24614" lon="22.78069">
        <ele>561.00592</ele>
        <time>2022-04-06T10:50:22.875Z</time>
      </trkpt>
      <trkpt lat="42.24609" lon="22.78059">
        <ele>561.270942</ele>
        <time>2022-04-06T10:50:25.865Z</time>
      </trkpt>
      <trkpt lat="42.24604" lon="22.78048">
        <ele>561.541818</ele>
        <time>2022-04-06T10:50:28.873Z</time>
      </trkpt>
      <trkpt lat="42.24599" lon="22.78037">
        <ele>561.818269</ele>
        <time>2022-04-06T10:50:31.867Z</time>
      </trkpt>
      <trkpt lat="42.24593" lon="22.78025">
        <ele>562.143772</ele>
        <time>2022-04-06T10:50:35.867Z</time>
      </trkpt>
      <trkpt lat="42.24588" lon="22.78011">
        <ele>562.474472</ele>
        <time>2022-04-06T10:50:39.870Z</time>
      </trkpt>
      <trkpt lat="42.24583" lon="22.77998">
        <ele>562.785757</ele>
        <time>2022-04-06T10:50:43.867Z</time>
      </trkpt>
      <trkpt lat="42.2458" lon="22.77986">
        <ele>563.059056</ele>
        <time>2022-04-06T10:50:47.888Z</time>
      </trkpt>
      <trkpt lat="42.24576" lon="22.77974">
        <ele>563.355518</ele>
        <time>2022-04-06T10:50:51.871Z</time>
      </trkpt>
      <trkpt lat="42.24572" lon="22.77961">
        <ele>563.655011</ele>
        <time>2022-04-06T10:50:56.868Z</time>
      </trkpt>
      <trkpt lat="42.2457" lon="22.77947">
        <ele>563.96403</ele>
        <time>2022-04-06T10:51:01.868Z</time>
      </trkpt>
      <trkpt lat="42.24567" lon="22.77933">
        <ele>564.277122</ele>
        <time>2022-04-06T10:51:06.867Z</time>
      </trkpt>
      <trkpt lat="42.24565" lon="22.77921">
        <ele>564.545544</ele>
        <time>2022-04-06T10:51:11.876Z</time>
      </trkpt>
      <trkpt lat="42.24562" lon="22.77908">
        <ele>564.840752</ele>
        <time>2022-04-06T10:51:17.878Z</time>
      </trkpt>
      <trkpt lat="42.24558" lon="22.77895">
        <ele>565.134438</ele>
        <time>2022-04-06T10:51:23.896Z</time>
      </trkpt>
      <trkpt lat="42.24555" lon="22.77883">
        <ele>565.407739</ele>
        <time>2022-04-06T10:51:28.875Z</time>
      </trkpt>
      <trkpt lat="42.24552" lon="22.77869">
        <ele>565.722489</ele>
        <time>2022-04-06T10:51:34.873Z</time>
      </trkpt>
      <trkpt lat="42.2455" lon="22.77856">
        <ele>566.026597</ele>
        <time>2022-04-06T10:51:40.871Z</time>
      </trkpt>
      <trkpt lat="42.24547" lon="22.77842">
        <ele>566.335618</ele>
        <time>2022-04-06T10:51:46.879Z</time>
      </trkpt>
      <trkpt lat="42.24543" lon="22.77829">
        <ele>566.74844</ele>
        <time>2022-04-06T10:51:53.887Z</time>
      </trkpt>
      <trkpt lat="42.2454" lon="22.77817">
        <ele>567.345445</ele>
        <time>2022-04-06T10:51:59.878Z</time>
      </trkpt>
      <trkpt lat="42.24536" lon="22.77804">
        <ele>567.953895</ele>
        <time>2022-04-06T10:52:05.876Z</time>
      </trkpt>
      <trkpt lat="42.24532" lon="22.77792">
        <ele>568.549852</ele>
        <time>2022-04-06T10:52:11.877Z</time>
      </trkpt>
      <trkpt lat="42.24525" lon="22.77781">
        <ele>569.18092</ele>
        <time>2022-04-06T10:52:17.865Z</time>
      </trkpt>
      <trkpt lat="42.24518" lon="22.77772">
        <ele>569.826912</ele>
        <time>2022-04-06T10:52:23.868Z</time>
      </trkpt>
      <trkpt lat="42.2451" lon="22.77763">
        <ele>570.436652</ele>
        <time>2022-04-06T10:52:29.884Z</time>
      </trkpt>
      <trkpt lat="42.24501" lon="22.77757">
        <ele>571.053444</ele>
        <time>2022-04-06T10:52:36.867Z</time>
      </trkpt>
      <trkpt lat="42.24492" lon="22.77752">
        <ele>571.642507</ele>
        <time>2022-04-06T10:52:42.865Z</time>
      </trkpt>
      <trkpt lat="42.24484" lon="22.77744">
        <ele>572.250318</ele>
        <time>2022-04-06T10:52:48.862Z</time>
      </trkpt>
      <trkpt lat="42.24477" lon="22.77735">
        <ele>572.835927</ele>
        <time>2022-04-06T10:52:53.875Z</time>
      </trkpt>
      <trkpt lat="42.2447" lon="22.77725">
        <ele>573.488958</ele>
        <time>2022-04-06T10:52:58.862Z</time>
      </trkpt>
      <trkpt lat="42.24463" lon="22.77713">
        <ele>574.123583</ele>
        <time>2022-04-06T10:53:03.875Z</time>
      </trkpt>
      <trkpt lat="42.24458" lon="22.77701">
        <ele>574.757751</ele>
        <time>2022-04-06T10:53:08.897Z</time>
      </trkpt>
      <trkpt lat="42.24454" lon="22.77689">
        <ele>575.378004</ele>
        <time>2022-04-06T10:53:13.868Z</time>
      </trkpt>
      <trkpt lat="42.2445" lon="22.77678">
        <ele>575.94194</ele>
        <time>2022-04-06T10:53:17.878Z</time>
      </trkpt>
      <trkpt lat="42.24445" lon="22.77665">
        <ele>576.57703</ele>
        <time>2022-04-06T10:53:22.875Z</time>
      </trkpt>
      <trkpt lat="42.24441" lon="22.77652">
        <ele>577.190725</ele>
        <time>2022-04-06T10:53:28.866Z</time>
      </trkpt>
      <trkpt lat="42.24436" lon="22.7764">
        <ele>577.665549</ele>
        <time>2022-04-06T10:53:33.872Z</time>
      </trkpt>
      <trkpt lat="42.24431" lon="22.77629">
        <ele>577.990136</ele>
        <time>2022-04-06T10:53:38.885Z</time>
      </trkpt>
      <trkpt lat="42.24427" lon="22.77617">
        <ele>578.311719</ele>
        <time>2022-04-06T10:53:43.877Z</time>
      </trkpt>
      <trkpt lat="42.24422" lon="22.77606">
        <ele>578.626373</ele>
        <time>2022-04-06T10:53:48.878Z</time>
      </trkpt>
      <trkpt lat="42.24417" lon="22.77593">
        <ele>578.968652</ele>
        <time>2022-04-06T10:53:53.869Z</time>
      </trkpt>
      <trkpt lat="42.24415" lon="22.77578">
        <ele>579.347222</ele>
        <time>2022-04-06T10:53:58.864Z</time>
      </trkpt>
      <trkpt lat="42.24412" lon="22.77566">
        <ele>579.655089</ele>
        <time>2022-04-06T10:54:02.891Z</time>
      </trkpt>
      <trkpt lat="42.24407" lon="22.77556">
        <ele>579.957595</ele>
        <time>2022-04-06T10:54:06.873Z</time>
      </trkpt>
      <trkpt lat="42.24403" lon="22.77544">
        <ele>580.273271</ele>
        <time>2022-04-06T10:54:10.869Z</time>
      </trkpt>
      <trkpt lat="42.24399" lon="22.77531">
        <ele>580.61014</ele>
        <time>2022-04-06T10:54:15.871Z</time>
      </trkpt>
      <trkpt lat="42.24396" lon="22.7752">
        <ele>580.911812</ele>
        <time>2022-04-06T10:54:20.892Z</time>
      </trkpt>
      <trkpt lat="42.24393" lon="22.77508">
        <ele>581.212893</ele>
        <time>2022-04-06T10:54:25.872Z</time>
      </trkpt>
      <trkpt lat="42.2439" lon="22.77496">
        <ele>581.519232</ele>
        <time>2022-04-06T10:54:30.868Z</time>
      </trkpt>
      <trkpt lat="42.24387" lon="22.77482">
        <ele>581.871833</ele>
        <time>2022-04-06T10:54:35.873Z</time>
      </trkpt>
      <trkpt lat="42.24388" lon="22.7747">
        <ele>582.170653</ele>
        <time>2022-04-06T10:54:39.879Z</time>
      </trkpt>
      <trkpt lat="42.24387" lon="22.77457">
        <ele>582.485141</ele>
        <time>2022-04-06T10:54:43.870Z</time>
      </trkpt>
      <trkpt lat="42.24385" lon="22.77443">
        <ele>582.830069</ele>
        <time>2022-04-06T10:54:48.871Z</time>
      </trkpt>
      <trkpt lat="42.24384" lon="22.7743">
        <ele>583.140265</ele>
        <time>2022-04-06T10:54:52.874Z</time>
      </trkpt>
      <trkpt lat="42.24383" lon="22.77416">
        <ele>583.353498</ele>
        <time>2022-04-06T10:54:56.888Z</time>
      </trkpt>
      <trkpt lat="42.24383" lon="22.77403">
        <ele>583.221503</ele>
        <time>2022-04-06T10:55:00.872Z</time>
      </trkpt>
      <trkpt lat="42.24382" lon="22.7739">
        <ele>583.080807</ele>
        <time>2022-04-06T10:55:05.876Z</time>
      </trkpt>
      <trkpt lat="42.2438" lon="22.77377">
        <ele>582.946057</ele>
        <time>2022-04-06T10:55:10.868Z</time>
      </trkpt>
      <trkpt lat="42.24378" lon="22.77365">
        <ele>582.820562</ele>
        <time>2022-04-06T10:55:14.867Z</time>
      </trkpt>
      <trkpt lat="42.24375" lon="22.77351">
        <ele>582.674118</ele>
        <time>2022-04-06T10:55:18.862Z</time>
      </trkpt>
      <trkpt lat="42.24375" lon="22.77339">
        <ele>582.544352</ele>
        <time>2022-04-06T10:55:21.867Z</time>
      </trkpt>
      <trkpt lat="42.24373" lon="22.77323">
        <ele>582.384807</ele>
        <time>2022-04-06T10:55:25.871Z</time>
      </trkpt>
      <trkpt lat="42.2437" lon="22.77311">
        <ele>582.257966</ele>
        <time>2022-04-06T10:55:28.867Z</time>
      </trkpt>
      <trkpt lat="42.24366" lon="22.77296">
        <ele>582.094969</ele>
        <time>2022-04-06T10:55:32.863Z</time>
      </trkpt>
      <trkpt lat="42.24363" lon="22.77284">
        <ele>581.95843</ele>
        <time>2022-04-06T10:55:35.872Z</time>
      </trkpt>
      <trkpt lat="42.24356" lon="22.7727">
        <ele>581.78639</ele>
        <time>2022-04-06T10:55:38.871Z</time>
      </trkpt>
      <trkpt lat="42.2435" lon="22.77259">
        <ele>581.647205</ele>
        <time>2022-04-06T10:55:40.880Z</time>
      </trkpt>
      <trkpt lat="42.24344" lon="22.77249">
        <ele>581.508121</ele>
        <time>2022-04-06T10:55:42.891Z</time>
      </trkpt>
      <trkpt lat="42.24338" lon="22.77238">
        <ele>581.375869</ele>
        <time>2022-04-06T10:55:44.870Z</time>
      </trkpt>
      <trkpt lat="42.24331" lon="22.77226">
        <ele>581.213859</ele>
        <time>2022-04-06T10:55:47.864Z</time>
      </trkpt>
      <trkpt lat="42.24331" lon="22.77211">
        <ele>581.064506</ele>
        <time>2022-04-06T10:55:50.866Z</time>
      </trkpt>
      <trkpt lat="42.24335" lon="22.77199">
        <ele>580.931381</ele>
        <time>2022-04-06T10:55:52.867Z</time>
      </trkpt>
      <trkpt lat="42.2434" lon="22.77187">
        <ele>581.047882</ele>
        <time>2022-04-06T10:55:54.905Z</time>
      </trkpt>
      <trkpt lat="42.24345" lon="22.77174">
        <ele>581.251586</ele>
        <time>2022-04-06T10:55:56.871Z</time>
      </trkpt>
      <trkpt lat="42.24349" lon="22.77162">
        <ele>581.440713</ele>
        <time>2022-04-06T10:55:58.871Z</time>
      </trkpt>
      <trkpt lat="42.24353" lon="22.77149">
        <ele>581.632021</ele>
        <time>2022-04-06T10:56:00.863Z</time>
      </trkpt>
      <trkpt lat="42.24358" lon="22.77137">
        <ele>581.819489</ele>
        <time>2022-04-06T10:56:02.863Z</time>
      </trkpt>
      <trkpt lat="42.24362" lon="22.77126">
        <ele>581.994459</ele>
        <time>2022-04-06T10:56:04.872Z</time>
      </trkpt>
      <trkpt lat="42.24368" lon="22.77111">
        <ele>582.229312</ele>
        <time>2022-04-06T10:56:07.867Z</time>
      </trkpt>
      <trkpt lat="42.24373" lon="22.77097">
        <ele>582.445706</ele>
        <time>2022-04-06T10:56:10.866Z</time>
      </trkpt>
      <trkpt lat="42.24377" lon="22.77085">
        <ele>582.623641</ele>
        <time>2022-04-06T10:56:13.864Z</time>
      </trkpt>
      <trkpt lat="42.24383" lon="22.77075">
        <ele>582.80185</ele>
        <time>2022-04-06T10:56:16.863Z</time>
      </trkpt>
      <trkpt lat="42.2439" lon="22.77064">
        <ele>583.008147</ele>
        <time>2022-04-06T10:56:20.877Z</time>
      </trkpt>
      <trkpt lat="42.24397" lon="22.77053">
        <ele>583.219652</ele>
        <time>2022-04-06T10:56:24.864Z</time>
      </trkpt>
      <trkpt lat="42.24404" lon="22.77043">
        <ele>583.407783</ele>
        <time>2022-04-06T10:56:28.872Z</time>
      </trkpt>
      <trkpt lat="42.24412" lon="22.77033">
        <ele>583.609833</ele>
        <time>2022-04-06T10:56:33.872Z</time>
      </trkpt>
      <trkpt lat="42.2442" lon="22.77023">
        <ele>583.808217</ele>
        <time>2022-04-06T10:56:38.890Z</time>
      </trkpt>
      <trkpt lat="42.24428" lon="22.77013">
        <ele>584.011074</ele>
        <time>2022-04-06T10:56:43.878Z</time>
      </trkpt>
      <trkpt lat="42.24435" lon="22.77004">
        <ele>584.208333</ele>
        <time>2022-04-06T10:56:48.870Z</time>
      </trkpt>
      <trkpt lat="42.24442" lon="22.76994">
        <ele>584.747722</ele>
        <time>2022-04-06T10:56:53.866Z</time>
      </trkpt>
      <trkpt lat="42.2445" lon="22.76986">
        <ele>585.566928</ele>
        <time>2022-04-06T10:56:59.870Z</time>
      </trkpt>
      <trkpt lat="42.24457" lon="22.76977">
        <ele>586.307057</ele>
        <time>2022-04-06T10:57:05.868Z</time>
      </trkpt>
      <trkpt lat="42.24464" lon="22.76968">
        <ele>587.112141</ele>
        <time>2022-04-06T10:57:12.865Z</time>
      </trkpt>
      <trkpt lat="42.24471" lon="22.76958">
        <ele>587.913159</ele>
        <time>2022-04-06T10:57:19.878Z</time>
      </trkpt>
      <trkpt lat="42.24477" lon="22.76947">
        <ele>588.705411</ele>
        <time>2022-04-06T10:57:26.893Z</time>
      </trkpt>
      <trkpt lat="42.24483" lon="22.76936">
        <ele>589.479052</ele>
        <time>2022-04-06T10:57:34.864Z</time>
      </trkpt>
      <trkpt lat="42.24488" lon="22.76926">
        <ele>590.200869</ele>
        <time>2022-04-06T10:57:41.872Z</time>
      </trkpt>
      <trkpt lat="42.24494" lon="22.76915">
        <ele>590.99312</ele>
        <time>2022-04-06T10:57:49.879Z</time>
      </trkpt>
      <trkpt lat="42.24499" lon="22.76904">
        <ele>591.757178</ele>
        <time>2022-04-06T10:57:56.897Z</time>
      </trkpt>
      <trkpt lat="42.24506" lon="22.76894">
        <ele>592.532768</ele>
        <time>2022-04-06T10:58:04.873Z</time>
      </trkpt>
      <trkpt lat="42.24512" lon="22.76884">
        <ele>593.283039</ele>
        <time>2022-04-06T10:58:11.871Z</time>
      </trkpt>
      <trkpt lat="42.24518" lon="22.76874">
        <ele>594.052029</ele>
        <time>2022-04-06T10:58:19.873Z</time>
      </trkpt>
      <trkpt lat="42.24522" lon="22.76862">
        <ele>594.832472</ele>
        <time>2022-04-06T10:58:27.870Z</time>
      </trkpt>
      <trkpt lat="42.24528" lon="22.76851">
        <ele>595.634751</ele>
        <time>2022-04-06T10:58:35.871Z</time>
      </trkpt>
      <trkpt lat="42.24533" lon="22.7684">
        <ele>596.359699</ele>
        <time>2022-04-06T10:58:42.868Z</time>
      </trkpt>
      <trkpt lat="42.24538" lon="22.7683">
        <ele>597.123646</ele>
        <time>2022-04-06T10:58:50.863Z</time>
      </trkpt>
      <trkpt lat="42.24544" lon="22.7682">
        <ele>597.893467</ele>
        <time>2022-04-06T10:58:58.878Z</time>
      </trkpt>
      <trkpt lat="42.2455" lon="22.76809">
        <ele>598.671407</ele>
        <time>2022-04-06T10:59:05.862Z</time>
      </trkpt>
      <trkpt lat="42.24556" lon="22.76798">
        <ele>599.452439</ele>
        <time>2022-04-06T10:59:13.878Z</time>
      </trkpt>
      <trkpt lat="42.2456" lon="22.76787">
        <ele>600.209982</ele>
        <time>2022-04-06T10:59:21.874Z</time>
      </trkpt>
      <trkpt lat="42.24566" lon="22.76778">
        <ele>600.986595</ele>
        <time>2022-04-06T10:59:29.873Z</time>
      </trkpt>
      <trkpt lat="42.24572" lon="22.76767">
        <ele>601.816154</ele>
        <time>2022-04-06T10:59:38.887Z</time>
      </trkpt>
      <trkpt lat="42.24576" lon="22.76755">
        <ele>602.626052</ele>
        <time>2022-04-06T10:59:46.872Z</time>
      </trkpt>
      <trkpt lat="42.24582" lon="22.76744">
        <ele>603.416382</ele>
        <time>2022-04-06T10:59:54.860Z</time>
      </trkpt>
      <trkpt lat="42.24588" lon="22.76734">
        <ele>604.19886</ele>
        <time>2022-04-06T11:00:01.873Z</time>
      </trkpt>
      <trkpt lat="42.24593" lon="22.76723">
        <ele>604.987538</ele>
        <time>2022-04-06T11:00:10.863Z</time>
      </trkpt>
      <trkpt lat="42.24599" lon="22.76712">
        <ele>605.803923</ele>
        <time>2022-04-06T11:00:18.870Z</time>
      </trkpt>
      <trkpt lat="42.24604" lon="22.76701">
        <ele>606.608902</ele>
        <time>2022-04-06T11:00:25.877Z</time>
      </trkpt>
      <trkpt lat="42.24611" lon="22.76691">
        <ele>607.443878</ele>
        <time>2022-04-06T11:00:32.892Z</time>
      </trkpt>
      <trkpt lat="42.24617" lon="22.7668">
        <ele>608.239108</ele>
        <time>2022-04-06T11:00:40.866Z</time>
      </trkpt>
      <trkpt lat="42.24621" lon="22.76669">
        <ele>609.020556</ele>
        <time>2022-04-06T11:00:47.882Z</time>
      </trkpt>
      <trkpt lat="42.24628" lon="22.76659">
        <ele>609.826871</ele>
        <time>2022-04-06T11:00:54.876Z</time>
      </trkpt>
      <trkpt lat="42.24633" lon="22.76647">
        <ele>610.661242</ele>
        <time>2022-04-06T11:01:02.895Z</time>
      </trkpt>
      <trkpt lat="42.24639" lon="22.76636">
        <ele>611.474009</ele>
        <time>2022-04-06T11:01:09.868Z</time>
      </trkpt>
      <trkpt lat="42.24644" lon="22.76625">
        <ele>612.274084</ele>
        <time>2022-04-06T11:01:17.873Z</time>
      </trkpt>
      <trkpt lat="42.2465" lon="22.76614">
        <ele>613.11184</ele>
        <time>2022-04-06T11:01:24.868Z</time>
      </trkpt>
      <trkpt lat="42.24656" lon="22.76604">
        <ele>613.047098</ele>
        <time>2022-04-06T11:01:31.879Z</time>
      </trkpt>
      <trkpt lat="42.24662" lon="22.76594">
        <ele>612.71964</ele>
        <time>2022-04-06T11:01:38.868Z</time>
      </trkpt>
      <trkpt lat="42.24669" lon="22.76583">
        <ele>612.383769</ele>
        <time>2022-04-06T11:01:45.875Z</time>
      </trkpt>
      <trkpt lat="42.24675" lon="22.76572">
        <ele>612.045838</ele>
        <time>2022-04-06T11:01:52.876Z</time>
      </trkpt>
      <trkpt lat="42.24681" lon="22.76561">
        <ele>611.710001</ele>
        <time>2022-04-06T11:01:59.869Z</time>
      </trkpt>
      <trkpt lat="42.24688" lon="22.7655">
        <ele>611.368117</ele>
        <time>2022-04-06T11:02:05.866Z</time>
      </trkpt>
      <trkpt lat="42.24694" lon="22.76541">
        <ele>611.066875</ele>
        <time>2022-04-06T11:02:09.872Z</time>
      </trkpt>
      <trkpt lat="42.247" lon="22.76532">
        <ele>610.764821</ele>
        <time>2022-04-06T11:02:13.875Z</time>
      </trkpt>
      <trkpt lat="42.24707" lon="22.76522">
        <ele>610.451165</ele>
        <time>2022-04-06T11:02:17.866Z</time>
      </trkpt>
      <trkpt lat="42.24713" lon="22.76512">
        <ele>610.126975</ele>
        <time>2022-04-06T11:02:21.869Z</time>
      </trkpt>
      <trkpt lat="42.2472" lon="22.765">
        <ele>609.771533</ele>
        <time>2022-04-06T11:02:25.866Z</time>
      </trkpt>
      <trkpt lat="42.24726" lon="22.76487">
        <ele>609.381099</ele>
        <time>2022-04-06T11:02:29.862Z</time>
      </trkpt>
      <trkpt lat="42.24733" lon="22.76477">
        <ele>609.050649</ele>
        <time>2022-04-06T11:02:32.868Z</time>
      </trkpt>
      <trkpt lat="42.2474" lon="22.76465">
        <ele>608.679828</ele>
        <time>2022-04-06T11:02:35.884Z</time>
      </trkpt>
      <trkpt lat="42.24747" lon="22.76452">
        <ele>608.293136</ele>
        <time>2022-04-06T11:02:38.863Z</time>
      </trkpt>
      <trkpt lat="42.24756" lon="22.76439">
        <ele>607.85206</ele>
        <time>2022-04-06T11:02:41.861Z</time>
      </trkpt>
      <trkpt lat="42.24763" lon="22.76429">
        <ele>607.527142</ele>
        <time>2022-04-06T11:02:43.870Z</time>
      </trkpt>
      <trkpt lat="42.24769" lon="22.76417">
        <ele>607.131598</ele>
        <time>2022-04-06T11:02:45.866Z</time>
      </trkpt>
      <trkpt lat="42.24776" lon="22.76404">
        <ele>606.689869</ele>
        <time>2022-04-06T11:02:47.866Z</time>
      </trkpt>
      <trkpt lat="42.24784" lon="22.76391">
        <ele>606.229882</ele>
        <time>2022-04-06T11:02:49.872Z</time>
      </trkpt>
      <trkpt lat="42.24791" lon="22.76379">
        <ele>605.774064</ele>
        <time>2022-04-06T11:02:51.872Z</time>
      </trkpt>
      <trkpt lat="42.24799" lon="22.76366">
        <ele>605.306299</ele>
        <time>2022-04-06T11:02:53.864Z</time>
      </trkpt>
      <trkpt lat="42.24806" lon="22.76353">
        <ele>604.832661</ele>
        <time>2022-04-06T11:02:55.868Z</time>
      </trkpt>
      <trkpt lat="42.24815" lon="22.76338">
        <ele>604.297286</ele>
        <time>2022-04-06T11:02:57.878Z</time>
      </trkpt>
      <trkpt lat="42.24825" lon="22.76323">
        <ele>603.738376</ele>
        <time>2022-04-06T11:02:59.870Z</time>
      </trkpt>
      <trkpt lat="42.24834" lon="22.76308">
        <ele>603.173297</ele>
        <time>2022-04-06T11:03:01.874Z</time>
      </trkpt>
      <trkpt lat="42.24845" lon="22.76294">
        <ele>602.606648</ele>
        <time>2022-04-06T11:03:03.876Z</time>
      </trkpt>
      <trkpt lat="42.24855" lon="22.7628">
        <ele>602.045475</ele>
        <time>2022-04-06T11:03:05.875Z</time>
      </trkpt>
      <trkpt lat="42.24866" lon="22.76268">
        <ele>601.505577</ele>
        <time>2022-04-06T11:03:07.876Z</time>
      </trkpt>
      <trkpt lat="42.24876" lon="22.76257">
        <ele>601.007311</ele>
        <time>2022-04-06T11:03:09.864Z</time>
      </trkpt>
      <trkpt lat="42.24887" lon="22.76248">
        <ele>600.515754</ele>
        <time>2022-04-06T11:03:11.866Z</time>
      </trkpt>
      <trkpt lat="42.24897" lon="22.76241">
        <ele>600.898997</ele>
        <time>2022-04-06T11:03:13.865Z</time>
      </trkpt>
      <trkpt lat="42.24907" lon="22.76235">
        <ele>601.277631</ele>
        <time>2022-04-06T11:03:15.872Z</time>
      </trkpt>
      <trkpt lat="42.24916" lon="22.76229">
        <ele>601.624891</ele>
        <time>2022-04-06T11:03:17.864Z</time>
      </trkpt>
      <trkpt lat="42.24928" lon="22.76223">
        <ele>602.085505</ele>
        <time>2022-04-06T11:03:20.876Z</time>
      </trkpt>
      <trkpt lat="42.24938" lon="22.76219">
        <ele>602.469219</ele>
        <time>2022-04-06T11:03:23.868Z</time>
      </trkpt>
      <trkpt lat="42.24948" lon="22.76214">
        <ele>602.820826</ele>
        <time>2022-04-06T11:03:26.870Z</time>
      </trkpt>
      <trkpt lat="42.24959" lon="22.7621">
        <ele>603.225499</ele>
        <time>2022-04-06T11:03:30.869Z</time>
      </trkpt>
      <trkpt lat="42.24969" lon="22.76205">
        <ele>603.618386</ele>
        <time>2022-04-06T11:03:34.901Z</time>
      </trkpt>
      <trkpt lat="42.24979" lon="22.76202">
        <ele>603.995779</ele>
        <time>2022-04-06T11:03:38.863Z</time>
      </trkpt>
      <trkpt lat="42.24988" lon="22.76197">
        <ele>604.328311</ele>
        <time>2022-04-06T11:03:42.870Z</time>
      </trkpt>
      <trkpt lat="42.24998" lon="22.76191">
        <ele>604.697232</ele>
        <time>2022-04-06T11:03:47.881Z</time>
      </trkpt>
      <trkpt lat="42.25006" lon="22.76185">
        <ele>605.059384</ele>
        <time>2022-04-06T11:03:53.875Z</time>
      </trkpt>
      <trkpt lat="42.25014" lon="22.76175">
        <ele>605.437742</ele>
        <time>2022-04-06T11:03:59.871Z</time>
      </trkpt>
      <trkpt lat="42.2502" lon="22.76164">
        <ele>605.802379</ele>
        <time>2022-04-06T11:04:05.869Z</time>
      </trkpt>
      <trkpt lat="42.25025" lon="22.76154">
        <ele>606.126517</ele>
        <time>2022-04-06T11:04:10.888Z</time>
      </trkpt>
      <trkpt lat="42.25031" lon="22.76144">
        <ele>606.448439</ele>
        <time>2022-04-06T11:04:15.876Z</time>
      </trkpt>
      <trkpt lat="42.25035" lon="22.76132">
        <ele>606.803843</ele>
        <time>2022-04-06T11:04:21.873Z</time>
      </trkpt>
      <trkpt lat="42.25038" lon="22.7612">
        <ele>607.262739</ele>
        <time>2022-04-06T11:04:26.863Z</time>
      </trkpt>
      <trkpt lat="42.25043" lon="22.76108">
        <ele>607.863606</ele>
        <time>2022-04-06T11:04:32.863Z</time>
      </trkpt>
      <trkpt lat="42.25048" lon="22.76096">
        <ele>608.449744</ele>
        <time>2022-04-06T11:04:38.868Z</time>
      </trkpt>
      <trkpt lat="42.25053" lon="22.76085">
        <ele>608.997078</ele>
        <time>2022-04-06T11:04:43.884Z</time>
      </trkpt>
      <trkpt lat="42.25057" lon="22.76072">
        <ele>609.594079</ele>
        <time>2022-04-06T11:04:49.875Z</time>
      </trkpt>
      <trkpt lat="42.25061" lon="22.76061">
        <ele>610.153037</ele>
        <time>2022-04-06T11:04:54.864Z</time>
      </trkpt>
      <trkpt lat="42.25065" lon="22.76049">
        <ele>610.692284</ele>
        <time>2022-04-06T11:04:59.860Z</time>
      </trkpt>
      <trkpt lat="42.25069" lon="22.76037">
        <ele>611.256816</ele>
        <time>2022-04-06T11:05:04.863Z</time>
      </trkpt>
      <trkpt lat="42.25073" lon="22.76025">
        <ele>611.825566</ele>
        <time>2022-04-06T11:05:09.902Z</time>
      </trkpt>
      <trkpt lat="42.25077" lon="22.76013">
        <ele>612.410458</ele>
        <time>2022-04-06T11:05:14.867Z</time>
      </trkpt>
      <trkpt lat="42.25081" lon="22.76001">
        <ele>612.940531</ele>
        <time>2022-04-06T11:05:19.875Z</time>
      </trkpt>
      <trkpt lat="42.25084" lon="22.7599">
        <ele>613.476398</ele>
        <time>2022-04-06T11:05:24.870Z</time>
      </trkpt>
      <trkpt lat="42.25087" lon="22.75977">
        <ele>614.032618</ele>
        <time>2022-04-06T11:05:29.876Z</time>
      </trkpt>
      <trkpt lat="42.25091" lon="22.75966">
        <ele>614.556463</ele>
        <time>2022-04-06T11:05:34.862Z</time>
      </trkpt>
      <trkpt lat="42.25094" lon="22.75953">
        <ele>615.17757</ele>
        <time>2022-04-06T11:05:40.865Z</time>
      </trkpt>
      <trkpt lat="42.25097" lon="22.75941">
        <ele>615.70122</ele>
        <time>2022-04-06T11:05:45.864Z</time>
      </trkpt>
      <trkpt lat="42.25101" lon="22.75929">
        <ele>616.255579</ele>
        <time>2022-04-06T11:05:50.896Z</time>
      </trkpt>
      <trkpt lat="42.25104" lon="22.75917">
        <ele>616.801558</ele>
        <time>2022-04-06T11:05:55.878Z</time>
      </trkpt>
      <trkpt lat="42.25107" lon="22.75905">
        <ele>617.342192</ele>
        <time>2022-04-06T11:06:00.863Z</time>
      </trkpt>
      <trkpt lat="42.2511" lon="22.75892">
        <ele>617.534506</ele>
        <time>2022-04-06T11:06:06.862Z</time>
      </trkpt>
      <trkpt lat="42.25112" lon="22.75879">
        <ele>617.718841</ele>
        <time>2022-04-06T11:06:11.870Z</time>
      </trkpt>
      <trkpt lat="42.25115" lon="22.75866">
        <ele>617.906413</ele>
        <time>2022-04-06T11:06:16.870Z</time>
      </trkpt>
      <trkpt lat="42.25119" lon="22.75853">
        <ele>618.09717</ele>
        <time>2022-04-06T11:06:21.878Z</time>
      </trkpt>
      <trkpt lat="42.25121" lon="22.75839">
        <ele>618.289484</ele>
        <time>2022-04-06T11:06:26.888Z</time>
      </trkpt>
      <trkpt lat="42.25125" lon="22.75826">
        <ele>618.473768</ele>
        <time>2022-04-06T11:06:31.869Z</time>
      </trkpt>
      <trkpt lat="42.25129" lon="22.75812">
        <ele>618.679855</ele>
        <time>2022-04-06T11:06:36.866Z</time>
      </trkpt>
      <trkpt lat="42.25133" lon="22.758">
        <ele>618.861292</ele>
        <time>2022-04-06T11:06:40.863Z</time>
      </trkpt>
      <trkpt lat="42.25136" lon="22.75787">
        <ele>619.050707</ele>
        <time>2022-04-06T11:06:44.861Z</time>
      </trkpt>
      <trkpt lat="42.2514" lon="22.75774">
        <ele>619.245897</ele>
        <time>2022-04-06T11:06:48.867Z</time>
      </trkpt>
      <trkpt lat="42.25143" lon="22.75761">
        <ele>619.42631</ele>
        <time>2022-04-06T11:06:52.872Z</time>
      </trkpt>
      <trkpt lat="42.25147" lon="22.75748">
        <ele>619.621485</ele>
        <time>2022-04-06T11:06:57.867Z</time>
      </trkpt>
      <trkpt lat="42.25151" lon="22.75736">
        <ele>619.799668</ele>
        <time>2022-04-06T11:07:01.865Z</time>
      </trkpt>
      <trkpt lat="42.25154" lon="22.75725">
        <ele>619.966674</ele>
        <time>2022-04-06T11:07:05.868Z</time>
      </trkpt>
      <trkpt lat="42.25159" lon="22.75711">
        <ele>620.176676</ele>
        <time>2022-04-06T11:07:10.866Z</time>
      </trkpt>
      <trkpt lat="42.25162" lon="22.75697">
        <ele>620.377541</ele>
        <time>2022-04-06T11:07:14.886Z</time>
      </trkpt>
      <trkpt lat="42.25165" lon="22.75684">
        <ele>620.556629</ele>
        <time>2022-04-06T11:07:17.870Z</time>
      </trkpt>
      <trkpt lat="42.25167" lon="22.75671">
        <ele>620.471933</ele>
        <time>2022-04-06T11:07:20.889Z</time>
      </trkpt>
      <trkpt lat="42.25171" lon="22.75657">
        <ele>619.90011</ele>
        <time>2022-04-06T11:07:23.872Z</time>
      </trkpt>
      <trkpt lat="42.25173" lon="22.7564">
        <ele>619.249742</ele>
        <time>2022-04-06T11:07:26.892Z</time>
      </trkpt>
      <trkpt lat="42.25175" lon="22.75627">
        <ele>618.760451</ele>
        <time>2022-04-06T11:07:28.864Z</time>
      </trkpt>
      <trkpt lat="42.25178" lon="22.75612">
        <ele>618.178244</ele>
        <time>2022-04-06T11:07:30.860Z</time>
      </trkpt>
      <trkpt lat="42.25181" lon="22.75594">
        <ele>617.483047</ele>
        <time>2022-04-06T11:07:32.887Z</time>
      </trkpt>
      <trkpt lat="42.25184" lon="22.75575">
        <ele>616.738009</ele>
        <time>2022-04-06T11:07:34.868Z</time>
      </trkpt>
      <trkpt lat="42.25188" lon="22.75555">
        <ele>615.968494</ele>
        <time>2022-04-06T11:07:36.858Z</time>
      </trkpt>
      <trkpt lat="42.25192" lon="22.75533">
        <ele>615.141989</ele>
        <time>2022-04-06T11:07:38.860Z</time>
      </trkpt>
      <trkpt lat="42.25197" lon="22.75512">
        <ele>614.280815</ele>
        <time>2022-04-06T11:07:40.868Z</time>
      </trkpt>
      <trkpt lat="42.25205" lon="22.75491">
        <ele>613.397201</ele>
        <time>2022-04-06T11:07:42.868Z</time>
      </trkpt>
      <trkpt lat="42.25217" lon="22.75473">
        <ele>612.507561</ele>
        <time>2022-04-06T11:07:44.859Z</time>
      </trkpt>
      <trkpt lat="42.25224" lon="22.75465">
        <ele>612.043276</ele>
        <time>2022-04-06T11:07:45.867Z</time>
      </trkpt>
      <trkpt lat="42.25231" lon="22.75458">
        <ele>611.582008</ele>
        <time>2022-04-06T11:07:46.867Z</time>
      </trkpt>
      <trkpt lat="42.25239" lon="22.7545">
        <ele>610.781578</ele>
        <time>2022-04-06T11:07:47.868Z</time>
      </trkpt>
      <trkpt lat="42.25247" lon="22.75443">
        <ele>609.930181</ele>
        <time>2022-04-06T11:07:48.862Z</time>
      </trkpt>
      <trkpt lat="42.25255" lon="22.75435">
        <ele>609.067968</ele>
        <time>2022-04-06T11:07:49.869Z</time>
      </trkpt>
      <trkpt lat="42.25263" lon="22.75428">
        <ele>608.183718</ele>
        <time>2022-04-06T11:07:50.891Z</time>
      </trkpt>
      <trkpt lat="42.25272" lon="22.7542">
        <ele>607.255314</ele>
        <time>2022-04-06T11:07:51.872Z</time>
      </trkpt>
      <trkpt lat="42.25281" lon="22.75412">
        <ele>606.305028</ele>
        <time>2022-04-06T11:07:52.869Z</time>
      </trkpt>
      <trkpt lat="42.2529" lon="22.75405">
        <ele>605.362176</ele>
        <time>2022-04-06T11:07:53.871Z</time>
      </trkpt>
      <trkpt lat="42.25299" lon="22.75397">
        <ele>604.400947</ele>
        <time>2022-04-06T11:07:54.867Z</time>
      </trkpt>
      <trkpt lat="42.25309" lon="22.75389">
        <ele>603.421327</ele>
        <time>2022-04-06T11:07:55.867Z</time>
      </trkpt>
      <trkpt lat="42.25318" lon="22.7538">
        <ele>602.412791</ele>
        <time>2022-04-06T11:07:56.895Z</time>
      </trkpt>
      <trkpt lat="42.25328" lon="22.75372">
        <ele>601.422596</ele>
        <time>2022-04-06T11:07:57.867Z</time>
      </trkpt>
      <trkpt lat="42.25337" lon="22.75364">
        <ele>600.435958</ele>
        <time>2022-04-06T11:07:58.870Z</time>
      </trkpt>
      <trkpt lat="42.25347" lon="22.75355">
        <ele>599.427605</ele>
        <time>2022-04-06T11:07:59.865Z</time>
      </trkpt>
      <trkpt lat="42.25356" lon="22.75347">
        <ele>598.422871</ele>
        <time>2022-04-06T11:08:00.862Z</time>
      </trkpt>
      <trkpt lat="42.25366" lon="22.75338">
        <ele>597.414336</ele>
        <time>2022-04-06T11:08:01.877Z</time>
      </trkpt>
      <trkpt lat="42.25376" lon="22.7533">
        <ele>596.386955</ele>
        <time>2022-04-06T11:08:02.889Z</time>
      </trkpt>
      <trkpt lat="42.25386" lon="22.75321">
        <ele>595.513817</ele>
        <time>2022-04-06T11:08:03.873Z</time>
      </trkpt>
      <trkpt lat="42.25396" lon="22.75312">
        <ele>595.015111</ele>
        <time>2022-04-06T11:08:04.864Z</time>
      </trkpt>
      <trkpt lat="42.25407" lon="22.75304">
        <ele>594.509542</ele>
        <time>2022-04-06T11:08:05.870Z</time>
      </trkpt>
      <trkpt lat="42.25418" lon="22.75295">
        <ele>593.998629</ele>
        <time>2022-04-06T11:08:06.870Z</time>
      </trkpt>
      <trkpt lat="42.25429" lon="22.75286">
        <ele>593.484244</ele>
        <time>2022-04-06T11:08:07.876Z</time>
      </trkpt>
      <trkpt lat="42.2544" lon="22.75277">
        <ele>592.972908</ele>
        <time>2022-04-06T11:08:08.892Z</time>
      </trkpt>
      <trkpt lat="42.2545" lon="22.75269">
        <ele>592.478581</ele>
        <time>2022-04-06T11:08:09.873Z</time>
      </trkpt>
      <trkpt lat="42.2546" lon="22.75261">
        <ele>591.994279</ele>
        <time>2022-04-06T11:08:10.866Z</time>
      </trkpt>
      <trkpt lat="42.25471" lon="22.75253">
        <ele>591.508871</ele>
        <time>2022-04-06T11:08:11.875Z</time>
      </trkpt>
      <trkpt lat="42.25481" lon="22.75246">
        <ele>591.048423</ele>
        <time>2022-04-06T11:08:12.859Z</time>
      </trkpt>
      <trkpt lat="42.2549" lon="22.75239">
        <ele>590.611496</ele>
        <time>2022-04-06T11:08:13.870Z</time>
      </trkpt>
      <trkpt lat="42.25499" lon="22.75232">
        <ele>590.188771</ele>
        <time>2022-04-06T11:08:14.888Z</time>
      </trkpt>
      <trkpt lat="42.25508" lon="22.75225">
        <ele>589.784579</ele>
        <time>2022-04-06T11:08:15.872Z</time>
      </trkpt>
      <trkpt lat="42.25516" lon="22.75219">
        <ele>589.408919</ele>
        <time>2022-04-06T11:08:16.861Z</time>
      </trkpt>
      <trkpt lat="42.25531" lon="22.75208">
        <ele>588.713199</ele>
        <time>2022-04-06T11:08:18.879Z</time>
      </trkpt>
      <trkpt lat="42.25544" lon="22.75197">
        <ele>588.688004</ele>
        <time>2022-04-06T11:08:20.863Z</time>
      </trkpt>
      <trkpt lat="42.25556" lon="22.75187">
        <ele>589.205279</ele>
        <time>2022-04-06T11:08:22.863Z</time>
      </trkpt>
      <trkpt lat="42.25565" lon="22.75177">
        <ele>589.654597</ele>
        <time>2022-04-06T11:08:24.867Z</time>
      </trkpt>
      <trkpt lat="42.25572" lon="22.75169">
        <ele>590.035951</ele>
        <time>2022-04-06T11:08:26.864Z</time>
      </trkpt>
      <trkpt lat="42.25579" lon="22.7516">
        <ele>590.389799</ele>
        <time>2022-04-06T11:08:28.860Z</time>
      </trkpt>
      <trkpt lat="42.25586" lon="22.75149">
        <ele>590.801399</ele>
        <time>2022-04-06T11:08:31.894Z</time>
      </trkpt>
      <trkpt lat="42.25593" lon="22.75137">
        <ele>591.245399</ele>
        <time>2022-04-06T11:08:35.876Z</time>
      </trkpt>
      <trkpt lat="42.25599" lon="22.75125">
        <ele>591.657067</ele>
        <time>2022-04-06T11:08:39.867Z</time>
      </trkpt>
      <trkpt lat="42.25605" lon="22.75115">
        <ele>592.0181</ele>
        <time>2022-04-06T11:08:43.894Z</time>
      </trkpt>
      <trkpt lat="42.2561" lon="22.75103">
        <ele>592.433271</ele>
        <time>2022-04-06T11:08:48.869Z</time>
      </trkpt>
      <trkpt lat="42.25614" lon="22.75092">
        <ele>592.785618</ele>
        <time>2022-04-06T11:08:53.870Z</time>
      </trkpt>
      <trkpt lat="42.25617" lon="22.75077">
        <ele>593.213929</ele>
        <time>2022-04-06T11:08:58.874Z</time>
      </trkpt>
      <trkpt lat="42.25618" lon="22.75064">
        <ele>593.58597</ele>
        <time>2022-04-06T11:09:02.870Z</time>
      </trkpt>
      <trkpt lat="42.25621" lon="22.75052">
        <ele>593.946141</ele>
        <time>2022-04-06T11:09:06.886Z</time>
      </trkpt>
      <trkpt lat="42.25623" lon="22.75038">
        <ele>594.373185</ele>
        <time>2022-04-06T11:09:11.867Z</time>
      </trkpt>
      <trkpt lat="42.25623" lon="22.75023">
        <ele>594.802333</ele>
        <time>2022-04-06T11:09:16.871Z</time>
      </trkpt>
      <trkpt lat="42.25622" lon="22.75009">
        <ele>595.185865</ele>
        <time>2022-04-06T11:09:20.862Z</time>
      </trkpt>
      <trkpt lat="42.25622" lon="22.74996">
        <ele>595.299738</ele>
        <time>2022-04-06T11:09:24.890Z</time>
      </trkpt>
      <trkpt lat="42.25621" lon="22.74984">
        <ele>595.221103</ele>
        <time>2022-04-06T11:09:28.871Z</time>
      </trkpt>
      <trkpt lat="42.25619" lon="22.74972">
        <ele>595.141517</ele>
        <time>2022-04-06T11:09:32.872Z</time>
      </trkpt>
      <trkpt lat="42.25615" lon="22.7496">
        <ele>595.056273</ele>
        <time>2022-04-06T11:09:36.889Z</time>
      </trkpt>
      <trkpt lat="42.2561" lon="22.74946">
        <ele>594.959352</ele>
        <time>2022-04-06T11:09:40.864Z</time>
      </trkpt>
      <trkpt lat="42.25605" lon="22.74935">
        <ele>594.875375</ele>
        <time>2022-04-06T11:09:43.872Z</time>
      </trkpt>
      <trkpt lat="42.256" lon="22.74924">
        <ele>594.789485</ele>
        <time>2022-04-06T11:09:46.867Z</time>
      </trkpt>
      <trkpt lat="42.25593" lon="22.74912">
        <ele>594.691349</ele>
        <time>2022-04-06T11:09:49.874Z</time>
      </trkpt>
      <trkpt lat="42.25585" lon="22.749">
        <ele>594.589866</ele>
        <time>2022-04-06T11:09:52.863Z</time>
      </trkpt>
      <trkpt lat="42.25577" lon="22.74887">
        <ele>594.484821</ele>
        <time>2022-04-06T11:09:55.863Z</time>
      </trkpt>
      <trkpt lat="42.25571" lon="22.74878">
        <ele>594.40469</ele>
        <time>2022-04-06T11:09:57.867Z</time>
      </trkpt>
      <trkpt lat="42.25564" lon="22.74869">
        <ele>594.319035</ele>
        <time>2022-04-06T11:09:59.870Z</time>
      </trkpt>
      <trkpt lat="42.25558" lon="22.74859">
        <ele>594.235281</ele>
        <time>2022-04-06T11:10:01.876Z</time>
      </trkpt>
      <trkpt lat="42.25551" lon="22.74848">
        <ele>594.146758</ele>
        <time>2022-04-06T11:10:03.875Z</time>
      </trkpt>
      <trkpt lat="42.25544" lon="22.74836">
        <ele>594.045427</ele>
        <time>2022-04-06T11:10:05.865Z</time>
      </trkpt>
      <trkpt lat="42.25536" lon="22.74823">
        <ele>593.939065</ele>
        <time>2022-04-06T11:10:07.874Z</time>
      </trkpt>
      <trkpt lat="42.25528" lon="22.74809">
        <ele>593.825891</ele>
        <time>2022-04-06T11:10:09.870Z</time>
      </trkpt>
      <trkpt lat="42.2552" lon="22.74795">
        <ele>593.655777</ele>
        <time>2022-04-06T11:10:11.870Z</time>
      </trkpt>
      <trkpt lat="42.25511" lon="22.74779">
        <ele>593.456001</ele>
        <time>2022-04-06T11:10:13.860Z</time>
      </trkpt>
      <trkpt lat="42.25504" lon="22.74764">
        <ele>593.267779</ele>
        <time>2022-04-06T11:10:15.874Z</time>
      </trkpt>
      <trkpt lat="42.25498" lon="22.74748">
        <ele>593.083755</ele>
        <time>2022-04-06T11:10:17.875Z</time>
      </trkpt>
      <trkpt lat="42.25491" lon="22.74732">
        <ele>592.898268</ele>
        <time>2022-04-06T11:10:19.922Z</time>
      </trkpt>
      <trkpt lat="42.25485" lon="22.74717">
        <ele>592.719077</ele>
        <time>2022-04-06T11:10:21.870Z</time>
      </trkpt>
      <trkpt lat="42.25479" lon="22.74701">
        <ele>592.539992</ele>
        <time>2022-04-06T11:10:23.893Z</time>
      </trkpt>
      <trkpt lat="42.25473" lon="22.74686">
        <ele>592.363277</ele>
        <time>2022-04-06T11:10:25.875Z</time>
      </trkpt>
      <trkpt lat="42.25468" lon="22.74673">
        <ele>592.211817</ele>
        <time>2022-04-06T11:10:27.869Z</time>
      </trkpt>
      <trkpt lat="42.25462" lon="22.74658">
        <ele>592.03859</ele>
        <time>2022-04-06T11:10:30.883Z</time>
      </trkpt>
      <trkpt lat="42.25454" lon="22.74647">
        <ele>591.877865</ele>
        <time>2022-04-06T11:10:33.866Z</time>
      </trkpt>
      <trkpt lat="42.25448" lon="22.74631">
        <ele>591.689671</ele>
        <time>2022-04-06T11:10:36.868Z</time>
      </trkpt>
      <trkpt lat="42.25442" lon="22.74618">
        <ele>591.532581</ele>
        <time>2022-04-06T11:10:38.868Z</time>
      </trkpt>
      <trkpt lat="42.25437" lon="22.74604">
        <ele>591.36394</ele>
        <time>2022-04-06T11:10:40.875Z</time>
      </trkpt>
      <trkpt lat="42.25429" lon="22.7459">
        <ele>591.310892</ele>
        <time>2022-04-06T11:10:42.867Z</time>
      </trkpt>
      <trkpt lat="42.25419" lon="22.74575">
        <ele>591.370928</ele>
        <time>2022-04-06T11:10:44.859Z</time>
      </trkpt>
      <trkpt lat="42.25409" lon="22.74559">
        <ele>591.434072</ele>
        <time>2022-04-06T11:10:46.870Z</time>
      </trkpt>
      <trkpt lat="42.254" lon="22.74541">
        <ele>591.500425</ele>
        <time>2022-04-06T11:10:48.863Z</time>
      </trkpt>
      <trkpt lat="42.25395" lon="22.7452">
        <ele>591.567435</ele>
        <time>2022-04-06T11:10:50.863Z</time>
      </trkpt>
      <trkpt lat="42.25397" lon="22.74501">
        <ele>591.62699</ele>
        <time>2022-04-06T11:10:52.909Z</time>
      </trkpt>
      <trkpt lat="42.25406" lon="22.74488">
        <ele>591.681676</ele>
        <time>2022-04-06T11:10:54.870Z</time>
      </trkpt>
      <trkpt lat="42.25415" lon="22.7448">
        <ele>591.726138</ele>
        <time>2022-04-06T11:10:56.870Z</time>
      </trkpt>
      <trkpt lat="42.25423" lon="22.74469">
        <ele>591.770864</ele>
        <time>2022-04-06T11:10:59.871Z</time>
      </trkpt>
      <trkpt lat="42.2543" lon="22.7446">
        <ele>591.812803</ele>
        <time>2022-04-06T11:11:03.876Z</time>
      </trkpt>
      <trkpt lat="42.25439" lon="22.74449">
        <ele>591.861153</ele>
        <time>2022-04-06T11:11:07.877Z</time>
      </trkpt>
      <trkpt lat="42.25448" lon="22.74441">
        <ele>591.906087</ele>
        <time>2022-04-06T11:11:10.867Z</time>
      </trkpt>
      <trkpt lat="42.25457" lon="22.74433">
        <ele>591.952071</ele>
        <time>2022-04-06T11:11:13.877Z</time>
      </trkpt>
      <trkpt lat="42.25468" lon="22.74423">
        <ele>592.003151</ele>
        <time>2022-04-06T11:11:16.864Z</time>
      </trkpt>
      <trkpt lat="42.25478" lon="22.74414">
        <ele>592.116667</ele>
        <time>2022-04-06T11:11:19.868Z</time>
      </trkpt>
      <trkpt lat="42.25489" lon="22.74405">
        <ele>592.275465</ele>
        <time>2022-04-06T11:11:22.867Z</time>
      </trkpt>
      <trkpt lat="42.255" lon="22.74395">
        <ele>592.437423</ele>
        <time>2022-04-06T11:11:25.863Z</time>
      </trkpt>
      <trkpt lat="42.25508" lon="22.74388">
        <ele>592.55295</ele>
        <time>2022-04-06T11:11:27.878Z</time>
      </trkpt>
      <trkpt lat="42.25519" lon="22.74378">
        <ele>592.716317</ele>
        <time>2022-04-06T11:11:30.864Z</time>
      </trkpt>
      <trkpt lat="42.25529" lon="22.74369">
        <ele>592.869547</ele>
        <time>2022-04-06T11:11:33.862Z</time>
      </trkpt>
      <trkpt lat="42.25537" lon="22.74361">
        <ele>592.988862</ele>
        <time>2022-04-06T11:11:35.863Z</time>
      </trkpt>
      <trkpt lat="42.25545" lon="22.74353">
        <ele>593.111573</ele>
        <time>2022-04-06T11:11:37.862Z</time>
      </trkpt>
      <trkpt lat="42.25552" lon="22.74345">
        <ele>593.229132</ele>
        <time>2022-04-06T11:11:39.870Z</time>
      </trkpt>
      <trkpt lat="42.25562" lon="22.74335">
        <ele>593.373772</ele>
        <time>2022-04-06T11:11:42.874Z</time>
      </trkpt>
      <trkpt lat="42.25573" lon="22.74328">
        <ele>593.530582</ele>
        <time>2022-04-06T11:11:45.864Z</time>
      </trkpt>
      <trkpt lat="42.25582" lon="22.74327">
        <ele>593.641584</ele>
        <time>2022-04-06T11:11:47.879Z</time>
      </trkpt>
      <trkpt lat="42.25595" lon="22.74331">
        <ele>593.80416</ele>
        <time>2022-04-06T11:11:50.872Z</time>
      </trkpt>
      <trkpt lat="42.25604" lon="22.74336">
        <ele>593.918035</ele>
        <time>2022-04-06T11:11:52.891Z</time>
      </trkpt>
      <trkpt lat="42.25612" lon="22.74342">
        <ele>594.03341</ele>
        <time>2022-04-06T11:11:54.862Z</time>
      </trkpt>
      <trkpt lat="42.25621" lon="22.74347">
        <ele>594.144294</ele>
        <time>2022-04-06T11:11:56.917Z</time>
      </trkpt>
      <trkpt lat="42.25632" lon="22.74353">
        <ele>594.323491</ele>
        <time>2022-04-06T11:11:59.863Z</time>
      </trkpt>
      <trkpt lat="42.25645" lon="22.7436">
        <ele>594.539982</ele>
        <time>2022-04-06T11:12:02.866Z</time>
      </trkpt>
      <trkpt lat="42.25653" lon="22.74365">
        <ele>594.699239</ele>
        <time>2022-04-06T11:12:04.898Z</time>
      </trkpt>
      <trkpt lat="42.25662" lon="22.74369">
        <ele>594.849862</ele>
        <time>2022-04-06T11:12:06.863Z</time>
      </trkpt>
      <trkpt lat="42.25673" lon="22.74375">
        <ele>595.050778</ele>
        <time>2022-04-06T11:12:09.866Z</time>
      </trkpt>
      <trkpt lat="42.25684" lon="22.74381">
        <ele>595.237615</ele>
        <time>2022-04-06T11:12:12.863Z</time>
      </trkpt>
      <trkpt lat="42.25692" lon="22.74388">
        <ele>595.39965</ele>
        <time>2022-04-06T11:12:15.871Z</time>
      </trkpt>
      <trkpt lat="42.25702" lon="22.74394">
        <ele>595.580902</ele>
        <time>2022-04-06T11:12:18.865Z</time>
      </trkpt>
      <trkpt lat="42.25714" lon="22.74401">
        <ele>595.788687</ele>
        <time>2022-04-06T11:12:21.873Z</time>
      </trkpt>
      <trkpt lat="42.25726" lon="22.74407">
        <ele>595.999472</ele>
        <time>2022-04-06T11:12:24.867Z</time>
      </trkpt>
      <trkpt lat="42.25738" lon="22.74413">
        <ele>596.20563</ele>
        <time>2022-04-06T11:12:27.867Z</time>
      </trkpt>
      <trkpt lat="42.2575" lon="22.74418">
        <ele>596.416331</ele>
        <time>2022-04-06T11:12:30.865Z</time>
      </trkpt>
      <trkpt lat="42.2576" lon="22.74419">
        <ele>596.588007</ele>
        <time>2022-04-06T11:12:34.859Z</time>
      </trkpt>
      <trkpt lat="42.25771" lon="22.74417">
        <ele>596.763048</ele>
        <time>2022-04-06T11:12:40.924Z</time>
      </trkpt>
      <trkpt lat="42.25779" lon="22.74412">
        <ele>596.912261</ele>
        <time>2022-04-06T11:12:45.862Z</time>
      </trkpt>
      <trkpt lat="42.25787" lon="22.74406">
        <ele>597.063853</ele>
        <time>2022-04-06T11:12:50.864Z</time>
      </trkpt>
      <trkpt lat="42.25796" lon="22.744">
        <ele>597.255163</ele>
        <time>2022-04-06T11:12:56.868Z</time>
      </trkpt>
      <trkpt lat="42.25805" lon="22.74393">
        <ele>597.494</ele>
        <time>2022-04-06T11:13:01.873Z</time>
      </trkpt>
      <trkpt lat="42.25814" lon="22.74385">
        <ele>597.741685</ele>
        <time>2022-04-06T11:13:06.869Z</time>
      </trkpt>
      <trkpt lat="42.2582" lon="22.74375">
        <ele>597.96742</ele>
        <time>2022-04-06T11:13:10.865Z</time>
      </trkpt>
      <trkpt lat="42.25827" lon="22.74363">
        <ele>598.211746</ele>
        <time>2022-04-06T11:13:14.886Z</time>
      </trkpt>
      <trkpt lat="42.25833" lon="22.74353">
        <ele>598.4516</ele>
        <time>2022-04-06T11:13:18.867Z</time>
      </trkpt>
      <trkpt lat="42.2584" lon="22.74342">
        <ele>598.701703</ele>
        <time>2022-04-06T11:13:22.862Z</time>
      </trkpt>
      <trkpt lat="42.25847" lon="22.74331">
        <ele>598.931171</ele>
        <time>2022-04-06T11:13:26.868Z</time>
      </trkpt>
      <trkpt lat="42.25854" lon="22.7432">
        <ele>599.185931</ele>
        <time>2022-04-06T11:13:31.888Z</time>
      </trkpt>
      <trkpt lat="42.25859" lon="22.74308">
        <ele>599.431248</ele>
        <time>2022-04-06T11:13:35.875Z</time>
      </trkpt>
      <trkpt lat="42.25867" lon="22.74297">
        <ele>599.687536</ele>
        <time>2022-04-06T11:13:39.876Z</time>
      </trkpt>
      <trkpt lat="42.25874" lon="22.74287">
        <ele>599.916983</ele>
        <time>2022-04-06T11:13:43.883Z</time>
      </trkpt>
      <trkpt lat="42.2588" lon="22.74277">
        <ele>600.151904</ele>
        <time>2022-04-06T11:13:46.863Z</time>
      </trkpt>
      <trkpt lat="42.25886" lon="22.74266">
        <ele>600.386825</ele>
        <time>2022-04-06T11:13:49.865Z</time>
      </trkpt>
      <trkpt lat="42.25894" lon="22.74255">
        <ele>600.654125</ele>
        <time>2022-04-06T11:13:53.869Z</time>
      </trkpt>
      <trkpt lat="42.25902" lon="22.74246">
        <ele>600.882368</ele>
        <time>2022-04-06T11:13:56.864Z</time>
      </trkpt>
      <trkpt lat="42.25912" lon="22.74238">
        <ele>601.144075</ele>
        <time>2022-04-06T11:14:00.869Z</time>
      </trkpt>
      <trkpt lat="42.2592" lon="22.74232">
        <ele>601.35555</ele>
        <time>2022-04-06T11:14:03.865Z</time>
      </trkpt>
      <trkpt lat="42.2593" lon="22.74226">
        <ele>600.983417</ele>
        <time>2022-04-06T11:14:07.878Z</time>
      </trkpt>
      <trkpt lat="42.2594" lon="22.74221">
        <ele>600.60459</ele>
        <time>2022-04-06T11:14:11.871Z</time>
      </trkpt>
      <trkpt lat="42.25949" lon="22.74215">
        <ele>600.240497</ele>
        <time>2022-04-06T11:14:15.859Z</time>
      </trkpt>
      <trkpt lat="42.25958" lon="22.74209">
        <ele>599.866529</ele>
        <time>2022-04-06T11:14:19.894Z</time>
      </trkpt>
      <trkpt lat="42.25968" lon="22.74201">
        <ele>599.485058</ele>
        <time>2022-04-06T11:14:23.871Z</time>
      </trkpt>
      <trkpt lat="42.25978" lon="22.74194">
        <ele>599.063094</ele>
        <time>2022-04-06T11:14:27.867Z</time>
      </trkpt>
      <trkpt lat="42.25987" lon="22.74188">
        <ele>598.721855</ele>
        <time>2022-04-06T11:14:30.863Z</time>
      </trkpt>
      <trkpt lat="42.25994" lon="22.74178">
        <ele>598.35532</ele>
        <time>2022-04-06T11:14:34.868Z</time>
      </trkpt>
      <trkpt lat="42.25999" lon="22.74168">
        <ele>598.027583</ele>
        <time>2022-04-06T11:14:37.862Z</time>
      </trkpt>
      <trkpt lat="42.26007" lon="22.74155">
        <ele>597.60257</ele>
        <time>2022-04-06T11:14:41.900Z</time>
      </trkpt>
      <trkpt lat="42.26014" lon="22.74144">
        <ele>597.219117</ele>
        <time>2022-04-06T11:14:44.868Z</time>
      </trkpt>
      <trkpt lat="42.26021" lon="22.74132">
        <ele>596.817358</ele>
        <time>2022-04-06T11:14:47.862Z</time>
      </trkpt>
      <trkpt lat="42.26026" lon="22.74123">
        <ele>596.491505</ele>
        <time>2022-04-06T11:14:49.875Z</time>
      </trkpt>
      <trkpt lat="42.26032" lon="22.74112">
        <ele>596.167833</ele>
        <time>2022-04-06T11:14:51.867Z</time>
      </trkpt>
      <trkpt lat="42.26037" lon="22.74102">
        <ele>595.84228</ele>
        <time>2022-04-06T11:14:53.861Z</time>
      </trkpt>
      <trkpt lat="42.26043" lon="22.74091">
        <ele>595.47875</ele>
        <time>2022-04-06T11:14:55.863Z</time>
      </trkpt>
      <trkpt lat="42.26049" lon="22.74079">
        <ele>595.093044</ele>
        <time>2022-04-06T11:14:57.874Z</time>
      </trkpt>
      <trkpt lat="42.26056" lon="22.74065">
        <ele>594.516403</ele>
        <time>2022-04-06T11:15:00.858Z</time>
      </trkpt>
      <trkpt lat="42.26063" lon="22.74051">
        <ele>593.849653</ele>
        <time>2022-04-06T11:15:03.860Z</time>
      </trkpt>
      <trkpt lat="42.26068" lon="22.74039">
        <ele>593.309057</ele>
        <time>2022-04-06T11:15:05.872Z</time>
      </trkpt>
      <trkpt lat="42.26072" lon="22.74024">
        <ele>592.698518</ele>
        <time>2022-04-06T11:15:07.872Z</time>
      </trkpt>
      <trkpt lat="42.26075" lon="22.74008">
        <ele>592.058468</ele>
        <time>2022-04-06T11:15:09.889Z</time>
      </trkpt>
      <trkpt lat="42.26077" lon="22.73993">
        <ele>591.456637</ele>
        <time>2022-04-06T11:15:11.871Z</time>
      </trkpt>
      <trkpt lat="42.26077" lon="22.73978">
        <ele>590.895261</ele>
        <time>2022-04-06T11:15:13.870Z</time>
      </trkpt>
      <trkpt lat="42.26077" lon="22.73963">
        <ele>590.306433</ele>
        <time>2022-04-06T11:15:15.866Z</time>
      </trkpt>
      <trkpt lat="42.26078" lon="22.73946">
        <ele>589.633025</ele>
        <time>2022-04-06T11:15:17.870Z</time>
      </trkpt>
      <trkpt lat="42.26078" lon="22.73928">
        <ele>588.940208</ele>
        <time>2022-04-06T11:15:19.867Z</time>
      </trkpt>
      <trkpt lat="42.26079" lon="22.73909">
        <ele>588.214623</ele>
        <time>2022-04-06T11:15:21.860Z</time>
      </trkpt>
      <trkpt lat="42.26079" lon="22.7389">
        <ele>587.459891</ele>
        <time>2022-04-06T11:15:23.867Z</time>
      </trkpt>
      <trkpt lat="42.26078" lon="22.73869">
        <ele>586.677286</ele>
        <time>2022-04-06T11:15:25.873Z</time>
      </trkpt>
      <trkpt lat="42.26078" lon="22.73848">
        <ele>585.860639</ele>
        <time>2022-04-06T11:15:27.875Z</time>
      </trkpt>
      <trkpt lat="42.26078" lon="22.73826">
        <ele>585.204269</ele>
        <time>2022-04-06T11:15:29.874Z</time>
      </trkpt>
      <trkpt lat="42.26079" lon="22.73803">
        <ele>584.619315</ele>
        <time>2022-04-06T11:15:31.872Z</time>
      </trkpt>
      <trkpt lat="42.2608" lon="22.7378">
        <ele>584.047461</ele>
        <time>2022-04-06T11:15:33.876Z</time>
      </trkpt>
      <trkpt lat="42.26084" lon="22.73759">
        <ele>583.499941</ele>
        <time>2022-04-06T11:15:35.865Z</time>
      </trkpt>
      <trkpt lat="42.26087" lon="22.73738">
        <ele>582.952102</ele>
        <time>2022-04-06T11:15:37.867Z</time>
      </trkpt>
      <trkpt lat="42.26091" lon="22.73717">
        <ele>582.425278</ele>
        <time>2022-04-06T11:15:39.860Z</time>
      </trkpt>
      <trkpt lat="42.26097" lon="22.73699">
        <ele>581.920639</ele>
        <time>2022-04-06T11:15:41.866Z</time>
      </trkpt>
      <trkpt lat="42.26104" lon="22.7368">
        <ele>581.401804</ele>
        <time>2022-04-06T11:15:43.875Z</time>
      </trkpt>
      <trkpt lat="42.26112" lon="22.73662">
        <ele>580.884751</ele>
        <time>2022-04-06T11:15:45.867Z</time>
      </trkpt>
      <trkpt lat="42.26119" lon="22.73646">
        <ele>580.407797</ele>
        <time>2022-04-06T11:15:47.860Z</time>
      </trkpt>
      <trkpt lat="42.26125" lon="22.7363">
        <ele>579.945092</ele>
        <time>2022-04-06T11:15:49.860Z</time>
      </trkpt>
      <trkpt lat="42.26133" lon="22.73615">
        <ele>579.496729</ele>
        <time>2022-04-06T11:15:51.867Z</time>
      </trkpt>
      <trkpt lat="42.2614" lon="22.73599">
        <ele>579.303638</ele>
        <time>2022-04-06T11:15:53.861Z</time>
      </trkpt>
      <trkpt lat="42.26146" lon="22.73584">
        <ele>579.130342</ele>
        <time>2022-04-06T11:15:55.868Z</time>
      </trkpt>
      <trkpt lat="42.26153" lon="22.73569">
        <ele>578.963059</ele>
        <time>2022-04-06T11:15:57.865Z</time>
      </trkpt>
      <trkpt lat="42.2616" lon="22.73556">
        <ele>578.801299</ele>
        <time>2022-04-06T11:15:59.859Z</time>
      </trkpt>
      <trkpt lat="42.26167" lon="22.73543">
        <ele>578.648287</ele>
        <time>2022-04-06T11:16:01.866Z</time>
      </trkpt>
      <trkpt lat="42.26173" lon="22.7353">
        <ele>578.50314</ele>
        <time>2022-04-06T11:16:03.893Z</time>
      </trkpt>
      <trkpt lat="42.26179" lon="22.73518">
        <ele>578.362483</ele>
        <time>2022-04-06T11:16:05.875Z</time>
      </trkpt>
      <trkpt lat="42.26184" lon="22.73507">
        <ele>578.228168</ele>
        <time>2022-04-06T11:16:07.873Z</time>
      </trkpt>
      <trkpt lat="42.2619" lon="22.73496">
        <ele>578.09876</ele>
        <time>2022-04-06T11:16:09.859Z</time>
      </trkpt>
      <trkpt lat="42.26196" lon="22.73486">
        <ele>577.968555</ele>
        <time>2022-04-06T11:16:11.873Z</time>
      </trkpt>
      <trkpt lat="42.26202" lon="22.73476">
        <ele>577.849291</ele>
        <time>2022-04-06T11:16:13.866Z</time>
      </trkpt>
      <trkpt lat="42.26211" lon="22.73463">
        <ele>577.675952</ele>
        <time>2022-04-06T11:16:16.866Z</time>
      </trkpt>
      <trkpt lat="42.26219" lon="22.7345">
        <ele>577.513848</ele>
        <time>2022-04-06T11:16:19.863Z</time>
      </trkpt>
      <trkpt lat="42.26228" lon="22.73438">
        <ele>577.341844</ele>
        <time>2022-04-06T11:16:22.858Z</time>
      </trkpt>
      <trkpt lat="42.26237" lon="22.73426">
        <ele>577.17421</ele>
        <time>2022-04-06T11:16:25.886Z</time>
      </trkpt>
      <trkpt lat="42.26246" lon="22.73414">
        <ele>577.018592</ele>
        <time>2022-04-06T11:16:28.860Z</time>
      </trkpt>
      <trkpt lat="42.26256" lon="22.73404">
        <ele>576.86777</ele>
        <time>2022-04-06T11:16:31.892Z</time>
      </trkpt>
      <trkpt lat="42.26266" lon="22.73394">
        <ele>576.722803</ele>
        <time>2022-04-06T11:16:34.870Z</time>
      </trkpt>
      <trkpt lat="42.26273" lon="22.73383">
        <ele>576.59096</ele>
        <time>2022-04-06T11:16:37.885Z</time>
      </trkpt>
      <trkpt lat="42.26281" lon="22.73374">
        <ele>576.461375</ele>
        <time>2022-04-06T11:16:40.867Z</time>
      </trkpt>
      <trkpt lat="42.26289" lon="22.73364">
        <ele>576.333501</ele>
        <time>2022-04-06T11:16:43.893Z</time>
      </trkpt>
      <trkpt lat="42.26297" lon="22.73353">
        <ele>576.197626</ele>
        <time>2022-04-06T11:16:46.867Z</time>
      </trkpt>
      <trkpt lat="42.26306" lon="22.73342">
        <ele>576.048981</ele>
        <time>2022-04-06T11:16:49.876Z</time>
      </trkpt>
      <trkpt lat="42.26315" lon="22.7333">
        <ele>575.895866</ele>
        <time>2022-04-06T11:16:52.865Z</time>
      </trkpt>
      <trkpt lat="42.26324" lon="22.73317">
        <ele>575.741349</ele>
        <time>2022-04-06T11:16:55.869Z</time>
      </trkpt>
      <trkpt lat="42.26333" lon="22.73306">
        <ele>575.593063</ele>
        <time>2022-04-06T11:16:58.879Z</time>
      </trkpt>
      <trkpt lat="42.26342" lon="22.73296">
        <ele>575.455524</ele>
        <time>2022-04-06T11:17:01.885Z</time>
      </trkpt>
      <trkpt lat="42.2635" lon="22.73285">
        <ele>575.310544</ele>
        <time>2022-04-06T11:17:04.882Z</time>
      </trkpt>
      <trkpt lat="42.26359" lon="22.73272">
        <ele>575.156106</ele>
        <time>2022-04-06T11:17:07.886Z</time>
      </trkpt>
      <trkpt lat="42.26367" lon="22.73261">
        <ele>575.01303</ele>
        <time>2022-04-06T11:17:10.884Z</time>
      </trkpt>
      <trkpt lat="42.26376" lon="22.7325">
        <ele>574.992183</ele>
        <time>2022-04-06T11:17:13.902Z</time>
      </trkpt>
      <trkpt lat="42.26384" lon="22.7324">
        <ele>575.119033</ele>
        <time>2022-04-06T11:17:16.892Z</time>
      </trkpt>
      <trkpt lat="42.26391" lon="22.7323">
        <ele>575.233103</ele>
        <time>2022-04-06T11:17:19.895Z</time>
      </trkpt>
      <trkpt lat="42.26399" lon="22.7322">
        <ele>575.348992</ele>
        <time>2022-04-06T11:17:22.891Z</time>
      </trkpt>
      <trkpt lat="42.26406" lon="22.73211">
        <ele>575.452569</ele>
        <time>2022-04-06T11:17:25.893Z</time>
      </trkpt>
      <trkpt lat="42.26411" lon="22.73202">
        <ele>575.553539</ele>
        <time>2022-04-06T11:17:28.889Z</time>
      </trkpt>
      <trkpt lat="42.26417" lon="22.73192">
        <ele>575.653137</ele>
        <time>2022-04-06T11:17:31.907Z</time>
      </trkpt>
      <trkpt lat="42.26424" lon="22.73179">
        <ele>575.785692</ele>
        <time>2022-04-06T11:17:35.877Z</time>
      </trkpt>
      <trkpt lat="42.26429" lon="22.73168">
        <ele>575.890638</ele>
        <time>2022-04-06T11:17:38.941Z</time>
      </trkpt>
      <trkpt lat="42.26435" lon="22.73157">
        <ele>576.00039</ele>
        <time>2022-04-06T11:17:41.890Z</time>
      </trkpt>
      <trkpt lat="42.2644" lon="22.73145">
        <ele>576.112927</ele>
        <time>2022-04-06T11:17:44.911Z</time>
      </trkpt>
      <trkpt lat="42.26445" lon="22.73133">
        <ele>576.230025</ele>
        <time>2022-04-06T11:17:47.873Z</time>
      </trkpt>
      <trkpt lat="42.26449" lon="22.73119">
        <ele>576.35104</ele>
        <time>2022-04-06T11:17:50.944Z</time>
      </trkpt>
      <trkpt lat="42.26454" lon="22.73105">
        <ele>576.474209</ele>
        <time>2022-04-06T11:17:53.875Z</time>
      </trkpt>
      <trkpt lat="42.26458" lon="22.73091">
        <ele>576.601373</ele>
        <time>2022-04-06T11:17:56.897Z</time>
      </trkpt>
      <trkpt lat="42.26462" lon="22.73077">
        <ele>576.727947</ele>
        <time>2022-04-06T11:17:59.875Z</time>
      </trkpt>
      <trkpt lat="42.26466" lon="22.73063">
        <ele>576.852593</ele>
        <time>2022-04-06T11:18:02.867Z</time>
      </trkpt>
      <trkpt lat="42.2647" lon="22.73049">
        <ele>576.938104</ele>
        <time>2022-04-06T11:18:05.874Z</time>
      </trkpt>
      <trkpt lat="42.26474" lon="22.73035">
        <ele>576.967792</ele>
        <time>2022-04-06T11:18:08.870Z</time>
      </trkpt>
      <trkpt lat="42.26478" lon="22.7302">
        <ele>576.998126</ele>
        <time>2022-04-06T11:18:11.861Z</time>
      </trkpt>
      <trkpt lat="42.26482" lon="22.73006">
        <ele>577.026285</ele>
        <time>2022-04-06T11:18:14.869Z</time>
      </trkpt>
      <trkpt lat="42.26486" lon="22.72993">
        <ele>577.054028</ele>
        <time>2022-04-06T11:18:17.868Z</time>
      </trkpt>
      <trkpt lat="42.2649" lon="22.72979">
        <ele>577.082819</ele>
        <time>2022-04-06T11:18:20.879Z</time>
      </trkpt>
      <trkpt lat="42.26494" lon="22.72965">
        <ele>577.111623</ele>
        <time>2022-04-06T11:18:23.860Z</time>
      </trkpt>
      <trkpt lat="42.26498" lon="22.72949">
        <ele>577.142754</ele>
        <time>2022-04-06T11:18:26.865Z</time>
      </trkpt>
      <trkpt lat="42.26502" lon="22.72935">
        <ele>577.17299</ele>
        <time>2022-04-06T11:18:29.865Z</time>
      </trkpt>
      <trkpt lat="42.26506" lon="22.7292">
        <ele>577.202415</ele>
        <time>2022-04-06T11:18:32.869Z</time>
      </trkpt>
      <trkpt lat="42.26509" lon="22.72906">
        <ele>577.231926</ele>
        <time>2022-04-06T11:18:35.871Z</time>
      </trkpt>
      <trkpt lat="42.26513" lon="22.72893">
        <ele>577.258376</ele>
        <time>2022-04-06T11:18:38.877Z</time>
      </trkpt>
      <trkpt lat="42.26516" lon="22.7288">
        <ele>577.284032</ele>
        <time>2022-04-06T11:18:41.863Z</time>
      </trkpt>
      <trkpt lat="42.26519" lon="22.72868">
        <ele>577.309061</ele>
        <time>2022-04-06T11:18:44.867Z</time>
      </trkpt>
      <trkpt lat="42.26523" lon="22.72854">
        <ele>577.33614</ele>
        <time>2022-04-06T11:18:47.859Z</time>
      </trkpt>
      <trkpt lat="42.26527" lon="22.72841">
        <ele>577.363671</ele>
        <time>2022-04-06T11:18:50.868Z</time>
      </trkpt>
      <trkpt lat="42.2653" lon="22.72828">
        <ele>577.39102</ele>
        <time>2022-04-06T11:18:53.877Z</time>
      </trkpt>
      <trkpt lat="42.26534" lon="22.72814">
        <ele>577.437169</ele>
        <time>2022-04-06T11:18:56.864Z</time>
      </trkpt>
      <trkpt lat="42.26538" lon="22.728">
        <ele>577.48762</ele>
        <time>2022-04-06T11:18:59.869Z</time>
      </trkpt>
      <trkpt lat="42.26543" lon="22.72785">
        <ele>577.540247</ele>
        <time>2022-04-06T11:19:02.877Z</time>
      </trkpt>
      <trkpt lat="42.26547" lon="22.72771">
        <ele>577.591156</ele>
        <time>2022-04-06T11:19:05.865Z</time>
      </trkpt>
      <trkpt lat="42.2655" lon="22.72756">
        <ele>577.643176</ele>
        <time>2022-04-06T11:19:08.859Z</time>
      </trkpt>
      <trkpt lat="42.26554" lon="22.7274">
        <ele>577.696885</ele>
        <time>2022-04-06T11:19:11.866Z</time>
      </trkpt>
      <trkpt lat="42.26558" lon="22.72725">
        <ele>577.748905</ele>
        <time>2022-04-06T11:19:14.873Z</time>
      </trkpt>
      <trkpt lat="42.26562" lon="22.72711">
        <ele>577.800434</ele>
        <time>2022-04-06T11:19:17.869Z</time>
      </trkpt>
      <trkpt lat="42.26566" lon="22.72696">
        <ele>577.851861</ele>
        <time>2022-04-06T11:19:20.860Z</time>
      </trkpt>
      <trkpt lat="42.26569" lon="22.72681">
        <ele>577.905452</ele>
        <time>2022-04-06T11:19:23.874Z</time>
      </trkpt>
      <trkpt lat="42.26573" lon="22.72665">
        <ele>577.959785</ele>
        <time>2022-04-06T11:19:26.881Z</time>
      </trkpt>
      <trkpt lat="42.26577" lon="22.7265">
        <ele>578.012409</ele>
        <time>2022-04-06T11:19:29.863Z</time>
      </trkpt>
      <trkpt lat="42.26581" lon="22.72636">
        <ele>578.06286</ele>
        <time>2022-04-06T11:19:32.865Z</time>
      </trkpt>
      <trkpt lat="42.26585" lon="22.72622">
        <ele>578.111299</ele>
        <time>2022-04-06T11:19:35.866Z</time>
      </trkpt>
      <trkpt lat="42.26589" lon="22.72609">
        <ele>578.157898</ele>
        <time>2022-04-06T11:19:38.874Z</time>
      </trkpt>
      <trkpt lat="42.26593" lon="22.72598">
        <ele>578.199139</ele>
        <time>2022-04-06T11:19:41.872Z</time>
      </trkpt>
      <trkpt lat="42.26596" lon="22.72586">
        <ele>578.396537</ele>
        <time>2022-04-06T11:19:44.859Z</time>
      </trkpt>
      <trkpt lat="42.266" lon="22.72572">
        <ele>578.629447</ele>
        <time>2022-04-06T11:19:48.885Z</time>
      </trkpt>
      <trkpt lat="42.26604" lon="22.72557">
        <ele>578.86806</ele>
        <time>2022-04-06T11:19:52.867Z</time>
      </trkpt>
      <trkpt lat="42.26607" lon="22.72546">
        <ele>579.057535</ele>
        <time>2022-04-06T11:19:55.870Z</time>
      </trkpt>
      <trkpt lat="42.2661" lon="22.72532">
        <ele>579.280346</ele>
        <time>2022-04-06T11:19:58.861Z</time>
      </trkpt>
      <trkpt lat="42.26614" lon="22.7252">
        <ele>579.485266</ele>
        <time>2022-04-06T11:20:01.871Z</time>
      </trkpt>
      <trkpt lat="42.26617" lon="22.72508">
        <ele>579.683399</ele>
        <time>2022-04-06T11:20:04.860Z</time>
      </trkpt>
      <trkpt lat="42.2662" lon="22.72496">
        <ele>579.879383</ele>
        <time>2022-04-06T11:20:07.862Z</time>
      </trkpt>
      <trkpt lat="42.26624" lon="22.72484">
        <ele>580.076781</ele>
        <time>2022-04-06T11:20:10.868Z</time>
      </trkpt>
      <trkpt lat="42.26627" lon="22.72472">
        <ele>580.270139</ele>
        <time>2022-04-06T11:20:13.873Z</time>
      </trkpt>
      <trkpt lat="42.26631" lon="22.7246">
        <ele>580.47487</ele>
        <time>2022-04-06T11:20:16.869Z</time>
      </trkpt>
      <trkpt lat="42.26634" lon="22.72448">
        <ele>580.67231</ele>
        <time>2022-04-06T11:20:19.874Z</time>
      </trkpt>
      <trkpt lat="42.26637" lon="22.72435">
        <ele>580.872215</ele>
        <time>2022-04-06T11:20:22.862Z</time>
      </trkpt>
      <trkpt lat="42.2664" lon="22.72422">
        <ele>581.080986</ele>
        <time>2022-04-06T11:20:25.874Z</time>
      </trkpt>
      <trkpt lat="42.26643" lon="22.7241">
        <ele>581.281308</ele>
        <time>2022-04-06T11:20:28.865Z</time>
      </trkpt>
      <trkpt lat="42.26647" lon="22.72396">
        <ele>581.518476</ele>
        <time>2022-04-06T11:20:32.866Z</time>
      </trkpt>
      <trkpt lat="42.26651" lon="22.72384">
        <ele>581.713066</ele>
        <time>2022-04-06T11:20:35.879Z</time>
      </trkpt>
      <trkpt lat="42.26655" lon="22.72372">
        <ele>581.921438</ele>
        <time>2022-04-06T11:20:38.868Z</time>
      </trkpt>
      <trkpt lat="42.26658" lon="22.72359">
        <ele>582.146377</ele>
        <time>2022-04-06T11:20:41.869Z</time>
      </trkpt>
      <trkpt lat="42.26662" lon="22.72346">
        <ele>582.381072</ele>
        <time>2022-04-06T11:20:44.866Z</time>
      </trkpt>
      <trkpt lat="42.26666" lon="22.72334">
        <ele>582.6125</ele>
        <time>2022-04-06T11:20:47.869Z</time>
      </trkpt>
      <trkpt lat="42.26669" lon="22.72322">
        <ele>582.828376</ele>
        <time>2022-04-06T11:20:50.863Z</time>
      </trkpt>
      <trkpt lat="42.26673" lon="22.72311">
        <ele>583.036945</ele>
        <time>2022-04-06T11:20:53.869Z</time>
      </trkpt>
      <trkpt lat="42.26679" lon="22.72297">
        <ele>583.31185</ele>
        <time>2022-04-06T11:20:57.868Z</time>
      </trkpt>
      <trkpt lat="42.26684" lon="22.72285">
        <ele>583.536195</ele>
        <time>2022-04-06T11:21:00.887Z</time>
      </trkpt>
      <trkpt lat="42.26689" lon="22.72274">
        <ele>583.772071</ele>
        <time>2022-04-06T11:21:03.875Z</time>
      </trkpt>
      <trkpt lat="42.26695" lon="22.72262">
        <ele>584.008744</ele>
        <time>2022-04-06T11:21:06.864Z</time>
      </trkpt>
      <trkpt lat="42.26701" lon="22.72252">
        <ele>584.224887</ele>
        <time>2022-04-06T11:21:09.869Z</time>
      </trkpt>
      <trkpt lat="42.26707" lon="22.72238">
        <ele>584.498162</ele>
        <time>2022-04-06T11:21:13.877Z</time>
      </trkpt>
      <trkpt lat="42.26714" lon="22.72226">
        <ele>584.762334</ele>
        <time>2022-04-06T11:21:17.874Z</time>
      </trkpt>
      <trkpt lat="42.2672" lon="22.72213">
        <ele>585.019536</ele>
        <time>2022-04-06T11:21:21.874Z</time>
      </trkpt>
      <trkpt lat="42.26726" lon="22.722">
        <ele>585.278815</ele>
        <time>2022-04-06T11:21:25.869Z</time>
      </trkpt>
      <trkpt lat="42.26732" lon="22.72187">
        <ele>585.547538</ele>
        <time>2022-04-06T11:21:29.877Z</time>
      </trkpt>
      <trkpt lat="42.26738" lon="22.72176">
        <ele>585.775991</ele>
        <time>2022-04-06T11:21:32.866Z</time>
      </trkpt>
      <trkpt lat="42.26744" lon="22.72166">
        <ele>585.993543</ele>
        <time>2022-04-06T11:21:35.872Z</time>
      </trkpt>
      <trkpt lat="42.26751" lon="22.72153">
        <ele>586.000587</ele>
        <time>2022-04-06T11:21:39.898Z</time>
      </trkpt>
      <trkpt lat="42.26757" lon="22.72142">
        <ele>585.899701</ele>
        <time>2022-04-06T11:21:42.868Z</time>
      </trkpt>
      <trkpt lat="42.26763" lon="22.72131">
        <ele>585.797653</ele>
        <time>2022-04-06T11:21:45.890Z</time>
      </trkpt>
      <trkpt lat="42.26769" lon="22.7212">
        <ele>585.698573</ele>
        <time>2022-04-06T11:21:48.859Z</time>
      </trkpt>
      <trkpt lat="42.26775" lon="22.72109">
        <ele>585.60303</ele>
        <time>2022-04-06T11:21:51.873Z</time>
      </trkpt>
      <trkpt lat="42.26781" lon="22.72098">
        <ele>585.496195</ele>
        <time>2022-04-06T11:21:54.866Z</time>
      </trkpt>
      <trkpt lat="42.26787" lon="22.72084">
        <ele>585.381343</ele>
        <time>2022-04-06T11:21:57.871Z</time>
      </trkpt>
      <trkpt lat="42.26791" lon="22.72072">
        <ele>585.277654</ele>
        <time>2022-04-06T11:22:00.863Z</time>
      </trkpt>
      <trkpt lat="42.26795" lon="22.7206">
        <ele>585.17985</ele>
        <time>2022-04-06T11:22:03.870Z</time>
      </trkpt>
      <trkpt lat="42.26799" lon="22.72048">
        <ele>585.085345</ele>
        <time>2022-04-06T11:22:06.862Z</time>
      </trkpt>
      <trkpt lat="42.26802" lon="22.72032">
        <ele>584.965163</ele>
        <time>2022-04-06T11:22:09.869Z</time>
      </trkpt>
      <trkpt lat="42.26805" lon="22.7202">
        <ele>584.869603</ele>
        <time>2022-04-06T11:22:11.878Z</time>
      </trkpt>
      <trkpt lat="42.26807" lon="22.72007">
        <ele>584.772617</ele>
        <time>2022-04-06T11:22:13.878Z</time>
      </trkpt>
      <trkpt lat="42.2681" lon="22.71993">
        <ele>584.668873</ele>
        <time>2022-04-06T11:22:15.870Z</time>
      </trkpt>
      <trkpt lat="42.26813" lon="22.71979">
        <ele>584.560131</ele>
        <time>2022-04-06T11:22:17.876Z</time>
      </trkpt>
      <trkpt lat="42.26816" lon="22.71964">
        <ele>584.446678</ele>
        <time>2022-04-06T11:22:19.866Z</time>
      </trkpt>
      <trkpt lat="42.26819" lon="22.71949">
        <ele>584.326505</ele>
        <time>2022-04-06T11:22:21.867Z</time>
      </trkpt>
      <trkpt lat="42.26822" lon="22.71932">
        <ele>584.019731</ele>
        <time>2022-04-06T11:22:23.860Z</time>
      </trkpt>
      <trkpt lat="42.26826" lon="22.71914">
        <ele>583.611918</ele>
        <time>2022-04-06T11:22:25.872Z</time>
      </trkpt>
      <trkpt lat="42.26832" lon="22.71896">
        <ele>583.171058</ele>
        <time>2022-04-06T11:22:27.859Z</time>
      </trkpt>
      <trkpt lat="42.26838" lon="22.71877">
        <ele>582.723715</ele>
        <time>2022-04-06T11:22:29.873Z</time>
      </trkpt>
      <trkpt lat="42.26845" lon="22.7186">
        <ele>582.290035</ele>
        <time>2022-04-06T11:22:31.901Z</time>
      </trkpt>
      <trkpt lat="42.26853" lon="22.71843">
        <ele>581.851797</ele>
        <time>2022-04-06T11:22:33.868Z</time>
      </trkpt>
      <trkpt lat="42.26861" lon="22.71827">
        <ele>581.418388</ele>
        <time>2022-04-06T11:22:35.870Z</time>
      </trkpt>
      <trkpt lat="42.26869" lon="22.71812">
        <ele>581.006901</ele>
        <time>2022-04-06T11:22:37.879Z</time>
      </trkpt>
      <trkpt lat="42.26878" lon="22.71798">
        <ele>580.600333</ele>
        <time>2022-04-06T11:22:39.879Z</time>
      </trkpt>
      <trkpt lat="42.26888" lon="22.71788">
        <ele>580.240399</ele>
        <time>2022-04-06T11:22:41.866Z</time>
      </trkpt>
      <trkpt lat="42.26895" lon="22.71779">
        <ele>579.955986</ele>
        <time>2022-04-06T11:22:43.863Z</time>
      </trkpt>
      <trkpt lat="42.26901" lon="22.7177">
        <ele>579.677974</ele>
        <time>2022-04-06T11:22:45.871Z</time>
      </trkpt>
      <trkpt lat="42.2691" lon="22.71757">
        <ele>579.285835</ele>
        <time>2022-04-06T11:22:48.863Z</time>
      </trkpt>
      <trkpt lat="42.26918" lon="22.71747">
        <ele>578.973795</ele>
        <time>2022-04-06T11:22:51.878Z</time>
      </trkpt>
      <trkpt lat="42.26926" lon="22.71737">
        <ele>579.068589</ele>
        <time>2022-04-06T11:22:54.875Z</time>
      </trkpt>
      <trkpt lat="42.26934" lon="22.71726">
        <ele>579.233196</ele>
        <time>2022-04-06T11:22:57.877Z</time>
      </trkpt>
      <trkpt lat="42.26941" lon="22.71715">
        <ele>579.393873</ele>
        <time>2022-04-06T11:23:00.860Z</time>
      </trkpt>
      <trkpt lat="42.26949" lon="22.71706">
        <ele>579.542669</ele>
        <time>2022-04-06T11:23:03.873Z</time>
      </trkpt>
      <trkpt lat="42.26956" lon="22.71694">
        <ele>579.705354</ele>
        <time>2022-04-06T11:23:06.860Z</time>
      </trkpt>
      <trkpt lat="42.26962" lon="22.71682">
        <ele>579.864589</ele>
        <time>2022-04-06T11:23:09.870Z</time>
      </trkpt>
      <trkpt lat="42.26969" lon="22.71669">
        <ele>580.034392</ele>
        <time>2022-04-06T11:23:12.860Z</time>
      </trkpt>
      <trkpt lat="42.26975" lon="22.71656">
        <ele>580.201584</ele>
        <time>2022-04-06T11:23:15.870Z</time>
      </trkpt>
      <trkpt lat="42.26979" lon="22.71643">
        <ele>580.356832</ele>
        <time>2022-04-06T11:23:18.870Z</time>
      </trkpt>
      <trkpt lat="42.26984" lon="22.71628">
        <ele>580.528914</ele>
        <time>2022-04-06T11:23:21.893Z</time>
      </trkpt>
      <trkpt lat="42.26988" lon="22.71613">
        <ele>580.704122</ele>
        <time>2022-04-06T11:23:24.875Z</time>
      </trkpt>
      <trkpt lat="42.26993" lon="22.71599">
        <ele>580.878522</ele>
        <time>2022-04-06T11:23:27.893Z</time>
      </trkpt>
      <trkpt lat="42.26997" lon="22.71583">
        <ele>581.051048</ele>
        <time>2022-04-06T11:23:30.875Z</time>
      </trkpt>
      <trkpt lat="42.27001" lon="22.71568">
        <ele>581.226576</ele>
        <time>2022-04-06T11:23:33.873Z</time>
      </trkpt>
      <trkpt lat="42.27005" lon="22.71553">
        <ele>581.401116</ele>
        <time>2022-04-06T11:23:36.857Z</time>
      </trkpt>
      <trkpt lat="42.27009" lon="22.71538">
        <ele>581.539385</ele>
        <time>2022-04-06T11:23:39.862Z</time>
      </trkpt>
      <trkpt lat="42.27015" lon="22.71524">
        <ele>581.422821</ele>
        <time>2022-04-06T11:23:42.859Z</time>
      </trkpt>
      <trkpt lat="42.2702" lon="22.71509">
        <ele>581.302569</ele>
        <time>2022-04-06T11:23:45.863Z</time>
      </trkpt>
      <trkpt lat="42.27025" lon="22.71494">
        <ele>581.18012</ele>
        <time>2022-04-06T11:23:48.860Z</time>
      </trkpt>
      <trkpt lat="42.27032" lon="22.71479">
        <ele>581.054304</ele>
        <time>2022-04-06T11:23:51.874Z</time>
      </trkpt>
      <trkpt lat="42.27039" lon="22.71466">
        <ele>580.934154</ele>
        <time>2022-04-06T11:23:54.860Z</time>
      </trkpt>
      <trkpt lat="42.27044" lon="22.71451">
        <ele>580.81016</ele>
        <time>2022-04-06T11:23:57.861Z</time>
      </trkpt>
      <trkpt lat="42.27052" lon="22.71438">
        <ele>580.687082</ele>
        <time>2022-04-06T11:24:00.870Z</time>
      </trkpt>
      <trkpt lat="42.2706" lon="22.71427">
        <ele>580.578893</ele>
        <time>2022-04-06T11:24:03.874Z</time>
      </trkpt>
      <trkpt lat="42.27067" lon="22.71418">
        <ele>580.476951</ele>
        <time>2022-04-06T11:24:06.895Z</time>
      </trkpt>
      <trkpt lat="42.27075" lon="22.71407">
        <ele>580.366421</ele>
        <time>2022-04-06T11:24:09.866Z</time>
      </trkpt>
      <trkpt lat="42.27083" lon="22.71398">
        <ele>580.262027</ele>
        <time>2022-04-06T11:24:12.872Z</time>
      </trkpt>
      <trkpt lat="42.27092" lon="22.7139">
        <ele>580.158675</ele>
        <time>2022-04-06T11:24:15.880Z</time>
      </trkpt>
      <trkpt lat="42.27101" lon="22.71381">
        <ele>580.044883</ele>
        <time>2022-04-06T11:24:18.864Z</time>
      </trkpt>
      <trkpt lat="42.27108" lon="22.71369">
        <ele>579.932045</ele>
        <time>2022-04-06T11:24:21.866Z</time>
      </trkpt>
      <trkpt lat="42.27114" lon="22.71359">
        <ele>579.832683</ele>
        <time>2022-04-06T11:24:24.858Z</time>
      </trkpt>
      <trkpt lat="42.27119" lon="22.71346">
        <ele>579.774978</ele>
        <time>2022-04-06T11:24:27.867Z</time>
      </trkpt>
      <trkpt lat="42.27125" lon="22.71332">
        <ele>579.796166</ele>
        <time>2022-04-06T11:24:30.867Z</time>
      </trkpt>
      <trkpt lat="42.27131" lon="22.71318">
        <ele>579.81786</ele>
        <time>2022-04-06T11:24:33.875Z</time>
      </trkpt>
      <trkpt lat="42.27137" lon="22.71303">
        <ele>579.84019</ele>
        <time>2022-04-06T11:24:36.863Z</time>
      </trkpt>
      <trkpt lat="42.27143" lon="22.71288">
        <ele>579.863948</ele>
        <time>2022-04-06T11:24:39.878Z</time>
      </trkpt>
      <trkpt lat="42.27149" lon="22.71272">
        <ele>579.887705</ele>
        <time>2022-04-06T11:24:42.873Z</time>
      </trkpt>
      <trkpt lat="42.27155" lon="22.71256">
        <ele>579.911271</ele>
        <time>2022-04-06T11:24:45.865Z</time>
      </trkpt>
      <trkpt lat="42.27161" lon="22.71242">
        <ele>579.933465</ele>
        <time>2022-04-06T11:24:48.873Z</time>
      </trkpt>
      <trkpt lat="42.27167" lon="22.71228">
        <ele>579.954749</ele>
        <time>2022-04-06T11:24:51.878Z</time>
      </trkpt>
      <trkpt lat="42.27174" lon="22.71216">
        <ele>579.975036</ele>
        <time>2022-04-06T11:24:54.866Z</time>
      </trkpt>
      <trkpt lat="42.27181" lon="22.71204">
        <ele>579.99533</ele>
        <time>2022-04-06T11:24:57.870Z</time>
      </trkpt>
      <trkpt lat="42.27189" lon="22.71194">
        <ele>580.016587</ele>
        <time>2022-04-06T11:25:00.897Z</time>
      </trkpt>
      <trkpt lat="42.27198" lon="22.71185">
        <ele>580.036367</ele>
        <time>2022-04-06T11:25:03.875Z</time>
      </trkpt>
      <trkpt lat="42.27207" lon="22.71176">
        <ele>580.056469</ele>
        <time>2022-04-06T11:25:06.862Z</time>
      </trkpt>
      <trkpt lat="42.27215" lon="22.71167">
        <ele>580.075322</ele>
        <time>2022-04-06T11:25:09.889Z</time>
      </trkpt>
      <trkpt lat="42.27222" lon="22.7116">
        <ele>580.091796</ele>
        <time>2022-04-06T11:25:12.866Z</time>
      </trkpt>
      <trkpt lat="42.2723" lon="22.71152">
        <ele>580.232477</ele>
        <time>2022-04-06T11:25:15.873Z</time>
      </trkpt>
      <trkpt lat="42.27238" lon="22.71146">
        <ele>580.379669</ele>
        <time>2022-04-06T11:25:18.858Z</time>
      </trkpt>
      <trkpt lat="42.27245" lon="22.71138">
        <ele>580.531582</ele>
        <time>2022-04-06T11:25:21.902Z</time>
      </trkpt>
      <trkpt lat="42.27257" lon="22.71134">
        <ele>580.720202</ele>
        <time>2022-04-06T11:25:25.867Z</time>
      </trkpt>
      <trkpt lat="42.27266" lon="22.71133">
        <ele>580.867339</ele>
        <time>2022-04-06T11:25:29.867Z</time>
      </trkpt>
      <trkpt lat="42.27275" lon="22.71134">
        <ele>581.021479</ele>
        <time>2022-04-06T11:25:35.868Z</time>
      </trkpt>
      <trkpt lat="42.27285" lon="22.71135">
        <ele>581.186412</ele>
        <time>2022-04-06T11:25:42.870Z</time>
      </trkpt>
      <trkpt lat="42.27296" lon="22.71136">
        <ele>581.353201</ele>
        <time>2022-04-06T11:25:49.874Z</time>
      </trkpt>
      <trkpt lat="42.27306" lon="22.71135">
        <ele>581.514845</ele>
        <time>2022-04-06T11:25:56.882Z</time>
      </trkpt>
      <trkpt lat="42.27315" lon="22.71134">
        <ele>581.662562</ele>
        <time>2022-04-06T11:26:01.876Z</time>
      </trkpt>
      <trkpt lat="42.27324" lon="22.71134">
        <ele>581.81596</ele>
        <time>2022-04-06T11:26:07.876Z</time>
      </trkpt>
      <trkpt lat="42.27334" lon="22.71131">
        <ele>581.97854</ele>
        <time>2022-04-06T11:26:14.887Z</time>
      </trkpt>
      <trkpt lat="42.27344" lon="22.71127">
        <ele>582.141428</ele>
        <time>2022-04-06T11:26:20.882Z</time>
      </trkpt>
      <trkpt lat="42.27353" lon="22.71122">
        <ele>582.300457</ele>
        <time>2022-04-06T11:26:26.898Z</time>
      </trkpt>
      <trkpt lat="42.27362" lon="22.71116">
        <ele>582.460401</ele>
        <time>2022-04-06T11:26:32.887Z</time>
      </trkpt>
      <trkpt lat="42.2737" lon="22.71111">
        <ele>582.605621</ele>
        <time>2022-04-06T11:26:37.867Z</time>
      </trkpt>
      <trkpt lat="42.2738" lon="22.71106">
        <ele>582.776847</ele>
        <time>2022-04-06T11:26:43.868Z</time>
      </trkpt>
      <trkpt lat="42.27389" lon="22.711">
        <ele>582.940809</ele>
        <time>2022-04-06T11:26:49.877Z</time>
      </trkpt>
      <trkpt lat="42.27397" lon="22.71095">
        <ele>583.417277</ele>
        <time>2022-04-06T11:26:54.866Z</time>
      </trkpt>
      <trkpt lat="42.27407" lon="22.7109">
        <ele>584.201856</ele>
        <time>2022-04-06T11:27:00.868Z</time>
      </trkpt>
      <trkpt lat="42.27416" lon="22.71085">
        <ele>584.9907</ele>
        <time>2022-04-06T11:27:06.862Z</time>
      </trkpt>
      <trkpt lat="42.27425" lon="22.7108">
        <ele>585.735429</ele>
        <time>2022-04-06T11:27:12.856Z</time>
      </trkpt>
      <trkpt lat="42.27435" lon="22.71074">
        <ele>586.533216</ele>
        <time>2022-04-06T11:27:19.872Z</time>
      </trkpt>
      <trkpt lat="42.27444" lon="22.71068">
        <ele>587.343654</ele>
        <time>2022-04-06T11:27:26.858Z</time>
      </trkpt>
      <trkpt lat="42.27452" lon="22.71062">
        <ele>588.043776</ele>
        <time>2022-04-06T11:27:32.862Z</time>
      </trkpt>
      <trkpt lat="42.27461" lon="22.71058">
        <ele>588.745539</ele>
        <time>2022-04-06T11:27:38.865Z</time>
      </trkpt>
      <trkpt lat="42.2747" lon="22.71054">
        <ele>589.441186</ele>
        <time>2022-04-06T11:27:44.863Z</time>
      </trkpt>
      <trkpt lat="42.27479" lon="22.71049">
        <ele>590.226512</ele>
        <time>2022-04-06T11:27:51.875Z</time>
      </trkpt>
      <trkpt lat="42.27488" lon="22.71046">
        <ele>590.928275</ele>
        <time>2022-04-06T11:27:57.871Z</time>
      </trkpt>
      <trkpt lat="42.27498" lon="22.71042">
        <ele>591.71516</ele>
        <time>2022-04-06T11:28:03.874Z</time>
      </trkpt>
      <trkpt lat="42.27507" lon="22.71038">
        <ele>592.437323</ele>
        <time>2022-04-06T11:28:09.858Z</time>
      </trkpt>
      <trkpt lat="42.27516" lon="22.71034">
        <ele>593.17829</ele>
        <time>2022-04-06T11:28:16.887Z</time>
      </trkpt>
      <trkpt lat="42.27525" lon="22.7103">
        <ele>593.898178</ele>
        <time>2022-04-06T11:28:22.895Z</time>
      </trkpt>
      <trkpt lat="42.27534" lon="22.71024">
        <ele>594.663474</ele>
        <time>2022-04-06T11:28:29.864Z</time>
      </trkpt>
      <trkpt lat="42.27544" lon="22.71021">
        <ele>595.437068</ele>
        <time>2022-04-06T11:28:36.870Z</time>
      </trkpt>
      <trkpt lat="42.27552" lon="22.71017">
        <ele>596.14694</ele>
        <time>2022-04-06T11:28:42.864Z</time>
      </trkpt>
      <trkpt lat="42.27562" lon="22.71013">
        <ele>596.958749</ele>
        <time>2022-04-06T11:28:49.858Z</time>
      </trkpt>
      <trkpt lat="42.27572" lon="22.7101">
        <ele>597.75852</ele>
        <time>2022-04-06T11:28:56.873Z</time>
      </trkpt>
      <trkpt lat="42.27581" lon="22.71006">
        <ele>598.556055</ele>
        <time>2022-04-06T11:29:04.894Z</time>
      </trkpt>
      <trkpt lat="42.27591" lon="22.71002">
        <ele>599.411156</ele>
        <time>2022-04-06T11:29:12.868Z</time>
      </trkpt>
      <trkpt lat="42.276" lon="22.70998">
        <ele>600.205085</ele>
        <time>2022-04-06T11:29:20.874Z</time>
      </trkpt>
      <trkpt lat="42.27609" lon="22.70994">
        <ele>601.015208</ele>
        <time>2022-04-06T11:29:28.860Z</time>
      </trkpt>
      <trkpt lat="42.27618" lon="22.70991">
        <ele>601.796482</ele>
        <time>2022-04-06T11:29:35.860Z</time>
      </trkpt>
      <trkpt lat="42.27628" lon="22.70988">
        <ele>602.596252</ele>
        <time>2022-04-06T11:29:43.863Z</time>
      </trkpt>
      <trkpt lat="42.27637" lon="22.70985">
        <ele>603.385827</ele>
        <time>2022-04-06T11:29:51.870Z</time>
      </trkpt>
      <trkpt lat="42.27647" lon="22.70981">
        <ele>604.224981</ele>
        <time>2022-04-06T11:29:59.868Z</time>
      </trkpt>
      <trkpt lat="42.27656" lon="22.70977">
        <ele>605.02429</ele>
        <time>2022-04-06T11:30:07.861Z</time>
      </trkpt>
      <trkpt lat="42.27664" lon="22.70972">
        <ele>605.797005</ele>
        <time>2022-04-06T11:30:15.866Z</time>
      </trkpt>
      <trkpt lat="42.27674" lon="22.70969">
        <ele>606.615692</ele>
        <time>2022-04-06T11:30:22.866Z</time>
      </trkpt>
      <trkpt lat="42.27683" lon="22.70965">
        <ele>607.461983</ele>
        <time>2022-04-06T11:30:29.858Z</time>
      </trkpt>
      <trkpt lat="42.27693" lon="22.70958">
        <ele>608.324537</ele>
        <time>2022-04-06T11:30:36.860Z</time>
      </trkpt>
      <trkpt lat="42.27701" lon="22.7095">
        <ele>609.191989</ele>
        <time>2022-04-06T11:30:42.864Z</time>
      </trkpt>
      <trkpt lat="42.2771" lon="22.70942">
        <ele>610.070027</ele>
        <time>2022-04-06T11:30:48.867Z</time>
      </trkpt>
      <trkpt lat="42.27718" lon="22.70933">
        <ele>610.899989</ele>
        <time>2022-04-06T11:30:53.863Z</time>
      </trkpt>
      <trkpt lat="42.27724" lon="22.70923">
        <ele>611.723796</ele>
        <time>2022-04-06T11:30:57.866Z</time>
      </trkpt>
      <trkpt lat="42.27729" lon="22.70913">
        <ele>611.789566</ele>
        <time>2022-04-06T11:31:01.860Z</time>
      </trkpt>
      <trkpt lat="42.27736" lon="22.70903">
        <ele>611.836124</ele>
        <time>2022-04-06T11:31:04.861Z</time>
      </trkpt>
      <trkpt lat="42.27743" lon="22.7089">
        <ele>611.895298</ele>
        <time>2022-04-06T11:31:07.863Z</time>
      </trkpt>
      <trkpt lat="42.2775" lon="22.70876">
        <ele>611.950949</ele>
        <time>2022-04-06T11:31:10.872Z</time>
      </trkpt>
      <trkpt lat="42.27755" lon="22.70864">
        <ele>612.002606</ele>
        <time>2022-04-06T11:31:13.866Z</time>
      </trkpt>
      <trkpt lat="42.27762" lon="22.7085">
        <ele>612.061871</ele>
        <time>2022-04-06T11:31:16.865Z</time>
      </trkpt>
      <trkpt lat="42.27769" lon="22.70837">
        <ele>612.117635</ele>
        <time>2022-04-06T11:31:19.864Z</time>
      </trkpt>
      <trkpt lat="42.27776" lon="22.70823">
        <ele>612.178233</ele>
        <time>2022-04-06T11:31:22.863Z</time>
      </trkpt>
      <trkpt lat="42.27783" lon="22.70812">
        <ele>612.228745</ele>
        <time>2022-04-06T11:31:24.860Z</time>
      </trkpt>
      <trkpt lat="42.2779" lon="22.70802">
        <ele>612.277836</ele>
        <time>2022-04-06T11:31:26.894Z</time>
      </trkpt>
      <trkpt lat="42.27798" lon="22.70789">
        <ele>612.337681</ele>
        <time>2022-04-06T11:31:29.879Z</time>
      </trkpt>
      <trkpt lat="42.27806" lon="22.70777">
        <ele>612.393919</ele>
        <time>2022-04-06T11:31:32.885Z</time>
      </trkpt>
      <trkpt lat="42.27814" lon="22.70768">
        <ele>612.442008</ele>
        <time>2022-04-06T11:31:35.864Z</time>
      </trkpt>
      <trkpt lat="42.27821" lon="22.70758">
        <ele>612.489972</ele>
        <time>2022-04-06T11:31:38.889Z</time>
      </trkpt>
      <trkpt lat="42.27829" lon="22.70749">
        <ele>612.540917</ele>
        <time>2022-04-06T11:31:41.870Z</time>
      </trkpt>
      <trkpt lat="42.27838" lon="22.70741">
        <ele>612.591987</ele>
        <time>2022-04-06T11:31:44.888Z</time>
      </trkpt>
      <trkpt lat="42.27847" lon="22.70732">
        <ele>611.883921</ele>
        <time>2022-04-06T11:31:47.864Z</time>
      </trkpt>
      <trkpt lat="42.27856" lon="22.70722">
        <ele>610.884198</ele>
        <time>2022-04-06T11:31:50.888Z</time>
      </trkpt>
      <trkpt lat="42.27864" lon="22.70715">
        <ele>610.11604</ele>
        <time>2022-04-06T11:31:52.868Z</time>
      </trkpt>
      <trkpt lat="42.27872" lon="22.70707">
        <ele>609.262499</ele>
        <time>2022-04-06T11:31:54.864Z</time>
      </trkpt>
      <trkpt lat="42.27879" lon="22.70692">
        <ele>608.186978</ele>
        <time>2022-04-06T11:31:57.863Z</time>
      </trkpt>
      <trkpt lat="42.27883" lon="22.70676">
        <ele>607.163115</ele>
        <time>2022-04-06T11:32:00.858Z</time>
      </trkpt>
      <trkpt lat="42.27885" lon="22.70658">
        <ele>606.043779</ele>
        <time>2022-04-06T11:32:03.872Z</time>
      </trkpt>
      <trkpt lat="42.27887" lon="22.70645">
        <ele>605.22171</ele>
        <time>2022-04-06T11:32:05.873Z</time>
      </trkpt>
      <trkpt lat="42.27889" lon="22.70629">
        <ele>604.220798</ele>
        <time>2022-04-06T11:32:08.890Z</time>
      </trkpt>
      <trkpt lat="42.27889" lon="22.70613">
        <ele>603.201416</ele>
        <time>2022-04-06T11:32:11.866Z</time>
      </trkpt>
      <trkpt lat="42.27892" lon="22.70595">
        <ele>602.048542</ele>
        <time>2022-04-06T11:32:14.892Z</time>
      </trkpt>
      <trkpt lat="42.27893" lon="22.70581">
        <ele>601.212468</ele>
        <time>2022-04-06T11:32:16.861Z</time>
      </trkpt>
      <trkpt lat="42.27894" lon="22.70569">
        <ele>600.449635</ele>
        <time>2022-04-06T11:32:18.864Z</time>
      </trkpt>
      <trkpt lat="42.27895" lon="22.70554">
        <ele>599.548229</ele>
        <time>2022-04-06T11:32:20.891Z</time>
      </trkpt>
      <trkpt lat="42.27897" lon="22.70538">
        <ele>598.528305</ele>
        <time>2022-04-06T11:32:22.864Z</time>
      </trkpt>
      <trkpt lat="42.27898" lon="22.70523">
        <ele>597.582088</ele>
        <time>2022-04-06T11:32:24.859Z</time>
      </trkpt>
      <trkpt lat="42.27899" lon="22.70509">
        <ele>597.206884</ele>
        <time>2022-04-06T11:32:26.886Z</time>
      </trkpt>
      <trkpt lat="42.27901" lon="22.70493">
        <ele>596.784463</ele>
        <time>2022-04-06T11:32:28.862Z</time>
      </trkpt>
      <trkpt lat="42.27903" lon="22.70476">
        <ele>596.328348</ele>
        <time>2022-04-06T11:32:30.860Z</time>
      </trkpt>
      <trkpt lat="42.27905" lon="22.70461">
        <ele>595.932563</ele>
        <time>2022-04-06T11:32:32.887Z</time>
      </trkpt>
      <trkpt lat="42.27907" lon="22.70445">
        <ele>595.497149</ele>
        <time>2022-04-06T11:32:35.858Z</time>
      </trkpt>
      <trkpt lat="42.27907" lon="22.7043">
        <ele>595.09507</ele>
        <time>2022-04-06T11:32:38.862Z</time>
      </trkpt>
      <trkpt lat="42.27908" lon="22.70417">
        <ele>594.772474</ele>
        <time>2022-04-06T11:32:41.897Z</time>
      </trkpt>
      <trkpt lat="42.27911" lon="22.70406">
        <ele>594.438991</ele>
        <time>2022-04-06T11:32:45.877Z</time>
      </trkpt>
      <trkpt lat="42.27914" lon="22.70391">
        <ele>594.031839</ele>
        <time>2022-04-06T11:32:50.858Z</time>
      </trkpt>
      <trkpt lat="42.27918" lon="22.70378">
        <ele>593.664891</ele>
        <time>2022-04-06T11:32:54.873Z</time>
      </trkpt>
      <trkpt lat="42.27921" lon="22.70365">
        <ele>593.30289</ele>
        <time>2022-04-06T11:32:58.871Z</time>
      </trkpt>
      <trkpt lat="42.27925" lon="22.70354">
        <ele>592.982815</ele>
        <time>2022-04-06T11:33:02.866Z</time>
      </trkpt>
      <trkpt lat="42.2793" lon="22.70342">
        <ele>592.626213</ele>
        <time>2022-04-06T11:33:06.865Z</time>
      </trkpt>
      <trkpt lat="42.27936" lon="22.70331">
        <ele>592.257838</ele>
        <time>2022-04-06T11:33:10.873Z</time>
      </trkpt>
      <trkpt lat="42.27941" lon="22.70318">
        <ele>591.870075</ele>
        <time>2022-04-06T11:33:14.858Z</time>
      </trkpt>
      <trkpt lat="42.27946" lon="22.70306">
        <ele>591.513366</ele>
        <time>2022-04-06T11:33:18.888Z</time>
      </trkpt>
      <trkpt lat="42.27952" lon="22.70293">
        <ele>591.175772</ele>
        <time>2022-04-06T11:33:23.868Z</time>
      </trkpt>
      <trkpt lat="42.27957" lon="22.70281">
        <ele>591.299178</ele>
        <time>2022-04-06T11:33:26.862Z</time>
      </trkpt>
      <trkpt lat="42.27962" lon="22.70268">
        <ele>591.434717</ele>
        <time>2022-04-06T11:33:30.891Z</time>
      </trkpt>
      <trkpt lat="42.27965" lon="22.70255">
        <ele>591.55856</ele>
        <time>2022-04-06T11:33:33.864Z</time>
      </trkpt>
      <trkpt lat="42.27969" lon="22.70243">
        <ele>591.674394</ele>
        <time>2022-04-06T11:33:36.895Z</time>
      </trkpt>
      <trkpt lat="42.27974" lon="22.70232">
        <ele>591.796851</ele>
        <time>2022-04-06T11:33:39.862Z</time>
      </trkpt>
      <trkpt lat="42.27979" lon="22.70221">
        <ele>591.91509</ele>
        <time>2022-04-06T11:33:42.888Z</time>
      </trkpt>
      <trkpt lat="42.27984" lon="22.70208">
        <ele>592.047026</ele>
        <time>2022-04-06T11:33:46.860Z</time>
      </trkpt>
      <trkpt lat="42.2799" lon="22.70195">
        <ele>592.188539</ele>
        <time>2022-04-06T11:33:50.857Z</time>
      </trkpt>
      <trkpt lat="42.27995" lon="22.70184">
        <ele>592.300688</ele>
        <time>2022-04-06T11:33:53.858Z</time>
      </trkpt>
      <trkpt lat="42.28001" lon="22.70174">
        <ele>592.421369</ele>
        <time>2022-04-06T11:33:57.862Z</time>
      </trkpt>
      <trkpt lat="42.28006" lon="22.70163">
        <ele>592.53403</ele>
        <time>2022-04-06T11:34:01.859Z</time>
      </trkpt>
      <trkpt lat="42.28011" lon="22.70149">
        <ele>592.68055</ele>
        <time>2022-04-06T11:34:05.872Z</time>
      </trkpt>
      <trkpt lat="42.28016" lon="22.70138">
        <ele>592.79159</ele>
        <time>2022-04-06T11:34:08.905Z</time>
      </trkpt>
      <trkpt lat="42.28021" lon="22.70128">
        <ele>592.901813</ele>
        <time>2022-04-06T11:34:11.877Z</time>
      </trkpt>
      <trkpt lat="42.28028" lon="22.70117">
        <ele>593.032522</ele>
        <time>2022-04-06T11:34:14.872Z</time>
      </trkpt>
      <trkpt lat="42.28034" lon="22.70108">
        <ele>593.150323</ele>
        <time>2022-04-06T11:34:16.856Z</time>
      </trkpt>
      <trkpt lat="42.28041" lon="22.70097">
        <ele>593.27823</ele>
        <time>2022-04-06T11:34:18.861Z</time>
      </trkpt>
      <trkpt lat="42.28048" lon="22.70088">
        <ele>593.233684</ele>
        <time>2022-04-06T11:34:20.859Z</time>
      </trkpt>
      <trkpt lat="42.28055" lon="22.7008">
        <ele>592.819725</ele>
        <time>2022-04-06T11:34:22.906Z</time>
      </trkpt>
      <trkpt lat="42.28066" lon="22.70068">
        <ele>592.213766</ele>
        <time>2022-04-06T11:34:25.875Z</time>
      </trkpt>
      <trkpt lat="42.28074" lon="22.70062">
        <ele>591.803811</ele>
        <time>2022-04-06T11:34:27.858Z</time>
      </trkpt>
      <trkpt lat="42.28085" lon="22.70052">
        <ele>591.234542</ele>
        <time>2022-04-06T11:34:30.860Z</time>
      </trkpt>
      <trkpt lat="42.28096" lon="22.70042">
        <ele>590.650531</ele>
        <time>2022-04-06T11:34:33.863Z</time>
      </trkpt>
      <trkpt lat="42.28103" lon="22.70033">
        <ele>590.232282</ele>
        <time>2022-04-06T11:34:35.898Z</time>
      </trkpt>
      <trkpt lat="42.28109" lon="22.70025">
        <ele>589.828189</ele>
        <time>2022-04-06T11:34:37.878Z</time>
      </trkpt>
      <trkpt lat="42.28116" lon="22.70017">
        <ele>589.406595</ele>
        <time>2022-04-06T11:34:39.877Z</time>
      </trkpt>
      <trkpt lat="42.28124" lon="22.70009">
        <ele>588.99963</ele>
        <time>2022-04-06T11:34:41.890Z</time>
      </trkpt>
      <trkpt lat="42.28131" lon="22.7">
        <ele>588.567038</ele>
        <time>2022-04-06T11:34:43.865Z</time>
      </trkpt>
      <trkpt lat="42.28139" lon="22.6999">
        <ele>588.058622</ele>
        <time>2022-04-06T11:34:46.861Z</time>
      </trkpt>
      <trkpt lat="42.28148" lon="22.69979">
        <ele>587.540107</ele>
        <time>2022-04-06T11:34:49.883Z</time>
      </trkpt>
      <trkpt lat="42.28157" lon="22.6997">
        <ele>587.055365</ele>
        <time>2022-04-06T11:34:51.899Z</time>
      </trkpt>
      <trkpt lat="42.28167" lon="22.6996">
        <ele>586.480497</ele>
        <time>2022-04-06T11:34:53.870Z</time>
      </trkpt>
      <trkpt lat="42.28177" lon="22.69951">
        <ele>585.940582</ele>
        <time>2022-04-06T11:34:55.864Z</time>
      </trkpt>
      <trkpt lat="42.28187" lon="22.69941">
        <ele>585.417043</ele>
        <time>2022-04-06T11:34:57.866Z</time>
      </trkpt>
      <trkpt lat="42.28196" lon="22.69932">
        <ele>584.870505</ele>
        <time>2022-04-06T11:34:59.875Z</time>
      </trkpt>
      <trkpt lat="42.28205" lon="22.69923">
        <ele>584.354818</ele>
        <time>2022-04-06T11:35:01.871Z</time>
      </trkpt>
      <trkpt lat="42.28216" lon="22.6991">
        <ele>583.649911</ele>
        <time>2022-04-06T11:35:04.863Z</time>
      </trkpt>
      <trkpt lat="42.28224" lon="22.69901">
        <ele>583.120103</ele>
        <time>2022-04-06T11:35:06.868Z</time>
      </trkpt>
      <trkpt lat="42.28231" lon="22.69893">
        <ele>582.656035</ele>
        <time>2022-04-06T11:35:08.861Z</time>
      </trkpt>
      <trkpt lat="42.28239" lon="22.69884">
        <ele>582.172955</ele>
        <time>2022-04-06T11:35:10.880Z</time>
      </trkpt>
      <trkpt lat="42.28247" lon="22.69874">
        <ele>581.639539</ele>
        <time>2022-04-06T11:35:12.865Z</time>
      </trkpt>
      <trkpt lat="42.28255" lon="22.69864">
        <ele>581.128796</ele>
        <time>2022-04-06T11:35:14.860Z</time>
      </trkpt>
      <trkpt lat="42.28264" lon="22.69856">
        <ele>580.58928</ele>
        <time>2022-04-06T11:35:17.868Z</time>
      </trkpt>
      <trkpt lat="42.28271" lon="22.69845">
        <ele>580.085142</ele>
        <time>2022-04-06T11:35:23.870Z</time>
      </trkpt>
      <trkpt lat="42.28278" lon="22.69836">
        <ele>579.628426</ele>
        <time>2022-04-06T11:35:28.865Z</time>
      </trkpt>
      <trkpt lat="42.28277" lon="22.69824">
        <ele>579.181197</ele>
        <time>2022-04-06T11:35:32.884Z</time>
      </trkpt>
      <trkpt lat="42.28272" lon="22.69813">
        <ele>578.713851</ele>
        <time>2022-04-06T11:35:36.864Z</time>
      </trkpt>
      <trkpt lat="42.28268" lon="22.698">
        <ele>578.231981</ele>
        <time>2022-04-06T11:35:40.863Z</time>
      </trkpt>
      <trkpt lat="42.28261" lon="22.6979">
        <ele>577.739471</ele>
        <time>2022-04-06T11:35:44.892Z</time>
      </trkpt>
      <trkpt lat="42.28255" lon="22.6978">
        <ele>577.282004</ele>
        <time>2022-04-06T11:35:47.861Z</time>
      </trkpt>
      <trkpt lat="42.28248" lon="22.69767">
        <ele>576.714785</ele>
        <time>2022-04-06T11:35:51.874Z</time>
      </trkpt>
      <trkpt lat="42.28245" lon="22.69755">
        <ele>576.732438</ele>
        <time>2022-04-06T11:35:54.858Z</time>
      </trkpt>
      <trkpt lat="42.28243" lon="22.69743">
        <ele>576.77978</ele>
        <time>2022-04-06T11:35:57.868Z</time>
      </trkpt>
      <trkpt lat="42.28239" lon="22.69728">
        <ele>576.841332</ele>
        <time>2022-04-06T11:36:01.887Z</time>
      </trkpt>
      <trkpt lat="42.28233" lon="22.69715">
        <ele>576.898686</ele>
        <time>2022-04-06T11:36:05.875Z</time>
      </trkpt>
      <trkpt lat="42.28226" lon="22.69706">
        <ele>576.949486</ele>
        <time>2022-04-06T11:36:08.868Z</time>
      </trkpt>
      <trkpt lat="42.28219" lon="22.69696">
        <ele>577.00126</ele>
        <time>2022-04-06T11:36:12.863Z</time>
      </trkpt>
      <trkpt lat="42.28213" lon="22.69685">
        <ele>577.053824</ele>
        <time>2022-04-06T11:36:16.860Z</time>
      </trkpt>
      <trkpt lat="42.28205" lon="22.69675">
        <ele>577.110023</ele>
        <time>2022-04-06T11:36:20.870Z</time>
      </trkpt>
      <trkpt lat="42.28195" lon="22.69667">
        <ele>577.172105</ele>
        <time>2022-04-06T11:36:24.882Z</time>
      </trkpt>
      <trkpt lat="42.28188" lon="22.69655">
        <ele>577.229397</ele>
        <time>2022-04-06T11:36:29.866Z</time>
      </trkpt>
      <trkpt lat="42.28182" lon="22.69646">
        <ele>577.278218</ele>
        <time>2022-04-06T11:36:33.875Z</time>
      </trkpt>
      <trkpt lat="42.28177" lon="22.69634">
        <ele>577.330142</ele>
        <time>2022-04-06T11:36:37.865Z</time>
      </trkpt>
      <trkpt lat="42.28175" lon="22.6962">
        <ele>577.384081</ele>
        <time>2022-04-06T11:36:41.861Z</time>
      </trkpt>
      <trkpt lat="42.28172" lon="22.69605">
        <ele>577.443211</ele>
        <time>2022-04-06T11:36:46.863Z</time>
      </trkpt>
      <trkpt lat="42.28166" lon="22.69594">
        <ele>577.496126</ele>
        <time>2022-04-06T11:36:51.860Z</time>
      </trkpt>
      <trkpt lat="42.28159" lon="22.69584">
        <ele>577.548649</ele>
        <time>2022-04-06T11:36:55.860Z</time>
      </trkpt>
      <trkpt lat="42.2815" lon="22.69573">
        <ele>577.610516</ele>
        <time>2022-04-06T11:36:59.870Z</time>
      </trkpt>
      <trkpt lat="42.28141" lon="22.69565">
        <ele>578.340099</ele>
        <time>2022-04-06T11:37:03.866Z</time>
      </trkpt>
      <trkpt lat="42.28132" lon="22.69556">
        <ele>579.187016</ele>
        <time>2022-04-06T11:37:06.865Z</time>
      </trkpt>
      <trkpt lat="42.28129" lon="22.69542">
        <ele>580.044162</ele>
        <time>2022-04-06T11:37:10.858Z</time>
      </trkpt>
      <trkpt lat="42.28129" lon="22.69527">
        <ele>580.877949</ele>
        <time>2022-04-06T11:37:15.866Z</time>
      </trkpt>
      <trkpt lat="42.28124" lon="22.69513">
        <ele>581.784165</ele>
        <time>2022-04-06T11:37:19.864Z</time>
      </trkpt>
      <trkpt lat="42.28119" lon="22.69502">
        <ele>582.519897</ele>
        <time>2022-04-06T11:37:22.857Z</time>
      </trkpt>
      <trkpt lat="42.28114" lon="22.69488">
        <ele>583.386716</ele>
        <time>2022-04-06T11:37:26.859Z</time>
      </trkpt>
      <trkpt lat="42.28107" lon="22.69478">
        <ele>584.149107</ele>
        <time>2022-04-06T11:37:30.866Z</time>
      </trkpt>
      <trkpt lat="42.281" lon="22.69469">
        <ele>584.932138</ele>
        <time>2022-04-06T11:37:34.883Z</time>
      </trkpt>
      <trkpt lat="42.28093" lon="22.69459">
        <ele>585.695679</ele>
        <time>2022-04-06T11:37:37.866Z</time>
      </trkpt>
      <trkpt lat="42.28087" lon="22.69447">
        <ele>586.504403</ele>
        <time>2022-04-06T11:37:41.865Z</time>
      </trkpt>
      <trkpt lat="42.28081" lon="22.69437">
        <ele>587.26303</ele>
        <time>2022-04-06T11:37:45.865Z</time>
      </trkpt>
      <trkpt lat="42.28074" lon="22.69426">
        <ele>588.087235</ele>
        <time>2022-04-06T11:37:49.869Z</time>
      </trkpt>
      <trkpt lat="42.28068" lon="22.69417">
        <ele>588.791165</ele>
        <time>2022-04-06T11:37:52.890Z</time>
      </trkpt>
      <trkpt lat="42.28063" lon="22.69406">
        <ele>589.540033</ele>
        <time>2022-04-06T11:37:55.874Z</time>
      </trkpt>
      <trkpt lat="42.2806" lon="22.69392">
        <ele>590.380413</ele>
        <time>2022-04-06T11:37:58.884Z</time>
      </trkpt>
      <trkpt lat="42.28055" lon="22.69379">
        <ele>591.201117</ele>
        <time>2022-04-06T11:38:01.873Z</time>
      </trkpt>
      <trkpt lat="42.28047" lon="22.6937">
        <ele>591.334258</ele>
        <time>2022-04-06T11:38:04.873Z</time>
      </trkpt>
      <trkpt lat="42.28038" lon="22.69361">
        <ele>591.035901</ele>
        <time>2022-04-06T11:38:07.881Z</time>
      </trkpt>
      <trkpt lat="42.28031" lon="22.69348">
        <ele>590.748446</ele>
        <time>2022-04-06T11:38:10.869Z</time>
      </trkpt>
      <trkpt lat="42.28024" lon="22.69335">
        <ele>590.445821</ele>
        <time>2022-04-06T11:38:13.864Z</time>
      </trkpt>
      <trkpt lat="42.28018" lon="22.69319">
        <ele>590.107805</ele>
        <time>2022-04-06T11:38:16.865Z</time>
      </trkpt>
      <trkpt lat="42.2801" lon="22.69305">
        <ele>589.787194</ele>
        <time>2022-04-06T11:38:19.871Z</time>
      </trkpt>
      <trkpt lat="42.28004" lon="22.69291">
        <ele>589.464001</ele>
        <time>2022-04-06T11:38:22.874Z</time>
      </trkpt>
      <trkpt lat="42.27998" lon="22.69276">
        <ele>589.163464</ele>
        <time>2022-04-06T11:38:25.867Z</time>
      </trkpt>
      <trkpt lat="42.27993" lon="22.69262">
        <ele>588.862696</ele>
        <time>2022-04-06T11:38:28.860Z</time>
      </trkpt>
      <trkpt lat="42.27987" lon="22.69248">
        <ele>588.55405</ele>
        <time>2022-04-06T11:38:31.867Z</time>
      </trkpt>
      <trkpt lat="42.2798" lon="22.69234">
        <ele>588.243506</ele>
        <time>2022-04-06T11:38:34.863Z</time>
      </trkpt>
      <trkpt lat="42.27977" lon="22.69222">
        <ele>588.011538</ele>
        <time>2022-04-06T11:38:37.878Z</time>
      </trkpt>
      <trkpt lat="42.27974" lon="22.69208">
        <ele>587.734638</ele>
        <time>2022-04-06T11:38:41.861Z</time>
      </trkpt>
      <trkpt lat="42.27971" lon="22.69195">
        <ele>587.49195</ele>
        <time>2022-04-06T11:38:44.887Z</time>
      </trkpt>
      <trkpt lat="42.27968" lon="22.69182">
        <ele>587.222408</ele>
        <time>2022-04-06T11:38:47.863Z</time>
      </trkpt>
      <trkpt lat="42.27966" lon="22.69169">
        <ele>586.972993</ele>
        <time>2022-04-06T11:38:50.884Z</time>
      </trkpt>
      <trkpt lat="42.27965" lon="22.69156">
        <ele>586.938953</ele>
        <time>2022-04-06T11:38:53.880Z</time>
      </trkpt>
      <trkpt lat="42.27964" lon="22.69141">
        <ele>586.938953</ele>
        <time>2022-04-06T11:38:57.866Z</time>
      </trkpt>
      <trkpt lat="42.27963" lon="22.69127">
        <ele>586.938953</ele>
        <time>2022-04-06T11:39:01.860Z</time>
      </trkpt>
      <trkpt lat="42.2796" lon="22.69114">
        <ele>586.938953</ele>
        <time>2022-04-06T11:39:04.862Z</time>
      </trkpt>
      <trkpt lat="42.27958" lon="22.691">
        <ele>586.938953</ele>
        <time>2022-04-06T11:39:07.892Z</time>
      </trkpt>
      <trkpt lat="42.27956" lon="22.69087">
        <ele>586.938953</ele>
        <time>2022-04-06T11:39:10.862Z</time>
      </trkpt>
      <trkpt lat="42.27954" lon="22.69075">
        <ele>586.938953</ele>
        <time>2022-04-06T11:39:13.891Z</time>
      </trkpt>
      <trkpt lat="42.27953" lon="22.69058">
        <ele>586.938953</ele>
        <time>2022-04-06T11:39:17.871Z</time>
      </trkpt>
      <trkpt lat="42.2795" lon="22.69047">
        <ele>586.938953</ele>
        <time>2022-04-06T11:39:20.862Z</time>
      </trkpt>
      <trkpt lat="42.27946" lon="22.69036">
        <ele>586.938953</ele>
        <time>2022-04-06T11:39:23.871Z</time>
      </trkpt>
      <trkpt lat="42.27941" lon="22.69021">
        <ele>586.938953</ele>
        <time>2022-04-06T11:39:27.860Z</time>
      </trkpt>
      <trkpt lat="42.27941" lon="22.69009">
        <ele>586.938953</ele>
        <time>2022-04-06T11:39:30.859Z</time>
      </trkpt>
      <trkpt lat="42.27938" lon="22.68996">
        <ele>586.938953</ele>
        <time>2022-04-06T11:39:33.858Z</time>
      </trkpt>
      <trkpt lat="42.27933" lon="22.68985">
        <ele>586.938953</ele>
        <time>2022-04-06T11:39:36.875Z</time>
      </trkpt>
      <trkpt lat="42.27927" lon="22.68975">
        <ele>586.938953</ele>
        <time>2022-04-06T11:39:40.876Z</time>
      </trkpt>
      <trkpt lat="42.27919" lon="22.68965">
        <ele>586.938953</ele>
        <time>2022-04-06T11:39:44.863Z</time>
      </trkpt>
      <trkpt lat="42.27914" lon="22.68955">
        <ele>586.938953</ele>
        <time>2022-04-06T11:39:49.864Z</time>
      </trkpt>
      <trkpt lat="42.27906" lon="22.68943">
        <ele>586.938953</ele>
        <time>2022-04-06T11:39:54.886Z</time>
      </trkpt>
      <trkpt lat="42.279" lon="22.68932">
        <ele>586.938953</ele>
        <time>2022-04-06T11:39:58.862Z</time>
      </trkpt>
      <trkpt lat="42.27897" lon="22.6892">
        <ele>586.938953</ele>
        <time>2022-04-06T11:40:03.865Z</time>
      </trkpt>
      <trkpt lat="42.27891" lon="22.68908">
        <ele>586.938953</ele>
        <time>2022-04-06T11:40:09.859Z</time>
      </trkpt>
      <trkpt lat="42.27886" lon="22.68897">
        <ele>586.938953</ele>
        <time>2022-04-06T11:40:16.866Z</time>
      </trkpt>
      <trkpt lat="42.27885" lon="22.68885">
        <ele>586.938953</ele>
        <time>2022-04-06T11:40:21.854Z</time>
      </trkpt>
      <trkpt lat="42.27883" lon="22.68873">
        <ele>586.938953</ele>
        <time>2022-04-06T11:40:26.859Z</time>
      </trkpt>
      <trkpt lat="42.27888" lon="22.68864">
        <ele>586.938953</ele>
        <time>2022-04-06T11:41:20.832Z</time>
      </trkpt>
    </trkseg>
  </trk>
</gpx>